GFSWCAN_prec_precacc_027.txt.gz
Total_Precipitation_Accumulation
0.34 0.08 0.04 0.02 0.00 0.00 0.00 0.00 0.00 0.00 0.00 0.00 0.00 0.00 0.00 0.00 0.00 0.00 0.00 0.00 0.00 0.00 0.00 0.00 0.00 0.00 0.00 0.00 0.00 0.00 0.00 0.00 0.00 0.00 0.00 0.00 0.00 0.00 0.00 0.00 0.00 0.00 0.00 0.00 0.01 0.01 0.01 0.00 0.00 0.02 0.03 0.02 0.02 0.01
0.50 0.16 0.03 0.00 0.00 0.00 0.00 0.00 0.00 0.01 0.00 0.01 0.01 0.00 0.00 0.00 0.00 0.00 0.02 0.01 0.00 0.00 0.00 0.00 0.00 0.00 0.00 0.00 0.00 0.00 0.00 0.00 0.00 0.00 0.00 0.00 0.00 0.00 0.00 0.00 0.00 0.00 0.00 0.00 0.02 0.01 0.00 0.00 0.01 0.02 0.01 0.04 0.03 0.01
0.67 0.28 0.10 0.01 0.00 0.00 0.00 0.00 0.00 0.02 0.01 0.01 0.01 0.01 0.00 0.00 0.00 0.00 0.01 0.01 0.00 0.00 0.00 0.00 0.00 0.00 0.00 0.00 0.00 0.00 0.00 0.00 0.00 0.00 0.00 0.00 0.01 0.00 0.00 0.00 0.00 0.00 0.00 0.00 0.01 0.00 0.00 0.01 0.00 0.01 0.01 0.00 0.00 0.01
0.73 0.43 0.20 0.05 0.00 0.00 0.00 0.00 0.00 0.02 0.01 0.01 0.01 0.01 0.01 0.00 0.00 0.00 0.00 0.00 0.00 0.00 0.04 0.00 0.00 0.00 0.00 0.00 0.00 0.00 0.00 0.00 0.00 0.00 0.00 0.01 0.01 0.00 0.00 0.00 0.00 0.00 0.00 0.00 0.01 0.00 0.01 0.02 0.04 0.03 0.01 0.01 0.00 0.00
0.62 0.46 0.27 0.09 0.04 0.01 0.00 0.00 0.01 0.01 0.01 0.03 0.03 0.02 0.01 0.01 0.00 0.00 0.00 0.00 0.00 0.02 0.02 0.00 0.00 0.00 0.00 0.00 0.00 0.00 0.00 0.00 0.00 0.00 0.01 0.01 0.00 0.00 0.01 0.04 0.04 0.00 0.00 0.02 0.02 0.02 0.04 0.08 0.04 0.03 0.02 0.01 0.00 0.00
0.50 0.37 0.32 0.15 0.07 0.07 0.02 0.01 0.01 0.01 0.01 0.02 0.02 0.02 0.00 0.00 0.00 0.00 0.00 0.00 0.00 0.00 0.00 0.01 0.00 0.00 0.00 0.00 0.00 0.00 0.00 0.00 0.00 0.00 0.01 0.01 0.00 0.01 0.07 0.05 0.00 0.00 0.00 0.01 0.02 0.02 0.05 0.06 0.02 0.00 0.01 0.00 0.00 0.00
0.38 0.29 0.27 0.18 0.11 0.09 0.12 0.06 0.02 0.01 0.01 0.01 0.01 0.01 0.00 0.00 0.01 0.02 0.02 0.01 0.00 0.01 0.03 0.02 0.00 0.00 0.00 0.00 0.00 0.00 0.00 0.00 0.00 0.02 0.01 0.00 0.00 0.07 0.11 0.03 0.00 0.00 0.00 0.00 0.00 0.02 0.03 0.01 0.01 0.00 0.00 0.00 0.00 0.00
0.28 0.19 0.15 0.14 0.12 0.14 0.16 0.20 0.11 0.05 0.03 0.01 0.01 0.01 0.02 0.04 0.02 0.03 0.01 0.00 0.00 0.02 0.02 0.01 0.00 0.00 0.00 0.00 0.00 0.00 0.02 0.03 0.02 0.03 0.01 0.00 0.01 0.04 0.05 0.00 0.00 0.00 0.00 0.00 0.00 0.01 0.04 0.03 0.01 0.00 0.00 0.00 0.00 0.01
0.18 0.12 0.06 0.06 0.08 0.09 0.15 0.24 0.27 0.20 0.11 0.10 0.09 0.10 0.11 0.08 0.06 0.03 0.03 0.03 0.01 0.06 0.05 0.01 0.00 0.00 0.00 0.00 0.00 0.00 0.01 0.01 0.01 0.01 0.01 0.01 0.02 0.04 0.01 0.00 0.00 0.00 0.00 0.00 0.01 0.00 0.00 0.01 0.01 0.00 0.01 0.02 0.08 0.19
0.13 0.07 0.02 0.02 0.01 0.03 0.06 0.16 0.27 0.40 0.57 0.76 0.65 0.50 0.29 0.16 0.17 0.11 0.15 0.25 0.32 0.25 0.12 0.05 0.02 0.01 0.00 0.00 0.00 0.02 0.05 0.02 0.01 0.00 0.00 0.00 0.00 0.00 0.00 0.00 0.00 0.00 0.00 0.00 0.00 0.00 0.02 0.03 0.05 0.08 0.15 0.19 0.21 0.17
0.13 0.08 0.03 0.01 0.01 0.01 0.04 0.12 0.30 0.57 1.33 1.55 1.36 0.88 0.45 0.39 0.19 0.29 0.34 0.33 0.27 0.15 0.09 0.09 0.07 0.05 0.02 0.04 0.11 0.21 0.20 0.07 0.04 0.01 0.01 0.02 0.00 0.00 0.00 0.00 0.00 0.00 0.00 0.00 0.00 0.01 0.04 0.10 0.24 0.24 0.15 0.09 0.06 0.02
0.13 0.09 0.05 0.02 0.01 0.02 0.03 0.14 0.33 0.61 1.05 1.47 1.13 0.74 0.66 0.85 0.70 0.80 0.80 0.39 0.12 0.05 0.03 0.01 0.02 0.04 0.10 0.10 0.14 0.28 0.23 0.17 0.10 0.01 0.04 0.03 0.01 0.00 0.00 0.00 0.00 0.00 0.00 0.02 0.07 0.15 0.18 0.18 0.13 0.09 0.04 0.02 0.01 0.01
0.14 0.10 0.09 0.06 0.02 0.04 0.04 0.11 0.16 0.29 0.53 0.91 1.13 1.28 1.22 1.45 1.25 0.91 0.47 0.20 0.07 0.02 0.01 0.01 0.04 0.08 0.09 0.08 0.24 0.31 0.34 0.25 0.08 0.07 0.06 0.08 0.06 0.06 0.08 0.07 0.08 0.10 0.11 0.13 0.10 0.09 0.07 0.04 0.01 0.00 0.01 0.00 0.00 0.00
0.06 0.06 0.08 0.08 0.07 0.10 0.13 0.11 0.16 0.31 0.39 0.75 0.99 1.27 1.05 1.09 0.73 0.46 0.19 0.07 0.06 0.05 0.02 0.02 0.05 0.06 0.08 0.15 0.43 0.55 0.55 0.30 0.29 0.16 0.10 0.17 0.27 0.24 0.06 0.01 0.01 0.01 0.01 0.01 0.00 0.00 0.00 0.00 0.00 0.00 0.00 0.00 0.00 0.00
0.07 0.01 0.01 0.03 0.04 0.08 0.17 0.18 0.13 0.09 0.14 0.24 0.31 0.52 0.53 0.42 0.30 0.20 0.17 0.16 0.16 0.17 0.22 0.26 0.31 0.28 0.30 0.45 0.44 0.38 0.35 0.32 0.26 0.28 0.28 0.25 0.27 0.13 0.00 0.00 0.01 0.03 0.03 0.01 0.00 0.00 0.00 0.00 0.00 0.00 0.00 0.00 0.00 0.00
0.21 0.05 0.01 0.00 0.01 0.03 0.05 0.17 0.10 0.11 0.10 0.08 0.12 0.20 0.24 0.19 0.21 0.23 0.25 0.27 0.27 0.34 0.34 0.34 0.34 0.33 0.39 0.35 0.28 0.28 0.28 0.31 0.32 0.12 0.04 0.05 0.07 0.07 0.07 0.06 0.09 0.08 0.02 0.00 0.00 0.00 0.00 0.00 0.00 0.00 0.00 0.00 0.00 0.00
0.37 0.09 0.01 0.00 0.00 0.04 0.07 0.09 0.15 0.11 0.10 0.01 0.01 0.03 0.05 0.07 0.09 0.14 0.15 0.14 0.15 0.19 0.21 0.16 0.16 0.17 0.17 0.19 0.23 0.21 0.23 0.16 0.06 0.02 0.02 0.02 0.01 0.00 0.00 0.00 0.00 0.00 0.00 0.00 0.00 0.00 0.00 0.00 0.00 0.00 0.00 0.00 0.00 0.00
0.44 0.09 0.01 0.00 0.01 0.02 0.08 0.02 0.07 0.03 0.00 0.01 0.01 0.01 0.01 0.01 0.01 0.01 0.01 0.00 0.00 0.01 0.02 0.02 0.02 0.03 0.08 0.10 0.10 0.05 0.04 0.02 0.02 0.00 0.00 0.00 0.00 0.00 0.00 0.00 0.00 0.00 0.00 0.00 0.00 0.00 0.00 0.00 0.00 0.00 0.00 0.00 0.00 0.00
0.26 0.18 0.04 0.05 0.01 0.01 0.07 0.05 0.01 0.00 0.00 0.01 0.02 0.02 0.02 0.01 0.01 0.00 0.00 0.00 0.00 0.00 0.00 0.00 0.00 0.00 0.00 0.00 0.00 0.00 0.00 0.00 0.00 0.00 0.00 0.00 0.00 0.00 0.00 0.00 0.00 0.00 0.00 0.00 0.00 0.00 0.00 0.00 0.00 0.00 0.00 0.00 0.01 0.02
0.50 0.46 0.25 0.13 0.01 0.00 0.00 0.01 0.00 0.00 0.00 0.01 0.01 0.01 0.01 0.01 0.01 0.01 0.01 0.00 0.00 0.00 0.01 0.01 0.00 0.00 0.00 0.00 0.00 0.00 0.00 0.00 0.00 0.00 0.00 0.00 0.00 0.00 0.00 0.00 0.00 0.00 0.00 0.00 0.00 0.00 0.00 0.00 0.01 0.01 0.02 0.04 0.04 0.03
0.62 0.65 0.46 0.25 0.09 0.00 0.00 0.00 0.00 0.00 0.00 0.00 0.00 0.00 0.00 0.01 0.00 0.01 0.00 0.00 0.01 0.02 0.00 0.00 0.00 0.00 0.00 0.00 0.00 0.00 0.00 0.00 0.00 0.00 0.00 0.00 0.00 0.00 0.00 0.00 0.00 0.00 0.00 0.00 0.00 0.00 0.01 0.01 0.02 0.03 0.06 0.03 0.02 0.02
0.37 0.45 0.41 0.35 0.21 0.03 0.00 0.00 0.00 0.00 0.00 0.00 0.00 0.00 0.00 0.01 0.01 0.01 0.00 0.00 0.00 0.00 0.00 0.00 0.00 0.00 0.00 0.00 0.00 0.00 0.00 0.00 0.00 0.00 0.00 0.00 0.00 0.00 0.00 0.00 0.00 0.00 0.00 0.02 0.02 0.01 0.01 0.02 0.03 0.03 0.02 0.02 0.03 0.03
0.29 0.38 0.37 0.37 0.27 0.09 0.04 0.00 0.00 0.00 0.00 0.01 0.02 0.00 0.00 0.00 0.01 0.00 0.01 0.01 0.00 0.00 0.00 0.01 0.01 0.02 0.01 0.01 0.00 0.00 0.00 0.00 0.00 0.00 0.00 0.00 0.00 0.00 0.01 0.01 0.02 0.02 0.02 0.01 0.03 0.03 0.03 0.02 0.01 0.02 0.03 0.03 0.03 0.03
0.31 0.37 0.38 0.31 0.20 0.13 0.05 0.03 0.02 0.01 0.00 0.01 0.01 0.01 0.00 0.00 0.01 0.01 0.01 0.01 0.02 0.01 0.01 0.02 0.03 0.03 0.02 0.00 0.00 0.00 0.00 0.00 0.00 0.00 0.00 0.00 0.00 0.01 0.02 0.01 0.01 0.03 0.03 0.03 0.02 0.01 0.01 0.02 0.04 0.04 0.03 0.04 0.04 0.05
0.41 0.30 0.25 0.20 0.11 0.05 0.03 0.03 0.03 0.02 0.01 0.01 0.01 0.01 0.01 0.00 0.01 0.01 0.01 0.05 0.05 0.05 0.05 0.05 0.04 0.03 0.02 0.03 0.03 0.02 0.00 0.00 0.00 0.00 0.01 0.01 0.02 0.01 0.01 0.01 0.02 0.03 0.02 0.03 0.03 0.04 0.04 0.04 0.04 0.04 0.04 0.05 0.08 0.08
0.27 0.16 0.12 0.06 0.04 0.06 0.03 0.02 0.02 0.02 0.02 0.04 0.04 0.04 0.02 0.02 0.02 0.02 0.05 0.09 0.08 0.08 0.07 0.06 0.04 0.03 0.03 0.03 0.03 0.02 0.01 0.00 0.00 0.00 0.01 0.01 0.02 0.03 0.03 0.03 0.03 0.03 0.04 0.05 0.09 0.08 0.04 0.03 0.04 0.05 0.06 0.05 0.07 0.10
0.11 0.07 0.03 0.03 0.06 0.10 0.11 0.06 0.07 0.08 0.06 0.07 0.05 0.05 0.07 0.08 0.05 0.07 0.08 0.10 0.10 0.11 0.08 0.05 0.03 0.02 0.03 0.02 0.01 0.00 0.00 0.00 0.00 0.01 0.01 0.02 0.03 0.04 0.09 0.14 0.15 0.11 0.05 0.06 0.09 0.11 0.12 0.10 0.08 0.06 0.08 0.06 0.07 0.14
0.05 0.05 0.05 0.09 0.14 0.16 0.17 0.14 0.15 0.16 0.15 0.15 0.10 0.10 0.11 0.08 0.08 0.10 0.10 0.11 0.09 0.07 0.05 0.03 0.01 0.01 0.01 0.01 0.01 0.01 0.00 0.00 0.01 0.01 0.02 0.05 0.08 0.08 0.08 0.09 0.10 0.08 0.07 0.08 0.09 0.09 0.11 0.13 0.12 0.10 0.11 0.14 0.16 0.17
0.11 0.16 0.12 0.12 0.08 0.07 0.09 0.11 0.12 0.12 0.12 0.11 0.07 0.06 0.06 0.05 0.07 0.07 0.06 0.05 0.04 0.02 0.02 0.02 0.02 0.01 0.01 0.01 0.01 0.02 0.01 0.01 0.02 0.02 0.01 0.03 0.08 0.07 0.05 0.06 0.06 0.06 0.06 0.05 0.04 0.08 0.12 0.14 0.12 0.16 0.22 0.21 0.17 0.14
0.06 0.06 0.04 0.02 0.02 0.03 0.03 0.03 0.04 0.04 0.03 0.02 0.01 0.01 0.02 0.05 0.08 0.07 0.04 0.03 0.03 0.04 0.05 0.04 0.03 0.02 0.02 0.02 0.02 0.04 0.07 0.05 0.06 0.09 0.08 0.08 0.09 0.07 0.05 0.05 0.05 0.06 0.06 0.06 0.05 0.03 0.05 0.05 0.06 0.14 0.09 0.07 0.09 0.10
0.01 0.01 0.01 0.01 0.02 0.02 0.01 0.01 0.01 0.04 0.03 0.02 0.01 0.02 0.08 0.07 0.07 0.05 0.04 0.05 0.03 0.02 0.01 0.01 0.01 0.02 0.03 0.03 0.05 0.05 0.07 0.07 0.07 0.08 0.08 0.08 0.07 0.06 0.05 0.04 0.03 0.04 0.04 0.04 0.04 0.05 0.06 0.06 0.08 0.10 0.06 0.05 0.07 0.06
0.01 0.02 0.01 0.01 0.02 0.01 0.00 0.00 0.00 0.00 0.01 0.01 0.04 0.03 0.05 0.04 0.04 0.05 0.05 0.02 0.01 0.02 0.03 0.04 0.04 0.05 0.07 0.09 0.09 0.09 0.08 0.07 0.05 0.05 0.07 0.07 0.06 0.06 0.04 0.03 0.03 0.04 0.04 0.04 0.05 0.07 0.07 0.07 0.07 0.07 0.07 0.06 0.06 0.06
0.01 0.02 0.02 0.02 0.01 0.01 0.01 0.00 0.00 0.00 0.01 0.03 0.05 0.05 0.05 0.04 0.04 0.06 0.05 0.03 0.05 0.05 0.05 0.05 0.06 0.07 0.09 0.07 0.06 0.07 0.05 0.05 0.05 0.06 0.06 0.06 0.05 0.04 0.03 0.03 0.03 0.04 0.04 0.05 0.06 0.07 0.06 0.05 0.05 0.06 0.05 0.05 0.04 0.04

GFSWCAN_prec_precacc_030.txt.gz
Total_Precipitation_Accumulation
0.42 0.14 0.19 0.22 0.15 0.07 0.04 0.01 0.00 0.00 0.00 0.00 0.00 0.00 0.00 0.00 0.00 0.01 0.00 0.00 0.00 0.00 0.00 0.00 0.00 0.00 0.00 0.00 0.00 0.00 0.00 0.00 0.00 0.00 0.00 0.00 0.00 0.00 0.00 0.00 0.00 0.00 0.00 0.00 0.01 0.01 0.01 0.00 0.00 0.02 0.03 0.02 0.02 0.01
0.60 0.30 0.20 0.11 0.05 0.03 0.00 0.00 0.00 0.01 0.01 0.01 0.01 0.00 0.00 0.00 0.00 0.01 0.02 0.02 0.00 0.00 0.00 0.00 0.00 0.00 0.00 0.00 0.00 0.00 0.00 0.00 0.00 0.00 0.00 0.00 0.00 0.00 0.00 0.00 0.00 0.00 0.00 0.00 0.02 0.01 0.00 0.00 0.01 0.02 0.01 0.04 0.03 0.01
0.78 0.36 0.14 0.03 0.00 0.00 0.00 0.00 0.00 0.02 0.01 0.01 0.01 0.01 0.00 0.00 0.00 0.01 0.02 0.04 0.01 0.00 0.00 0.00 0.00 0.00 0.00 0.00 0.00 0.00 0.00 0.00 0.00 0.00 0.00 0.00 0.01 0.00 0.00 0.00 0.00 0.00 0.00 0.00 0.01 0.00 0.00 0.01 0.00 0.01 0.01 0.00 0.00 0.01
0.74 0.43 0.20 0.05 0.00 0.00 0.00 0.01 0.01 0.03 0.02 0.01 0.01 0.01 0.01 0.00 0.01 0.01 0.01 0.02 0.02 0.01 0.04 0.00 0.00 0.00 0.00 0.00 0.00 0.00 0.00 0.00 0.00 0.00 0.00 0.01 0.01 0.00 0.00 0.00 0.00 0.00 0.00 0.00 0.01 0.00 0.01 0.02 0.04 0.03 0.01 0.01 0.00 0.00
0.62 0.46 0.27 0.09 0.04 0.02 0.01 0.01 0.02 0.03 0.06 0.04 0.03 0.02 0.01 0.01 0.01 0.01 0.01 0.01 0.01 0.03 0.03 0.00 0.00 0.00 0.00 0.00 0.00 0.00 0.00 0.00 0.00 0.00 0.01 0.01 0.00 0.00 0.01 0.04 0.04 0.00 0.00 0.02 0.02 0.02 0.04 0.08 0.04 0.03 0.02 0.01 0.00 0.00
0.50 0.37 0.32 0.15 0.08 0.07 0.03 0.01 0.05 0.08 0.06 0.04 0.04 0.02 0.01 0.01 0.01 0.01 0.01 0.00 0.00 0.00 0.00 0.01 0.00 0.00 0.00 0.00 0.00 0.00 0.00 0.00 0.00 0.00 0.01 0.01 0.00 0.01 0.07 0.05 0.00 0.00 0.00 0.01 0.02 0.02 0.05 0.06 0.02 0.00 0.01 0.00 0.00 0.00
0.38 0.29 0.27 0.18 0.11 0.09 0.12 0.06 0.04 0.04 0.02 0.02 0.06 0.03 0.03 0.04 0.03 0.03 0.03 0.01 0.01 0.01 0.03 0.02 0.00 0.00 0.00 0.00 0.00 0.00 0.00 0.00 0.00 0.02 0.01 0.00 0.00 0.07 0.11 0.03 0.00 0.00 0.00 0.00 0.00 0.02 0.03 0.01 0.01 0.00 0.00 0.00 0.00 0.00
0.28 0.19 0.15 0.15 0.12 0.15 0.16 0.20 0.11 0.06 0.03 0.03 0.06 0.07 0.07 0.09 0.04 0.03 0.01 0.00 0.00 0.02 0.02 0.01 0.00 0.00 0.00 0.00 0.00 0.00 0.02 0.03 0.02 0.03 0.01 0.00 0.01 0.04 0.05 0.00 0.00 0.00 0.00 0.00 0.00 0.01 0.04 0.03 0.01 0.00 0.00 0.00 0.00 0.02
0.18 0.12 0.07 0.06 0.09 0.10 0.16 0.24 0.27 0.20 0.11 0.10 0.10 0.11 0.12 0.08 0.06 0.03 0.03 0.03 0.01 0.06 0.05 0.01 0.01 0.01 0.00 0.00 0.00 0.00 0.01 0.01 0.01 0.01 0.01 0.01 0.02 0.04 0.01 0.00 0.00 0.00 0.00 0.00 0.01 0.00 0.00 0.01 0.01 0.00 0.01 0.03 0.10 0.26
0.13 0.07 0.02 0.02 0.02 0.03 0.06 0.16 0.27 0.40 0.57 0.76 0.65 0.50 0.29 0.16 0.17 0.11 0.15 0.25 0.32 0.25 0.12 0.05 0.02 0.01 0.00 0.00 0.01 0.02 0.05 0.02 0.01 0.00 0.00 0.00 0.00 0.00 0.00 0.00 0.00 0.00 0.00 0.00 0.00 0.00 0.02 0.04 0.05 0.09 0.16 0.20 0.22 0.19
0.14 0.08 0.03 0.01 0.01 0.01 0.04 0.13 0.30 0.57 1.33 1.55 1.36 0.88 0.45 0.39 0.19 0.29 0.34 0.33 0.27 0.15 0.09 0.09 0.07 0.05 0.02 0.04 0.11 0.21 0.20 0.07 0.04 0.01 0.01 0.02 0.01 0.00 0.00 0.00 0.00 0.00 0.00 0.00 0.00 0.01 0.04 0.10 0.25 0.25 0.16 0.09 0.06 0.02
0.14 0.09 0.05 0.02 0.01 0.02 0.03 0.14 0.33 0.62 1.05 1.47 1.13 0.74 0.66 0.85 0.70 0.80 0.80 0.39 0.12 0.05 0.03 0.01 0.02 0.04 0.10 0.10 0.14 0.28 0.23 0.17 0.10 0.01 0.04 0.03 0.01 0.01 0.00 0.00 0.00 0.00 0.00 0.02 0.07 0.15 0.18 0.18 0.13 0.09 0.04 0.02 0.01 0.01
0.18 0.11 0.10 0.06 0.02 0.04 0.04 0.11 0.17 0.30 0.53 0.91 1.13 1.28 1.22 1.45 1.25 0.91 0.47 0.20 0.07 0.02 0.01 0.01 0.04 0.08 0.09 0.08 0.24 0.31 0.34 0.25 0.08 0.08 0.07 0.09 0.07 0.08 0.09 0.08 0.08 0.10 0.11 0.13 0.10 0.09 0.07 0.04 0.01 0.00 0.01 0.00 0.00 0.00
0.11 0.09 0.09 0.09 0.07 0.11 0.13 0.11 0.16 0.31 0.40 0.76 0.99 1.27 1.05 1.09 0.73 0.46 0.19 0.07 0.06 0.05 0.02 0.02 0.05 0.06 0.08 0.15 0.43 0.56 0.57 0.31 0.31 0.17 0.10 0.18 0.28 0.27 0.08 0.01 0.01 0.01 0.01 0.01 0.00 0.00 0.00 0.00 0.00 0.00 0.00 0.00 0.00 0.00
0.08 0.03 0.04 0.06 0.08 0.12 0.19 0.19 0.13 0.09 0.14 0.25 0.31 0.52 0.53 0.42 0.30 0.20 0.17 0.16 0.16 0.17 0.22 0.26 0.31 0.28 0.30 0.45 0.45 0.40 0.37 0.33 0.27 0.28 0.28 0.25 0.28 0.15 0.01 0.01 0.01 0.03 0.03 0.01 0.00 0.00 0.00 0.00 0.00 0.00 0.00 0.00 0.00 0.00
0.21 0.05 0.02 0.02 0.05 0.08 0.09 0.18 0.11 0.13 0.14 0.11 0.15 0.21 0.24 0.19 0.21 0.23 0.25 0.27 0.27 0.35 0.35 0.35 0.34 0.34 0.41 0.37 0.29 0.28 0.29 0.31 0.33 0.12 0.04 0.05 0.07 0.07 0.07 0.06 0.09 0.08 0.02 0.00 0.00 0.00 0.00 0.00 0.00 0.00 0.00 0.00 0.00 0.00
0.37 0.09 0.01 0.00 0.00 0.04 0.08 0.09 0.16 0.15 0.16 0.06 0.07 0.07 0.08 0.10 0.13 0.17 0.18 0.17 0.17 0.22 0.24 0.17 0.16 0.17 0.17 0.20 0.23 0.21 0.23 0.16 0.06 0.02 0.02 0.02 0.01 0.00 0.00 0.00 0.00 0.00 0.00 0.00 0.00 0.00 0.00 0.00 0.00 0.00 0.00 0.00 0.00 0.00
0.44 0.09 0.01 0.00 0.01 0.02 0.08 0.02 0.07 0.03 0.01 0.01 0.02 0.02 0.01 0.02 0.02 0.02 0.01 0.00 0.01 0.02 0.02 0.02 0.02 0.03 0.08 0.10 0.10 0.05 0.04 0.02 0.02 0.01 0.00 0.00 0.00 0.00 0.00 0.00 0.00 0.00 0.00 0.00 0.00 0.00 0.00 0.00 0.00 0.00 0.00 0.00 0.00 0.00
0.26 0.18 0.04 0.05 0.01 0.01 0.07 0.05 0.01 0.00 0.01 0.01 0.03 0.03 0.03 0.03 0.02 0.01 0.00 0.00 0.00 0.00 0.00 0.00 0.00 0.00 0.00 0.00 0.00 0.00 0.00 0.00 0.00 0.00 0.00 0.01 0.00 0.00 0.00 0.00 0.00 0.00 0.00 0.00 0.00 0.00 0.00 0.00 0.00 0.00 0.00 0.00 0.01 0.02
0.50 0.46 0.25 0.13 0.01 0.00 0.00 0.01 0.00 0.00 0.00 0.01 0.01 0.01 0.01 0.02 0.01 0.01 0.01 0.00 0.00 0.00 0.01 0.01 0.00 0.00 0.00 0.00 0.00 0.00 0.00 0.00 0.00 0.00 0.00 0.00 0.00 0.00 0.00 0.00 0.00 0.00 0.00 0.00 0.00 0.00 0.00 0.00 0.01 0.01 0.02 0.04 0.04 0.03
0.62 0.65 0.46 0.25 0.09 0.00 0.00 0.00 0.00 0.00 0.00 0.00 0.01 0.00 0.00 0.01 0.00 0.01 0.00 0.00 0.01 0.02 0.00 0.00 0.00 0.00 0.00 0.00 0.00 0.00 0.00 0.00 0.00 0.00 0.00 0.00 0.00 0.00 0.00 0.00 0.00 0.00 0.00 0.00 0.00 0.00 0.01 0.01 0.02 0.03 0.06 0.03 0.02 0.02
0.37 0.45 0.41 0.35 0.21 0.03 0.00 0.00 0.00 0.00 0.00 0.00 0.00 0.00 0.00 0.01 0.01 0.01 0.00 0.01 0.00 0.00 0.01 0.01 0.00 0.00 0.00 0.00 0.00 0.00 0.00 0.00 0.00 0.00 0.00 0.00 0.00 0.00 0.00 0.00 0.00 0.00 0.00 0.02 0.02 0.01 0.01 0.02 0.03 0.03 0.02 0.02 0.03 0.03
0.29 0.38 0.37 0.37 0.27 0.09 0.04 0.00 0.00 0.00 0.00 0.01 0.02 0.00 0.00 0.00 0.01 0.01 0.01 0.01 0.01 0.01 0.02 0.02 0.04 0.04 0.03 0.02 0.00 0.00 0.00 0.00 0.00 0.00 0.00 0.00 0.00 0.00 0.01 0.01 0.02 0.02 0.02 0.01 0.03 0.03 0.03 0.02 0.01 0.02 0.03 0.03 0.03 0.03
0.31 0.37 0.38 0.31 0.20 0.13 0.05 0.03 0.02 0.01 0.00 0.01 0.01 0.01 0.00 0.00 0.01 0.01 0.01 0.03 0.04 0.02 0.03 0.05 0.06 0.08 0.07 0.04 0.03 0.01 0.00 0.00 0.00 0.00 0.00 0.00 0.01 0.01 0.02 0.01 0.01 0.03 0.03 0.03 0.02 0.01 0.01 0.02 0.04 0.04 0.03 0.04 0.04 0.06
0.41 0.30 0.25 0.20 0.11 0.05 0.03 0.03 0.04 0.02 0.01 0.01 0.01 0.01 0.01 0.01 0.01 0.01 0.02 0.07 0.07 0.07 0.09 0.10 0.10 0.09 0.08 0.08 0.06 0.03 0.01 0.01 0.00 0.01 0.01 0.02 0.02 0.01 0.01 0.01 0.02 0.03 0.02 0.03 0.03 0.04 0.04 0.04 0.04 0.04 0.04 0.05 0.08 0.08
0.27 0.16 0.12 0.06 0.04 0.06 0.03 0.02 0.02 0.02 0.02 0.04 0.04 0.04 0.03 0.03 0.03 0.03 0.06 0.11 0.10 0.11 0.11 0.11 0.09 0.07 0.06 0.05 0.05 0.04 0.02 0.01 0.01 0.00 0.01 0.01 0.02 0.03 0.03 0.03 0.03 0.03 0.04 0.05 0.09 0.08 0.04 0.03 0.04 0.05 0.06 0.05 0.07 0.11
0.11 0.07 0.03 0.03 0.06 0.10 0.11 0.07 0.07 0.09 0.07 0.08 0.06 0.05 0.08 0.09 0.06 0.08 0.10 0.12 0.13 0.15 0.12 0.10 0.07 0.06 0.06 0.05 0.03 0.02 0.00 0.00 0.00 0.01 0.01 0.02 0.03 0.04 0.09 0.14 0.15 0.11 0.05 0.06 0.09 0.11 0.12 0.10 0.08 0.07 0.08 0.07 0.07 0.14
0.05 0.05 0.05 0.09 0.15 0.16 0.17 0.14 0.16 0.16 0.16 0.16 0.11 0.10 0.12 0.09 0.10 0.11 0.11 0.13 0.11 0.10 0.07 0.04 0.02 0.02 0.02 0.02 0.02 0.01 0.01 0.00 0.01 0.01 0.02 0.05 0.08 0.08 0.08 0.09 0.10 0.08 0.07 0.08 0.09 0.09 0.11 0.13 0.12 0.11 0.11 0.14 0.16 0.17
0.11 0.16 0.12 0.12 0.08 0.07 0.09 0.11 0.12 0.13 0.12 0.12 0.08 0.06 0.06 0.05 0.08 0.07 0.07 0.06 0.06 0.03 0.02 0.03 0.03 0.02 0.02 0.01 0.01 0.02 0.01 0.01 0.02 0.02 0.01 0.03 0.08 0.07 0.05 0.06 0.06 0.06 0.06 0.05 0.04 0.08 0.12 0.15 0.12 0.16 0.22 0.21 0.17 0.14
0.06 0.06 0.05 0.02 0.03 0.04 0.04 0.04 0.04 0.04 0.03 0.02 0.02 0.02 0.03 0.05 0.09 0.08 0.05 0.04 0.04 0.05 0.06 0.05 0.04 0.02 0.02 0.02 0.02 0.04 0.07 0.05 0.06 0.09 0.08 0.08 0.09 0.07 0.05 0.05 0.05 0.06 0.06 0.06 0.05 0.03 0.05 0.05 0.06 0.14 0.09 0.07 0.09 0.10
0.01 0.01 0.01 0.01 0.02 0.03 0.02 0.01 0.03 0.05 0.04 0.02 0.02 0.02 0.09 0.07 0.08 0.06 0.04 0.06 0.04 0.02 0.02 0.01 0.01 0.02 0.03 0.03 0.05 0.05 0.07 0.07 0.08 0.08 0.08 0.08 0.07 0.06 0.05 0.04 0.04 0.04 0.04 0.04 0.04 0.05 0.06 0.06 0.08 0.10 0.06 0.05 0.07 0.06
0.01 0.02 0.01 0.01 0.02 0.01 0.00 0.00 0.00 0.01 0.02 0.02 0.04 0.03 0.06 0.04 0.04 0.06 0.05 0.03 0.01 0.02 0.03 0.04 0.04 0.05 0.07 0.09 0.09 0.09 0.08 0.07 0.05 0.06 0.07 0.07 0.06 0.06 0.04 0.03 0.03 0.04 0.04 0.04 0.05 0.07 0.07 0.07 0.07 0.07 0.07 0.06 0.06 0.06
0.01 0.02 0.02 0.02 0.01 0.01 0.01 0.00 0.00 0.00 0.02 0.03 0.06 0.06 0.06 0.05 0.05 0.07 0.06 0.04 0.05 0.05 0.05 0.05 0.06 0.08 0.09 0.07 0.06 0.07 0.05 0.05 0.06 0.06 0.06 0.07 0.05 0.04 0.03 0.03 0.04 0.04 0.04 0.05 0.06 0.07 0.06 0.05 0.05 0.06 0.05 0.05 0.04 0.04

GFSWCAN_prec_precacc_033.txt.gz
Total_Precipitation_Accumulation
0.42 0.16 0.23 0.30 0.31 0.17 0.10 0.14 0.16 0.13 0.14 0.09 0.01 0.00 0.00 0.00 0.01 0.10 0.02 0.00 0.00 0.00 0.00 0.00 0.00 0.00 0.00 0.00 0.00 0.00 0.00 0.00 0.00 0.00 0.00 0.00 0.00 0.00 0.00 0.00 0.00 0.00 0.00 0.00 0.01 0.01 0.01 0.00 0.00 0.02 0.03 0.02 0.02 0.01
0.63 0.38 0.35 0.29 0.29 0.19 0.11 0.12 0.11 0.11 0.10 0.04 0.01 0.00 0.00 0.00 0.02 0.09 0.04 0.02 0.00 0.00 0.00 0.00 0.00 0.00 0.00 0.00 0.00 0.00 0.00 0.00 0.00 0.00 0.01 0.01 0.00 0.00 0.00 0.00 0.00 0.00 0.00 0.00 0.02 0.01 0.00 0.00 0.01 0.02 0.01 0.04 0.03 0.01
0.93 0.54 0.37 0.27 0.22 0.11 0.08 0.07 0.05 0.05 0.02 0.01 0.01 0.01 0.01 0.01 0.02 0.08 0.03 0.04 0.01 0.01 0.01 0.00 0.00 0.00 0.00 0.00 0.00 0.00 0.00 0.00 0.00 0.00 0.00 0.00 0.02 0.00 0.00 0.00 0.00 0.00 0.00 0.00 0.01 0.00 0.00 0.01 0.00 0.01 0.01 0.00 0.00 0.01
0.90 0.58 0.35 0.18 0.09 0.05 0.03 0.02 0.01 0.03 0.02 0.01 0.01 0.01 0.01 0.01 0.03 0.08 0.02 0.02 0.02 0.01 0.06 0.00 0.00 0.00 0.00 0.00 0.00 0.00 0.00 0.00 0.00 0.00 0.00 0.02 0.01 0.00 0.00 0.00 0.00 0.00 0.00 0.00 0.01 0.00 0.01 0.02 0.04 0.03 0.01 0.01 0.00 0.00
0.69 0.53 0.31 0.12 0.05 0.02 0.01 0.02 0.02 0.03 0.06 0.04 0.03 0.02 0.01 0.01 0.03 0.04 0.03 0.03 0.05 0.05 0.04 0.00 0.00 0.00 0.00 0.00 0.00 0.00 0.00 0.00 0.00 0.00 0.02 0.02 0.00 0.00 0.01 0.04 0.04 0.00 0.00 0.02 0.02 0.02 0.04 0.08 0.04 0.03 0.02 0.01 0.00 0.00
0.51 0.38 0.33 0.15 0.08 0.08 0.05 0.05 0.10 0.14 0.07 0.04 0.04 0.02 0.01 0.01 0.04 0.02 0.03 0.02 0.03 0.00 0.01 0.02 0.00 0.00 0.00 0.00 0.00 0.00 0.00 0.00 0.00 0.00 0.01 0.01 0.00 0.01 0.07 0.05 0.00 0.00 0.00 0.01 0.02 0.02 0.05 0.06 0.02 0.00 0.01 0.00 0.00 0.00
0.39 0.29 0.27 0.20 0.13 0.11 0.17 0.14 0.14 0.11 0.02 0.02 0.06 0.03 0.03 0.06 0.06 0.05 0.04 0.02 0.01 0.01 0.03 0.02 0.01 0.00 0.00 0.00 0.00 0.00 0.00 0.00 0.00 0.02 0.01 0.00 0.00 0.07 0.11 0.04 0.00 0.00 0.00 0.00 0.00 0.02 0.03 0.01 0.01 0.00 0.00 0.00 0.00 0.00
0.28 0.20 0.15 0.15 0.13 0.16 0.20 0.28 0.21 0.11 0.05 0.04 0.06 0.07 0.10 0.13 0.07 0.04 0.01 0.00 0.00 0.02 0.02 0.01 0.00 0.01 0.01 0.01 0.01 0.00 0.02 0.03 0.02 0.03 0.01 0.00 0.01 0.04 0.05 0.00 0.00 0.00 0.00 0.00 0.00 0.01 0.04 0.03 0.01 0.00 0.00 0.00 0.00 0.02
0.18 0.12 0.07 0.06 0.09 0.10 0.17 0.27 0.30 0.22 0.13 0.13 0.13 0.15 0.15 0.10 0.08 0.03 0.03 0.03 0.01 0.06 0.05 0.02 0.01 0.01 0.00 0.00 0.01 0.00 0.01 0.01 0.01 0.01 0.01 0.01 0.02 0.04 0.01 0.00 0.00 0.00 0.00 0.00 0.01 0.00 0.00 0.01 0.01 0.00 0.01 0.03 0.10 0.26
0.13 0.07 0.02 0.02 0.02 0.04 0.07 0.16 0.28 0.40 0.57 0.78 0.67 0.51 0.32 0.17 0.17 0.11 0.15 0.25 0.32 0.25 0.12 0.05 0.02 0.01 0.00 0.00 0.01 0.02 0.05 0.02 0.01 0.01 0.00 0.00 0.00 0.00 0.00 0.00 0.00 0.00 0.00 0.00 0.00 0.00 0.02 0.04 0.05 0.09 0.16 0.20 0.22 0.19
0.14 0.08 0.03 0.01 0.02 0.04 0.05 0.13 0.30 0.57 1.33 1.55 1.36 0.89 0.47 0.39 0.20 0.29 0.34 0.33 0.27 0.15 0.09 0.09 0.07 0.05 0.02 0.04 0.11 0.21 0.20 0.07 0.04 0.01 0.01 0.02 0.01 0.00 0.00 0.00 0.00 0.00 0.00 0.00 0.00 0.01 0.04 0.10 0.25 0.25 0.16 0.09 0.06 0.02
0.14 0.09 0.05 0.02 0.02 0.04 0.03 0.14 0.33 0.62 1.05 1.47 1.13 0.74 0.66 0.85 0.70 0.80 0.80 0.39 0.12 0.05 0.03 0.01 0.02 0.04 0.10 0.10 0.14 0.28 0.23 0.17 0.10 0.01 0.05 0.03 0.02 0.01 0.00 0.01 0.00 0.00 0.00 0.02 0.07 0.15 0.18 0.18 0.13 0.09 0.04 0.02 0.01 0.01
0.18 0.11 0.10 0.06 0.02 0.04 0.04 0.12 0.18 0.30 0.53 0.91 1.13 1.28 1.22 1.45 1.25 0.91 0.47 0.20 0.07 0.02 0.01 0.01 0.04 0.08 0.09 0.08 0.24 0.31 0.34 0.25 0.08 0.08 0.07 0.09 0.08 0.08 0.10 0.08 0.09 0.10 0.11 0.13 0.10 0.09 0.07 0.04 0.01 0.00 0.01 0.00 0.00 0.00
0.11 0.09 0.09 0.09 0.07 0.11 0.13 0.11 0.16 0.31 0.40 0.77 1.00 1.28 1.06 1.10 0.73 0.46 0.19 0.07 0.06 0.05 0.02 0.02 0.05 0.06 0.08 0.15 0.44 0.56 0.57 0.31 0.31 0.18 0.11 0.18 0.29 0.28 0.10 0.01 0.01 0.01 0.01 0.01 0.00 0.00 0.00 0.00 0.00 0.00 0.00 0.00 0.00 0.00
0.08 0.03 0.04 0.06 0.08 0.12 0.19 0.19 0.13 0.09 0.17 0.27 0.32 0.53 0.54 0.42 0.30 0.20 0.17 0.16 0.16 0.17 0.22 0.26 0.31 0.28 0.30 0.45 0.45 0.40 0.38 0.34 0.28 0.28 0.28 0.25 0.29 0.16 0.02 0.01 0.01 0.03 0.03 0.01 0.00 0.00 0.00 0.00 0.00 0.00 0.00 0.00 0.00 0.00
0.21 0.05 0.02 0.02 0.06 0.09 0.09 0.18 0.11 0.13 0.14 0.12 0.15 0.21 0.25 0.19 0.22 0.23 0.25 0.27 0.27 0.35 0.35 0.35 0.34 0.34 0.41 0.37 0.29 0.29 0.30 0.33 0.33 0.12 0.04 0.05 0.08 0.07 0.07 0.06 0.09 0.08 0.02 0.00 0.00 0.00 0.00 0.00 0.00 0.00 0.00 0.00 0.00 0.00
0.37 0.09 0.01 0.00 0.00 0.05 0.09 0.10 0.18 0.19 0.20 0.08 0.09 0.08 0.09 0.11 0.14 0.19 0.20 0.18 0.18 0.23 0.25 0.17 0.16 0.18 0.17 0.20 0.23 0.21 0.24 0.16 0.06 0.02 0.02 0.02 0.01 0.00 0.00 0.00 0.00 0.00 0.00 0.00 0.00 0.00 0.00 0.00 0.00 0.00 0.00 0.00 0.00 0.00
0.44 0.09 0.01 0.00 0.01 0.02 0.08 0.03 0.08 0.03 0.01 0.04 0.04 0.04 0.02 0.04 0.04 0.05 0.05 0.04 0.04 0.06 0.07 0.04 0.03 0.04 0.09 0.10 0.10 0.05 0.04 0.02 0.02 0.01 0.00 0.01 0.00 0.00 0.00 0.00 0.00 0.00 0.00 0.00 0.00 0.00 0.00 0.00 0.00 0.00 0.00 0.00 0.00 0.00
0.26 0.18 0.04 0.05 0.01 0.01 0.07 0.05 0.01 0.01 0.02 0.02 0.04 0.04 0.03 0.03 0.02 0.01 0.00 0.00 0.00 0.00 0.00 0.00 0.01 0.01 0.01 0.01 0.00 0.00 0.00 0.00 0.01 0.00 0.01 0.01 0.01 0.00 0.00 0.00 0.00 0.00 0.00 0.00 0.00 0.00 0.00 0.00 0.00 0.00 0.00 0.00 0.01 0.02
0.50 0.46 0.25 0.13 0.01 0.00 0.00 0.01 0.00 0.00 0.01 0.02 0.03 0.02 0.02 0.03 0.02 0.02 0.01 0.00 0.00 0.00 0.01 0.01 0.01 0.00 0.00 0.00 0.00 0.00 0.00 0.00 0.00 0.00 0.00 0.00 0.00 0.00 0.00 0.00 0.00 0.00 0.00 0.00 0.00 0.00 0.00 0.00 0.01 0.01 0.02 0.04 0.04 0.03
0.62 0.65 0.46 0.25 0.09 0.00 0.00 0.00 0.00 0.00 0.00 0.01 0.02 0.00 0.01 0.01 0.01 0.01 0.00 0.00 0.01 0.02 0.01 0.01 0.01 0.01 0.00 0.00 0.00 0.00 0.00 0.00 0.00 0.00 0.00 0.00 0.00 0.00 0.00 0.00 0.00 0.00 0.00 0.00 0.00 0.00 0.01 0.01 0.02 0.03 0.06 0.03 0.02 0.02
0.37 0.45 0.41 0.35 0.21 0.03 0.00 0.00 0.00 0.00 0.00 0.00 0.00 0.00 0.00 0.01 0.01 0.01 0.00 0.01 0.01 0.02 0.02 0.02 0.02 0.00 0.00 0.00 0.00 0.00 0.00 0.00 0.00 0.00 0.00 0.00 0.00 0.00 0.00 0.00 0.00 0.00 0.00 0.02 0.02 0.01 0.01 0.02 0.03 0.03 0.02 0.02 0.03 0.03
0.29 0.38 0.37 0.37 0.27 0.09 0.04 0.00 0.00 0.00 0.01 0.01 0.02 0.01 0.01 0.01 0.01 0.01 0.02 0.02 0.03 0.03 0.03 0.04 0.06 0.06 0.05 0.04 0.01 0.00 0.00 0.00 0.00 0.01 0.01 0.01 0.01 0.01 0.01 0.01 0.02 0.02 0.02 0.01 0.03 0.03 0.03 0.02 0.01 0.02 0.03 0.03 0.03 0.03
0.31 0.37 0.38 0.31 0.20 0.13 0.05 0.03 0.02 0.01 0.00 0.01 0.02 0.02 0.01 0.01 0.01 0.02 0.02 0.04 0.06 0.03 0.05 0.07 0.09 0.11 0.10 0.08 0.08 0.06 0.04 0.02 0.02 0.02 0.01 0.00 0.01 0.01 0.02 0.01 0.01 0.03 0.03 0.03 0.02 0.01 0.01 0.02 0.04 0.04 0.03 0.04 0.04 0.06
0.41 0.30 0.25 0.20 0.11 0.05 0.03 0.03 0.04 0.03 0.01 0.01 0.02 0.02 0.01 0.01 0.02 0.02 0.03 0.08 0.08 0.08 0.10 0.12 0.12 0.12 0.12 0.13 0.12 0.09 0.06 0.04 0.03 0.03 0.03 0.03 0.03 0.01 0.01 0.01 0.02 0.03 0.02 0.03 0.03 0.04 0.04 0.04 0.04 0.04 0.04 0.05 0.08 0.08
0.28 0.17 0.12 0.07 0.04 0.06 0.03 0.02 0.02 0.02 0.02 0.05 0.05 0.05 0.03 0.04 0.03 0.04 0.07 0.12 0.11 0.12 0.13 0.14 0.13 0.10 0.09 0.08 0.08 0.07 0.06 0.05 0.03 0.02 0.02 0.01 0.02 0.03 0.03 0.03 0.03 0.03 0.04 0.05 0.09 0.08 0.04 0.03 0.04 0.05 0.06 0.05 0.07 0.11
0.11 0.08 0.03 0.03 0.06 0.11 0.11 0.07 0.08 0.09 0.07 0.08 0.07 0.06 0.09 0.09 0.06 0.09 0.10 0.13 0.14 0.16 0.13 0.12 0.09 0.07 0.08 0.08 0.05 0.04 0.02 0.01 0.01 0.01 0.02 0.02 0.03 0.04 0.09 0.14 0.15 0.11 0.05 0.06 0.09 0.11 0.12 0.10 0.08 0.07 0.08 0.07 0.08 0.14
0.06 0.05 0.05 0.10 0.15 0.16 0.17 0.14 0.16 0.16 0.16 0.16 0.12 0.11 0.13 0.10 0.10 0.12 0.12 0.14 0.12 0.10 0.07 0.05 0.03 0.02 0.02 0.03 0.03 0.02 0.01 0.00 0.01 0.01 0.02 0.05 0.08 0.08 0.08 0.09 0.10 0.08 0.07 0.08 0.09 0.09 0.11 0.14 0.12 0.11 0.11 0.14 0.16 0.17
0.12 0.16 0.13 0.12 0.08 0.07 0.10 0.12 0.13 0.13 0.12 0.12 0.09 0.07 0.07 0.05 0.09 0.09 0.08 0.07 0.06 0.04 0.03 0.03 0.04 0.03 0.02 0.01 0.01 0.02 0.01 0.01 0.02 0.02 0.01 0.03 0.08 0.07 0.06 0.07 0.07 0.06 0.06 0.05 0.04 0.08 0.12 0.15 0.13 0.16 0.22 0.21 0.17 0.14
0.07 0.07 0.05 0.02 0.03 0.04 0.04 0.04 0.05 0.05 0.03 0.03 0.02 0.02 0.03 0.06 0.10 0.09 0.06 0.05 0.04 0.06 0.07 0.06 0.05 0.02 0.02 0.02 0.02 0.04 0.07 0.05 0.06 0.09 0.08 0.08 0.09 0.07 0.06 0.05 0.05 0.06 0.06 0.06 0.05 0.03 0.05 0.05 0.07 0.14 0.09 0.07 0.09 0.11
0.01 0.01 0.01 0.01 0.03 0.04 0.02 0.01 0.03 0.06 0.05 0.03 0.02 0.03 0.09 0.08 0.09 0.06 0.05 0.07 0.04 0.03 0.02 0.01 0.01 0.02 0.03 0.03 0.05 0.05 0.07 0.07 0.08 0.08 0.08 0.08 0.07 0.06 0.05 0.04 0.04 0.05 0.04 0.05 0.04 0.05 0.06 0.06 0.09 0.10 0.06 0.06 0.07 0.06
0.01 0.02 0.01 0.01 0.03 0.01 0.01 0.01 0.01 0.02 0.03 0.03 0.05 0.04 0.06 0.05 0.05 0.06 0.06 0.04 0.01 0.02 0.03 0.04 0.04 0.05 0.07 0.09 0.09 0.09 0.08 0.07 0.05 0.06 0.07 0.07 0.07 0.06 0.05 0.03 0.04 0.04 0.04 0.04 0.05 0.07 0.07 0.07 0.08 0.07 0.08 0.06 0.06 0.06
0.02 0.02 0.02 0.02 0.01 0.01 0.01 0.00 0.00 0.01 0.02 0.04 0.07 0.07 0.07 0.06 0.06 0.08 0.06 0.05 0.05 0.05 0.05 0.06 0.06 0.08 0.09 0.07 0.06 0.07 0.05 0.05 0.06 0.06 0.06 0.07 0.06 0.04 0.03 0.04 0.04 0.04 0.04 0.05 0.06 0.07 0.06 0.05 0.05 0.06 0.05 0.05 0.04 0.04

GFSWCAN_prec_precacc_036.txt.gz
Total_Precipitation_Accumulation
0.42 0.16 0.23 0.30 0.31 0.18 0.11 0.14 0.17 0.14 0.15 0.13 0.06 0.06 0.07 0.02 0.03 0.21 0.14 0.12 0.13 0.04 0.00 0.00 0.00 0.00 0.00 0.00 0.01 0.00 0.00 0.00 0.00 0.00 0.00 0.00 0.00 0.00 0.00 0.00 0.00 0.00 0.00 0.00 0.01 0.01 0.01 0.00 0.00 0.02 0.03 0.02 0.02 0.01
0.63 0.38 0.36 0.29 0.29 0.19 0.11 0.13 0.16 0.14 0.16 0.10 0.03 0.05 0.04 0.01 0.04 0.22 0.21 0.10 0.17 0.07 0.00 0.00 0.00 0.00 0.00 0.00 0.00 0.00 0.00 0.00 0.00 0.00 0.01 0.02 0.00 0.00 0.00 0.00 0.00 0.00 0.00 0.00 0.02 0.01 0.00 0.00 0.01 0.02 0.01 0.04 0.03 0.01
0.93 0.55 0.40 0.30 0.24 0.15 0.13 0.13 0.14 0.15 0.13 0.05 0.04 0.06 0.04 0.02 0.06 0.26 0.21 0.15 0.44 0.09 0.03 0.00 0.00 0.00 0.00 0.00 0.00 0.00 0.00 0.00 0.00 0.00 0.00 0.01 0.02 0.00 0.00 0.00 0.00 0.00 0.00 0.00 0.01 0.00 0.00 0.01 0.00 0.01 0.01 0.00 0.00 0.01
0.99 0.68 0.46 0.33 0.19 0.14 0.12 0.13 0.12 0.12 0.08 0.03 0.05 0.05 0.03 0.03 0.12 0.28 0.15 0.11 0.10 0.03 0.10 0.01 0.00 0.00 0.00 0.00 0.00 0.00 0.00 0.00 0.00 0.00 0.00 0.02 0.02 0.00 0.00 0.00 0.00 0.00 0.00 0.00 0.01 0.00 0.01 0.02 0.04 0.03 0.01 0.01 0.00 0.00
0.84 0.70 0.52 0.32 0.17 0.12 0.11 0.10 0.09 0.08 0.09 0.07 0.06 0.04 0.02 0.04 0.09 0.13 0.09 0.06 0.08 0.07 0.06 0.01 0.00 0.00 0.00 0.00 0.00 0.00 0.00 0.00 0.00 0.00 0.02 0.02 0.00 0.00 0.01 0.04 0.04 0.00 0.00 0.02 0.02 0.02 0.04 0.08 0.04 0.03 0.02 0.01 0.00 0.00
0.74 0.59 0.49 0.24 0.13 0.13 0.11 0.11 0.13 0.15 0.08 0.06 0.05 0.03 0.03 0.04 0.06 0.05 0.10 0.05 0.05 0.01 0.01 0.02 0.00 0.00 0.00 0.00 0.00 0.00 0.00 0.00 0.00 0.00 0.01 0.01 0.00 0.01 0.07 0.05 0.00 0.00 0.00 0.01 0.02 0.02 0.05 0.06 0.02 0.00 0.01 0.00 0.00 0.00
0.64 0.49 0.40 0.27 0.16 0.15 0.20 0.16 0.15 0.11 0.02 0.03 0.07 0.05 0.05 0.09 0.11 0.14 0.10 0.03 0.03 0.02 0.06 0.03 0.01 0.00 0.00 0.00 0.00 0.00 0.00 0.00 0.00 0.02 0.01 0.00 0.00 0.07 0.11 0.05 0.00 0.00 0.00 0.00 0.00 0.02 0.03 0.01 0.01 0.00 0.00 0.00 0.00 0.00
0.49 0.39 0.29 0.22 0.19 0.22 0.23 0.29 0.23 0.12 0.06 0.05 0.08 0.09 0.12 0.17 0.13 0.10 0.03 0.01 0.01 0.03 0.03 0.03 0.01 0.01 0.01 0.01 0.01 0.00 0.02 0.03 0.02 0.03 0.01 0.00 0.01 0.04 0.05 0.00 0.00 0.00 0.00 0.00 0.00 0.01 0.04 0.03 0.01 0.00 0.00 0.00 0.00 0.02
0.31 0.17 0.10 0.12 0.15 0.17 0.24 0.35 0.35 0.25 0.15 0.14 0.14 0.16 0.18 0.17 0.15 0.05 0.05 0.04 0.02 0.09 0.08 0.02 0.02 0.01 0.01 0.00 0.01 0.00 0.01 0.01 0.01 0.01 0.01 0.01 0.02 0.04 0.01 0.00 0.00 0.00 0.00 0.00 0.01 0.00 0.00 0.01 0.01 0.00 0.01 0.03 0.10 0.26
0.14 0.07 0.02 0.03 0.04 0.08 0.14 0.24 0.33 0.46 0.60 0.79 0.69 0.56 0.43 0.21 0.18 0.11 0.15 0.28 0.36 0.26 0.12 0.05 0.02 0.02 0.01 0.01 0.02 0.02 0.06 0.03 0.01 0.01 0.00 0.00 0.00 0.00 0.00 0.00 0.00 0.00 0.00 0.00 0.00 0.00 0.02 0.04 0.05 0.09 0.16 0.20 0.22 0.19
0.17 0.11 0.05 0.03 0.02 0.04 0.06 0.15 0.33 0.59 1.35 1.59 1.40 0.91 0.49 0.40 0.22 0.29 0.34 0.37 0.32 0.16 0.09 0.09 0.07 0.05 0.02 0.05 0.12 0.22 0.20 0.08 0.04 0.01 0.01 0.02 0.01 0.00 0.00 0.00 0.00 0.00 0.00 0.00 0.00 0.01 0.04 0.10 0.25 0.25 0.16 0.09 0.06 0.02
0.15 0.10 0.06 0.03 0.03 0.04 0.03 0.15 0.34 0.62 1.06 1.50 1.14 0.75 0.68 0.87 0.74 0.81 0.80 0.39 0.13 0.05 0.03 0.01 0.02 0.04 0.10 0.10 0.14 0.29 0.23 0.17 0.10 0.01 0.05 0.04 0.02 0.01 0.01 0.01 0.00 0.00 0.00 0.02 0.07 0.15 0.18 0.18 0.13 0.09 0.04 0.02 0.01 0.01
0.18 0.12 0.11 0.07 0.04 0.05 0.04 0.12 0.18 0.30 0.53 0.91 1.14 1.31 1.25 1.47 1.28 0.92 0.48 0.20 0.07 0.02 0.01 0.01 0.04 0.08 0.09 0.08 0.24 0.31 0.34 0.25 0.08 0.08 0.07 0.10 0.08 0.08 0.10 0.08 0.09 0.10 0.11 0.13 0.10 0.09 0.07 0.04 0.01 0.00 0.01 0.00 0.00 0.00
0.11 0.09 0.09 0.09 0.08 0.11 0.13 0.11 0.17 0.31 0.40 0.77 1.01 1.30 1.08 1.10 0.74 0.46 0.19 0.08 0.06 0.05 0.02 0.02 0.05 0.06 0.08 0.15 0.44 0.56 0.57 0.31 0.32 0.18 0.11 0.18 0.29 0.29 0.10 0.01 0.01 0.01 0.01 0.01 0.00 0.00 0.00 0.00 0.00 0.00 0.00 0.00 0.00 0.00
0.08 0.03 0.04 0.06 0.08 0.12 0.19 0.19 0.14 0.10 0.19 0.29 0.33 0.55 0.54 0.43 0.30 0.20 0.17 0.16 0.16 0.17 0.22 0.27 0.31 0.29 0.31 0.45 0.45 0.40 0.38 0.35 0.28 0.29 0.28 0.25 0.29 0.16 0.02 0.01 0.01 0.03 0.03 0.01 0.00 0.00 0.00 0.00 0.00 0.00 0.00 0.00 0.00 0.00
0.21 0.05 0.02 0.02 0.06 0.09 0.09 0.18 0.11 0.14 0.22 0.23 0.20 0.22 0.25 0.19 0.22 0.23 0.26 0.27 0.27 0.35 0.35 0.35 0.34 0.34 0.41 0.37 0.29 0.29 0.31 0.33 0.33 0.12 0.04 0.05 0.08 0.08 0.07 0.06 0.09 0.08 0.02 0.00 0.00 0.00 0.00 0.00 0.00 0.00 0.00 0.00 0.00 0.00
0.37 0.09 0.01 0.00 0.00 0.05 0.09 0.10 0.18 0.19 0.20 0.10 0.14 0.12 0.10 0.11 0.15 0.19 0.20 0.18 0.18 0.23 0.25 0.17 0.16 0.18 0.17 0.20 0.24 0.22 0.25 0.16 0.06 0.03 0.02 0.02 0.02 0.01 0.00 0.00 0.00 0.00 0.00 0.00 0.00 0.00 0.00 0.00 0.00 0.00 0.00 0.00 0.00 0.00
0.44 0.09 0.01 0.00 0.01 0.02 0.08 0.03 0.10 0.04 0.02 0.06 0.07 0.08 0.05 0.07 0.07 0.07 0.07 0.05 0.05 0.07 0.09 0.06 0.04 0.07 0.12 0.14 0.12 0.06 0.05 0.03 0.02 0.01 0.01 0.01 0.01 0.01 0.01 0.00 0.00 0.00 0.00 0.00 0.00 0.00 0.00 0.00 0.00 0.00 0.00 0.00 0.00 0.00
0.26 0.18 0.04 0.05 0.01 0.01 0.07 0.05 0.02 0.03 0.04 0.04 0.07 0.06 0.04 0.05 0.04 0.02 0.01 0.01 0.02 0.04 0.05 0.06 0.08 0.07 0.07 0.05 0.04 0.01 0.00 0.00 0.01 0.01 0.01 0.01 0.01 0.00 0.01 0.00 0.00 0.00 0.00 0.00 0.00 0.00 0.00 0.00 0.00 0.00 0.00 0.00 0.01 0.02
0.50 0.46 0.25 0.13 0.01 0.00 0.00 0.01 0.00 0.01 0.02 0.03 0.04 0.04 0.03 0.04 0.03 0.02 0.01 0.00 0.00 0.01 0.02 0.05 0.08 0.07 0.06 0.05 0.02 0.01 0.00 0.00 0.00 0.00 0.01 0.01 0.01 0.00 0.00 0.00 0.00 0.00 0.00 0.00 0.00 0.00 0.00 0.00 0.01 0.01 0.02 0.04 0.04 0.03
0.62 0.65 0.46 0.25 0.09 0.00 0.00 0.00 0.00 0.01 0.01 0.01 0.02 0.01 0.01 0.02 0.01 0.01 0.00 0.00 0.01 0.03 0.03 0.04 0.04 0.03 0.02 0.02 0.01 0.00 0.00 0.00 0.00 0.00 0.00 0.01 0.00 0.00 0.00 0.00 0.00 0.00 0.00 0.00 0.00 0.00 0.01 0.01 0.02 0.03 0.06 0.03 0.02 0.02
0.37 0.45 0.41 0.35 0.21 0.03 0.00 0.00 0.00 0.00 0.00 0.01 0.01 0.00 0.01 0.02 0.02 0.02 0.01 0.01 0.02 0.05 0.05 0.05 0.05 0.02 0.01 0.01 0.02 0.04 0.04 0.03 0.02 0.01 0.01 0.01 0.02 0.01 0.01 0.01 0.01 0.01 0.01 0.02 0.02 0.01 0.01 0.02 0.03 0.03 0.02 0.02 0.03 0.03
0.29 0.38 0.37 0.37 0.27 0.09 0.04 0.00 0.00 0.00 0.01 0.01 0.03 0.01 0.01 0.01 0.02 0.01 0.03 0.04 0.04 0.06 0.06 0.05 0.08 0.08 0.07 0.06 0.02 0.01 0.02 0.02 0.04 0.05 0.05 0.04 0.04 0.03 0.02 0.02 0.03 0.03 0.02 0.01 0.03 0.03 0.03 0.02 0.01 0.02 0.03 0.03 0.03 0.03
0.31 0.37 0.38 0.31 0.20 0.13 0.05 0.04 0.02 0.02 0.00 0.01 0.02 0.03 0.01 0.01 0.01 0.02 0.04 0.06 0.08 0.04 0.06 0.08 0.10 0.13 0.11 0.09 0.09 0.09 0.08 0.05 0.05 0.05 0.05 0.03 0.03 0.04 0.03 0.02 0.02 0.03 0.03 0.03 0.02 0.01 0.01 0.02 0.04 0.04 0.03 0.04 0.04 0.06
0.41 0.30 0.25 0.20 0.11 0.05 0.03 0.03 0.04 0.03 0.02 0.01 0.03 0.02 0.02 0.02 0.02 0.03 0.04 0.10 0.09 0.09 0.11 0.14 0.13 0.13 0.14 0.15 0.14 0.12 0.10 0.07 0.06 0.06 0.06 0.06 0.05 0.03 0.01 0.01 0.02 0.03 0.02 0.03 0.03 0.04 0.04 0.04 0.04 0.04 0.04 0.06 0.08 0.08
0.28 0.17 0.12 0.07 0.04 0.06 0.04 0.02 0.03 0.02 0.02 0.05 0.05 0.05 0.04 0.05 0.04 0.05 0.08 0.14 0.13 0.13 0.14 0.15 0.15 0.11 0.10 0.10 0.09 0.09 0.08 0.08 0.06 0.04 0.05 0.03 0.04 0.05 0.03 0.03 0.03 0.04 0.04 0.05 0.09 0.08 0.04 0.03 0.04 0.05 0.06 0.05 0.07 0.11
0.11 0.08 0.03 0.03 0.06 0.11 0.11 0.07 0.08 0.09 0.08 0.09 0.08 0.07 0.10 0.11 0.07 0.10 0.11 0.14 0.15 0.17 0.14 0.12 0.09 0.08 0.09 0.08 0.06 0.05 0.03 0.01 0.01 0.02 0.02 0.02 0.03 0.04 0.09 0.14 0.15 0.11 0.05 0.07 0.10 0.11 0.12 0.10 0.08 0.07 0.08 0.07 0.08 0.15
0.06 0.05 0.06 0.10 0.15 0.16 0.18 0.15 0.16 0.17 0.17 0.16 0.13 0.11 0.13 0.11 0.12 0.13 0.13 0.15 0.14 0.11 0.08 0.05 0.03 0.02 0.03 0.04 0.04 0.03 0.01 0.01 0.01 0.01 0.02 0.06 0.08 0.08 0.08 0.10 0.10 0.08 0.07 0.08 0.09 0.09 0.11 0.14 0.13 0.11 0.12 0.14 0.17 0.18
0.12 0.16 0.13 0.12 0.08 0.07 0.10 0.12 0.13 0.14 0.12 0.12 0.10 0.08 0.07 0.06 0.11 0.10 0.10 0.09 0.08 0.05 0.04 0.04 0.05 0.04 0.03 0.02 0.02 0.02 0.01 0.01 0.02 0.02 0.01 0.03 0.09 0.08 0.06 0.07 0.07 0.06 0.06 0.05 0.05 0.08 0.12 0.15 0.13 0.16 0.22 0.21 0.17 0.15
0.07 0.07 0.05 0.03 0.03 0.05 0.05 0.05 0.06 0.06 0.03 0.03 0.03 0.02 0.04 0.07 0.12 0.10 0.07 0.05 0.05 0.07 0.08 0.07 0.06 0.03 0.03 0.02 0.02 0.04 0.08 0.05 0.06 0.09 0.08 0.08 0.09 0.08 0.06 0.06 0.06 0.06 0.06 0.06 0.05 0.04 0.05 0.05 0.07 0.14 0.10 0.07 0.09 0.11
0.01 0.02 0.02 0.02 0.03 0.05 0.03 0.02 0.05 0.06 0.05 0.03 0.03 0.03 0.10 0.09 0.11 0.07 0.05 0.08 0.05 0.03 0.03 0.02 0.02 0.02 0.03 0.03 0.05 0.05 0.08 0.07 0.08 0.08 0.08 0.08 0.07 0.06 0.06 0.05 0.04 0.05 0.05 0.05 0.05 0.06 0.06 0.06 0.09 0.10 0.06 0.06 0.07 0.07
0.02 0.02 0.01 0.01 0.03 0.02 0.01 0.01 0.01 0.04 0.04 0.04 0.06 0.05 0.07 0.06 0.06 0.07 0.06 0.05 0.02 0.02 0.03 0.05 0.04 0.06 0.08 0.09 0.09 0.09 0.08 0.07 0.05 0.06 0.07 0.07 0.07 0.07 0.05 0.04 0.04 0.05 0.05 0.05 0.06 0.07 0.08 0.07 0.08 0.07 0.08 0.06 0.06 0.06
0.02 0.02 0.02 0.02 0.01 0.02 0.02 0.01 0.00 0.01 0.03 0.05 0.07 0.07 0.08 0.06 0.06 0.09 0.07 0.05 0.06 0.06 0.06 0.06 0.06 0.08 0.10 0.07 0.06 0.07 0.05 0.05 0.06 0.06 0.07 0.07 0.06 0.04 0.04 0.04 0.04 0.05 0.05 0.05 0.06 0.08 0.06 0.06 0.06 0.06 0.05 0.05 0.04 0.04

GFSWCAN_prec_precacc_039.txt.gz
Total_Precipitation_Accumulation
0.43 0.16 0.23 0.30 0.32 0.19 0.12 0.16 0.19 0.17 0.22 0.17 0.08 0.07 0.07 0.03 0.03 0.25 0.21 0.22 0.32 0.17 0.01 0.00 0.00 0.01 0.00 0.00 0.09 0.05 0.07 0.01 0.00 0.01 0.00 0.00 0.00 0.00 0.00 0.00 0.00 0.00 0.00 0.00 0.01 0.01 0.01 0.00 0.00 0.02 0.03 0.02 0.02 0.01
0.63 0.38 0.36 0.30 0.31 0.20 0.12 0.14 0.17 0.15 0.17 0.10 0.04 0.05 0.04 0.01 0.04 0.26 0.25 0.14 0.25 0.30 0.09 0.01 0.00 0.00 0.00 0.00 0.03 0.09 0.04 0.00 0.00 0.00 0.01 0.02 0.00 0.00 0.00 0.00 0.00 0.00 0.00 0.00 0.02 0.01 0.00 0.00 0.01 0.02 0.01 0.04 0.03 0.01
0.93 0.55 0.40 0.31 0.25 0.15 0.13 0.13 0.15 0.15 0.14 0.05 0.04 0.06 0.04 0.02 0.07 0.29 0.26 0.25 0.97 0.52 0.21 0.06 0.02 0.00 0.00 0.00 0.00 0.04 0.04 0.00 0.00 0.00 0.00 0.01 0.02 0.00 0.00 0.00 0.00 0.00 0.00 0.00 0.01 0.00 0.00 0.01 0.00 0.01 0.01 0.00 0.00 0.01
0.99 0.68 0.46 0.33 0.19 0.14 0.13 0.13 0.12 0.12 0.09 0.04 0.06 0.05 0.04 0.04 0.14 0.32 0.22 0.50 1.27 0.64 0.45 0.14 0.02 0.01 0.02 0.00 0.00 0.00 0.00 0.00 0.00 0.00 0.00 0.02 0.02 0.00 0.00 0.00 0.00 0.00 0.00 0.00 0.01 0.00 0.01 0.02 0.04 0.03 0.01 0.01 0.00 0.00
0.85 0.71 0.53 0.33 0.17 0.12 0.12 0.11 0.09 0.09 0.09 0.07 0.07 0.04 0.04 0.05 0.26 0.23 0.34 0.60 0.87 0.62 0.46 0.28 0.01 0.00 0.03 0.01 0.00 0.00 0.00 0.00 0.00 0.00 0.02 0.02 0.00 0.00 0.01 0.04 0.04 0.00 0.00 0.02 0.02 0.02 0.04 0.08 0.04 0.03 0.02 0.01 0.00 0.00
0.79 0.63 0.53 0.28 0.16 0.15 0.12 0.12 0.16 0.18 0.11 0.08 0.07 0.04 0.05 0.17 0.39 0.33 0.76 0.47 0.35 0.36 0.35 0.13 0.01 0.01 0.01 0.01 0.00 0.00 0.01 0.00 0.00 0.00 0.01 0.01 0.00 0.01 0.07 0.05 0.00 0.00 0.00 0.01 0.02 0.02 0.05 0.06 0.02 0.00 0.01 0.00 0.00 0.00
0.74 0.59 0.49 0.33 0.20 0.18 0.24 0.22 0.20 0.15 0.06 0.06 0.09 0.09 0.14 0.43 0.35 0.56 0.71 0.34 0.25 0.21 0.17 0.06 0.01 0.01 0.01 0.00 0.00 0.00 0.00 0.00 0.01 0.02 0.01 0.00 0.00 0.07 0.11 0.05 0.00 0.00 0.00 0.00 0.00 0.02 0.03 0.01 0.01 0.00 0.00 0.00 0.00 0.00
0.70 0.57 0.41 0.28 0.22 0.26 0.29 0.34 0.27 0.16 0.10 0.09 0.12 0.16 0.40 0.46 0.33 0.29 0.10 0.05 0.07 0.08 0.05 0.05 0.02 0.02 0.02 0.02 0.02 0.00 0.02 0.03 0.02 0.03 0.01 0.00 0.01 0.04 0.06 0.00 0.00 0.00 0.00 0.00 0.00 0.01 0.04 0.03 0.01 0.00 0.00 0.00 0.00 0.02
0.46 0.30 0.20 0.17 0.18 0.19 0.26 0.38 0.37 0.28 0.17 0.16 0.20 0.36 0.52 0.47 0.37 0.09 0.05 0.04 0.02 0.10 0.10 0.03 0.02 0.02 0.01 0.00 0.01 0.00 0.01 0.01 0.01 0.01 0.01 0.01 0.02 0.04 0.01 0.00 0.00 0.00 0.00 0.00 0.01 0.00 0.00 0.01 0.01 0.00 0.01 0.03 0.10 0.26
0.20 0.12 0.06 0.06 0.08 0.13 0.17 0.26 0.34 0.47 0.61 0.83 0.80 0.87 0.72 0.41 0.21 0.11 0.16 0.28 0.37 0.27 0.12 0.05 0.03 0.02 0.01 0.01 0.02 0.02 0.06 0.03 0.01 0.01 0.00 0.00 0.00 0.00 0.00 0.00 0.00 0.00 0.00 0.00 0.00 0.00 0.02 0.04 0.05 0.09 0.16 0.20 0.22 0.19
0.20 0.14 0.07 0.05 0.06 0.09 0.12 0.20 0.35 0.62 1.39 1.63 1.52 1.03 0.61 0.46 0.22 0.30 0.34 0.37 0.34 0.17 0.09 0.09 0.09 0.06 0.03 0.09 0.15 0.23 0.21 0.08 0.04 0.01 0.01 0.02 0.01 0.00 0.00 0.00 0.00 0.00 0.00 0.00 0.00 0.01 0.04 0.10 0.25 0.25 0.16 0.09 0.06 0.02
0.22 0.14 0.09 0.07 0.07 0.08 0.05 0.16 0.35 0.65 1.10 1.55 1.18 0.78 0.75 0.92 0.74 0.81 0.80 0.39 0.13 0.06 0.03 0.01 0.02 0.05 0.11 0.11 0.17 0.31 0.24 0.17 0.10 0.01 0.05 0.04 0.02 0.01 0.01 0.01 0.00 0.00 0.00 0.02 0.07 0.15 0.18 0.18 0.13 0.09 0.04 0.02 0.01 0.01
0.20 0.14 0.15 0.11 0.08 0.09 0.08 0.14 0.21 0.31 0.53 0.92 1.15 1.35 1.30 1.52 1.29 0.92 0.48 0.20 0.07 0.02 0.01 0.01 0.04 0.08 0.09 0.09 0.25 0.32 0.35 0.25 0.08 0.08 0.07 0.10 0.08 0.08 0.10 0.08 0.09 0.10 0.11 0.13 0.10 0.09 0.07 0.04 0.01 0.00 0.01 0.00 0.00 0.00
0.11 0.09 0.10 0.10 0.13 0.16 0.15 0.12 0.18 0.31 0.40 0.77 1.02 1.32 1.10 1.12 0.74 0.46 0.19 0.08 0.06 0.06 0.04 0.03 0.05 0.06 0.08 0.15 0.44 0.56 0.57 0.31 0.32 0.18 0.11 0.18 0.29 0.29 0.10 0.01 0.01 0.01 0.01 0.01 0.00 0.00 0.00 0.00 0.00 0.00 0.00 0.00 0.00 0.00
0.08 0.03 0.04 0.06 0.09 0.12 0.19 0.19 0.14 0.10 0.19 0.30 0.34 0.56 0.54 0.44 0.31 0.21 0.17 0.16 0.16 0.18 0.23 0.27 0.31 0.29 0.31 0.45 0.45 0.40 0.38 0.35 0.28 0.29 0.28 0.25 0.29 0.16 0.02 0.01 0.01 0.03 0.03 0.01 0.00 0.00 0.00 0.00 0.00 0.00 0.00 0.00 0.00 0.00
0.21 0.05 0.02 0.02 0.06 0.09 0.09 0.18 0.12 0.15 0.26 0.28 0.24 0.26 0.27 0.20 0.24 0.24 0.26 0.27 0.27 0.35 0.35 0.35 0.34 0.34 0.41 0.37 0.29 0.29 0.31 0.33 0.33 0.12 0.04 0.05 0.08 0.09 0.08 0.06 0.09 0.08 0.02 0.00 0.00 0.00 0.00 0.00 0.00 0.00 0.00 0.00 0.00 0.00
0.37 0.09 0.01 0.00 0.00 0.05 0.09 0.10 0.20 0.25 0.30 0.18 0.26 0.23 0.18 0.17 0.18 0.23 0.22 0.19 0.18 0.23 0.25 0.17 0.16 0.18 0.17 0.20 0.24 0.22 0.25 0.17 0.06 0.03 0.03 0.03 0.05 0.04 0.01 0.02 0.00 0.00 0.00 0.00 0.00 0.00 0.00 0.00 0.00 0.00 0.00 0.00 0.00 0.00
0.44 0.09 0.01 0.00 0.01 0.02 0.08 0.03 0.10 0.04 0.05 0.11 0.13 0.20 0.17 0.18 0.16 0.14 0.11 0.07 0.06 0.09 0.11 0.08 0.06 0.09 0.15 0.16 0.14 0.07 0.07 0.05 0.04 0.03 0.03 0.04 0.03 0.01 0.01 0.00 0.00 0.00 0.00 0.00 0.00 0.00 0.00 0.00 0.00 0.00 0.00 0.00 0.00 0.00
0.26 0.18 0.04 0.05 0.01 0.01 0.07 0.05 0.02 0.03 0.08 0.09 0.13 0.12 0.09 0.11 0.10 0.08 0.05 0.05 0.06 0.08 0.11 0.12 0.14 0.14 0.15 0.14 0.14 0.09 0.05 0.03 0.02 0.01 0.02 0.04 0.05 0.04 0.02 0.00 0.00 0.00 0.00 0.00 0.00 0.00 0.00 0.00 0.00 0.00 0.00 0.00 0.01 0.02
0.50 0.46 0.25 0.13 0.01 0.00 0.00 0.01 0.00 0.02 0.04 0.06 0.08 0.07 0.05 0.07 0.05 0.02 0.02 0.00 0.01 0.02 0.06 0.10 0.16 0.17 0.16 0.17 0.15 0.08 0.03 0.01 0.00 0.01 0.04 0.05 0.03 0.01 0.00 0.00 0.01 0.00 0.00 0.00 0.00 0.00 0.00 0.00 0.01 0.01 0.02 0.04 0.04 0.03
0.62 0.65 0.46 0.25 0.09 0.00 0.00 0.00 0.00 0.01 0.02 0.02 0.03 0.01 0.01 0.02 0.01 0.01 0.00 0.00 0.01 0.05 0.08 0.12 0.13 0.11 0.09 0.11 0.09 0.05 0.03 0.01 0.00 0.00 0.01 0.02 0.01 0.00 0.01 0.01 0.01 0.01 0.01 0.01 0.00 0.00 0.01 0.01 0.02 0.03 0.06 0.03 0.02 0.02
0.37 0.45 0.41 0.35 0.21 0.03 0.00 0.00 0.01 0.00 0.01 0.01 0.01 0.01 0.01 0.03 0.02 0.02 0.01 0.01 0.04 0.10 0.09 0.08 0.09 0.04 0.03 0.05 0.07 0.10 0.11 0.08 0.06 0.04 0.03 0.03 0.04 0.04 0.04 0.04 0.03 0.03 0.03 0.04 0.04 0.02 0.01 0.02 0.03 0.03 0.02 0.02 0.03 0.03
0.29 0.38 0.37 0.37 0.27 0.09 0.04 0.00 0.00 0.00 0.01 0.01 0.03 0.02 0.02 0.02 0.02 0.01 0.03 0.05 0.07 0.11 0.10 0.08 0.09 0.08 0.08 0.07 0.03 0.03 0.04 0.06 0.11 0.14 0.12 0.09 0.08 0.07 0.07 0.07 0.06 0.06 0.04 0.02 0.03 0.03 0.03 0.02 0.01 0.02 0.03 0.03 0.03 0.03
0.31 0.37 0.38 0.31 0.20 0.13 0.05 0.04 0.02 0.02 0.01 0.02 0.02 0.03 0.02 0.01 0.02 0.03 0.04 0.08 0.10 0.05 0.06 0.10 0.14 0.15 0.11 0.09 0.10 0.11 0.12 0.08 0.08 0.10 0.10 0.07 0.07 0.08 0.07 0.06 0.04 0.05 0.05 0.03 0.02 0.01 0.01 0.02 0.04 0.04 0.03 0.04 0.04 0.06
0.41 0.30 0.25 0.20 0.11 0.05 0.03 0.03 0.04 0.03 0.02 0.02 0.03 0.03 0.02 0.02 0.03 0.03 0.05 0.14 0.09 0.10 0.12 0.15 0.13 0.14 0.14 0.16 0.15 0.13 0.11 0.09 0.08 0.07 0.09 0.09 0.08 0.05 0.03 0.03 0.03 0.03 0.02 0.03 0.03 0.04 0.04 0.04 0.04 0.04 0.04 0.06 0.08 0.08
0.28 0.17 0.12 0.07 0.04 0.06 0.04 0.03 0.03 0.03 0.03 0.06 0.06 0.05 0.04 0.06 0.04 0.06 0.09 0.17 0.14 0.14 0.15 0.16 0.16 0.11 0.11 0.10 0.10 0.10 0.08 0.09 0.06 0.06 0.07 0.05 0.05 0.07 0.05 0.04 0.03 0.04 0.04 0.05 0.09 0.08 0.04 0.03 0.04 0.05 0.06 0.05 0.07 0.11
0.11 0.08 0.03 0.03 0.06 0.11 0.11 0.07 0.08 0.10 0.08 0.10 0.08 0.07 0.12 0.12 0.08 0.12 0.13 0.15 0.16 0.17 0.15 0.13 0.10 0.08 0.09 0.09 0.07 0.05 0.03 0.01 0.01 0.02 0.02 0.02 0.03 0.04 0.09 0.14 0.15 0.11 0.05 0.07 0.10 0.11 0.12 0.10 0.08 0.07 0.08 0.07 0.08 0.15
0.06 0.05 0.06 0.10 0.15 0.17 0.18 0.15 0.17 0.18 0.18 0.16 0.14 0.12 0.13 0.12 0.14 0.15 0.15 0.16 0.16 0.12 0.08 0.05 0.03 0.02 0.03 0.04 0.04 0.03 0.02 0.01 0.01 0.01 0.02 0.06 0.08 0.08 0.08 0.10 0.10 0.08 0.07 0.08 0.09 0.09 0.11 0.14 0.13 0.11 0.12 0.14 0.17 0.18
0.12 0.16 0.13 0.12 0.08 0.07 0.10 0.13 0.14 0.15 0.13 0.13 0.11 0.09 0.08 0.07 0.13 0.13 0.12 0.10 0.09 0.07 0.05 0.05 0.07 0.06 0.04 0.02 0.02 0.02 0.01 0.01 0.02 0.02 0.02 0.03 0.10 0.08 0.06 0.07 0.07 0.06 0.06 0.05 0.05 0.08 0.12 0.16 0.13 0.16 0.22 0.21 0.17 0.15
0.07 0.07 0.05 0.03 0.03 0.06 0.07 0.06 0.07 0.06 0.04 0.04 0.03 0.03 0.04 0.09 0.13 0.11 0.08 0.06 0.06 0.08 0.09 0.07 0.06 0.03 0.04 0.03 0.02 0.05 0.08 0.05 0.06 0.09 0.08 0.08 0.09 0.08 0.06 0.06 0.06 0.06 0.06 0.06 0.05 0.04 0.05 0.05 0.07 0.14 0.10 0.08 0.10 0.12
0.01 0.02 0.02 0.02 0.04 0.06 0.04 0.03 0.06 0.07 0.05 0.04 0.04 0.04 0.10 0.10 0.11 0.07 0.06 0.10 0.05 0.05 0.05 0.03 0.02 0.02 0.03 0.03 0.05 0.05 0.08 0.07 0.08 0.08 0.08 0.08 0.07 0.06 0.06 0.05 0.05 0.05 0.05 0.06 0.05 0.06 0.06 0.06 0.09 0.10 0.06 0.06 0.07 0.07
0.02 0.02 0.01 0.02 0.04 0.02 0.01 0.02 0.03 0.07 0.06 0.05 0.07 0.05 0.09 0.08 0.06 0.08 0.06 0.06 0.03 0.03 0.03 0.05 0.05 0.06 0.08 0.09 0.09 0.09 0.08 0.07 0.06 0.06 0.07 0.07 0.07 0.07 0.05 0.04 0.04 0.05 0.05 0.05 0.06 0.07 0.08 0.07 0.08 0.07 0.08 0.06 0.07 0.06
0.02 0.02 0.02 0.02 0.01 0.02 0.02 0.01 0.01 0.02 0.03 0.05 0.08 0.08 0.08 0.07 0.07 0.09 0.08 0.05 0.06 0.06 0.06 0.07 0.07 0.09 0.10 0.07 0.06 0.07 0.05 0.05 0.06 0.06 0.07 0.07 0.06 0.04 0.04 0.04 0.04 0.05 0.05 0.05 0.06 0.08 0.06 0.06 0.06 0.07 0.06 0.05 0.04 0.04

GFSWCAN_prec_precacc_042.txt.gz
Total_Precipitation_Accumulation
0.44 0.16 0.23 0.31 0.32 0.20 0.14 0.18 0.21 0.19 0.27 0.20 0.10 0.10 0.09 0.05 0.06 0.26 0.24 0.31 0.47 0.27 0.12 0.04 0.01 0.01 0.00 0.01 0.10 0.05 0.10 0.05 0.06 0.03 0.01 0.00 0.00 0.00 0.00 0.00 0.00 0.00 0.00 0.00 0.01 0.01 0.01 0.00 0.00 0.02 0.03 0.02 0.02 0.01
0.63 0.38 0.37 0.31 0.31 0.22 0.14 0.17 0.20 0.18 0.25 0.14 0.07 0.09 0.07 0.04 0.09 0.27 0.27 0.18 0.33 0.43 0.23 0.06 0.04 0.00 0.00 0.00 0.04 0.10 0.06 0.02 0.02 0.01 0.01 0.02 0.00 0.00 0.00 0.00 0.00 0.00 0.00 0.00 0.02 0.01 0.00 0.00 0.01 0.02 0.01 0.04 0.03 0.01
0.94 0.56 0.41 0.32 0.26 0.17 0.15 0.15 0.17 0.18 0.19 0.08 0.07 0.10 0.06 0.05 0.12 0.31 0.29 0.30 1.05 0.57 0.24 0.10 0.05 0.01 0.00 0.01 0.03 0.06 0.04 0.01 0.01 0.01 0.00 0.01 0.02 0.00 0.00 0.00 0.00 0.00 0.00 0.00 0.01 0.00 0.00 0.01 0.00 0.01 0.01 0.00 0.00 0.01
0.99 0.68 0.47 0.33 0.20 0.14 0.14 0.14 0.12 0.14 0.11 0.05 0.08 0.08 0.06 0.06 0.17 0.34 0.27 0.60 1.40 0.76 0.65 0.20 0.06 0.05 0.04 0.01 0.03 0.02 0.02 0.00 0.00 0.01 0.01 0.02 0.02 0.00 0.00 0.00 0.00 0.00 0.00 0.00 0.01 0.00 0.01 0.02 0.04 0.03 0.01 0.01 0.00 0.00
0.85 0.71 0.53 0.33 0.18 0.12 0.12 0.11 0.10 0.11 0.11 0.08 0.07 0.05 0.05 0.08 0.29 0.29 0.40 0.68 1.00 0.84 0.76 0.51 0.06 0.06 0.08 0.04 0.02 0.02 0.01 0.00 0.01 0.01 0.03 0.02 0.00 0.00 0.01 0.04 0.04 0.00 0.00 0.02 0.02 0.02 0.04 0.08 0.04 0.03 0.02 0.01 0.00 0.00
0.79 0.63 0.53 0.28 0.16 0.15 0.13 0.12 0.16 0.18 0.11 0.08 0.07 0.05 0.08 0.23 0.46 0.44 0.90 0.55 0.48 0.52 0.66 0.72 0.33 0.10 0.07 0.10 0.05 0.03 0.02 0.02 0.01 0.01 0.02 0.01 0.00 0.01 0.07 0.05 0.00 0.00 0.00 0.01 0.02 0.02 0.05 0.06 0.02 0.00 0.01 0.00 0.00 0.00
0.74 0.59 0.49 0.33 0.20 0.18 0.24 0.22 0.20 0.15 0.07 0.07 0.10 0.11 0.19 0.49 0.42 0.69 0.95 0.54 0.52 0.54 0.55 0.47 0.61 0.13 0.11 0.10 0.10 0.07 0.04 0.04 0.04 0.03 0.01 0.00 0.00 0.07 0.11 0.05 0.00 0.00 0.00 0.00 0.00 0.02 0.03 0.01 0.01 0.00 0.00 0.00 0.00 0.00
0.73 0.58 0.42 0.28 0.23 0.26 0.29 0.34 0.27 0.16 0.10 0.09 0.12 0.20 0.47 0.58 0.51 0.74 0.45 0.50 0.50 0.59 0.24 0.22 0.30 0.16 0.11 0.07 0.12 0.09 0.19 0.09 0.06 0.04 0.01 0.00 0.01 0.04 0.06 0.00 0.00 0.00 0.00 0.00 0.00 0.01 0.04 0.03 0.01 0.00 0.00 0.00 0.00 0.02
0.50 0.33 0.24 0.21 0.22 0.23 0.29 0.39 0.39 0.29 0.18 0.18 0.25 0.54 0.73 0.73 0.82 0.63 0.41 0.36 0.42 0.46 0.24 0.06 0.10 0.08 0.05 0.01 0.01 0.02 0.08 0.05 0.03 0.03 0.01 0.01 0.02 0.04 0.01 0.00 0.00 0.00 0.00 0.00 0.01 0.00 0.00 0.01 0.01 0.00 0.01 0.03 0.10 0.26
0.28 0.21 0.14 0.12 0.11 0.16 0.20 0.29 0.36 0.48 0.65 0.97 1.12 1.30 1.17 0.85 0.70 0.51 0.50 0.50 0.45 0.29 0.12 0.05 0.04 0.03 0.01 0.01 0.02 0.03 0.06 0.03 0.01 0.01 0.00 0.01 0.00 0.00 0.00 0.00 0.00 0.00 0.00 0.00 0.00 0.00 0.02 0.04 0.05 0.09 0.16 0.20 0.22 0.19
0.24 0.17 0.11 0.08 0.09 0.11 0.15 0.23 0.39 0.70 1.59 1.92 1.96 1.53 1.08 0.82 0.58 0.59 0.51 0.43 0.35 0.17 0.09 0.09 0.09 0.06 0.03 0.10 0.15 0.24 0.22 0.09 0.04 0.01 0.01 0.02 0.01 0.00 0.00 0.00 0.00 0.00 0.00 0.00 0.00 0.01 0.04 0.10 0.25 0.25 0.16 0.09 0.06 0.02
0.25 0.17 0.12 0.09 0.09 0.10 0.07 0.19 0.43 0.80 1.30 1.66 1.39 1.04 0.93 1.08 0.80 0.83 0.81 0.39 0.13 0.06 0.03 0.01 0.02 0.05 0.11 0.12 0.18 0.32 0.26 0.19 0.11 0.01 0.05 0.04 0.02 0.01 0.01 0.01 0.01 0.00 0.00 0.02 0.07 0.15 0.18 0.18 0.13 0.09 0.04 0.02 0.01 0.01
0.25 0.18 0.19 0.14 0.10 0.11 0.13 0.21 0.33 0.39 0.55 1.02 1.24 1.44 1.33 1.52 1.29 0.92 0.48 0.20 0.07 0.02 0.01 0.01 0.04 0.08 0.09 0.09 0.25 0.33 0.36 0.25 0.08 0.08 0.07 0.10 0.08 0.08 0.10 0.08 0.09 0.10 0.11 0.13 0.10 0.09 0.07 0.04 0.01 0.00 0.01 0.00 0.00 0.00
0.20 0.15 0.15 0.15 0.19 0.24 0.20 0.16 0.22 0.32 0.41 0.82 1.03 1.32 1.10 1.12 0.75 0.47 0.20 0.08 0.07 0.06 0.04 0.03 0.05 0.07 0.08 0.16 0.44 0.57 0.57 0.31 0.32 0.18 0.11 0.18 0.29 0.29 0.10 0.01 0.01 0.01 0.01 0.01 0.00 0.00 0.00 0.00 0.00 0.00 0.00 0.00 0.00 0.00
0.10 0.04 0.06 0.13 0.15 0.14 0.21 0.21 0.14 0.10 0.19 0.30 0.34 0.57 0.55 0.44 0.31 0.21 0.18 0.17 0.16 0.18 0.23 0.27 0.31 0.29 0.31 0.46 0.45 0.40 0.38 0.35 0.28 0.29 0.28 0.25 0.29 0.16 0.02 0.01 0.01 0.03 0.03 0.01 0.00 0.00 0.00 0.00 0.00 0.00 0.00 0.00 0.00 0.00
0.21 0.05 0.03 0.04 0.06 0.09 0.09 0.18 0.12 0.15 0.26 0.28 0.25 0.27 0.27 0.21 0.25 0.25 0.27 0.28 0.28 0.35 0.35 0.35 0.35 0.34 0.41 0.37 0.29 0.29 0.31 0.33 0.33 0.12 0.04 0.05 0.08 0.09 0.08 0.06 0.10 0.08 0.02 0.00 0.00 0.00 0.00 0.00 0.00 0.00 0.00 0.00 0.00 0.00
0.37 0.09 0.01 0.00 0.00 0.05 0.09 0.10 0.20 0.26 0.33 0.20 0.29 0.27 0.21 0.18 0.20 0.25 0.23 0.20 0.19 0.23 0.25 0.17 0.16 0.18 0.18 0.21 0.25 0.23 0.26 0.17 0.07 0.03 0.03 0.04 0.05 0.04 0.02 0.03 0.01 0.02 0.03 0.01 0.00 0.00 0.00 0.00 0.00 0.00 0.00 0.00 0.00 0.00
0.44 0.09 0.01 0.00 0.01 0.02 0.08 0.03 0.10 0.05 0.07 0.17 0.19 0.30 0.24 0.27 0.24 0.22 0.21 0.14 0.11 0.14 0.15 0.14 0.11 0.15 0.21 0.21 0.19 0.13 0.12 0.09 0.07 0.06 0.06 0.06 0.05 0.03 0.03 0.02 0.02 0.02 0.02 0.00 0.00 0.00 0.00 0.00 0.00 0.00 0.00 0.00 0.00 0.00
0.26 0.18 0.04 0.05 0.01 0.01 0.07 0.05 0.02 0.05 0.14 0.17 0.21 0.19 0.15 0.19 0.19 0.18 0.14 0.13 0.14 0.13 0.15 0.18 0.20 0.21 0.22 0.21 0.24 0.19 0.14 0.11 0.09 0.07 0.07 0.09 0.08 0.06 0.05 0.02 0.04 0.04 0.01 0.00 0.00 0.00 0.00 0.00 0.00 0.00 0.00 0.00 0.01 0.02
0.50 0.46 0.25 0.13 0.01 0.00 0.00 0.01 0.00 0.02 0.08 0.12 0.15 0.12 0.09 0.13 0.08 0.04 0.04 0.03 0.03 0.03 0.09 0.15 0.24 0.26 0.27 0.31 0.28 0.19 0.13 0.08 0.02 0.04 0.10 0.13 0.10 0.05 0.05 0.05 0.04 0.02 0.00 0.00 0.00 0.00 0.00 0.00 0.01 0.01 0.02 0.04 0.04 0.03
0.62 0.65 0.46 0.25 0.09 0.00 0.00 0.00 0.01 0.02 0.03 0.05 0.06 0.02 0.04 0.03 0.01 0.01 0.00 0.00 0.01 0.07 0.14 0.22 0.22 0.20 0.19 0.23 0.19 0.12 0.10 0.07 0.02 0.02 0.04 0.07 0.07 0.04 0.04 0.04 0.02 0.02 0.01 0.02 0.01 0.01 0.02 0.02 0.02 0.03 0.06 0.03 0.02 0.02
0.37 0.45 0.41 0.35 0.21 0.03 0.00 0.00 0.01 0.00 0.01 0.02 0.01 0.01 0.01 0.03 0.03 0.02 0.01 0.01 0.06 0.15 0.16 0.14 0.14 0.09 0.07 0.10 0.14 0.16 0.18 0.13 0.09 0.07 0.06 0.05 0.06 0.07 0.07 0.08 0.05 0.06 0.07 0.08 0.07 0.06 0.04 0.03 0.03 0.03 0.02 0.02 0.03 0.03
0.29 0.38 0.37 0.37 0.27 0.09 0.04 0.00 0.00 0.00 0.01 0.01 0.03 0.02 0.02 0.02 0.04 0.02 0.04 0.05 0.10 0.16 0.15 0.12 0.11 0.10 0.09 0.10 0.05 0.06 0.09 0.11 0.17 0.21 0.19 0.15 0.14 0.14 0.12 0.13 0.12 0.11 0.09 0.07 0.06 0.05 0.04 0.03 0.01 0.02 0.03 0.03 0.03 0.03
0.31 0.37 0.38 0.31 0.20 0.13 0.05 0.04 0.02 0.02 0.01 0.02 0.02 0.03 0.02 0.02 0.02 0.03 0.05 0.09 0.13 0.06 0.07 0.11 0.15 0.15 0.11 0.09 0.10 0.11 0.14 0.10 0.11 0.13 0.15 0.11 0.11 0.13 0.11 0.10 0.08 0.09 0.09 0.06 0.04 0.02 0.01 0.02 0.04 0.04 0.03 0.04 0.04 0.06
0.41 0.30 0.25 0.20 0.11 0.05 0.03 0.03 0.04 0.03 0.02 0.02 0.03 0.03 0.02 0.02 0.03 0.03 0.06 0.16 0.10 0.11 0.13 0.16 0.13 0.14 0.15 0.16 0.15 0.13 0.12 0.10 0.08 0.08 0.12 0.11 0.10 0.08 0.06 0.06 0.06 0.05 0.03 0.03 0.03 0.04 0.04 0.04 0.04 0.04 0.04 0.06 0.08 0.08
0.28 0.17 0.12 0.07 0.05 0.06 0.04 0.03 0.03 0.03 0.03 0.06 0.06 0.05 0.04 0.06 0.04 0.06 0.11 0.18 0.15 0.15 0.16 0.17 0.17 0.12 0.11 0.10 0.10 0.10 0.09 0.10 0.07 0.06 0.08 0.06 0.06 0.08 0.06 0.05 0.04 0.04 0.04 0.05 0.09 0.08 0.04 0.03 0.04 0.05 0.06 0.05 0.08 0.12
0.12 0.08 0.04 0.03 0.06 0.11 0.11 0.07 0.08 0.10 0.08 0.10 0.09 0.07 0.14 0.13 0.09 0.14 0.14 0.16 0.17 0.18 0.15 0.13 0.10 0.08 0.10 0.10 0.07 0.06 0.03 0.01 0.01 0.03 0.03 0.02 0.03 0.04 0.09 0.14 0.15 0.11 0.05 0.07 0.10 0.11 0.12 0.10 0.08 0.07 0.08 0.07 0.08 0.15
0.06 0.05 0.06 0.10 0.15 0.17 0.18 0.15 0.17 0.18 0.18 0.17 0.15 0.12 0.14 0.12 0.15 0.17 0.18 0.19 0.19 0.13 0.08 0.05 0.03 0.03 0.03 0.05 0.04 0.04 0.02 0.01 0.01 0.01 0.03 0.06 0.08 0.08 0.08 0.10 0.10 0.08 0.07 0.08 0.09 0.09 0.12 0.14 0.13 0.11 0.12 0.15 0.17 0.18
0.12 0.16 0.13 0.12 0.08 0.08 0.11 0.14 0.15 0.15 0.14 0.14 0.12 0.09 0.09 0.09 0.16 0.16 0.15 0.12 0.10 0.07 0.05 0.06 0.09 0.06 0.04 0.02 0.02 0.02 0.01 0.01 0.02 0.02 0.02 0.04 0.10 0.08 0.06 0.07 0.07 0.06 0.06 0.05 0.05 0.09 0.12 0.16 0.14 0.17 0.22 0.21 0.17 0.16
0.07 0.07 0.05 0.03 0.03 0.06 0.07 0.06 0.07 0.07 0.04 0.04 0.03 0.03 0.05 0.10 0.16 0.13 0.09 0.06 0.07 0.08 0.09 0.08 0.07 0.04 0.04 0.03 0.02 0.05 0.08 0.05 0.06 0.09 0.08 0.08 0.09 0.08 0.06 0.07 0.06 0.06 0.07 0.07 0.05 0.04 0.05 0.06 0.07 0.14 0.10 0.08 0.10 0.12
0.01 0.02 0.02 0.02 0.04 0.07 0.05 0.04 0.06 0.07 0.05 0.04 0.04 0.04 0.11 0.11 0.12 0.07 0.07 0.11 0.06 0.05 0.05 0.03 0.02 0.02 0.03 0.04 0.05 0.05 0.08 0.07 0.08 0.08 0.08 0.08 0.07 0.06 0.06 0.05 0.05 0.05 0.05 0.06 0.06 0.06 0.07 0.07 0.09 0.10 0.07 0.06 0.08 0.07
0.02 0.02 0.01 0.02 0.04 0.02 0.02 0.04 0.06 0.09 0.07 0.05 0.07 0.06 0.09 0.08 0.07 0.08 0.07 0.06 0.03 0.03 0.04 0.05 0.05 0.07 0.08 0.09 0.09 0.09 0.09 0.08 0.06 0.06 0.07 0.07 0.07 0.07 0.05 0.04 0.04 0.05 0.05 0.05 0.06 0.08 0.08 0.08 0.08 0.08 0.09 0.07 0.07 0.06
0.02 0.02 0.02 0.02 0.02 0.03 0.02 0.01 0.02 0.02 0.04 0.05 0.08 0.08 0.09 0.07 0.07 0.10 0.09 0.06 0.06 0.06 0.06 0.07 0.07 0.10 0.11 0.07 0.06 0.07 0.05 0.05 0.06 0.06 0.07 0.07 0.06 0.05 0.04 0.04 0.04 0.05 0.05 0.06 0.07 0.08 0.07 0.06 0.06 0.07 0.06 0.06 0.05 0.05

GFSWCAN_prec_precacc_045.txt.gz
Total_Precipitation_Accumulation
0.64 0.38 0.38 0.41 0.41 0.25 0.18 0.20 0.22 0.20 0.27 0.20 0.10 0.10 0.10 0.06 0.07 0.38 0.29 0.33 0.53 0.32 0.15 0.07 0.02 0.01 0.00 0.01 0.10 0.05 0.11 0.06 0.09 0.06 0.03 0.00 0.00 0.00 0.00 0.00 0.00 0.00 0.00 0.00 0.01 0.01 0.01 0.00 0.00 0.02 0.03 0.02 0.02 0.01
0.71 0.45 0.41 0.34 0.34 0.25 0.16 0.18 0.21 0.19 0.25 0.14 0.07 0.09 0.07 0.05 0.10 0.34 0.31 0.22 0.40 0.47 0.31 0.09 0.04 0.00 0.00 0.00 0.04 0.10 0.06 0.02 0.03 0.04 0.02 0.03 0.00 0.00 0.00 0.00 0.00 0.00 0.00 0.00 0.02 0.01 0.00 0.00 0.01 0.02 0.01 0.04 0.03 0.01
0.95 0.57 0.42 0.33 0.27 0.18 0.16 0.16 0.18 0.18 0.19 0.08 0.07 0.10 0.07 0.06 0.13 0.33 0.32 0.33 1.12 0.62 0.41 0.13 0.06 0.02 0.00 0.01 0.03 0.06 0.05 0.02 0.03 0.03 0.02 0.01 0.02 0.00 0.00 0.00 0.00 0.00 0.00 0.00 0.01 0.00 0.00 0.01 0.00 0.01 0.01 0.00 0.00 0.01
1.00 0.69 0.47 0.35 0.22 0.15 0.15 0.16 0.15 0.16 0.14 0.06 0.09 0.09 0.07 0.08 0.24 0.37 0.29 0.66 1.44 0.81 0.86 0.29 0.13 0.11 0.06 0.02 0.03 0.02 0.04 0.03 0.02 0.03 0.03 0.03 0.02 0.00 0.00 0.00 0.00 0.00 0.00 0.00 0.01 0.00 0.01 0.02 0.04 0.03 0.01 0.01 0.00 0.00
0.85 0.72 0.55 0.35 0.19 0.14 0.14 0.15 0.14 0.15 0.16 0.10 0.09 0.08 0.09 0.13 0.41 0.33 0.43 0.75 1.06 0.88 0.92 0.61 0.11 0.14 0.14 0.06 0.02 0.02 0.04 0.03 0.03 0.05 0.05 0.02 0.00 0.00 0.01 0.04 0.04 0.00 0.00 0.02 0.02 0.02 0.04 0.08 0.04 0.03 0.02 0.01 0.00 0.00
0.79 0.63 0.54 0.28 0.17 0.16 0.14 0.14 0.19 0.24 0.17 0.12 0.13 0.13 0.15 0.30 0.60 0.50 0.92 0.58 0.57 0.66 0.75 0.78 0.35 0.16 0.16 0.15 0.06 0.04 0.04 0.04 0.02 0.02 0.02 0.01 0.00 0.01 0.07 0.05 0.00 0.00 0.00 0.01 0.02 0.02 0.05 0.06 0.02 0.00 0.01 0.00 0.00 0.00
0.74 0.59 0.49 0.33 0.20 0.18 0.24 0.23 0.22 0.19 0.13 0.16 0.19 0.23 0.25 0.56 0.51 0.73 0.99 0.56 0.53 0.69 0.72 0.60 0.76 0.18 0.20 0.21 0.19 0.12 0.07 0.08 0.06 0.04 0.01 0.00 0.00 0.07 0.11 0.05 0.00 0.00 0.00 0.00 0.00 0.02 0.03 0.01 0.01 0.00 0.00 0.00 0.00 0.00
0.73 0.58 0.42 0.28 0.23 0.26 0.29 0.34 0.28 0.17 0.15 0.13 0.15 0.23 0.50 0.62 0.56 0.76 0.55 0.62 0.54 0.64 0.33 0.33 0.43 0.38 0.26 0.19 0.40 0.25 0.27 0.15 0.10 0.05 0.02 0.00 0.01 0.04 0.06 0.00 0.00 0.00 0.00 0.00 0.00 0.01 0.04 0.03 0.01 0.00 0.00 0.00 0.00 0.02
0.50 0.33 0.24 0.21 0.22 0.23 0.29 0.39 0.39 0.29 0.19 0.19 0.26 0.56 0.82 0.83 0.91 0.68 0.62 0.68 0.79 0.69 0.40 0.14 0.23 0.21 0.38 0.21 0.27 0.41 0.32 0.33 0.09 0.06 0.02 0.02 0.02 0.04 0.01 0.00 0.00 0.00 0.00 0.00 0.01 0.00 0.00 0.01 0.01 0.00 0.01 0.03 0.10 0.26
0.30 0.22 0.14 0.12 0.11 0.16 0.20 0.29 0.36 0.48 0.65 1.00 1.22 1.45 1.32 0.97 0.80 0.66 0.80 0.87 0.99 0.63 0.30 0.15 0.08 0.17 0.19 0.21 0.20 0.33 0.36 0.34 0.30 0.12 0.03 0.03 0.01 0.00 0.00 0.00 0.00 0.00 0.00 0.00 0.00 0.00 0.02 0.04 0.05 0.09 0.16 0.20 0.22 0.19
0.27 0.19 0.11 0.09 0.09 0.11 0.15 0.23 0.39 0.73 1.70 2.11 2.15 1.83 1.30 1.07 0.83 0.90 0.91 0.79 0.66 0.30 0.15 0.14 0.10 0.13 0.12 0.22 0.26 0.33 0.44 0.20 0.10 0.10 0.05 0.04 0.01 0.00 0.00 0.00 0.00 0.00 0.00 0.00 0.00 0.01 0.04 0.10 0.25 0.25 0.16 0.09 0.06 0.02
0.29 0.19 0.12 0.09 0.09 0.10 0.08 0.21 0.47 0.91 1.50 1.86 1.59 1.28 1.26 1.48 1.16 1.13 1.04 0.55 0.24 0.11 0.03 0.02 0.02 0.06 0.17 0.17 0.25 0.36 0.27 0.19 0.11 0.01 0.05 0.04 0.02 0.01 0.02 0.02 0.01 0.00 0.01 0.03 0.08 0.15 0.18 0.18 0.13 0.09 0.04 0.02 0.01 0.01
0.27 0.20 0.19 0.15 0.11 0.13 0.16 0.29 0.50 0.63 0.78 1.17 1.46 1.73 1.65 1.74 1.41 0.99 0.52 0.21 0.08 0.02 0.01 0.01 0.04 0.08 0.09 0.09 0.26 0.34 0.36 0.25 0.08 0.08 0.07 0.10 0.08 0.08 0.11 0.08 0.09 0.11 0.11 0.13 0.10 0.09 0.07 0.04 0.01 0.00 0.01 0.00 0.00 0.00
0.23 0.17 0.18 0.20 0.26 0.31 0.31 0.36 0.50 0.53 0.59 1.13 1.29 1.43 1.17 1.14 0.75 0.47 0.20 0.08 0.07 0.07 0.04 0.03 0.05 0.08 0.09 0.16 0.44 0.57 0.57 0.31 0.32 0.18 0.11 0.18 0.29 0.29 0.10 0.02 0.01 0.01 0.01 0.01 0.01 0.00 0.00 0.00 0.00 0.00 0.00 0.00 0.00 0.00
0.13 0.10 0.16 0.27 0.23 0.23 0.35 0.37 0.22 0.17 0.32 0.43 0.38 0.57 0.55 0.45 0.33 0.23 0.19 0.17 0.17 0.18 0.23 0.27 0.31 0.31 0.35 0.48 0.47 0.40 0.38 0.35 0.28 0.29 0.28 0.25 0.29 0.16 0.02 0.01 0.01 0.03 0.03 0.01 0.00 0.00 0.01 0.01 0.00 0.00 0.00 0.00 0.00 0.00
0.28 0.10 0.06 0.11 0.12 0.13 0.13 0.18 0.12 0.16 0.26 0.28 0.26 0.28 0.29 0.22 0.27 0.27 0.29 0.29 0.29 0.35 0.35 0.35 0.35 0.34 0.43 0.37 0.30 0.29 0.31 0.34 0.34 0.12 0.04 0.05 0.08 0.09 0.08 0.06 0.10 0.08 0.03 0.01 0.02 0.02 0.02 0.01 0.00 0.00 0.00 0.00 0.00 0.00
0.40 0.10 0.03 0.01 0.02 0.06 0.09 0.10 0.21 0.26 0.33 0.22 0.34 0.32 0.25 0.22 0.24 0.28 0.27 0.23 0.20 0.23 0.26 0.18 0.18 0.20 0.19 0.22 0.26 0.25 0.29 0.19 0.08 0.04 0.03 0.04 0.05 0.04 0.02 0.04 0.03 0.04 0.05 0.02 0.01 0.01 0.00 0.00 0.00 0.00 0.00 0.00 0.00 0.00
0.45 0.10 0.02 0.00 0.01 0.02 0.08 0.04 0.11 0.05 0.09 0.22 0.26 0.39 0.31 0.34 0.32 0.29 0.27 0.18 0.15 0.16 0.16 0.15 0.12 0.16 0.23 0.23 0.22 0.19 0.19 0.16 0.14 0.13 0.11 0.10 0.08 0.07 0.06 0.05 0.05 0.05 0.04 0.02 0.01 0.00 0.00 0.00 0.00 0.00 0.00 0.00 0.00 0.00
0.26 0.18 0.04 0.05 0.01 0.01 0.07 0.05 0.02 0.06 0.20 0.25 0.30 0.27 0.20 0.24 0.25 0.24 0.19 0.17 0.17 0.15 0.16 0.21 0.23 0.25 0.28 0.28 0.32 0.29 0.26 0.23 0.22 0.17 0.14 0.15 0.13 0.11 0.11 0.09 0.10 0.09 0.05 0.02 0.01 0.00 0.00 0.00 0.00 0.00 0.00 0.00 0.01 0.02
0.50 0.46 0.25 0.13 0.01 0.00 0.00 0.01 0.00 0.03 0.12 0.18 0.20 0.13 0.10 0.16 0.10 0.04 0.04 0.03 0.03 0.03 0.10 0.18 0.31 0.34 0.36 0.41 0.40 0.32 0.27 0.21 0.09 0.08 0.17 0.23 0.21 0.14 0.14 0.12 0.10 0.07 0.04 0.03 0.02 0.01 0.00 0.00 0.01 0.01 0.02 0.04 0.04 0.03
0.62 0.65 0.46 0.25 0.09 0.00 0.00 0.00 0.01 0.02 0.05 0.07 0.08 0.02 0.04 0.03 0.01 0.01 0.00 0.00 0.01 0.08 0.20 0.31 0.31 0.29 0.29 0.33 0.28 0.21 0.17 0.14 0.08 0.08 0.09 0.13 0.16 0.11 0.12 0.12 0.08 0.06 0.04 0.04 0.03 0.03 0.04 0.05 0.05 0.04 0.06 0.03 0.02 0.02
0.37 0.45 0.41 0.35 0.21 0.03 0.00 0.00 0.01 0.01 0.01 0.02 0.01 0.01 0.02 0.03 0.03 0.02 0.01 0.02 0.08 0.20 0.24 0.21 0.20 0.15 0.12 0.15 0.20 0.22 0.26 0.20 0.15 0.12 0.11 0.09 0.11 0.12 0.13 0.14 0.10 0.11 0.12 0.14 0.12 0.10 0.08 0.06 0.05 0.05 0.03 0.02 0.03 0.03
0.29 0.38 0.37 0.37 0.27 0.09 0.04 0.00 0.00 0.00 0.01 0.01 0.03 0.02 0.02 0.03 0.04 0.02 0.04 0.06 0.12 0.21 0.21 0.15 0.13 0.12 0.12 0.14 0.08 0.08 0.12 0.14 0.21 0.26 0.24 0.20 0.19 0.19 0.17 0.18 0.18 0.16 0.13 0.12 0.11 0.10 0.08 0.06 0.04 0.03 0.03 0.03 0.03 0.03
0.31 0.37 0.38 0.31 0.20 0.13 0.05 0.04 0.02 0.02 0.01 0.02 0.02 0.03 0.03 0.04 0.02 0.03 0.05 0.10 0.16 0.09 0.08 0.12 0.15 0.15 0.11 0.10 0.10 0.12 0.15 0.11 0.12 0.15 0.19 0.14 0.13 0.16 0.14 0.13 0.12 0.12 0.12 0.10 0.07 0.04 0.03 0.03 0.04 0.04 0.03 0.04 0.04 0.06
0.41 0.30 0.25 0.20 0.11 0.05 0.03 0.03 0.04 0.03 0.02 0.02 0.03 0.04 0.03 0.02 0.03 0.04 0.07 0.16 0.11 0.12 0.14 0.16 0.13 0.14 0.15 0.16 0.16 0.14 0.12 0.10 0.08 0.08 0.13 0.12 0.11 0.09 0.07 0.06 0.06 0.06 0.04 0.03 0.03 0.04 0.04 0.04 0.04 0.04 0.04 0.06 0.08 0.08
0.28 0.17 0.13 0.07 0.05 0.06 0.04 0.03 0.03 0.03 0.03 0.06 0.06 0.07 0.05 0.06 0.04 0.07 0.12 0.19 0.15 0.16 0.17 0.18 0.17 0.12 0.11 0.11 0.10 0.10 0.09 0.10 0.07 0.06 0.09 0.06 0.07 0.08 0.07 0.06 0.04 0.04 0.04 0.05 0.09 0.08 0.04 0.03 0.04 0.05 0.06 0.05 0.08 0.12
0.12 0.08 0.04 0.04 0.06 0.11 0.11 0.07 0.08 0.10 0.08 0.11 0.09 0.08 0.14 0.13 0.09 0.15 0.16 0.18 0.18 0.19 0.16 0.14 0.10 0.09 0.10 0.10 0.08 0.06 0.03 0.01 0.01 0.03 0.03 0.02 0.03 0.04 0.09 0.14 0.15 0.11 0.05 0.07 0.10 0.11 0.13 0.10 0.08 0.07 0.08 0.07 0.08 0.15
0.06 0.05 0.06 0.10 0.15 0.17 0.18 0.15 0.17 0.19 0.18 0.17 0.16 0.12 0.14 0.12 0.16 0.19 0.20 0.23 0.21 0.14 0.08 0.05 0.03 0.03 0.03 0.05 0.05 0.04 0.02 0.01 0.01 0.01 0.03 0.06 0.08 0.08 0.09 0.10 0.10 0.08 0.07 0.09 0.09 0.10 0.12 0.14 0.13 0.12 0.12 0.15 0.17 0.18
0.12 0.16 0.13 0.12 0.08 0.08 0.11 0.14 0.15 0.16 0.14 0.14 0.12 0.10 0.10 0.10 0.18 0.17 0.16 0.13 0.11 0.08 0.06 0.06 0.09 0.06 0.04 0.02 0.02 0.02 0.01 0.01 0.02 0.02 0.02 0.04 0.10 0.08 0.06 0.07 0.07 0.07 0.07 0.05 0.05 0.09 0.13 0.16 0.14 0.17 0.22 0.21 0.18 0.16
0.07 0.07 0.05 0.03 0.04 0.07 0.08 0.06 0.07 0.07 0.04 0.04 0.03 0.04 0.05 0.11 0.18 0.14 0.10 0.07 0.07 0.09 0.09 0.08 0.07 0.04 0.04 0.03 0.02 0.05 0.08 0.05 0.06 0.09 0.08 0.08 0.09 0.08 0.06 0.07 0.06 0.06 0.07 0.07 0.05 0.04 0.05 0.06 0.07 0.14 0.10 0.08 0.10 0.12
0.01 0.02 0.02 0.02 0.05 0.08 0.05 0.04 0.06 0.07 0.05 0.04 0.04 0.04 0.11 0.12 0.13 0.08 0.07 0.12 0.06 0.05 0.05 0.03 0.02 0.02 0.03 0.04 0.05 0.05 0.09 0.08 0.08 0.08 0.08 0.09 0.08 0.07 0.06 0.05 0.05 0.05 0.05 0.06 0.06 0.06 0.07 0.07 0.09 0.11 0.07 0.06 0.08 0.08
0.02 0.02 0.01 0.02 0.05 0.04 0.03 0.06 0.07 0.09 0.07 0.05 0.07 0.06 0.09 0.08 0.07 0.08 0.07 0.06 0.03 0.03 0.04 0.05 0.05 0.07 0.08 0.09 0.09 0.09 0.09 0.08 0.06 0.06 0.07 0.07 0.07 0.07 0.05 0.04 0.04 0.05 0.05 0.05 0.06 0.08 0.08 0.08 0.08 0.08 0.09 0.07 0.07 0.06
0.02 0.02 0.02 0.02 0.03 0.04 0.02 0.03 0.03 0.03 0.04 0.05 0.09 0.09 0.09 0.07 0.07 0.11 0.09 0.06 0.06 0.06 0.06 0.07 0.07 0.10 0.11 0.07 0.06 0.07 0.05 0.05 0.06 0.06 0.07 0.07 0.06 0.05 0.04 0.04 0.04 0.05 0.05 0.06 0.07 0.08 0.07 0.06 0.06 0.07 0.06 0.06 0.05 0.05

GFSWCAN_prec_precacc_048.txt.gz
Total_Precipitation_Accumulation
0.76 0.49 0.49 0.54 0.56 0.40 0.33 0.33 0.33 0.26 0.32 0.21 0.11 0.11 0.11 0.07 0.09 0.42 0.42 0.46 0.59 0.36 0.16 0.10 0.04 0.01 0.00 0.01 0.10 0.05 0.11 0.06 0.09 0.06 0.03 0.02 0.01 0.00 0.00 0.00 0.00 0.00 0.00 0.00 0.01 0.01 0.01 0.00 0.00 0.02 0.03 0.02 0.02 0.01
0.81 0.57 0.56 0.52 0.50 0.39 0.30 0.31 0.30 0.23 0.27 0.15 0.08 0.10 0.09 0.07 0.13 0.41 0.46 0.46 0.53 0.50 0.34 0.10 0.05 0.01 0.00 0.00 0.04 0.10 0.06 0.02 0.03 0.04 0.02 0.04 0.01 0.00 0.00 0.00 0.00 0.00 0.00 0.00 0.02 0.01 0.00 0.00 0.01 0.02 0.01 0.04 0.03 0.01
0.98 0.63 0.51 0.42 0.37 0.29 0.27 0.25 0.23 0.20 0.20 0.08 0.08 0.12 0.10 0.09 0.16 0.39 0.44 0.53 1.41 0.66 0.41 0.14 0.07 0.05 0.01 0.01 0.03 0.06 0.05 0.02 0.03 0.03 0.03 0.03 0.03 0.00 0.00 0.00 0.00 0.00 0.00 0.00 0.01 0.00 0.00 0.01 0.00 0.01 0.01 0.00 0.00 0.01
1.00 0.69 0.49 0.37 0.25 0.18 0.19 0.20 0.16 0.16 0.14 0.07 0.10 0.11 0.11 0.12 0.26 0.39 0.35 0.81 1.66 0.84 0.86 0.29 0.14 0.14 0.07 0.03 0.03 0.02 0.04 0.04 0.05 0.06 0.06 0.05 0.03 0.01 0.00 0.00 0.00 0.00 0.00 0.00 0.01 0.00 0.01 0.02 0.04 0.03 0.01 0.01 0.00 0.00
0.86 0.73 0.56 0.36 0.20 0.15 0.15 0.16 0.14 0.15 0.16 0.10 0.11 0.10 0.13 0.16 0.43 0.34 0.46 0.91 1.16 0.91 0.94 0.62 0.11 0.16 0.17 0.11 0.05 0.04 0.04 0.03 0.05 0.09 0.08 0.04 0.01 0.01 0.01 0.04 0.04 0.00 0.00 0.02 0.02 0.02 0.04 0.08 0.04 0.03 0.02 0.01 0.00 0.00
0.81 0.65 0.54 0.29 0.18 0.17 0.17 0.16 0.21 0.25 0.18 0.13 0.13 0.14 0.15 0.31 0.62 0.53 0.99 0.66 0.64 0.70 0.78 0.79 0.36 0.16 0.19 0.23 0.13 0.09 0.05 0.04 0.04 0.04 0.05 0.02 0.01 0.02 0.07 0.05 0.00 0.00 0.00 0.01 0.02 0.02 0.05 0.06 0.02 0.00 0.01 0.00 0.00 0.00
0.75 0.60 0.50 0.33 0.21 0.20 0.25 0.24 0.26 0.22 0.14 0.17 0.21 0.24 0.26 0.58 0.52 0.75 1.03 0.58 0.54 0.82 0.92 0.65 0.77 0.18 0.25 0.31 0.27 0.15 0.08 0.09 0.07 0.05 0.02 0.00 0.02 0.10 0.12 0.05 0.00 0.00 0.00 0.00 0.00 0.02 0.03 0.01 0.01 0.00 0.00 0.00 0.00 0.00
0.73 0.58 0.42 0.28 0.23 0.27 0.30 0.37 0.31 0.20 0.17 0.22 0.30 0.28 0.53 0.66 0.61 0.77 0.56 0.65 0.55 0.72 0.51 0.41 0.44 0.39 0.30 0.36 0.48 0.29 0.30 0.16 0.12 0.06 0.03 0.01 0.02 0.04 0.06 0.00 0.00 0.00 0.00 0.00 0.00 0.01 0.04 0.03 0.01 0.00 0.00 0.00 0.00 0.02
0.50 0.33 0.24 0.21 0.22 0.23 0.29 0.40 0.40 0.31 0.25 0.29 0.33 0.63 0.91 0.94 0.94 0.69 0.75 0.74 0.79 0.71 0.47 0.18 0.23 0.22 0.43 0.34 0.43 0.47 0.38 0.39 0.12 0.08 0.03 0.03 0.03 0.04 0.01 0.00 0.00 0.00 0.00 0.00 0.01 0.00 0.00 0.01 0.01 0.00 0.01 0.03 0.10 0.26
0.30 0.22 0.14 0.12 0.11 0.16 0.20 0.29 0.36 0.49 0.67 1.03 1.29 1.50 1.39 0.99 0.82 0.87 1.13 1.02 1.04 0.66 0.32 0.16 0.08 0.17 0.28 0.54 0.32 0.39 0.40 0.41 0.45 0.18 0.10 0.06 0.01 0.00 0.00 0.00 0.00 0.00 0.00 0.00 0.00 0.00 0.02 0.04 0.05 0.09 0.16 0.20 0.22 0.19
0.27 0.19 0.11 0.09 0.09 0.11 0.15 0.23 0.39 0.73 1.71 2.13 2.20 1.94 1.35 1.14 0.90 1.11 1.14 0.92 0.73 0.34 0.16 0.16 0.14 0.16 0.20 0.42 0.59 0.50 0.63 0.35 0.26 0.35 0.29 0.25 0.09 0.00 0.00 0.00 0.00 0.00 0.00 0.00 0.00 0.01 0.04 0.10 0.25 0.25 0.16 0.09 0.06 0.02
0.29 0.19 0.12 0.09 0.09 0.10 0.08 0.21 0.47 0.92 1.53 2.04 1.87 1.42 1.40 1.54 1.19 1.19 1.14 0.68 0.31 0.14 0.04 0.09 0.08 0.11 0.34 0.44 0.62 0.78 0.54 0.46 0.27 0.09 0.22 0.19 0.08 0.06 0.05 0.04 0.02 0.01 0.01 0.03 0.08 0.15 0.18 0.18 0.13 0.09 0.04 0.02 0.01 0.01
0.27 0.20 0.20 0.16 0.11 0.13 0.16 0.29 0.53 0.78 1.18 1.56 1.53 1.80 1.72 1.81 1.50 1.09 0.61 0.29 0.13 0.06 0.04 0.09 0.11 0.16 0.17 0.34 0.59 0.56 0.53 0.36 0.18 0.15 0.11 0.11 0.10 0.14 0.15 0.10 0.09 0.11 0.11 0.13 0.10 0.09 0.07 0.04 0.01 0.00 0.01 0.00 0.00 0.00
0.23 0.18 0.20 0.22 0.27 0.32 0.34 0.45 0.70 0.97 1.04 1.30 1.42 1.56 1.29 1.24 0.84 0.55 0.26 0.11 0.09 0.09 0.07 0.07 0.07 0.08 0.09 0.18 0.50 0.62 0.63 0.35 0.34 0.20 0.11 0.19 0.29 0.29 0.10 0.02 0.01 0.01 0.01 0.02 0.01 0.01 0.01 0.01 0.00 0.00 0.00 0.00 0.00 0.00
0.14 0.11 0.19 0.31 0.27 0.30 0.53 0.64 0.56 0.61 0.69 0.64 0.54 0.68 0.63 0.52 0.39 0.27 0.21 0.18 0.19 0.19 0.23 0.28 0.33 0.31 0.35 0.48 0.47 0.40 0.38 0.35 0.29 0.29 0.29 0.26 0.30 0.17 0.03 0.01 0.01 0.03 0.03 0.01 0.00 0.00 0.01 0.01 0.01 0.01 0.00 0.00 0.00 0.00
0.32 0.14 0.14 0.23 0.31 0.41 0.40 0.40 0.43 0.44 0.29 0.30 0.30 0.33 0.32 0.25 0.29 0.28 0.31 0.31 0.31 0.36 0.35 0.35 0.35 0.34 0.46 0.39 0.31 0.30 0.31 0.35 0.36 0.15 0.06 0.06 0.09 0.10 0.09 0.07 0.10 0.08 0.03 0.02 0.03 0.04 0.04 0.03 0.01 0.00 0.00 0.00 0.00 0.00
0.46 0.14 0.18 0.16 0.19 0.16 0.17 0.17 0.24 0.27 0.33 0.22 0.38 0.37 0.28 0.25 0.27 0.31 0.30 0.26 0.22 0.24 0.26 0.18 0.18 0.21 0.21 0.24 0.29 0.28 0.32 0.24 0.12 0.07 0.05 0.05 0.06 0.05 0.03 0.07 0.07 0.10 0.10 0.07 0.06 0.06 0.04 0.01 0.00 0.00 0.00 0.00 0.00 0.00
0.60 0.18 0.10 0.06 0.08 0.11 0.16 0.13 0.12 0.05 0.11 0.26 0.30 0.45 0.33 0.38 0.35 0.32 0.32 0.23 0.18 0.18 0.17 0.17 0.13 0.17 0.25 0.25 0.25 0.23 0.25 0.23 0.23 0.22 0.19 0.18 0.15 0.14 0.15 0.13 0.14 0.12 0.10 0.08 0.05 0.04 0.04 0.03 0.01 0.00 0.00 0.00 0.00 0.00
0.34 0.25 0.10 0.09 0.06 0.05 0.07 0.05 0.02 0.07 0.24 0.29 0.34 0.30 0.21 0.26 0.27 0.27 0.22 0.22 0.22 0.18 0.19 0.24 0.24 0.27 0.31 0.31 0.36 0.33 0.33 0.34 0.33 0.27 0.23 0.24 0.22 0.20 0.20 0.18 0.17 0.16 0.10 0.07 0.05 0.04 0.03 0.02 0.00 0.00 0.00 0.00 0.01 0.02
0.50 0.46 0.25 0.13 0.01 0.00 0.00 0.01 0.00 0.04 0.15 0.23 0.24 0.15 0.11 0.17 0.10 0.04 0.04 0.03 0.03 0.04 0.13 0.22 0.37 0.41 0.43 0.48 0.48 0.41 0.38 0.33 0.17 0.14 0.24 0.31 0.31 0.22 0.23 0.20 0.16 0.13 0.09 0.08 0.07 0.05 0.03 0.02 0.02 0.02 0.03 0.05 0.05 0.03
0.62 0.65 0.46 0.25 0.09 0.00 0.00 0.00 0.02 0.04 0.07 0.11 0.12 0.03 0.04 0.03 0.01 0.01 0.00 0.00 0.02 0.11 0.26 0.38 0.39 0.37 0.38 0.43 0.37 0.30 0.26 0.20 0.14 0.12 0.15 0.19 0.24 0.17 0.18 0.19 0.15 0.12 0.09 0.09 0.07 0.08 0.08 0.09 0.09 0.08 0.08 0.05 0.04 0.03
0.37 0.45 0.41 0.35 0.21 0.03 0.00 0.00 0.02 0.01 0.01 0.03 0.01 0.01 0.02 0.03 0.03 0.02 0.01 0.02 0.10 0.25 0.31 0.28 0.27 0.22 0.18 0.21 0.28 0.29 0.33 0.26 0.20 0.17 0.16 0.13 0.15 0.16 0.19 0.22 0.16 0.17 0.17 0.18 0.16 0.14 0.12 0.09 0.08 0.07 0.05 0.04 0.05 0.04
0.29 0.38 0.37 0.37 0.27 0.09 0.04 0.00 0.00 0.00 0.01 0.01 0.03 0.02 0.02 0.03 0.04 0.02 0.04 0.07 0.14 0.25 0.25 0.19 0.17 0.16 0.16 0.19 0.12 0.11 0.16 0.17 0.25 0.31 0.29 0.24 0.23 0.24 0.21 0.23 0.21 0.18 0.16 0.16 0.14 0.13 0.11 0.09 0.06 0.05 0.05 0.05 0.04 0.04
0.31 0.37 0.38 0.31 0.20 0.13 0.05 0.04 0.02 0.02 0.01 0.02 0.02 0.04 0.04 0.04 0.02 0.03 0.05 0.11 0.18 0.11 0.09 0.13 0.16 0.15 0.12 0.10 0.11 0.13 0.16 0.12 0.14 0.17 0.21 0.15 0.14 0.18 0.15 0.15 0.13 0.14 0.14 0.11 0.08 0.06 0.04 0.04 0.05 0.04 0.03 0.04 0.04 0.06
0.41 0.30 0.25 0.20 0.11 0.05 0.03 0.03 0.04 0.03 0.02 0.02 0.03 0.05 0.04 0.02 0.03 0.04 0.07 0.18 0.12 0.13 0.15 0.17 0.13 0.14 0.15 0.17 0.16 0.15 0.13 0.10 0.08 0.09 0.13 0.12 0.11 0.09 0.07 0.07 0.07 0.06 0.04 0.03 0.03 0.04 0.04 0.04 0.04 0.04 0.04 0.06 0.08 0.09
0.28 0.18 0.13 0.07 0.05 0.06 0.04 0.03 0.03 0.03 0.03 0.06 0.07 0.08 0.05 0.06 0.04 0.07 0.13 0.20 0.16 0.17 0.18 0.18 0.17 0.12 0.11 0.11 0.11 0.10 0.09 0.10 0.07 0.06 0.09 0.06 0.07 0.08 0.07 0.06 0.04 0.04 0.04 0.05 0.09 0.08 0.04 0.03 0.04 0.05 0.06 0.05 0.08 0.12
0.12 0.08 0.04 0.04 0.07 0.11 0.11 0.07 0.08 0.10 0.09 0.11 0.09 0.08 0.14 0.13 0.10 0.16 0.17 0.19 0.18 0.20 0.16 0.14 0.10 0.09 0.11 0.11 0.08 0.06 0.03 0.01 0.01 0.03 0.03 0.03 0.03 0.05 0.09 0.14 0.15 0.12 0.05 0.07 0.10 0.12 0.13 0.10 0.09 0.07 0.08 0.07 0.08 0.15
0.07 0.05 0.06 0.10 0.15 0.17 0.18 0.16 0.17 0.19 0.19 0.18 0.16 0.12 0.14 0.13 0.17 0.21 0.22 0.25 0.21 0.14 0.08 0.05 0.03 0.03 0.03 0.05 0.05 0.04 0.02 0.01 0.01 0.01 0.03 0.06 0.08 0.08 0.09 0.11 0.11 0.08 0.07 0.09 0.09 0.10 0.12 0.15 0.14 0.12 0.12 0.15 0.17 0.18
0.12 0.16 0.13 0.12 0.08 0.08 0.12 0.15 0.15 0.16 0.15 0.14 0.12 0.10 0.10 0.10 0.19 0.19 0.18 0.15 0.12 0.08 0.06 0.06 0.09 0.07 0.04 0.02 0.02 0.02 0.01 0.01 0.02 0.02 0.02 0.04 0.10 0.09 0.06 0.07 0.07 0.07 0.07 0.05 0.05 0.09 0.13 0.17 0.15 0.17 0.22 0.22 0.18 0.16
0.07 0.07 0.05 0.03 0.04 0.07 0.08 0.07 0.07 0.07 0.04 0.04 0.03 0.04 0.06 0.13 0.20 0.16 0.11 0.07 0.07 0.09 0.09 0.08 0.07 0.04 0.04 0.03 0.02 0.05 0.08 0.05 0.06 0.09 0.08 0.08 0.09 0.08 0.06 0.07 0.06 0.07 0.07 0.07 0.05 0.04 0.05 0.06 0.07 0.14 0.10 0.08 0.10 0.12
0.01 0.02 0.02 0.02 0.05 0.08 0.05 0.04 0.06 0.07 0.05 0.04 0.04 0.04 0.11 0.13 0.14 0.09 0.08 0.12 0.06 0.06 0.05 0.03 0.02 0.03 0.03 0.04 0.05 0.05 0.09 0.08 0.08 0.08 0.08 0.09 0.08 0.07 0.07 0.05 0.05 0.05 0.05 0.06 0.06 0.06 0.07 0.07 0.09 0.11 0.07 0.06 0.08 0.08
0.02 0.03 0.01 0.02 0.06 0.04 0.04 0.06 0.07 0.10 0.07 0.05 0.08 0.06 0.10 0.08 0.07 0.09 0.08 0.06 0.03 0.03 0.04 0.05 0.05 0.07 0.08 0.09 0.09 0.09 0.09 0.08 0.06 0.06 0.08 0.08 0.07 0.07 0.05 0.04 0.04 0.05 0.06 0.06 0.06 0.08 0.08 0.08 0.08 0.08 0.09 0.07 0.07 0.06
0.02 0.02 0.02 0.02 0.03 0.05 0.04 0.04 0.04 0.03 0.04 0.06 0.09 0.09 0.09 0.07 0.07 0.11 0.09 0.06 0.06 0.06 0.06 0.07 0.07 0.10 0.11 0.07 0.06 0.07 0.05 0.05 0.06 0.06 0.07 0.07 0.06 0.05 0.04 0.04 0.04 0.05 0.05 0.06 0.07 0.08 0.07 0.06 0.06 0.07 0.06 0.06 0.05 0.05

GFSWCAN_prec_precacc_054.txt.gz
Total_Precipitation_Accumulation
0.77 0.50 0.53 0.59 0.58 0.43 0.41 0.45 0.49 0.49 0.55 0.39 0.24 0.22 0.20 0.15 0.17 0.43 0.46 0.48 0.67 0.41 0.26 0.22 0.14 0.09 0.01 0.02 0.10 0.05 0.11 0.06 0.09 0.06 0.03 0.02 0.01 0.00 0.01 0.00 0.00 0.00 0.00 0.00 0.01 0.01 0.01 0.00 0.00 0.02 0.03 0.02 0.02 0.01
0.86 0.61 0.60 0.55 0.54 0.44 0.40 0.42 0.45 0.44 0.49 0.30 0.19 0.20 0.18 0.14 0.18 0.42 0.53 0.47 0.59 0.59 0.42 0.31 0.15 0.08 0.02 0.00 0.04 0.10 0.06 0.02 0.03 0.04 0.02 0.04 0.01 0.00 0.00 0.00 0.00 0.00 0.00 0.00 0.02 0.01 0.00 0.00 0.01 0.02 0.01 0.04 0.03 0.01
1.09 0.73 0.59 0.51 0.48 0.41 0.41 0.41 0.44 0.40 0.40 0.25 0.20 0.23 0.20 0.17 0.25 0.43 0.48 0.55 1.49 0.82 0.44 0.19 0.23 0.16 0.07 0.02 0.03 0.06 0.05 0.02 0.03 0.03 0.03 0.03 0.03 0.00 0.00 0.00 0.00 0.01 0.00 0.00 0.01 0.00 0.00 0.01 0.00 0.01 0.01 0.00 0.00 0.01
1.08 0.77 0.59 0.49 0.39 0.37 0.42 0.44 0.39 0.39 0.35 0.25 0.24 0.23 0.22 0.25 0.40 0.41 0.36 0.83 1.76 1.01 0.91 0.30 0.19 0.23 0.17 0.09 0.03 0.02 0.04 0.05 0.05 0.06 0.06 0.05 0.03 0.01 0.00 0.00 0.01 0.01 0.02 0.01 0.01 0.00 0.01 0.02 0.04 0.03 0.01 0.01 0.00 0.00
0.94 0.82 0.64 0.45 0.33 0.32 0.34 0.35 0.35 0.35 0.35 0.26 0.23 0.20 0.26 0.30 0.51 0.35 0.46 0.99 1.33 1.18 1.03 0.62 0.15 0.24 0.27 0.16 0.09 0.04 0.04 0.04 0.07 0.11 0.09 0.04 0.01 0.01 0.02 0.04 0.04 0.00 0.00 0.03 0.03 0.02 0.05 0.08 0.04 0.03 0.02 0.01 0.00 0.00
0.83 0.68 0.59 0.34 0.24 0.23 0.23 0.23 0.29 0.34 0.25 0.18 0.18 0.23 0.28 0.43 0.67 0.56 1.08 0.79 0.91 0.96 0.93 0.80 0.38 0.20 0.31 0.35 0.24 0.14 0.06 0.04 0.06 0.07 0.07 0.03 0.01 0.02 0.08 0.05 0.00 0.00 0.01 0.02 0.02 0.03 0.05 0.06 0.02 0.00 0.01 0.00 0.00 0.00
0.76 0.61 0.51 0.35 0.23 0.22 0.27 0.26 0.27 0.23 0.15 0.19 0.23 0.31 0.36 0.67 0.54 0.79 1.08 0.60 0.65 1.06 1.16 0.71 0.80 0.22 0.30 0.46 0.41 0.20 0.11 0.12 0.10 0.08 0.04 0.02 0.03 0.11 0.14 0.05 0.00 0.00 0.00 0.00 0.01 0.02 0.03 0.01 0.01 0.00 0.00 0.00 0.00 0.00
0.74 0.60 0.43 0.29 0.24 0.28 0.31 0.37 0.31 0.21 0.18 0.23 0.31 0.31 0.60 0.69 0.62 0.79 0.59 0.65 0.60 0.86 0.64 0.52 0.50 0.50 0.46 0.51 0.62 0.38 0.34 0.22 0.20 0.10 0.04 0.01 0.03 0.05 0.08 0.02 0.00 0.00 0.00 0.00 0.00 0.01 0.04 0.03 0.01 0.00 0.00 0.00 0.00 0.02
0.50 0.34 0.24 0.22 0.23 0.24 0.29 0.41 0.41 0.32 0.26 0.30 0.35 0.68 0.99 0.97 0.97 0.71 0.78 0.76 0.82 0.86 0.59 0.25 0.38 0.40 0.57 0.42 0.63 0.68 0.49 0.48 0.16 0.08 0.04 0.05 0.03 0.04 0.01 0.00 0.00 0.00 0.00 0.01 0.01 0.01 0.00 0.01 0.01 0.00 0.01 0.03 0.10 0.26
0.31 0.23 0.16 0.13 0.12 0.17 0.21 0.29 0.37 0.49 0.68 1.05 1.32 1.55 1.43 1.01 0.87 0.94 1.18 1.07 1.10 0.74 0.40 0.23 0.30 0.55 0.41 0.62 0.40 0.72 0.76 0.59 0.50 0.19 0.12 0.06 0.01 0.00 0.00 0.00 0.00 0.00 0.00 0.00 0.00 0.00 0.02 0.04 0.05 0.09 0.16 0.20 0.22 0.19
0.29 0.21 0.14 0.11 0.10 0.12 0.16 0.24 0.40 0.75 1.72 2.17 2.26 1.99 1.36 1.21 1.00 1.23 1.22 0.99 0.77 0.35 0.16 0.16 0.23 0.44 0.32 0.47 0.60 0.52 0.75 0.62 0.47 0.43 0.30 0.25 0.09 0.01 0.00 0.00 0.00 0.00 0.00 0.00 0.00 0.01 0.04 0.10 0.25 0.25 0.16 0.09 0.06 0.02
0.30 0.20 0.14 0.11 0.10 0.12 0.11 0.24 0.53 0.95 1.56 2.16 1.98 1.48 1.48 1.66 1.33 1.35 1.31 0.81 0.35 0.15 0.05 0.10 0.10 0.16 0.36 0.46 0.65 0.86 0.70 0.62 0.38 0.17 0.28 0.22 0.09 0.07 0.07 0.06 0.04 0.03 0.03 0.04 0.08 0.15 0.18 0.18 0.14 0.09 0.04 0.02 0.02 0.02
0.27 0.20 0.21 0.18 0.15 0.18 0.22 0.43 0.68 0.96 1.49 1.76 1.66 1.85 1.85 1.92 1.73 1.30 0.74 0.38 0.17 0.07 0.06 0.10 0.12 0.18 0.20 0.42 0.79 0.81 0.80 0.61 0.35 0.35 0.30 0.23 0.16 0.19 0.24 0.26 0.29 0.28 0.25 0.24 0.16 0.13 0.10 0.06 0.03 0.03 0.04 0.06 0.09 0.12
0.23 0.19 0.23 0.27 0.34 0.43 0.49 0.59 0.85 1.28 1.30 1.54 1.65 1.83 1.68 1.49 1.15 0.76 0.40 0.24 0.20 0.17 0.11 0.17 0.17 0.17 0.16 0.28 0.70 0.79 0.82 0.52 0.59 0.46 0.34 0.39 0.51 0.52 0.28 0.16 0.14 0.16 0.19 0.20 0.18 0.17 0.15 0.11 0.11 0.14 0.16 0.20 0.22 0.26
0.15 0.13 0.22 0.35 0.31 0.35 0.60 0.71 0.73 0.88 1.01 1.00 0.96 1.00 0.94 0.92 0.77 0.63 0.56 0.45 0.42 0.37 0.33 0.47 0.52 0.44 0.42 0.60 0.57 0.48 0.47 0.46 0.40 0.43 0.43 0.39 0.44 0.34 0.20 0.17 0.15 0.16 0.17 0.16 0.19 0.23 0.27 0.26 0.25 0.27 0.28 0.25 0.18 0.12
0.34 0.20 0.25 0.32 0.38 0.47 0.49 0.58 0.67 0.78 0.65 0.58 0.55 0.63 0.66 0.64 0.63 0.61 0.60 0.56 0.56 0.58 0.54 0.56 0.52 0.45 0.55 0.45 0.34 0.35 0.35 0.40 0.43 0.24 0.17 0.16 0.18 0.21 0.22 0.23 0.29 0.29 0.23 0.18 0.17 0.16 0.17 0.18 0.14 0.14 0.15 0.11 0.08 0.05
0.51 0.20 0.29 0.27 0.33 0.35 0.41 0.40 0.45 0.44 0.43 0.33 0.54 0.60 0.53 0.46 0.48 0.51 0.48 0.44 0.38 0.35 0.35 0.23 0.21 0.25 0.26 0.26 0.31 0.32 0.39 0.33 0.23 0.19 0.20 0.20 0.21 0.22 0.22 0.28 0.29 0.30 0.25 0.18 0.15 0.14 0.14 0.12 0.07 0.04 0.04 0.04 0.02 0.02
0.74 0.30 0.24 0.20 0.21 0.26 0.32 0.25 0.15 0.07 0.14 0.36 0.39 0.58 0.42 0.47 0.43 0.39 0.40 0.30 0.23 0.20 0.18 0.19 0.15 0.18 0.27 0.28 0.30 0.31 0.34 0.34 0.43 0.42 0.39 0.36 0.32 0.32 0.32 0.32 0.32 0.28 0.22 0.18 0.13 0.14 0.15 0.14 0.10 0.09 0.05 0.04 0.02 0.02
0.76 0.51 0.34 0.38 0.27 0.17 0.13 0.08 0.02 0.09 0.31 0.34 0.41 0.35 0.24 0.28 0.29 0.29 0.24 0.22 0.22 0.18 0.20 0.25 0.25 0.30 0.36 0.38 0.44 0.42 0.44 0.47 0.51 0.45 0.40 0.41 0.39 0.38 0.38 0.36 0.33 0.28 0.18 0.16 0.14 0.13 0.13 0.12 0.10 0.08 0.06 0.04 0.04 0.05
0.78 0.69 0.50 0.27 0.04 0.01 0.00 0.01 0.00 0.05 0.19 0.26 0.25 0.15 0.11 0.17 0.10 0.04 0.04 0.03 0.03 0.04 0.14 0.24 0.44 0.50 0.53 0.59 0.60 0.54 0.52 0.49 0.32 0.27 0.36 0.44 0.49 0.38 0.40 0.34 0.29 0.25 0.18 0.17 0.15 0.14 0.11 0.09 0.10 0.10 0.10 0.10 0.09 0.08
0.74 0.78 0.53 0.26 0.09 0.00 0.00 0.00 0.03 0.06 0.09 0.14 0.14 0.03 0.04 0.03 0.01 0.01 0.00 0.00 0.02 0.12 0.31 0.47 0.49 0.48 0.49 0.55 0.50 0.44 0.40 0.33 0.25 0.22 0.27 0.32 0.39 0.30 0.30 0.31 0.25 0.20 0.16 0.16 0.13 0.15 0.14 0.15 0.16 0.14 0.13 0.10 0.08 0.07
0.40 0.46 0.41 0.35 0.21 0.03 0.00 0.00 0.02 0.02 0.01 0.03 0.02 0.01 0.02 0.03 0.03 0.02 0.01 0.02 0.12 0.31 0.39 0.36 0.35 0.31 0.27 0.31 0.40 0.41 0.47 0.37 0.30 0.26 0.26 0.23 0.24 0.25 0.27 0.31 0.23 0.22 0.22 0.24 0.20 0.18 0.15 0.13 0.11 0.10 0.07 0.07 0.07 0.06
0.29 0.38 0.37 0.37 0.27 0.09 0.04 0.00 0.00 0.00 0.01 0.01 0.03 0.02 0.02 0.03 0.04 0.02 0.04 0.08 0.17 0.31 0.31 0.24 0.23 0.21 0.21 0.27 0.18 0.17 0.23 0.23 0.30 0.37 0.35 0.30 0.29 0.30 0.26 0.28 0.26 0.22 0.18 0.19 0.16 0.14 0.12 0.10 0.07 0.06 0.06 0.05 0.05 0.04
0.31 0.37 0.38 0.31 0.20 0.13 0.05 0.04 0.02 0.02 0.01 0.02 0.02 0.05 0.05 0.04 0.02 0.03 0.05 0.12 0.22 0.14 0.11 0.15 0.17 0.16 0.12 0.10 0.11 0.14 0.17 0.12 0.15 0.18 0.22 0.16 0.14 0.19 0.16 0.15 0.13 0.14 0.14 0.12 0.08 0.06 0.04 0.04 0.05 0.04 0.03 0.04 0.04 0.06
0.41 0.30 0.25 0.20 0.11 0.05 0.03 0.03 0.04 0.03 0.02 0.02 0.04 0.06 0.04 0.02 0.03 0.04 0.07 0.19 0.14 0.14 0.16 0.18 0.13 0.14 0.15 0.17 0.17 0.15 0.13 0.10 0.08 0.09 0.14 0.12 0.11 0.09 0.07 0.07 0.07 0.06 0.04 0.03 0.03 0.04 0.04 0.04 0.04 0.04 0.04 0.06 0.08 0.09
0.28 0.18 0.13 0.08 0.05 0.06 0.04 0.03 0.03 0.04 0.04 0.07 0.08 0.08 0.05 0.06 0.04 0.08 0.14 0.22 0.18 0.18 0.19 0.20 0.18 0.12 0.12 0.11 0.11 0.11 0.10 0.10 0.07 0.06 0.09 0.06 0.07 0.08 0.07 0.06 0.04 0.04 0.05 0.06 0.09 0.08 0.04 0.03 0.04 0.05 0.06 0.05 0.08 0.12
0.12 0.08 0.04 0.05 0.07 0.11 0.11 0.07 0.08 0.10 0.09 0.11 0.10 0.08 0.14 0.13 0.10 0.18 0.19 0.20 0.19 0.21 0.17 0.14 0.10 0.09 0.11 0.11 0.09 0.06 0.03 0.01 0.01 0.03 0.03 0.03 0.03 0.05 0.09 0.15 0.16 0.13 0.06 0.07 0.10 0.12 0.13 0.11 0.09 0.07 0.08 0.08 0.09 0.16
0.07 0.05 0.06 0.10 0.15 0.17 0.18 0.16 0.18 0.20 0.19 0.19 0.16 0.13 0.14 0.13 0.18 0.23 0.24 0.26 0.22 0.14 0.08 0.05 0.03 0.03 0.04 0.05 0.05 0.05 0.02 0.01 0.01 0.01 0.03 0.06 0.08 0.08 0.09 0.11 0.11 0.08 0.07 0.09 0.09 0.10 0.12 0.15 0.14 0.12 0.13 0.15 0.17 0.18
0.12 0.16 0.13 0.12 0.08 0.08 0.12 0.15 0.16 0.17 0.16 0.15 0.12 0.11 0.11 0.11 0.20 0.21 0.21 0.17 0.13 0.08 0.06 0.06 0.09 0.07 0.04 0.02 0.02 0.02 0.01 0.01 0.02 0.02 0.02 0.04 0.10 0.09 0.06 0.07 0.07 0.07 0.07 0.05 0.05 0.09 0.13 0.17 0.15 0.17 0.22 0.22 0.18 0.16
0.07 0.07 0.05 0.03 0.04 0.07 0.09 0.07 0.08 0.07 0.04 0.04 0.03 0.04 0.06 0.14 0.22 0.18 0.12 0.08 0.07 0.09 0.10 0.08 0.07 0.04 0.04 0.03 0.02 0.05 0.08 0.05 0.06 0.09 0.08 0.08 0.10 0.09 0.07 0.07 0.06 0.07 0.07 0.07 0.05 0.04 0.05 0.06 0.07 0.14 0.10 0.08 0.10 0.12
0.01 0.02 0.02 0.02 0.06 0.08 0.05 0.04 0.06 0.07 0.05 0.04 0.04 0.04 0.12 0.14 0.16 0.10 0.08 0.12 0.06 0.06 0.05 0.03 0.02 0.03 0.03 0.04 0.05 0.05 0.09 0.08 0.08 0.08 0.09 0.09 0.08 0.07 0.07 0.05 0.05 0.06 0.06 0.06 0.06 0.06 0.07 0.07 0.09 0.11 0.07 0.06 0.08 0.08
0.02 0.03 0.01 0.02 0.07 0.05 0.05 0.07 0.07 0.10 0.07 0.05 0.08 0.06 0.10 0.08 0.07 0.09 0.08 0.07 0.03 0.03 0.04 0.06 0.05 0.07 0.09 0.09 0.09 0.09 0.09 0.08 0.06 0.06 0.08 0.08 0.07 0.07 0.05 0.04 0.04 0.05 0.06 0.06 0.06 0.08 0.08 0.08 0.08 0.08 0.09 0.07 0.07 0.06
0.02 0.02 0.02 0.02 0.04 0.06 0.04 0.05 0.04 0.04 0.04 0.06 0.09 0.09 0.10 0.07 0.07 0.11 0.10 0.06 0.06 0.06 0.06 0.07 0.08 0.10 0.11 0.07 0.06 0.07 0.05 0.05 0.06 0.06 0.07 0.08 0.06 0.05 0.04 0.04 0.04 0.05 0.05 0.06 0.07 0.08 0.07 0.06 0.06 0.07 0.06 0.06 0.05 0.05

GFSWCAN_prec_precacc_057.txt.gz
Total_Precipitation_Accumulation
0.79 0.51 0.54 0.59 0.58 0.47 0.47 0.47 0.51 0.53 0.63 0.43 0.26 0.26 0.26 0.27 0.42 0.59 0.50 0.48 0.68 0.43 0.27 0.24 0.19 0.14 0.02 0.02 0.13 0.06 0.14 0.08 0.11 0.07 0.03 0.02 0.01 0.00 0.01 0.00 0.00 0.00 0.02 0.01 0.03 0.03 0.01 0.00 0.00 0.02 0.03 0.02 0.02 0.01
0.86 0.61 0.60 0.56 0.57 0.49 0.44 0.45 0.48 0.48 0.54 0.32 0.21 0.25 0.24 0.34 0.40 0.51 0.56 0.49 0.62 0.65 0.47 0.34 0.21 0.19 0.07 0.01 0.04 0.10 0.07 0.02 0.03 0.04 0.02 0.04 0.02 0.01 0.00 0.00 0.00 0.00 0.02 0.03 0.03 0.01 0.00 0.00 0.01 0.02 0.01 0.04 0.03 0.01
1.09 0.73 0.59 0.52 0.51 0.43 0.43 0.43 0.46 0.42 0.41 0.27 0.23 0.30 0.33 0.37 0.36 0.46 0.49 0.57 1.52 0.88 0.48 0.19 0.23 0.19 0.18 0.03 0.03 0.10 0.06 0.02 0.03 0.03 0.03 0.03 0.03 0.00 0.00 0.00 0.00 0.01 0.00 0.00 0.01 0.00 0.00 0.01 0.00 0.01 0.01 0.00 0.00 0.01
1.09 0.77 0.59 0.53 0.45 0.41 0.43 0.44 0.40 0.40 0.36 0.29 0.30 0.35 0.34 0.37 0.45 0.41 0.37 0.84 1.78 1.03 0.95 0.33 0.19 0.23 0.25 0.15 0.05 0.04 0.06 0.05 0.05 0.06 0.06 0.05 0.03 0.01 0.00 0.00 0.01 0.01 0.02 0.01 0.01 0.00 0.01 0.02 0.04 0.03 0.01 0.01 0.00 0.00
1.00 0.83 0.66 0.50 0.44 0.40 0.38 0.37 0.38 0.38 0.40 0.32 0.34 0.31 0.39 0.43 0.55 0.35 0.48 1.00 1.34 1.20 1.05 0.63 0.15 0.24 0.28 0.24 0.11 0.06 0.08 0.06 0.08 0.11 0.09 0.04 0.01 0.01 0.02 0.04 0.04 0.00 0.00 0.03 0.03 0.02 0.05 0.08 0.04 0.03 0.02 0.01 0.00 0.00
0.94 0.76 0.63 0.38 0.27 0.26 0.27 0.27 0.33 0.40 0.32 0.27 0.31 0.40 0.43 0.48 0.68 0.58 1.14 0.81 0.92 0.97 0.93 0.81 0.39 0.20 0.32 0.39 0.26 0.15 0.08 0.09 0.08 0.09 0.08 0.03 0.01 0.02 0.08 0.05 0.00 0.00 0.01 0.02 0.02 0.03 0.05 0.06 0.02 0.00 0.01 0.00 0.00 0.00
0.79 0.66 0.56 0.38 0.26 0.25 0.30 0.30 0.32 0.29 0.22 0.29 0.36 0.37 0.39 0.67 0.56 0.82 1.11 0.61 0.65 1.06 1.16 0.72 0.82 0.24 0.32 0.51 0.47 0.24 0.14 0.15 0.15 0.14 0.08 0.04 0.05 0.12 0.14 0.05 0.00 0.00 0.00 0.00 0.01 0.02 0.03 0.01 0.01 0.00 0.00 0.00 0.00 0.00
0.76 0.61 0.44 0.30 0.25 0.30 0.33 0.39 0.33 0.25 0.23 0.28 0.34 0.34 0.63 0.73 0.64 0.81 0.60 0.65 0.60 0.86 0.64 0.55 0.59 0.59 0.50 0.61 0.73 0.47 0.42 0.27 0.25 0.13 0.06 0.03 0.06 0.09 0.09 0.02 0.00 0.00 0.00 0.00 0.00 0.01 0.04 0.03 0.01 0.00 0.00 0.00 0.00 0.02
0.51 0.34 0.25 0.22 0.23 0.24 0.30 0.42 0.42 0.34 0.28 0.32 0.38 0.71 1.02 0.99 0.98 0.73 0.80 0.76 0.83 0.87 0.61 0.27 0.47 0.52 0.86 0.66 0.78 0.77 0.59 0.53 0.21 0.14 0.06 0.07 0.05 0.07 0.02 0.00 0.00 0.00 0.00 0.01 0.01 0.01 0.00 0.01 0.01 0.00 0.01 0.03 0.10 0.26
0.31 0.23 0.16 0.13 0.12 0.17 0.21 0.30 0.37 0.50 0.68 1.05 1.32 1.55 1.44 1.02 0.87 0.96 1.25 1.10 1.12 0.75 0.44 0.25 0.33 0.72 0.88 0.94 0.50 0.81 0.80 0.62 0.51 0.20 0.16 0.09 0.02 0.00 0.00 0.00 0.00 0.00 0.00 0.00 0.00 0.00 0.02 0.04 0.05 0.09 0.16 0.20 0.22 0.19
0.29 0.21 0.14 0.11 0.10 0.12 0.16 0.25 0.40 0.75 1.73 2.18 2.28 2.02 1.38 1.26 1.06 1.29 1.26 1.03 0.80 0.37 0.18 0.17 0.25 0.63 0.54 0.64 0.65 0.65 0.79 0.66 0.50 0.47 0.33 0.28 0.10 0.01 0.00 0.00 0.00 0.00 0.00 0.00 0.00 0.01 0.04 0.10 0.25 0.25 0.16 0.09 0.06 0.02
0.31 0.21 0.14 0.11 0.11 0.12 0.11 0.25 0.53 0.96 1.58 2.18 2.00 1.50 1.55 1.74 1.36 1.36 1.32 0.81 0.35 0.16 0.06 0.11 0.14 0.26 0.44 0.61 0.78 0.94 0.72 0.63 0.41 0.24 0.41 0.35 0.13 0.08 0.07 0.06 0.04 0.03 0.03 0.04 0.08 0.15 0.18 0.18 0.14 0.09 0.04 0.02 0.02 0.02
0.28 0.21 0.21 0.18 0.15 0.18 0.22 0.43 0.69 0.97 1.50 1.78 1.67 1.86 1.87 1.94 1.74 1.31 0.75 0.39 0.18 0.08 0.06 0.12 0.15 0.25 0.27 0.50 0.87 0.82 0.81 0.61 0.36 0.39 0.37 0.28 0.18 0.20 0.25 0.27 0.29 0.28 0.25 0.24 0.16 0.13 0.10 0.06 0.03 0.03 0.04 0.07 0.10 0.15
0.24 0.20 0.23 0.27 0.34 0.43 0.49 0.59 0.90 1.38 1.32 1.55 1.67 1.84 1.72 1.51 1.17 0.79 0.43 0.26 0.20 0.18 0.12 0.19 0.18 0.21 0.23 0.33 0.71 0.80 0.83 0.54 0.62 0.50 0.39 0.41 0.52 0.54 0.33 0.24 0.23 0.26 0.27 0.27 0.25 0.23 0.23 0.23 0.26 0.30 0.33 0.38 0.42 0.49
0.15 0.14 0.23 0.37 0.35 0.38 0.63 0.73 0.75 0.88 1.01 1.02 1.01 1.08 1.00 0.97 0.80 0.64 0.57 0.46 0.43 0.37 0.34 0.47 0.55 0.50 0.45 0.62 0.60 0.50 0.50 0.48 0.42 0.45 0.46 0.42 0.48 0.38 0.27 0.29 0.32 0.33 0.33 0.30 0.29 0.32 0.38 0.41 0.41 0.47 0.49 0.48 0.40 0.33
0.35 0.21 0.27 0.34 0.38 0.47 0.50 0.59 0.70 0.79 0.69 0.63 0.64 0.75 0.74 0.71 0.69 0.66 0.64 0.61 0.61 0.62 0.59 0.63 0.65 0.54 0.60 0.47 0.36 0.37 0.36 0.42 0.46 0.28 0.21 0.20 0.22 0.25 0.29 0.32 0.40 0.40 0.31 0.25 0.24 0.22 0.23 0.26 0.21 0.22 0.26 0.24 0.22 0.17
0.51 0.21 0.30 0.28 0.33 0.35 0.41 0.41 0.49 0.49 0.50 0.42 0.66 0.75 0.69 0.60 0.62 0.66 0.63 0.58 0.52 0.47 0.46 0.33 0.30 0.31 0.31 0.28 0.34 0.33 0.41 0.37 0.28 0.23 0.24 0.25 0.28 0.29 0.29 0.35 0.37 0.36 0.30 0.22 0.19 0.19 0.21 0.21 0.15 0.10 0.10 0.12 0.09 0.08
0.75 0.31 0.24 0.20 0.21 0.26 0.32 0.28 0.19 0.10 0.21 0.47 0.52 0.75 0.60 0.66 0.64 0.60 0.59 0.47 0.40 0.33 0.27 0.27 0.19 0.19 0.29 0.31 0.33 0.34 0.37 0.38 0.47 0.47 0.43 0.42 0.40 0.40 0.42 0.41 0.41 0.35 0.28 0.23 0.18 0.20 0.21 0.19 0.13 0.13 0.09 0.07 0.04 0.04
0.81 0.55 0.40 0.43 0.29 0.17 0.14 0.09 0.02 0.11 0.35 0.39 0.46 0.41 0.30 0.35 0.35 0.34 0.28 0.27 0.27 0.22 0.22 0.26 0.27 0.31 0.39 0.40 0.47 0.45 0.47 0.52 0.55 0.50 0.45 0.47 0.46 0.46 0.46 0.43 0.38 0.33 0.22 0.20 0.17 0.16 0.16 0.15 0.13 0.11 0.08 0.06 0.06 0.07
0.86 0.76 0.54 0.29 0.04 0.01 0.01 0.02 0.00 0.06 0.20 0.27 0.25 0.15 0.11 0.17 0.10 0.04 0.04 0.03 0.03 0.04 0.14 0.25 0.46 0.53 0.57 0.62 0.64 0.58 0.56 0.54 0.36 0.31 0.40 0.49 0.56 0.45 0.46 0.39 0.34 0.29 0.21 0.19 0.17 0.16 0.12 0.10 0.11 0.11 0.11 0.11 0.10 0.09
0.77 0.79 0.54 0.26 0.09 0.00 0.00 0.01 0.04 0.06 0.10 0.14 0.15 0.03 0.04 0.03 0.01 0.01 0.00 0.00 0.02 0.13 0.33 0.50 0.51 0.51 0.52 0.58 0.53 0.47 0.43 0.35 0.28 0.26 0.31 0.36 0.45 0.34 0.34 0.35 0.29 0.23 0.18 0.19 0.15 0.17 0.15 0.16 0.17 0.15 0.14 0.11 0.09 0.08
0.42 0.47 0.41 0.35 0.21 0.03 0.00 0.00 0.03 0.02 0.01 0.03 0.02 0.01 0.02 0.03 0.03 0.02 0.01 0.02 0.14 0.33 0.42 0.38 0.38 0.33 0.28 0.32 0.42 0.43 0.50 0.39 0.32 0.28 0.29 0.26 0.27 0.28 0.30 0.35 0.26 0.24 0.24 0.25 0.21 0.18 0.16 0.13 0.11 0.10 0.08 0.07 0.07 0.06
0.29 0.38 0.37 0.37 0.27 0.09 0.04 0.00 0.00 0.00 0.01 0.01 0.03 0.02 0.02 0.03 0.04 0.02 0.04 0.09 0.19 0.33 0.32 0.25 0.24 0.22 0.22 0.28 0.19 0.17 0.24 0.24 0.31 0.38 0.37 0.31 0.30 0.31 0.27 0.28 0.26 0.22 0.18 0.19 0.16 0.14 0.12 0.10 0.07 0.06 0.06 0.05 0.05 0.04
0.31 0.37 0.38 0.31 0.20 0.13 0.05 0.04 0.02 0.02 0.01 0.02 0.02 0.05 0.05 0.04 0.02 0.03 0.06 0.13 0.24 0.15 0.12 0.15 0.17 0.16 0.12 0.10 0.11 0.14 0.17 0.12 0.15 0.18 0.22 0.16 0.14 0.19 0.16 0.15 0.13 0.14 0.14 0.12 0.08 0.06 0.04 0.04 0.05 0.04 0.03 0.04 0.04 0.06
0.41 0.30 0.25 0.20 0.11 0.05 0.03 0.03 0.04 0.03 0.03 0.02 0.04 0.06 0.04 0.02 0.03 0.04 0.08 0.20 0.15 0.15 0.17 0.18 0.14 0.14 0.15 0.17 0.17 0.15 0.13 0.10 0.08 0.09 0.14 0.12 0.11 0.09 0.07 0.07 0.07 0.06 0.04 0.03 0.03 0.04 0.04 0.04 0.04 0.04 0.04 0.06 0.08 0.09
0.28 0.18 0.13 0.08 0.05 0.06 0.04 0.03 0.03 0.04 0.04 0.07 0.08 0.08 0.05 0.06 0.04 0.08 0.14 0.22 0.18 0.19 0.20 0.20 0.18 0.12 0.12 0.11 0.11 0.11 0.10 0.10 0.07 0.06 0.09 0.06 0.07 0.08 0.07 0.06 0.04 0.04 0.05 0.06 0.09 0.08 0.04 0.03 0.04 0.05 0.06 0.05 0.08 0.12
0.12 0.08 0.04 0.05 0.07 0.11 0.11 0.07 0.08 0.10 0.09 0.12 0.10 0.08 0.14 0.13 0.10 0.18 0.20 0.21 0.19 0.21 0.17 0.15 0.10 0.09 0.11 0.11 0.09 0.06 0.03 0.01 0.01 0.03 0.03 0.03 0.03 0.05 0.09 0.15 0.16 0.13 0.06 0.07 0.10 0.12 0.13 0.11 0.09 0.07 0.08 0.08 0.09 0.16
0.07 0.05 0.06 0.10 0.15 0.17 0.18 0.16 0.18 0.20 0.19 0.19 0.16 0.13 0.14 0.13 0.18 0.24 0.25 0.27 0.22 0.14 0.08 0.05 0.03 0.03 0.04 0.05 0.05 0.05 0.02 0.01 0.01 0.01 0.03 0.06 0.08 0.08 0.09 0.11 0.11 0.08 0.07 0.09 0.10 0.10 0.12 0.15 0.14 0.12 0.13 0.15 0.17 0.18
0.12 0.16 0.13 0.12 0.08 0.08 0.12 0.15 0.16 0.17 0.16 0.15 0.12 0.11 0.11 0.12 0.22 0.22 0.22 0.17 0.13 0.08 0.06 0.06 0.09 0.07 0.04 0.02 0.02 0.02 0.01 0.01 0.02 0.02 0.02 0.04 0.10 0.09 0.06 0.07 0.07 0.07 0.07 0.06 0.05 0.09 0.13 0.17 0.15 0.17 0.22 0.22 0.18 0.16
0.07 0.07 0.05 0.03 0.04 0.07 0.09 0.07 0.08 0.08 0.04 0.04 0.03 0.05 0.06 0.15 0.23 0.19 0.13 0.09 0.08 0.10 0.10 0.08 0.07 0.04 0.04 0.03 0.02 0.05 0.08 0.05 0.06 0.09 0.08 0.08 0.10 0.09 0.07 0.07 0.07 0.07 0.07 0.07 0.05 0.04 0.05 0.06 0.07 0.14 0.10 0.08 0.10 0.12
0.01 0.02 0.02 0.02 0.06 0.09 0.06 0.04 0.06 0.07 0.05 0.04 0.04 0.04 0.12 0.14 0.16 0.11 0.09 0.12 0.06 0.06 0.05 0.03 0.02 0.03 0.03 0.04 0.05 0.05 0.09 0.08 0.08 0.08 0.09 0.09 0.08 0.07 0.07 0.05 0.05 0.06 0.06 0.06 0.06 0.06 0.07 0.07 0.09 0.11 0.07 0.06 0.08 0.08
0.02 0.03 0.01 0.02 0.07 0.05 0.05 0.08 0.07 0.10 0.08 0.05 0.08 0.06 0.10 0.09 0.08 0.09 0.08 0.07 0.03 0.04 0.04 0.06 0.05 0.08 0.09 0.09 0.09 0.09 0.09 0.08 0.06 0.06 0.08 0.08 0.08 0.07 0.05 0.04 0.04 0.05 0.06 0.06 0.06 0.08 0.08 0.08 0.08 0.08 0.09 0.07 0.07 0.06
0.02 0.02 0.02 0.02 0.04 0.06 0.05 0.05 0.04 0.04 0.05 0.06 0.09 0.09 0.10 0.08 0.08 0.11 0.10 0.06 0.07 0.07 0.07 0.07 0.08 0.11 0.11 0.07 0.06 0.07 0.05 0.05 0.06 0.06 0.07 0.08 0.06 0.05 0.04 0.04 0.04 0.05 0.05 0.06 0.07 0.08 0.07 0.06 0.06 0.07 0.06 0.06 0.05 0.05

GFSWCAN_prec_precacc_060.txt.gz
Total_Precipitation_Accumulation
0.80 0.52 0.54 0.60 0.60 0.48 0.50 0.52 0.55 0.56 0.67 0.48 0.31 0.35 0.34 0.33 0.49 0.67 0.62 0.54 0.74 0.47 0.29 0.26 0.22 0.15 0.02 0.03 0.15 0.07 0.16 0.13 0.22 0.13 0.05 0.02 0.01 0.00 0.01 0.00 0.00 0.02 0.06 0.04 0.06 0.07 0.02 0.00 0.00 0.02 0.03 0.02 0.02 0.01
0.87 0.61 0.60 0.57 0.58 0.51 0.45 0.46 0.52 0.53 0.58 0.37 0.25 0.30 0.32 0.41 0.48 0.60 0.67 0.57 0.67 0.72 0.55 0.39 0.25 0.23 0.08 0.01 0.05 0.10 0.09 0.04 0.06 0.07 0.03 0.04 0.02 0.01 0.01 0.01 0.00 0.01 0.02 0.04 0.04 0.01 0.00 0.00 0.01 0.02 0.01 0.04 0.03 0.01
1.09 0.73 0.59 0.53 0.52 0.47 0.44 0.44 0.47 0.44 0.45 0.31 0.28 0.34 0.37 0.44 0.43 0.59 0.59 0.64 1.70 1.08 0.53 0.21 0.25 0.19 0.18 0.03 0.05 0.19 0.07 0.02 0.03 0.03 0.03 0.04 0.04 0.00 0.00 0.00 0.00 0.01 0.00 0.00 0.02 0.01 0.01 0.01 0.01 0.01 0.01 0.00 0.00 0.01
1.09 0.78 0.61 0.56 0.47 0.43 0.45 0.46 0.42 0.41 0.38 0.31 0.32 0.38 0.39 0.45 0.56 0.54 0.44 0.89 1.88 1.09 0.98 0.34 0.21 0.25 0.25 0.16 0.05 0.08 0.10 0.07 0.06 0.06 0.07 0.09 0.04 0.01 0.00 0.00 0.01 0.01 0.02 0.01 0.01 0.00 0.01 0.02 0.04 0.03 0.01 0.01 0.00 0.00
1.03 0.85 0.68 0.53 0.45 0.41 0.39 0.38 0.38 0.39 0.43 0.34 0.36 0.36 0.48 0.57 0.68 0.47 0.54 1.05 1.38 1.22 1.07 0.66 0.17 0.25 0.28 0.25 0.12 0.08 0.10 0.11 0.14 0.19 0.11 0.07 0.01 0.01 0.02 0.04 0.04 0.00 0.00 0.03 0.03 0.02 0.05 0.08 0.04 0.03 0.02 0.01 0.00 0.00
1.00 0.78 0.64 0.38 0.27 0.26 0.27 0.27 0.33 0.42 0.34 0.31 0.36 0.47 0.52 0.62 0.77 0.67 1.24 0.87 0.95 0.97 0.94 0.85 0.41 0.20 0.33 0.40 0.28 0.17 0.12 0.13 0.14 0.15 0.11 0.04 0.01 0.02 0.08 0.05 0.00 0.00 0.01 0.02 0.02 0.03 0.05 0.06 0.02 0.00 0.01 0.00 0.00 0.00
0.85 0.68 0.58 0.40 0.27 0.26 0.31 0.31 0.36 0.35 0.30 0.38 0.45 0.44 0.43 0.70 0.58 0.86 1.18 0.64 0.65 1.06 1.16 0.72 0.82 0.26 0.34 0.52 0.47 0.24 0.15 0.17 0.21 0.22 0.12 0.04 0.05 0.12 0.14 0.05 0.00 0.00 0.00 0.00 0.01 0.02 0.03 0.01 0.01 0.00 0.00 0.00 0.00 0.00
0.78 0.66 0.49 0.36 0.31 0.35 0.38 0.45 0.41 0.33 0.32 0.37 0.43 0.43 0.72 0.79 0.69 0.83 0.60 0.65 0.61 0.87 0.65 0.56 0.60 0.62 0.54 0.62 0.74 0.47 0.42 0.32 0.30 0.21 0.11 0.06 0.07 0.12 0.10 0.02 0.00 0.00 0.00 0.00 0.00 0.01 0.04 0.03 0.01 0.00 0.00 0.00 0.00 0.02
0.52 0.35 0.27 0.24 0.24 0.26 0.33 0.46 0.47 0.40 0.34 0.38 0.44 0.76 1.08 1.07 1.06 0.76 0.80 0.77 0.85 0.89 0.62 0.27 0.50 0.66 0.95 0.68 0.79 0.80 0.64 0.61 0.26 0.19 0.10 0.12 0.10 0.13 0.04 0.00 0.00 0.00 0.00 0.01 0.01 0.01 0.00 0.01 0.01 0.00 0.01 0.03 0.10 0.26
0.31 0.24 0.17 0.15 0.14 0.18 0.22 0.31 0.39 0.51 0.70 1.07 1.33 1.57 1.49 1.04 0.88 0.96 1.26 1.10 1.12 0.76 0.45 0.25 0.34 0.85 1.17 1.08 0.66 0.89 0.94 0.68 0.55 0.23 0.23 0.14 0.06 0.02 0.00 0.00 0.00 0.00 0.00 0.00 0.00 0.00 0.02 0.04 0.05 0.09 0.16 0.20 0.22 0.19
0.29 0.21 0.14 0.12 0.12 0.14 0.18 0.27 0.43 0.77 1.74 2.19 2.30 2.04 1.40 1.26 1.10 1.35 1.30 1.06 0.82 0.39 0.18 0.17 0.27 0.70 0.89 1.11 0.85 0.74 0.96 0.73 0.53 0.51 0.41 0.34 0.14 0.02 0.00 0.00 0.00 0.00 0.00 0.00 0.00 0.01 0.04 0.10 0.25 0.25 0.16 0.09 0.06 0.02
0.31 0.21 0.14 0.11 0.11 0.13 0.11 0.25 0.54 0.99 1.61 2.20 2.02 1.51 1.56 1.80 1.44 1.39 1.35 0.84 0.38 0.21 0.11 0.13 0.15 0.34 0.74 1.10 1.11 1.10 0.90 0.68 0.45 0.27 0.48 0.44 0.17 0.08 0.08 0.06 0.04 0.03 0.03 0.04 0.08 0.15 0.18 0.18 0.14 0.09 0.04 0.02 0.02 0.02
0.28 0.21 0.21 0.18 0.15 0.19 0.23 0.43 0.69 0.97 1.53 1.84 1.70 1.88 1.91 1.97 1.76 1.33 0.76 0.40 0.20 0.11 0.08 0.15 0.17 0.32 0.44 0.77 1.26 0.99 1.02 0.68 0.47 0.49 0.47 0.35 0.21 0.21 0.26 0.27 0.30 0.29 0.26 0.24 0.16 0.13 0.10 0.06 0.03 0.03 0.04 0.07 0.10 0.15
0.24 0.20 0.23 0.27 0.34 0.43 0.49 0.59 0.90 1.38 1.32 1.56 1.67 1.85 1.77 1.54 1.20 0.81 0.45 0.28 0.21 0.18 0.12 0.22 0.20 0.25 0.26 0.43 0.96 0.92 0.99 0.62 0.74 0.57 0.46 0.45 0.56 0.57 0.35 0.26 0.25 0.31 0.33 0.31 0.30 0.27 0.26 0.26 0.29 0.33 0.37 0.43 0.46 0.56
0.15 0.14 0.23 0.37 0.35 0.38 0.63 0.73 0.75 0.88 1.01 1.03 1.01 1.09 1.01 1.00 0.82 0.65 0.58 0.46 0.43 0.38 0.34 0.48 0.56 0.55 0.48 0.69 0.68 0.54 0.52 0.50 0.44 0.49 0.49 0.46 0.54 0.42 0.31 0.32 0.37 0.41 0.42 0.38 0.38 0.40 0.45 0.48 0.47 0.55 0.59 0.58 0.49 0.46
0.35 0.22 0.28 0.34 0.38 0.47 0.50 0.59 0.70 0.79 0.69 0.63 0.65 0.79 0.76 0.73 0.70 0.67 0.65 0.61 0.61 0.63 0.62 0.70 0.77 0.62 0.62 0.49 0.37 0.38 0.37 0.44 0.49 0.32 0.25 0.25 0.28 0.31 0.35 0.38 0.47 0.47 0.38 0.32 0.31 0.30 0.31 0.33 0.29 0.30 0.35 0.33 0.32 0.26
0.52 0.22 0.31 0.28 0.33 0.35 0.42 0.41 0.49 0.49 0.51 0.44 0.71 0.78 0.72 0.63 0.65 0.68 0.65 0.60 0.55 0.51 0.53 0.41 0.36 0.35 0.33 0.29 0.35 0.35 0.45 0.42 0.32 0.27 0.29 0.31 0.32 0.35 0.35 0.42 0.44 0.42 0.35 0.29 0.26 0.26 0.28 0.28 0.20 0.13 0.16 0.21 0.16 0.15
0.76 0.31 0.24 0.20 0.21 0.26 0.32 0.28 0.19 0.11 0.24 0.53 0.59 0.82 0.65 0.72 0.69 0.64 0.64 0.52 0.44 0.36 0.31 0.31 0.22 0.21 0.31 0.34 0.39 0.41 0.43 0.46 0.51 0.52 0.51 0.51 0.47 0.46 0.48 0.47 0.48 0.41 0.32 0.28 0.23 0.25 0.27 0.24 0.17 0.18 0.14 0.12 0.08 0.08
0.82 0.56 0.40 0.43 0.29 0.17 0.14 0.10 0.02 0.12 0.39 0.47 0.57 0.52 0.41 0.47 0.47 0.45 0.37 0.35 0.34 0.27 0.27 0.33 0.34 0.39 0.47 0.51 0.59 0.55 0.56 0.60 0.61 0.55 0.51 0.53 0.53 0.52 0.53 0.49 0.44 0.38 0.26 0.25 0.20 0.19 0.20 0.18 0.16 0.14 0.11 0.08 0.08 0.10
0.88 0.77 0.55 0.29 0.04 0.01 0.01 0.02 0.00 0.07 0.22 0.29 0.27 0.16 0.13 0.20 0.14 0.07 0.06 0.06 0.07 0.09 0.19 0.32 0.55 0.62 0.64 0.68 0.68 0.62 0.62 0.60 0.39 0.34 0.44 0.54 0.61 0.49 0.50 0.43 0.38 0.33 0.24 0.22 0.19 0.18 0.14 0.11 0.13 0.13 0.12 0.13 0.11 0.11
0.78 0.79 0.54 0.26 0.09 0.00 0.00 0.01 0.04 0.06 0.11 0.15 0.15 0.03 0.05 0.03 0.01 0.01 0.00 0.00 0.02 0.14 0.36 0.53 0.54 0.54 0.54 0.61 0.55 0.48 0.44 0.36 0.30 0.28 0.34 0.40 0.49 0.37 0.38 0.39 0.32 0.26 0.20 0.21 0.17 0.19 0.16 0.18 0.19 0.16 0.15 0.11 0.10 0.09
0.42 0.47 0.41 0.35 0.21 0.03 0.00 0.01 0.03 0.03 0.02 0.03 0.02 0.01 0.02 0.04 0.03 0.02 0.01 0.02 0.16 0.36 0.44 0.40 0.40 0.34 0.29 0.34 0.44 0.45 0.52 0.40 0.32 0.29 0.30 0.27 0.28 0.29 0.31 0.37 0.27 0.25 0.24 0.26 0.22 0.19 0.16 0.13 0.11 0.10 0.08 0.07 0.07 0.06
0.29 0.38 0.37 0.37 0.27 0.09 0.04 0.00 0.00 0.01 0.02 0.02 0.03 0.02 0.02 0.03 0.04 0.02 0.04 0.09 0.21 0.35 0.34 0.26 0.25 0.22 0.22 0.29 0.19 0.18 0.24 0.24 0.31 0.38 0.37 0.32 0.31 0.32 0.27 0.28 0.26 0.22 0.18 0.19 0.16 0.14 0.12 0.10 0.07 0.06 0.06 0.05 0.05 0.04
0.31 0.37 0.38 0.31 0.20 0.13 0.05 0.04 0.02 0.02 0.01 0.02 0.02 0.05 0.05 0.04 0.02 0.03 0.06 0.14 0.25 0.16 0.12 0.16 0.18 0.16 0.12 0.10 0.11 0.14 0.17 0.12 0.15 0.18 0.22 0.16 0.14 0.19 0.16 0.15 0.13 0.14 0.14 0.12 0.08 0.06 0.05 0.04 0.05 0.04 0.03 0.04 0.04 0.06
0.41 0.30 0.25 0.20 0.11 0.05 0.03 0.03 0.04 0.03 0.03 0.02 0.04 0.06 0.04 0.03 0.03 0.04 0.08 0.21 0.16 0.16 0.18 0.18 0.14 0.14 0.15 0.17 0.17 0.15 0.13 0.10 0.08 0.09 0.14 0.12 0.11 0.09 0.07 0.07 0.07 0.06 0.04 0.04 0.04 0.05 0.05 0.04 0.04 0.05 0.04 0.06 0.08 0.09
0.29 0.18 0.13 0.08 0.05 0.06 0.04 0.03 0.03 0.04 0.04 0.07 0.08 0.08 0.05 0.06 0.05 0.09 0.15 0.24 0.20 0.20 0.22 0.22 0.19 0.12 0.12 0.11 0.11 0.11 0.10 0.10 0.07 0.06 0.09 0.06 0.07 0.08 0.07 0.06 0.04 0.04 0.05 0.06 0.10 0.08 0.05 0.03 0.04 0.05 0.06 0.06 0.08 0.13
0.12 0.09 0.04 0.05 0.07 0.11 0.11 0.07 0.08 0.10 0.09 0.12 0.10 0.08 0.14 0.13 0.11 0.19 0.20 0.22 0.20 0.22 0.17 0.15 0.10 0.09 0.11 0.11 0.09 0.06 0.03 0.01 0.01 0.03 0.03 0.03 0.03 0.05 0.09 0.15 0.16 0.13 0.06 0.07 0.10 0.12 0.13 0.11 0.09 0.07 0.08 0.08 0.09 0.16
0.07 0.05 0.06 0.10 0.15 0.17 0.18 0.16 0.18 0.20 0.19 0.19 0.16 0.13 0.14 0.13 0.19 0.26 0.26 0.27 0.22 0.14 0.09 0.06 0.03 0.03 0.04 0.05 0.05 0.05 0.02 0.01 0.01 0.01 0.03 0.06 0.08 0.08 0.09 0.11 0.11 0.08 0.08 0.09 0.10 0.10 0.13 0.15 0.14 0.12 0.13 0.15 0.17 0.18
0.12 0.16 0.13 0.12 0.08 0.08 0.12 0.15 0.16 0.17 0.16 0.15 0.12 0.11 0.11 0.12 0.23 0.23 0.22 0.17 0.13 0.09 0.06 0.07 0.10 0.07 0.04 0.02 0.02 0.02 0.01 0.01 0.02 0.02 0.02 0.04 0.10 0.09 0.06 0.07 0.07 0.07 0.07 0.06 0.05 0.09 0.13 0.17 0.15 0.17 0.22 0.22 0.18 0.16
0.07 0.07 0.05 0.03 0.04 0.08 0.10 0.07 0.08 0.08 0.04 0.04 0.03 0.05 0.07 0.15 0.24 0.20 0.14 0.10 0.09 0.11 0.11 0.08 0.08 0.04 0.04 0.03 0.03 0.05 0.08 0.05 0.06 0.09 0.08 0.08 0.10 0.09 0.07 0.07 0.07 0.07 0.08 0.07 0.06 0.04 0.05 0.06 0.07 0.14 0.10 0.08 0.10 0.12
0.01 0.02 0.02 0.02 0.06 0.09 0.06 0.04 0.06 0.07 0.06 0.04 0.04 0.04 0.13 0.15 0.17 0.11 0.09 0.13 0.07 0.06 0.05 0.03 0.02 0.03 0.03 0.04 0.05 0.05 0.09 0.08 0.08 0.08 0.09 0.09 0.08 0.07 0.07 0.06 0.05 0.06 0.06 0.06 0.06 0.07 0.07 0.07 0.10 0.11 0.07 0.06 0.08 0.08
0.02 0.03 0.01 0.02 0.07 0.06 0.06 0.09 0.08 0.10 0.08 0.05 0.08 0.07 0.11 0.09 0.08 0.10 0.09 0.07 0.04 0.04 0.05 0.06 0.06 0.08 0.09 0.09 0.09 0.09 0.09 0.08 0.06 0.07 0.08 0.08 0.08 0.07 0.06 0.04 0.05 0.06 0.06 0.06 0.06 0.08 0.08 0.08 0.08 0.08 0.09 0.07 0.07 0.06
0.02 0.02 0.02 0.02 0.04 0.06 0.05 0.06 0.04 0.04 0.05 0.06 0.10 0.10 0.10 0.08 0.08 0.12 0.10 0.06 0.08 0.08 0.07 0.07 0.08 0.11 0.11 0.07 0.06 0.07 0.05 0.06 0.06 0.07 0.07 0.08 0.06 0.05 0.04 0.04 0.05 0.05 0.05 0.06 0.07 0.09 0.07 0.06 0.06 0.07 0.06 0.06 0.05 0.05

GFSWCAN_prec_precacc_063.txt.gz
Total_Precipitation_Accumulation
0.81 0.53 0.56 0.61 0.61 0.49 0.51 0.53 0.57 0.59 0.69 0.49 0.32 0.37 0.41 0.39 0.55 0.77 0.77 0.65 1.10 0.69 0.30 0.28 0.24 0.17 0.03 0.04 0.15 0.07 0.18 0.14 0.26 0.16 0.07 0.03 0.01 0.00 0.02 0.00 0.00 0.02 0.07 0.08 0.11 0.09 0.02 0.00 0.00 0.02 0.03 0.02 0.02 0.01
0.90 0.63 0.61 0.58 0.59 0.52 0.46 0.47 0.53 0.56 0.61 0.39 0.27 0.32 0.39 0.50 0.62 0.78 0.79 0.62 0.91 0.96 0.60 0.40 0.26 0.24 0.09 0.03 0.07 0.11 0.09 0.05 0.08 0.14 0.06 0.05 0.02 0.01 0.01 0.01 0.00 0.01 0.02 0.04 0.06 0.02 0.01 0.01 0.01 0.02 0.01 0.04 0.03 0.01
1.13 0.74 0.60 0.54 0.53 0.47 0.45 0.44 0.48 0.53 0.54 0.36 0.32 0.37 0.46 0.57 0.62 0.82 0.65 0.65 2.06 1.49 0.60 0.29 0.27 0.20 0.19 0.06 0.07 0.21 0.08 0.02 0.05 0.04 0.11 0.08 0.05 0.01 0.00 0.00 0.00 0.01 0.00 0.00 0.02 0.01 0.01 0.02 0.03 0.01 0.01 0.00 0.00 0.01
1.12 0.79 0.61 0.56 0.47 0.43 0.46 0.47 0.43 0.49 0.48 0.39 0.39 0.42 0.48 0.59 0.74 0.67 0.47 0.91 2.15 1.42 1.04 0.38 0.27 0.27 0.25 0.16 0.06 0.08 0.10 0.07 0.08 0.12 0.13 0.21 0.08 0.01 0.00 0.00 0.01 0.01 0.02 0.04 0.03 0.00 0.02 0.02 0.05 0.09 0.05 0.01 0.00 0.00
1.05 0.86 0.68 0.53 0.45 0.41 0.40 0.39 0.39 0.42 0.48 0.40 0.40 0.39 0.56 0.67 0.78 0.55 0.59 1.08 1.47 1.35 1.09 0.69 0.21 0.28 0.28 0.25 0.12 0.08 0.10 0.12 0.17 0.39 0.33 0.11 0.03 0.01 0.02 0.04 0.04 0.00 0.00 0.03 0.06 0.03 0.06 0.09 0.04 0.03 0.02 0.01 0.00 0.00
1.01 0.78 0.64 0.38 0.28 0.27 0.28 0.28 0.34 0.43 0.37 0.32 0.37 0.49 0.55 0.64 0.91 0.87 1.40 0.94 1.00 1.08 0.98 0.88 0.42 0.20 0.33 0.40 0.28 0.17 0.12 0.13 0.18 0.24 0.32 0.15 0.03 0.04 0.10 0.05 0.00 0.00 0.01 0.02 0.02 0.03 0.05 0.06 0.02 0.00 0.01 0.00 0.00 0.00
0.87 0.68 0.58 0.40 0.27 0.26 0.31 0.32 0.36 0.36 0.31 0.40 0.47 0.47 0.49 0.81 0.90 0.94 1.25 0.67 0.68 1.10 1.17 0.73 0.83 0.26 0.34 0.52 0.47 0.24 0.15 0.18 0.24 0.31 0.24 0.10 0.07 0.16 0.17 0.05 0.00 0.00 0.00 0.00 0.01 0.02 0.03 0.01 0.01 0.00 0.00 0.00 0.00 0.00
0.82 0.69 0.51 0.36 0.32 0.37 0.41 0.48 0.44 0.37 0.39 0.46 0.55 0.60 0.90 1.04 0.82 0.83 0.61 0.67 0.61 0.87 0.65 0.56 0.61 0.63 0.56 0.63 0.74 0.47 0.42 0.32 0.35 0.28 0.21 0.22 0.12 0.16 0.15 0.03 0.00 0.00 0.00 0.00 0.00 0.01 0.04 0.03 0.01 0.00 0.00 0.00 0.00 0.02
0.54 0.39 0.31 0.27 0.28 0.29 0.35 0.48 0.51 0.46 0.42 0.48 0.54 0.82 1.14 1.14 1.07 0.76 0.80 0.78 0.85 0.89 0.62 0.27 0.50 0.67 0.98 0.69 0.80 0.81 0.65 0.63 0.31 0.26 0.17 0.29 0.27 0.20 0.05 0.00 0.00 0.00 0.00 0.01 0.01 0.01 0.00 0.01 0.01 0.00 0.01 0.03 0.10 0.26
0.33 0.25 0.21 0.21 0.21 0.23 0.27 0.36 0.45 0.57 0.74 1.10 1.37 1.65 1.63 1.09 0.88 0.96 1.26 1.10 1.12 0.76 0.45 0.25 0.34 0.85 1.21 1.17 0.68 0.95 0.98 0.69 0.57 0.26 0.30 0.24 0.25 0.08 0.01 0.00 0.00 0.00 0.00 0.00 0.00 0.00 0.02 0.04 0.05 0.09 0.16 0.20 0.22 0.19
0.30 0.23 0.17 0.19 0.22 0.27 0.32 0.40 0.54 0.83 1.77 2.21 2.32 2.07 1.41 1.26 1.10 1.36 1.30 1.06 0.82 0.39 0.18 0.17 0.27 0.71 0.90 1.16 0.88 0.79 0.98 0.74 0.54 0.53 0.46 0.43 0.20 0.08 0.06 0.02 0.00 0.00 0.00 0.00 0.00 0.01 0.04 0.10 0.25 0.25 0.16 0.09 0.06 0.02
0.31 0.21 0.15 0.12 0.13 0.15 0.13 0.26 0.54 0.99 1.61 2.20 2.02 1.51 1.56 1.81 1.45 1.40 1.36 0.85 0.39 0.26 0.16 0.16 0.16 0.35 0.78 1.15 1.17 1.13 0.99 0.80 0.46 0.30 0.57 0.59 0.26 0.10 0.08 0.07 0.05 0.03 0.03 0.04 0.08 0.15 0.18 0.18 0.14 0.09 0.04 0.02 0.02 0.02
0.28 0.21 0.21 0.18 0.15 0.19 0.23 0.43 0.69 0.97 1.55 1.85 1.71 1.89 1.93 1.99 1.77 1.34 0.77 0.41 0.24 0.28 0.11 0.21 0.20 0.38 0.59 0.98 1.41 1.08 1.18 0.95 0.53 0.51 0.53 0.41 0.25 0.24 0.28 0.28 0.30 0.29 0.26 0.24 0.16 0.13 0.10 0.06 0.03 0.03 0.04 0.07 0.10 0.16
0.24 0.20 0.23 0.27 0.34 0.43 0.49 0.59 0.90 1.38 1.33 1.56 1.67 1.85 1.78 1.54 1.22 0.84 0.47 0.29 0.23 0.19 0.13 0.36 0.25 0.33 0.46 0.76 1.24 1.14 1.28 1.01 0.94 0.63 0.50 0.48 0.60 0.60 0.38 0.28 0.27 0.33 0.35 0.33 0.32 0.30 0.29 0.28 0.31 0.36 0.40 0.47 0.48 0.61
0.15 0.14 0.23 0.37 0.35 0.38 0.63 0.73 0.75 0.88 1.01 1.03 1.01 1.10 1.02 1.04 0.83 0.66 0.58 0.47 0.44 0.38 0.37 0.53 0.62 0.62 0.69 0.96 0.97 0.77 0.74 0.63 0.52 0.58 0.55 0.54 0.61 0.47 0.35 0.37 0.40 0.45 0.46 0.43 0.43 0.44 0.50 0.52 0.50 0.60 0.65 0.63 0.54 0.51
0.35 0.22 0.28 0.34 0.38 0.47 0.50 0.59 0.70 0.79 0.69 0.63 0.66 0.81 0.77 0.74 0.71 0.67 0.65 0.62 0.61 0.63 0.63 0.74 0.78 0.64 0.66 0.53 0.44 0.44 0.43 0.48 0.55 0.41 0.31 0.32 0.35 0.39 0.43 0.45 0.53 0.52 0.43 0.37 0.37 0.34 0.35 0.38 0.33 0.36 0.41 0.39 0.38 0.31
0.52 0.22 0.31 0.28 0.33 0.36 0.42 0.41 0.49 0.49 0.51 0.45 0.73 0.80 0.73 0.64 0.66 0.69 0.66 0.60 0.56 0.52 0.54 0.41 0.36 0.37 0.34 0.29 0.35 0.37 0.49 0.46 0.35 0.31 0.35 0.37 0.39 0.42 0.43 0.48 0.50 0.48 0.41 0.35 0.31 0.31 0.33 0.33 0.23 0.14 0.19 0.27 0.20 0.19
0.76 0.31 0.24 0.23 0.27 0.29 0.32 0.28 0.19 0.11 0.24 0.54 0.62 0.85 0.67 0.74 0.71 0.67 0.66 0.54 0.45 0.36 0.31 0.31 0.22 0.21 0.32 0.35 0.41 0.46 0.48 0.49 0.55 0.57 0.57 0.59 0.54 0.53 0.54 0.54 0.54 0.46 0.37 0.33 0.27 0.29 0.30 0.26 0.19 0.22 0.18 0.16 0.10 0.10
0.82 0.56 0.40 0.43 0.30 0.18 0.14 0.10 0.02 0.13 0.43 0.51 0.61 0.56 0.44 0.51 0.50 0.48 0.39 0.36 0.34 0.27 0.27 0.33 0.35 0.40 0.49 0.55 0.65 0.61 0.64 0.66 0.68 0.62 0.58 0.60 0.60 0.60 0.61 0.56 0.49 0.44 0.31 0.30 0.23 0.22 0.23 0.20 0.19 0.16 0.13 0.09 0.10 0.12
0.88 0.77 0.55 0.29 0.04 0.01 0.01 0.02 0.00 0.07 0.26 0.33 0.31 0.19 0.16 0.23 0.16 0.08 0.07 0.06 0.08 0.10 0.22 0.36 0.61 0.70 0.72 0.77 0.76 0.71 0.73 0.67 0.44 0.38 0.49 0.59 0.66 0.53 0.55 0.47 0.43 0.38 0.27 0.24 0.21 0.19 0.15 0.12 0.14 0.14 0.13 0.13 0.11 0.12
0.78 0.79 0.54 0.26 0.09 0.00 0.01 0.01 0.05 0.07 0.13 0.18 0.16 0.04 0.05 0.03 0.01 0.01 0.00 0.00 0.02 0.15 0.39 0.57 0.57 0.57 0.56 0.62 0.57 0.49 0.46 0.37 0.32 0.30 0.37 0.43 0.53 0.40 0.41 0.42 0.35 0.28 0.22 0.23 0.18 0.20 0.17 0.19 0.21 0.17 0.15 0.11 0.10 0.09
0.42 0.47 0.41 0.35 0.21 0.03 0.00 0.01 0.04 0.04 0.02 0.04 0.02 0.01 0.02 0.04 0.03 0.02 0.01 0.02 0.18 0.39 0.47 0.42 0.42 0.36 0.31 0.37 0.47 0.47 0.54 0.41 0.34 0.30 0.32 0.29 0.30 0.31 0.34 0.39 0.28 0.26 0.25 0.26 0.22 0.19 0.16 0.13 0.11 0.10 0.08 0.07 0.07 0.06
0.29 0.38 0.37 0.37 0.27 0.09 0.04 0.00 0.00 0.01 0.02 0.02 0.03 0.02 0.02 0.03 0.04 0.02 0.04 0.10 0.25 0.38 0.35 0.26 0.26 0.23 0.23 0.29 0.20 0.19 0.25 0.25 0.32 0.39 0.38 0.32 0.31 0.32 0.28 0.28 0.26 0.22 0.18 0.19 0.16 0.14 0.12 0.10 0.07 0.06 0.06 0.05 0.05 0.04
0.31 0.37 0.38 0.31 0.20 0.13 0.05 0.04 0.02 0.02 0.01 0.02 0.02 0.05 0.05 0.04 0.02 0.03 0.07 0.16 0.27 0.17 0.15 0.18 0.18 0.16 0.12 0.10 0.11 0.14 0.17 0.12 0.15 0.18 0.22 0.16 0.14 0.19 0.16 0.15 0.13 0.14 0.15 0.12 0.08 0.06 0.05 0.04 0.05 0.04 0.03 0.04 0.04 0.06
0.41 0.30 0.25 0.20 0.11 0.05 0.03 0.03 0.04 0.03 0.03 0.02 0.04 0.06 0.04 0.03 0.03 0.04 0.09 0.23 0.17 0.17 0.19 0.19 0.14 0.14 0.15 0.17 0.17 0.15 0.13 0.10 0.08 0.09 0.14 0.12 0.12 0.10 0.08 0.07 0.07 0.06 0.04 0.04 0.04 0.05 0.05 0.04 0.04 0.05 0.04 0.06 0.08 0.09
0.29 0.18 0.13 0.08 0.05 0.06 0.04 0.03 0.03 0.04 0.04 0.07 0.08 0.09 0.05 0.06 0.05 0.09 0.17 0.26 0.20 0.21 0.23 0.23 0.19 0.12 0.12 0.11 0.11 0.11 0.10 0.10 0.07 0.06 0.09 0.06 0.07 0.08 0.07 0.06 0.04 0.04 0.05 0.06 0.10 0.08 0.05 0.03 0.04 0.05 0.06 0.06 0.08 0.13
0.12 0.09 0.04 0.05 0.07 0.11 0.11 0.07 0.08 0.10 0.09 0.12 0.11 0.08 0.14 0.13 0.11 0.20 0.22 0.23 0.20 0.22 0.18 0.15 0.10 0.09 0.11 0.11 0.09 0.06 0.03 0.01 0.01 0.03 0.03 0.03 0.03 0.05 0.09 0.15 0.16 0.13 0.06 0.07 0.10 0.12 0.13 0.11 0.09 0.07 0.08 0.08 0.09 0.16
0.07 0.05 0.06 0.10 0.15 0.17 0.18 0.16 0.18 0.20 0.19 0.19 0.16 0.13 0.14 0.13 0.20 0.27 0.26 0.27 0.22 0.14 0.09 0.06 0.03 0.03 0.04 0.05 0.05 0.05 0.03 0.01 0.01 0.01 0.03 0.07 0.08 0.08 0.09 0.11 0.11 0.08 0.08 0.09 0.10 0.10 0.13 0.15 0.14 0.12 0.13 0.15 0.17 0.18
0.12 0.16 0.13 0.12 0.08 0.08 0.12 0.15 0.16 0.17 0.16 0.15 0.12 0.11 0.11 0.14 0.24 0.24 0.23 0.18 0.14 0.09 0.06 0.07 0.10 0.07 0.04 0.02 0.02 0.02 0.01 0.02 0.02 0.02 0.02 0.04 0.11 0.09 0.06 0.07 0.07 0.07 0.07 0.06 0.05 0.09 0.13 0.17 0.15 0.17 0.22 0.22 0.18 0.16
0.07 0.07 0.05 0.03 0.04 0.08 0.11 0.08 0.09 0.08 0.04 0.04 0.03 0.05 0.07 0.16 0.26 0.21 0.15 0.11 0.10 0.11 0.11 0.09 0.08 0.05 0.05 0.03 0.03 0.05 0.08 0.05 0.06 0.09 0.08 0.08 0.10 0.09 0.07 0.07 0.07 0.07 0.08 0.07 0.06 0.04 0.05 0.06 0.07 0.14 0.10 0.08 0.10 0.12
0.01 0.02 0.02 0.02 0.06 0.10 0.06 0.05 0.06 0.07 0.06 0.04 0.04 0.04 0.13 0.16 0.17 0.12 0.10 0.13 0.07 0.06 0.05 0.03 0.02 0.03 0.03 0.04 0.05 0.06 0.09 0.08 0.08 0.08 0.09 0.09 0.08 0.07 0.07 0.06 0.05 0.06 0.06 0.06 0.06 0.07 0.07 0.07 0.10 0.11 0.07 0.06 0.08 0.08
0.02 0.03 0.01 0.02 0.07 0.06 0.07 0.11 0.09 0.10 0.08 0.05 0.08 0.07 0.11 0.10 0.09 0.10 0.09 0.08 0.04 0.05 0.05 0.07 0.07 0.08 0.09 0.09 0.09 0.09 0.09 0.08 0.06 0.07 0.08 0.08 0.08 0.07 0.06 0.04 0.05 0.06 0.06 0.06 0.06 0.08 0.08 0.08 0.08 0.08 0.09 0.07 0.07 0.06
0.02 0.02 0.02 0.02 0.04 0.07 0.05 0.06 0.04 0.04 0.05 0.06 0.10 0.10 0.11 0.08 0.09 0.13 0.10 0.07 0.10 0.09 0.07 0.08 0.09 0.11 0.11 0.07 0.06 0.07 0.05 0.06 0.06 0.07 0.07 0.08 0.06 0.05 0.04 0.04 0.05 0.05 0.05 0.06 0.07 0.09 0.07 0.06 0.06 0.07 0.06 0.06 0.05 0.05

GFSWCAN_prec_precacc_066.txt.gz
Total_Precipitation_Accumulation
0.87 0.58 0.60 0.63 0.62 0.51 0.52 0.54 0.59 0.61 0.71 0.51 0.34 0.40 0.45 0.45 0.59 0.82 0.79 0.65 1.25 1.14 0.38 0.28 0.24 0.17 0.03 0.04 0.15 0.07 0.18 0.14 0.26 0.16 0.07 0.03 0.01 0.01 0.02 0.01 0.01 0.05 0.17 0.25 0.31 0.24 0.04 0.00 0.01 0.03 0.03 0.02 0.02 0.01
1.06 0.76 0.68 0.62 0.61 0.53 0.47 0.49 0.55 0.58 0.64 0.44 0.31 0.35 0.42 0.55 0.73 0.94 0.96 0.63 0.92 1.18 0.76 0.41 0.26 0.24 0.09 0.03 0.07 0.11 0.09 0.05 0.08 0.14 0.06 0.05 0.02 0.02 0.01 0.01 0.00 0.02 0.02 0.05 0.09 0.04 0.01 0.01 0.02 0.02 0.01 0.04 0.03 0.01
1.24 0.78 0.61 0.54 0.53 0.48 0.45 0.45 0.49 0.54 0.55 0.38 0.38 0.44 0.49 0.59 0.68 1.20 0.86 0.67 2.09 1.69 0.85 0.33 0.27 0.20 0.19 0.06 0.08 0.23 0.09 0.04 0.06 0.05 0.11 0.08 0.06 0.01 0.01 0.00 0.00 0.01 0.00 0.00 0.02 0.01 0.01 0.02 0.03 0.02 0.01 0.00 0.00 0.02
1.13 0.79 0.62 0.56 0.48 0.44 0.46 0.47 0.43 0.53 0.53 0.42 0.41 0.52 0.54 0.62 0.81 0.96 0.65 0.91 2.19 1.59 1.30 0.50 0.29 0.27 0.25 0.16 0.07 0.10 0.12 0.10 0.12 0.20 0.16 0.23 0.10 0.02 0.01 0.01 0.01 0.01 0.02 0.04 0.03 0.00 0.02 0.03 0.06 0.09 0.05 0.01 0.00 0.00
1.05 0.86 0.70 0.55 0.46 0.41 0.40 0.39 0.41 0.49 0.53 0.47 0.42 0.44 0.62 0.75 0.93 0.73 0.63 1.08 1.48 1.58 1.30 0.82 0.25 0.31 0.30 0.26 0.13 0.10 0.12 0.13 0.20 0.44 0.38 0.13 0.06 0.04 0.04 0.07 0.05 0.00 0.01 0.04 0.06 0.03 0.07 0.09 0.04 0.03 0.02 0.01 0.00 0.00
1.01 0.79 0.64 0.39 0.29 0.27 0.28 0.30 0.41 0.51 0.42 0.36 0.39 0.53 0.67 0.81 1.08 1.05 1.58 1.04 1.03 1.29 1.27 0.96 0.46 0.22 0.35 0.41 0.29 0.17 0.12 0.14 0.21 0.28 0.34 0.18 0.07 0.11 0.14 0.08 0.02 0.01 0.02 0.03 0.03 0.03 0.05 0.06 0.02 0.00 0.01 0.00 0.00 0.00
0.87 0.69 0.58 0.41 0.28 0.26 0.32 0.33 0.39 0.39 0.33 0.41 0.51 0.57 0.65 0.90 0.97 1.03 1.35 0.73 0.73 1.30 1.39 0.77 0.86 0.29 0.35 0.53 0.47 0.24 0.15 0.18 0.25 0.34 0.28 0.14 0.09 0.25 0.24 0.07 0.01 0.00 0.01 0.02 0.02 0.02 0.03 0.01 0.01 0.00 0.00 0.00 0.00 0.00
0.83 0.70 0.51 0.37 0.32 0.37 0.41 0.48 0.45 0.39 0.42 0.51 0.63 0.72 1.05 1.19 0.87 0.86 0.61 0.68 0.65 0.94 0.67 0.56 0.62 0.64 0.57 0.63 0.74 0.47 0.42 0.32 0.35 0.29 0.25 0.28 0.18 0.22 0.22 0.06 0.00 0.00 0.00 0.00 0.01 0.01 0.04 0.03 0.01 0.00 0.00 0.00 0.00 0.02
0.55 0.41 0.32 0.28 0.28 0.30 0.37 0.50 0.53 0.48 0.45 0.52 0.66 1.07 1.46 1.34 1.16 0.80 0.82 0.81 0.87 0.89 0.62 0.27 0.50 0.67 0.98 0.69 0.80 0.81 0.65 0.63 0.32 0.27 0.19 0.34 0.38 0.38 0.14 0.03 0.01 0.00 0.00 0.01 0.01 0.01 0.00 0.01 0.01 0.00 0.01 0.03 0.10 0.26
0.36 0.28 0.24 0.26 0.26 0.28 0.31 0.39 0.47 0.60 0.79 1.20 1.49 1.75 1.80 1.22 0.93 0.97 1.28 1.12 1.13 0.76 0.45 0.25 0.34 0.85 1.21 1.17 0.69 0.96 0.99 0.69 0.58 0.26 0.32 0.29 0.47 0.30 0.09 0.03 0.01 0.00 0.00 0.00 0.00 0.00 0.02 0.04 0.06 0.09 0.16 0.20 0.22 0.19
0.33 0.25 0.20 0.23 0.26 0.31 0.36 0.43 0.55 0.83 1.77 2.22 2.32 2.09 1.46 1.28 1.11 1.36 1.30 1.06 0.82 0.39 0.18 0.17 0.27 0.71 0.90 1.17 0.91 0.82 1.04 0.77 0.55 0.54 0.47 0.50 0.32 0.18 0.15 0.10 0.02 0.00 0.00 0.00 0.00 0.01 0.04 0.11 0.25 0.25 0.16 0.09 0.06 0.02
0.32 0.22 0.15 0.13 0.13 0.15 0.14 0.27 0.54 0.99 1.61 2.20 2.02 1.51 1.56 1.81 1.45 1.40 1.36 0.85 0.40 0.27 0.16 0.16 0.16 0.35 0.78 1.15 1.17 1.16 1.10 0.83 0.48 0.32 0.58 0.60 0.30 0.11 0.09 0.09 0.06 0.04 0.03 0.05 0.10 0.16 0.19 0.19 0.15 0.09 0.04 0.02 0.02 0.02
0.28 0.21 0.21 0.18 0.15 0.19 0.23 0.43 0.69 0.97 1.55 1.85 1.71 1.89 1.94 1.99 1.77 1.34 0.78 0.42 0.29 0.40 0.15 0.23 0.20 0.38 0.59 1.01 1.42 1.13 1.22 0.98 0.58 0.54 0.54 0.43 0.27 0.24 0.29 0.29 0.31 0.30 0.26 0.25 0.17 0.13 0.11 0.07 0.04 0.04 0.05 0.08 0.11 0.16
0.24 0.20 0.23 0.27 0.34 0.43 0.49 0.59 0.90 1.38 1.33 1.56 1.67 1.85 1.78 1.55 1.23 0.86 0.48 0.31 0.26 0.22 0.20 0.53 0.30 0.40 0.55 0.87 1.31 1.25 1.33 1.04 1.08 0.67 0.52 0.51 0.63 0.62 0.40 0.30 0.28 0.34 0.37 0.36 0.36 0.33 0.32 0.31 0.36 0.41 0.46 0.53 0.53 0.67
0.15 0.14 0.23 0.37 0.35 0.38 0.63 0.73 0.75 0.88 1.01 1.03 1.01 1.10 1.03 1.06 0.84 0.66 0.59 0.48 0.44 0.39 0.43 0.64 0.71 0.70 0.80 1.09 1.05 0.86 0.79 0.71 0.59 0.61 0.58 0.58 0.64 0.50 0.38 0.39 0.43 0.49 0.51 0.49 0.49 0.50 0.57 0.58 0.54 0.65 0.72 0.70 0.59 0.57
0.35 0.22 0.28 0.34 0.38 0.47 0.50 0.59 0.70 0.79 0.69 0.63 0.66 0.81 0.77 0.74 0.71 0.67 0.65 0.62 0.62 0.63 0.65 0.77 0.81 0.68 0.75 0.66 0.54 0.50 0.47 0.52 0.60 0.51 0.38 0.38 0.43 0.47 0.50 0.52 0.61 0.61 0.50 0.45 0.45 0.41 0.41 0.43 0.37 0.41 0.45 0.43 0.42 0.34
0.52 0.22 0.31 0.28 0.33 0.36 0.42 0.41 0.49 0.49 0.51 0.45 0.74 0.80 0.73 0.64 0.67 0.71 0.67 0.61 0.57 0.53 0.54 0.42 0.37 0.41 0.37 0.31 0.43 0.45 0.57 0.54 0.42 0.44 0.47 0.46 0.51 0.56 0.55 0.60 0.62 0.58 0.50 0.43 0.39 0.36 0.39 0.38 0.24 0.15 0.22 0.31 0.22 0.21
0.77 0.31 0.27 0.25 0.28 0.29 0.32 0.28 0.19 0.11 0.25 0.56 0.63 0.87 0.67 0.75 0.72 0.68 0.67 0.55 0.46 0.36 0.31 0.32 0.22 0.21 0.32 0.36 0.43 0.49 0.51 0.52 0.58 0.60 0.62 0.65 0.62 0.61 0.62 0.61 0.62 0.53 0.43 0.38 0.31 0.32 0.33 0.28 0.20 0.25 0.21 0.18 0.11 0.12
0.82 0.56 0.41 0.44 0.30 0.18 0.14 0.10 0.02 0.14 0.46 0.54 0.64 0.57 0.45 0.52 0.53 0.50 0.40 0.36 0.34 0.27 0.27 0.33 0.35 0.40 0.50 0.57 0.68 0.65 0.67 0.69 0.71 0.66 0.63 0.66 0.66 0.66 0.67 0.61 0.54 0.48 0.35 0.34 0.27 0.25 0.25 0.22 0.21 0.18 0.15 0.10 0.12 0.13
0.89 0.77 0.55 0.29 0.04 0.01 0.01 0.02 0.00 0.08 0.29 0.37 0.33 0.20 0.17 0.25 0.18 0.08 0.07 0.06 0.08 0.10 0.22 0.36 0.62 0.73 0.74 0.81 0.79 0.74 0.76 0.69 0.45 0.40 0.52 0.62 0.70 0.56 0.58 0.51 0.46 0.41 0.30 0.27 0.24 0.21 0.16 0.13 0.15 0.14 0.13 0.13 0.12 0.13
0.78 0.79 0.54 0.26 0.09 0.00 0.01 0.01 0.06 0.07 0.14 0.21 0.17 0.04 0.06 0.03 0.01 0.01 0.00 0.00 0.03 0.16 0.41 0.60 0.59 0.60 0.58 0.65 0.59 0.50 0.47 0.38 0.33 0.31 0.39 0.45 0.55 0.42 0.43 0.44 0.37 0.30 0.24 0.24 0.20 0.22 0.18 0.20 0.21 0.17 0.15 0.12 0.10 0.09
0.42 0.47 0.41 0.35 0.21 0.03 0.00 0.01 0.04 0.04 0.02 0.04 0.02 0.01 0.02 0.04 0.03 0.02 0.01 0.03 0.20 0.42 0.50 0.44 0.44 0.38 0.32 0.38 0.48 0.47 0.55 0.42 0.35 0.31 0.32 0.29 0.31 0.32 0.35 0.40 0.28 0.27 0.25 0.26 0.22 0.19 0.16 0.14 0.12 0.10 0.08 0.07 0.07 0.06
0.29 0.38 0.37 0.37 0.27 0.09 0.04 0.00 0.00 0.01 0.02 0.02 0.03 0.02 0.02 0.03 0.04 0.02 0.05 0.12 0.30 0.41 0.35 0.27 0.26 0.23 0.24 0.31 0.20 0.19 0.25 0.25 0.32 0.39 0.38 0.33 0.31 0.32 0.28 0.29 0.27 0.22 0.19 0.19 0.16 0.14 0.12 0.10 0.07 0.06 0.06 0.05 0.05 0.04
0.31 0.37 0.38 0.31 0.20 0.13 0.05 0.04 0.02 0.02 0.01 0.02 0.02 0.05 0.05 0.04 0.02 0.03 0.07 0.18 0.31 0.20 0.16 0.19 0.18 0.16 0.12 0.10 0.11 0.14 0.17 0.12 0.15 0.18 0.23 0.16 0.14 0.19 0.16 0.15 0.14 0.15 0.15 0.12 0.08 0.06 0.05 0.04 0.05 0.04 0.03 0.04 0.04 0.06
0.41 0.30 0.25 0.20 0.11 0.05 0.03 0.03 0.04 0.03 0.03 0.02 0.04 0.06 0.04 0.03 0.03 0.04 0.09 0.25 0.18 0.18 0.19 0.19 0.14 0.14 0.15 0.17 0.17 0.15 0.13 0.10 0.08 0.09 0.14 0.12 0.12 0.10 0.08 0.07 0.07 0.07 0.04 0.04 0.04 0.05 0.05 0.04 0.04 0.05 0.04 0.06 0.08 0.09
0.29 0.18 0.13 0.08 0.05 0.06 0.04 0.03 0.03 0.04 0.04 0.07 0.08 0.09 0.05 0.06 0.05 0.10 0.18 0.27 0.20 0.21 0.24 0.24 0.19 0.12 0.12 0.11 0.11 0.11 0.10 0.10 0.07 0.06 0.09 0.06 0.07 0.08 0.07 0.06 0.04 0.05 0.05 0.06 0.10 0.08 0.05 0.03 0.04 0.05 0.06 0.06 0.08 0.13
0.12 0.09 0.04 0.05 0.07 0.11 0.11 0.07 0.08 0.10 0.09 0.12 0.11 0.08 0.14 0.13 0.11 0.21 0.23 0.23 0.20 0.22 0.18 0.15 0.10 0.09 0.11 0.11 0.09 0.06 0.03 0.01 0.01 0.03 0.03 0.03 0.03 0.05 0.09 0.15 0.16 0.13 0.06 0.07 0.10 0.12 0.13 0.11 0.09 0.07 0.08 0.08 0.09 0.16
0.07 0.05 0.06 0.10 0.15 0.17 0.18 0.16 0.18 0.20 0.20 0.19 0.16 0.13 0.15 0.14 0.21 0.29 0.27 0.28 0.22 0.14 0.09 0.06 0.03 0.03 0.04 0.05 0.05 0.05 0.03 0.02 0.01 0.01 0.03 0.07 0.08 0.08 0.09 0.11 0.11 0.08 0.08 0.09 0.10 0.10 0.13 0.15 0.14 0.12 0.13 0.15 0.17 0.19
0.12 0.16 0.13 0.12 0.08 0.08 0.12 0.16 0.16 0.17 0.16 0.15 0.12 0.11 0.11 0.15 0.25 0.24 0.23 0.18 0.14 0.09 0.06 0.07 0.10 0.07 0.04 0.02 0.02 0.02 0.01 0.02 0.03 0.03 0.02 0.05 0.11 0.10 0.06 0.07 0.07 0.07 0.07 0.06 0.05 0.09 0.13 0.17 0.15 0.17 0.22 0.22 0.18 0.16
0.07 0.07 0.05 0.03 0.04 0.08 0.12 0.08 0.10 0.08 0.04 0.04 0.03 0.05 0.08 0.18 0.28 0.22 0.15 0.12 0.11 0.11 0.11 0.09 0.09 0.05 0.05 0.04 0.03 0.05 0.08 0.05 0.06 0.09 0.09 0.09 0.10 0.09 0.07 0.07 0.07 0.07 0.08 0.07 0.06 0.04 0.05 0.06 0.07 0.14 0.10 0.08 0.10 0.12
0.01 0.02 0.02 0.02 0.07 0.10 0.07 0.05 0.06 0.07 0.06 0.04 0.04 0.04 0.13 0.16 0.18 0.12 0.10 0.14 0.07 0.06 0.05 0.03 0.02 0.03 0.03 0.04 0.05 0.06 0.09 0.08 0.08 0.08 0.09 0.09 0.08 0.07 0.07 0.06 0.05 0.06 0.06 0.06 0.06 0.07 0.07 0.07 0.10 0.11 0.07 0.06 0.08 0.08
0.02 0.03 0.01 0.02 0.08 0.06 0.07 0.12 0.09 0.10 0.08 0.05 0.09 0.07 0.11 0.10 0.09 0.11 0.09 0.08 0.05 0.05 0.05 0.07 0.07 0.08 0.09 0.09 0.09 0.09 0.09 0.08 0.06 0.07 0.08 0.08 0.08 0.07 0.06 0.04 0.05 0.06 0.06 0.06 0.06 0.08 0.08 0.08 0.08 0.08 0.09 0.07 0.07 0.06
0.02 0.02 0.02 0.02 0.05 0.07 0.06 0.06 0.04 0.04 0.05 0.06 0.10 0.11 0.11 0.09 0.09 0.13 0.11 0.07 0.10 0.10 0.07 0.08 0.09 0.11 0.11 0.07 0.06 0.07 0.05 0.06 0.06 0.07 0.07 0.08 0.06 0.05 0.04 0.04 0.05 0.05 0.05 0.06 0.07 0.09 0.07 0.06 0.06 0.07 0.06 0.06 0.05 0.05

GFSWCAN_prec_precacc_069.txt.gz
Total_Precipitation_Accumulation
0.98 0.70 0.69 0.70 0.66 0.53 0.54 0.56 0.62 0.62 0.72 0.52 0.35 0.41 0.46 0.47 0.62 0.89 0.90 0.73 1.38 1.26 0.39 0.28 0.24 0.17 0.03 0.04 0.15 0.07 0.18 0.14 0.26 0.16 0.07 0.03 0.01 0.01 0.02 0.01 0.01 0.05 0.17 0.25 0.31 0.27 0.11 0.02 0.06 0.09 0.05 0.02 0.02 0.01
1.13 0.81 0.73 0.66 0.65 0.58 0.51 0.52 0.58 0.61 0.67 0.46 0.33 0.36 0.43 0.56 0.76 0.99 1.06 0.70 0.96 1.24 0.79 0.41 0.26 0.24 0.09 0.03 0.07 0.11 0.09 0.05 0.08 0.14 0.06 0.05 0.02 0.02 0.01 0.01 0.00 0.02 0.02 0.05 0.09 0.06 0.02 0.03 0.09 0.10 0.06 0.05 0.04 0.02
1.26 0.79 0.63 0.56 0.54 0.48 0.46 0.46 0.51 0.57 0.57 0.40 0.40 0.46 0.51 0.62 0.75 1.31 0.93 0.73 2.15 1.81 0.91 0.38 0.28 0.20 0.19 0.06 0.08 0.23 0.09 0.04 0.06 0.05 0.11 0.08 0.06 0.01 0.01 0.00 0.00 0.01 0.00 0.01 0.02 0.01 0.01 0.02 0.03 0.02 0.02 0.01 0.01 0.02
1.14 0.80 0.64 0.57 0.48 0.44 0.47 0.48 0.43 0.54 0.54 0.44 0.44 0.54 0.58 0.64 0.87 1.25 0.92 0.97 2.21 1.64 1.33 0.51 0.29 0.28 0.25 0.17 0.07 0.10 0.12 0.10 0.13 0.22 0.18 0.23 0.10 0.02 0.01 0.01 0.01 0.01 0.02 0.04 0.03 0.00 0.02 0.03 0.06 0.09 0.05 0.01 0.00 0.00
1.06 0.86 0.71 0.56 0.46 0.42 0.40 0.40 0.42 0.50 0.54 0.49 0.45 0.48 0.73 0.79 1.01 1.02 0.85 1.11 1.48 1.58 1.31 0.84 0.29 0.32 0.31 0.29 0.15 0.12 0.13 0.14 0.21 0.48 0.46 0.15 0.06 0.05 0.05 0.08 0.06 0.01 0.02 0.07 0.07 0.05 0.07 0.09 0.04 0.03 0.02 0.01 0.00 0.00
1.01 0.79 0.65 0.40 0.30 0.28 0.30 0.32 0.42 0.51 0.45 0.42 0.42 0.61 0.81 0.93 1.28 1.24 1.81 1.19 1.05 1.29 1.47 1.11 0.56 0.25 0.36 0.44 0.31 0.18 0.12 0.14 0.23 0.33 0.44 0.29 0.11 0.16 0.16 0.08 0.02 0.02 0.05 0.05 0.04 0.04 0.07 0.08 0.02 0.01 0.01 0.00 0.00 0.00
0.87 0.70 0.60 0.42 0.29 0.28 0.35 0.35 0.40 0.40 0.38 0.46 0.58 0.69 0.87 1.17 1.07 1.06 1.44 0.80 0.75 1.33 1.74 1.21 0.99 0.34 0.38 0.55 0.49 0.25 0.16 0.19 0.26 0.36 0.31 0.16 0.11 0.31 0.34 0.13 0.02 0.02 0.04 0.05 0.05 0.05 0.05 0.02 0.01 0.00 0.00 0.00 0.00 0.00
0.83 0.71 0.52 0.38 0.33 0.38 0.42 0.50 0.47 0.42 0.48 0.63 0.80 0.91 1.24 1.28 0.93 0.89 0.61 0.68 0.66 1.07 0.97 0.91 0.78 0.72 0.60 0.64 0.74 0.47 0.42 0.33 0.37 0.30 0.25 0.29 0.20 0.29 0.29 0.11 0.02 0.01 0.02 0.03 0.02 0.04 0.06 0.05 0.02 0.01 0.01 0.01 0.01 0.03
0.56 0.42 0.33 0.29 0.29 0.31 0.38 0.51 0.56 0.56 0.57 0.66 0.79 1.16 1.53 1.42 1.23 0.82 0.84 0.86 0.92 1.00 0.69 0.36 0.54 0.72 0.98 0.70 0.80 0.81 0.65 0.63 0.32 0.28 0.19 0.37 0.40 0.46 0.21 0.04 0.01 0.00 0.00 0.01 0.01 0.01 0.02 0.04 0.04 0.02 0.02 0.04 0.11 0.27
0.38 0.29 0.25 0.27 0.26 0.29 0.33 0.42 0.52 0.68 0.88 1.25 1.54 1.84 2.07 1.39 0.98 1.05 1.49 1.33 1.20 0.77 0.45 0.25 0.34 0.85 1.21 1.17 0.69 0.96 0.99 0.69 0.59 0.27 0.34 0.31 0.49 0.32 0.10 0.04 0.01 0.00 0.00 0.00 0.00 0.00 0.02 0.05 0.07 0.10 0.17 0.21 0.23 0.19
0.35 0.27 0.21 0.23 0.26 0.31 0.36 0.45 0.58 0.89 1.81 2.23 2.37 2.27 1.65 1.38 1.16 1.43 1.37 1.08 0.82 0.39 0.18 0.17 0.27 0.71 0.90 1.17 0.91 0.82 1.05 0.77 0.56 0.55 0.49 0.52 0.34 0.19 0.16 0.10 0.03 0.01 0.01 0.01 0.00 0.01 0.04 0.11 0.25 0.25 0.16 0.09 0.06 0.02
0.34 0.23 0.15 0.13 0.13 0.15 0.14 0.27 0.55 1.00 1.61 2.20 2.03 1.54 1.58 1.83 1.45 1.40 1.36 0.85 0.40 0.27 0.16 0.16 0.16 0.35 0.78 1.15 1.17 1.16 1.18 0.97 0.51 0.34 0.60 0.62 0.33 0.13 0.10 0.09 0.07 0.04 0.04 0.05 0.10 0.17 0.20 0.22 0.18 0.14 0.09 0.06 0.04 0.04
0.29 0.22 0.21 0.18 0.15 0.19 0.23 0.43 0.69 0.97 1.55 1.85 1.71 1.89 1.94 1.99 1.77 1.35 0.78 0.42 0.30 0.41 0.16 0.23 0.20 0.38 0.59 1.01 1.42 1.13 1.30 1.26 0.65 0.58 0.57 0.45 0.30 0.25 0.30 0.29 0.31 0.30 0.27 0.25 0.18 0.14 0.11 0.08 0.05 0.05 0.07 0.11 0.14 0.19
0.24 0.20 0.23 0.27 0.34 0.43 0.49 0.59 0.90 1.38 1.33 1.56 1.67 1.85 1.78 1.55 1.24 0.87 0.49 0.32 0.28 0.24 0.22 0.54 0.30 0.43 0.58 0.90 1.37 1.30 1.36 1.09 1.15 0.70 0.53 0.53 0.66 0.64 0.41 0.31 0.29 0.35 0.38 0.37 0.37 0.34 0.34 0.34 0.39 0.44 0.50 0.59 0.58 0.73
0.15 0.14 0.23 0.37 0.35 0.38 0.63 0.73 0.75 0.88 1.01 1.03 1.01 1.10 1.04 1.08 0.85 0.68 0.60 0.49 0.45 0.41 0.51 0.75 0.81 0.80 0.90 1.17 1.10 0.89 0.82 0.72 0.60 0.62 0.59 0.61 0.67 0.52 0.40 0.41 0.45 0.50 0.53 0.51 0.52 0.52 0.60 0.62 0.58 0.71 0.79 0.77 0.65 0.63
0.37 0.23 0.28 0.34 0.38 0.47 0.50 0.59 0.70 0.79 0.69 0.63 0.67 0.82 0.78 0.74 0.71 0.67 0.65 0.62 0.62 0.66 0.71 0.83 0.87 0.72 0.78 0.68 0.54 0.51 0.47 0.53 0.62 0.52 0.41 0.41 0.46 0.49 0.54 0.56 0.65 0.65 0.55 0.49 0.50 0.46 0.46 0.47 0.42 0.46 0.50 0.47 0.47 0.38
0.59 0.26 0.33 0.29 0.33 0.36 0.42 0.41 0.49 0.49 0.51 0.45 0.75 0.81 0.74 0.65 0.68 0.72 0.68 0.62 0.57 0.53 0.56 0.44 0.40 0.43 0.38 0.33 0.46 0.48 0.60 0.59 0.48 0.52 0.57 0.54 0.57 0.63 0.62 0.65 0.68 0.64 0.56 0.48 0.44 0.41 0.44 0.43 0.28 0.17 0.25 0.36 0.26 0.24
0.79 0.36 0.30 0.26 0.28 0.29 0.32 0.28 0.19 0.11 0.25 0.56 0.64 0.88 0.68 0.75 0.73 0.69 0.68 0.56 0.46 0.36 0.31 0.32 0.22 0.21 0.33 0.37 0.46 0.54 0.55 0.56 0.62 0.64 0.66 0.71 0.67 0.67 0.69 0.69 0.70 0.61 0.50 0.45 0.37 0.37 0.37 0.31 0.22 0.28 0.24 0.21 0.13 0.14
0.84 0.57 0.41 0.44 0.30 0.18 0.14 0.10 0.02 0.14 0.47 0.55 0.65 0.57 0.45 0.53 0.54 0.51 0.40 0.36 0.34 0.27 0.27 0.33 0.35 0.41 0.52 0.58 0.70 0.66 0.68 0.70 0.72 0.68 0.65 0.69 0.69 0.69 0.70 0.65 0.58 0.52 0.38 0.36 0.29 0.27 0.27 0.23 0.23 0.19 0.16 0.11 0.13 0.14
0.90 0.77 0.55 0.29 0.04 0.01 0.01 0.02 0.00 0.08 0.30 0.38 0.34 0.20 0.17 0.26 0.18 0.08 0.07 0.06 0.08 0.10 0.22 0.37 0.63 0.74 0.75 0.83 0.80 0.74 0.77 0.70 0.46 0.40 0.53 0.64 0.72 0.58 0.60 0.53 0.48 0.43 0.31 0.28 0.25 0.22 0.16 0.14 0.16 0.15 0.14 0.13 0.12 0.13
0.78 0.79 0.54 0.26 0.09 0.00 0.01 0.01 0.06 0.08 0.16 0.24 0.18 0.04 0.06 0.03 0.01 0.01 0.00 0.00 0.03 0.16 0.42 0.61 0.61 0.62 0.60 0.66 0.60 0.51 0.48 0.38 0.33 0.31 0.39 0.46 0.57 0.43 0.44 0.45 0.38 0.31 0.24 0.25 0.21 0.22 0.19 0.21 0.22 0.17 0.15 0.12 0.10 0.09
0.42 0.47 0.41 0.35 0.21 0.03 0.00 0.01 0.05 0.04 0.02 0.05 0.03 0.01 0.02 0.04 0.03 0.02 0.01 0.03 0.22 0.44 0.52 0.46 0.46 0.39 0.33 0.39 0.49 0.48 0.56 0.42 0.35 0.31 0.33 0.30 0.32 0.33 0.37 0.41 0.29 0.27 0.25 0.26 0.22 0.19 0.16 0.14 0.12 0.10 0.08 0.07 0.07 0.06
0.29 0.38 0.37 0.37 0.27 0.09 0.04 0.00 0.00 0.01 0.02 0.02 0.03 0.02 0.02 0.03 0.04 0.02 0.05 0.13 0.33 0.43 0.36 0.27 0.27 0.24 0.25 0.32 0.21 0.20 0.25 0.25 0.32 0.39 0.39 0.33 0.32 0.33 0.28 0.29 0.27 0.22 0.19 0.20 0.16 0.14 0.12 0.10 0.07 0.06 0.06 0.05 0.05 0.04
0.31 0.37 0.38 0.31 0.20 0.13 0.05 0.04 0.02 0.02 0.01 0.02 0.02 0.05 0.05 0.04 0.02 0.03 0.08 0.19 0.33 0.22 0.17 0.19 0.18 0.16 0.12 0.10 0.11 0.14 0.17 0.12 0.15 0.18 0.23 0.16 0.14 0.19 0.16 0.15 0.14 0.15 0.15 0.12 0.08 0.06 0.05 0.04 0.05 0.04 0.03 0.04 0.04 0.06
0.41 0.30 0.25 0.20 0.11 0.05 0.03 0.03 0.04 0.03 0.03 0.02 0.04 0.06 0.04 0.03 0.03 0.04 0.09 0.26 0.19 0.19 0.20 0.19 0.14 0.14 0.15 0.17 0.17 0.15 0.13 0.10 0.08 0.09 0.14 0.12 0.12 0.10 0.08 0.07 0.07 0.07 0.04 0.04 0.04 0.05 0.05 0.04 0.04 0.05 0.04 0.06 0.08 0.09
0.29 0.18 0.13 0.08 0.05 0.06 0.04 0.03 0.03 0.04 0.04 0.07 0.08 0.09 0.05 0.06 0.05 0.10 0.18 0.27 0.21 0.21 0.24 0.24 0.19 0.12 0.12 0.11 0.11 0.11 0.10 0.10 0.07 0.06 0.10 0.06 0.07 0.08 0.07 0.06 0.04 0.05 0.05 0.06 0.10 0.08 0.05 0.03 0.04 0.05 0.06 0.06 0.08 0.13
0.12 0.09 0.04 0.05 0.07 0.11 0.11 0.07 0.08 0.10 0.09 0.12 0.11 0.08 0.14 0.13 0.11 0.21 0.24 0.23 0.21 0.22 0.18 0.15 0.10 0.09 0.11 0.11 0.09 0.06 0.03 0.01 0.01 0.03 0.03 0.03 0.03 0.05 0.09 0.15 0.16 0.13 0.06 0.07 0.10 0.12 0.13 0.11 0.09 0.07 0.08 0.08 0.09 0.16
0.07 0.05 0.06 0.10 0.15 0.17 0.18 0.16 0.18 0.20 0.20 0.20 0.16 0.13 0.15 0.14 0.21 0.29 0.27 0.28 0.22 0.14 0.09 0.06 0.03 0.03 0.04 0.05 0.05 0.05 0.03 0.02 0.01 0.01 0.03 0.07 0.08 0.08 0.09 0.11 0.11 0.08 0.08 0.09 0.10 0.10 0.13 0.15 0.14 0.12 0.13 0.15 0.17 0.19
0.12 0.16 0.13 0.12 0.08 0.08 0.13 0.16 0.16 0.17 0.16 0.15 0.12 0.12 0.12 0.15 0.25 0.24 0.23 0.18 0.14 0.09 0.06 0.07 0.10 0.07 0.04 0.02 0.02 0.02 0.01 0.02 0.03 0.03 0.02 0.05 0.11 0.10 0.06 0.07 0.07 0.07 0.07 0.06 0.05 0.09 0.13 0.17 0.15 0.17 0.22 0.22 0.18 0.16
0.07 0.07 0.05 0.03 0.04 0.09 0.13 0.08 0.10 0.08 0.04 0.04 0.04 0.06 0.08 0.19 0.30 0.22 0.15 0.12 0.11 0.11 0.11 0.09 0.09 0.05 0.05 0.04 0.03 0.05 0.08 0.05 0.06 0.09 0.09 0.09 0.10 0.09 0.07 0.07 0.07 0.07 0.08 0.07 0.06 0.04 0.05 0.06 0.07 0.15 0.10 0.08 0.10 0.12
0.01 0.02 0.02 0.02 0.07 0.11 0.07 0.05 0.06 0.07 0.06 0.04 0.04 0.04 0.13 0.17 0.19 0.14 0.11 0.14 0.07 0.06 0.05 0.03 0.02 0.03 0.03 0.04 0.05 0.06 0.09 0.08 0.08 0.08 0.09 0.09 0.08 0.07 0.07 0.06 0.05 0.06 0.06 0.06 0.06 0.07 0.07 0.07 0.10 0.11 0.07 0.06 0.08 0.08
0.02 0.03 0.01 0.02 0.09 0.07 0.08 0.12 0.09 0.10 0.08 0.05 0.09 0.07 0.11 0.10 0.09 0.11 0.10 0.08 0.05 0.05 0.05 0.07 0.07 0.08 0.09 0.09 0.09 0.09 0.09 0.08 0.06 0.07 0.08 0.08 0.08 0.07 0.06 0.04 0.05 0.06 0.06 0.06 0.06 0.08 0.08 0.08 0.08 0.08 0.09 0.07 0.07 0.06
0.02 0.02 0.02 0.02 0.05 0.07 0.06 0.06 0.04 0.04 0.05 0.06 0.10 0.11 0.11 0.09 0.09 0.13 0.11 0.07 0.10 0.10 0.07 0.08 0.09 0.11 0.11 0.07 0.06 0.07 0.05 0.06 0.06 0.07 0.07 0.08 0.06 0.05 0.04 0.04 0.05 0.05 0.05 0.06 0.07 0.09 0.07 0.06 0.06 0.07 0.06 0.06 0.05 0.05

GFSWCAN_prec_precacc_072.txt.gz
Total_Precipitation_Accumulation
1.05 0.77 0.73 0.74 0.70 0.56 0.56 0.58 0.62 0.64 0.75 0.53 0.35 0.42 0.51 0.56 0.73 1.13 1.12 0.78 1.49 1.38 0.47 0.30 0.24 0.17 0.03 0.04 0.15 0.07 0.19 0.14 0.26 0.16 0.08 0.03 0.01 0.01 0.02 0.01 0.01 0.06 0.18 0.26 0.32 0.29 0.11 0.02 0.06 0.10 0.06 0.03 0.02 0.02
1.19 0.83 0.75 0.69 0.68 0.61 0.55 0.57 0.62 0.63 0.70 0.50 0.34 0.37 0.45 0.62 0.83 1.12 1.25 0.74 1.04 1.39 0.87 0.45 0.27 0.24 0.09 0.03 0.07 0.11 0.09 0.05 0.08 0.14 0.06 0.05 0.02 0.02 0.01 0.01 0.00 0.02 0.02 0.05 0.10 0.06 0.02 0.03 0.09 0.11 0.09 0.10 0.07 0.03
1.27 0.81 0.66 0.58 0.55 0.49 0.47 0.48 0.55 0.62 0.63 0.47 0.45 0.47 0.52 0.63 0.78 1.38 1.01 0.78 2.24 1.99 0.97 0.40 0.29 0.20 0.19 0.06 0.08 0.23 0.09 0.04 0.06 0.05 0.11 0.08 0.06 0.01 0.01 0.00 0.00 0.01 0.00 0.01 0.02 0.01 0.01 0.02 0.03 0.02 0.02 0.02 0.01 0.02
1.15 0.83 0.65 0.58 0.48 0.44 0.47 0.48 0.44 0.56 0.60 0.52 0.51 0.58 0.59 0.65 0.88 1.29 0.95 1.01 2.23 1.68 1.36 0.52 0.29 0.28 0.26 0.17 0.07 0.10 0.12 0.11 0.16 0.25 0.18 0.23 0.10 0.02 0.01 0.01 0.01 0.01 0.02 0.04 0.03 0.00 0.02 0.03 0.06 0.09 0.05 0.02 0.00 0.01
1.06 0.88 0.71 0.56 0.46 0.42 0.41 0.41 0.42 0.50 0.56 0.54 0.51 0.53 0.76 0.81 1.03 1.06 0.91 1.14 1.49 1.58 1.32 0.84 0.29 0.32 0.31 0.30 0.15 0.12 0.13 0.15 0.23 0.50 0.46 0.15 0.06 0.05 0.05 0.08 0.06 0.01 0.02 0.07 0.07 0.05 0.07 0.09 0.04 0.03 0.02 0.02 0.01 0.01
1.03 0.81 0.66 0.42 0.31 0.29 0.31 0.33 0.42 0.52 0.46 0.46 0.46 0.65 0.84 0.97 1.38 1.42 2.12 1.37 1.06 1.29 1.48 1.12 0.58 0.27 0.37 0.46 0.36 0.21 0.14 0.16 0.25 0.34 0.44 0.29 0.12 0.20 0.17 0.08 0.02 0.02 0.05 0.05 0.04 0.04 0.08 0.09 0.04 0.02 0.02 0.01 0.00 0.00
0.88 0.71 0.60 0.43 0.30 0.29 0.35 0.35 0.40 0.42 0.40 0.50 0.62 0.75 0.93 1.27 1.17 1.20 1.54 0.87 0.78 1.34 1.75 1.24 1.03 0.38 0.40 0.59 0.60 0.39 0.23 0.25 0.30 0.36 0.31 0.17 0.13 0.39 0.50 0.28 0.07 0.03 0.04 0.05 0.05 0.05 0.06 0.04 0.03 0.01 0.01 0.01 0.01 0.01
0.84 0.72 0.52 0.39 0.35 0.40 0.44 0.51 0.49 0.46 0.52 0.67 0.86 1.02 1.41 1.38 1.04 0.98 0.62 0.68 0.66 1.09 1.01 1.09 1.06 0.79 0.65 0.68 0.79 0.52 0.45 0.34 0.38 0.30 0.25 0.29 0.22 0.34 0.41 0.14 0.04 0.03 0.03 0.04 0.06 0.07 0.08 0.06 0.04 0.03 0.02 0.03 0.04 0.05
0.57 0.43 0.34 0.31 0.35 0.38 0.43 0.55 0.61 0.60 0.63 0.75 0.95 1.40 1.82 1.57 1.34 0.85 0.85 0.86 0.93 1.05 0.76 0.53 0.87 0.86 1.04 0.71 0.82 0.82 0.66 0.65 0.32 0.28 0.19 0.38 0.40 0.48 0.22 0.05 0.02 0.01 0.01 0.01 0.02 0.03 0.05 0.06 0.05 0.03 0.03 0.05 0.11 0.27
0.38 0.30 0.26 0.28 0.30 0.38 0.47 0.55 0.62 0.78 0.99 1.39 1.70 2.10 2.34 1.46 0.98 1.07 1.61 1.50 1.39 0.92 0.50 0.39 0.44 0.89 1.26 1.19 0.70 0.98 1.00 0.70 0.59 0.27 0.34 0.31 0.50 0.34 0.10 0.04 0.01 0.00 0.00 0.00 0.00 0.01 0.02 0.06 0.07 0.11 0.17 0.21 0.23 0.19
0.35 0.27 0.21 0.23 0.27 0.33 0.40 0.50 0.63 0.92 1.86 2.28 2.47 2.50 1.80 1.40 1.18 1.57 1.65 1.26 0.94 0.41 0.21 0.23 0.28 0.71 0.91 1.17 0.91 0.82 1.05 0.77 0.56 0.55 0.50 0.53 0.36 0.22 0.16 0.10 0.03 0.01 0.01 0.01 0.01 0.02 0.04 0.11 0.26 0.26 0.16 0.09 0.06 0.03
0.37 0.23 0.15 0.13 0.13 0.15 0.14 0.27 0.55 1.00 1.62 2.21 2.07 1.63 1.66 1.86 1.53 1.45 1.39 0.86 0.40 0.27 0.16 0.16 0.16 0.35 0.78 1.15 1.17 1.16 1.18 0.98 0.54 0.38 0.62 0.64 0.35 0.14 0.10 0.10 0.07 0.05 0.04 0.06 0.11 0.18 0.21 0.22 0.18 0.14 0.09 0.07 0.06 0.06
0.31 0.24 0.22 0.18 0.15 0.19 0.23 0.43 0.69 0.98 1.55 1.86 1.72 1.89 1.94 1.99 1.77 1.35 0.78 0.43 0.31 0.42 0.16 0.23 0.20 0.38 0.59 1.01 1.42 1.14 1.32 1.35 0.78 0.66 0.61 0.46 0.31 0.26 0.30 0.30 0.32 0.31 0.28 0.26 0.19 0.16 0.13 0.09 0.06 0.06 0.09 0.13 0.16 0.22
0.24 0.20 0.23 0.27 0.34 0.43 0.49 0.59 0.90 1.38 1.33 1.56 1.67 1.85 1.78 1.55 1.25 0.88 0.51 0.33 0.30 0.26 0.22 0.54 0.31 0.43 0.58 0.90 1.38 1.34 1.41 1.15 1.26 0.77 0.54 0.54 0.68 0.66 0.43 0.32 0.30 0.37 0.40 0.38 0.39 0.36 0.35 0.35 0.40 0.47 0.53 0.63 0.61 0.77
0.15 0.14 0.23 0.37 0.35 0.38 0.63 0.73 0.75 0.88 1.01 1.03 1.01 1.11 1.04 1.10 0.88 0.70 0.62 0.51 0.47 0.43 0.52 0.77 0.82 0.82 0.92 1.20 1.12 0.90 0.84 0.73 0.60 0.63 0.61 0.64 0.70 0.54 0.42 0.44 0.47 0.53 0.56 0.53 0.54 0.54 0.62 0.64 0.59 0.73 0.82 0.80 0.67 0.67
0.39 0.23 0.28 0.34 0.38 0.47 0.50 0.59 0.70 0.79 0.69 0.63 0.67 0.83 0.78 0.75 0.72 0.68 0.66 0.63 0.63 0.68 0.77 0.89 0.90 0.74 0.81 0.71 0.55 0.52 0.48 0.54 0.63 0.54 0.44 0.44 0.48 0.52 0.58 0.60 0.70 0.69 0.59 0.53 0.54 0.50 0.50 0.51 0.45 0.49 0.53 0.51 0.51 0.41
0.63 0.26 0.33 0.29 0.33 0.36 0.42 0.41 0.49 0.49 0.51 0.46 0.75 0.82 0.74 0.66 0.68 0.73 0.68 0.62 0.58 0.56 0.61 0.50 0.46 0.48 0.41 0.35 0.48 0.50 0.62 0.61 0.51 0.57 0.63 0.59 0.61 0.67 0.65 0.70 0.73 0.69 0.61 0.53 0.48 0.46 0.48 0.48 0.32 0.19 0.28 0.41 0.30 0.28
0.84 0.36 0.30 0.26 0.28 0.29 0.32 0.28 0.19 0.11 0.25 0.57 0.65 0.89 0.68 0.76 0.74 0.69 0.68 0.56 0.46 0.37 0.33 0.36 0.26 0.24 0.36 0.40 0.49 0.56 0.58 0.59 0.64 0.66 0.69 0.73 0.71 0.72 0.73 0.74 0.75 0.66 0.56 0.50 0.42 0.41 0.41 0.36 0.26 0.32 0.28 0.25 0.16 0.16
0.87 0.58 0.41 0.44 0.30 0.18 0.14 0.10 0.02 0.14 0.47 0.55 0.65 0.57 0.45 0.53 0.54 0.51 0.40 0.36 0.34 0.27 0.27 0.33 0.35 0.42 0.53 0.60 0.71 0.67 0.70 0.71 0.73 0.70 0.67 0.71 0.72 0.72 0.73 0.68 0.61 0.55 0.41 0.39 0.32 0.30 0.30 0.26 0.24 0.21 0.17 0.12 0.13 0.15
0.91 0.77 0.55 0.29 0.04 0.01 0.01 0.02 0.00 0.08 0.30 0.39 0.35 0.20 0.17 0.26 0.18 0.08 0.07 0.06 0.08 0.10 0.22 0.37 0.64 0.75 0.76 0.84 0.80 0.75 0.77 0.70 0.46 0.41 0.54 0.66 0.74 0.60 0.62 0.55 0.51 0.46 0.33 0.31 0.27 0.24 0.17 0.14 0.16 0.15 0.14 0.13 0.12 0.13
0.78 0.79 0.54 0.26 0.09 0.00 0.01 0.01 0.06 0.08 0.16 0.24 0.18 0.04 0.06 0.03 0.01 0.01 0.00 0.00 0.03 0.16 0.43 0.62 0.62 0.64 0.61 0.68 0.61 0.51 0.48 0.39 0.34 0.31 0.40 0.47 0.59 0.45 0.46 0.47 0.40 0.33 0.26 0.27 0.22 0.23 0.19 0.21 0.22 0.17 0.15 0.12 0.10 0.09
0.42 0.47 0.41 0.35 0.21 0.03 0.00 0.01 0.05 0.04 0.02 0.05 0.03 0.01 0.02 0.04 0.03 0.02 0.01 0.03 0.23 0.45 0.54 0.47 0.47 0.40 0.33 0.40 0.50 0.49 0.57 0.43 0.35 0.32 0.33 0.31 0.33 0.34 0.38 0.42 0.30 0.28 0.26 0.26 0.22 0.19 0.16 0.14 0.12 0.10 0.08 0.07 0.07 0.06
0.29 0.38 0.37 0.37 0.27 0.09 0.04 0.00 0.00 0.01 0.02 0.02 0.03 0.02 0.02 0.03 0.04 0.02 0.05 0.13 0.35 0.45 0.36 0.27 0.27 0.24 0.25 0.32 0.21 0.20 0.25 0.25 0.32 0.40 0.39 0.33 0.32 0.33 0.28 0.29 0.27 0.22 0.19 0.20 0.16 0.14 0.12 0.10 0.07 0.06 0.06 0.05 0.05 0.04
0.31 0.37 0.38 0.31 0.20 0.13 0.05 0.04 0.02 0.02 0.01 0.02 0.02 0.05 0.05 0.04 0.02 0.03 0.08 0.20 0.35 0.23 0.17 0.19 0.18 0.16 0.12 0.10 0.11 0.15 0.17 0.12 0.15 0.18 0.23 0.16 0.14 0.19 0.16 0.15 0.14 0.15 0.15 0.12 0.08 0.06 0.05 0.04 0.05 0.04 0.03 0.04 0.04 0.06
0.41 0.30 0.25 0.20 0.11 0.05 0.03 0.03 0.04 0.03 0.03 0.02 0.04 0.07 0.04 0.03 0.03 0.05 0.09 0.26 0.20 0.20 0.20 0.19 0.14 0.14 0.15 0.17 0.17 0.15 0.13 0.10 0.08 0.09 0.14 0.12 0.12 0.10 0.08 0.07 0.07 0.07 0.04 0.04 0.04 0.05 0.05 0.04 0.04 0.05 0.04 0.06 0.08 0.09
0.29 0.19 0.13 0.08 0.05 0.06 0.04 0.03 0.03 0.04 0.04 0.07 0.09 0.09 0.05 0.06 0.05 0.10 0.18 0.27 0.21 0.22 0.24 0.24 0.19 0.12 0.12 0.11 0.11 0.11 0.10 0.10 0.07 0.06 0.10 0.06 0.07 0.08 0.07 0.06 0.04 0.05 0.05 0.06 0.10 0.08 0.05 0.03 0.04 0.05 0.06 0.06 0.08 0.13
0.12 0.09 0.04 0.05 0.07 0.11 0.11 0.07 0.08 0.10 0.09 0.12 0.11 0.08 0.14 0.13 0.11 0.22 0.24 0.24 0.21 0.22 0.18 0.15 0.10 0.09 0.11 0.11 0.09 0.06 0.03 0.01 0.01 0.03 0.03 0.03 0.03 0.05 0.09 0.15 0.16 0.13 0.06 0.07 0.10 0.12 0.13 0.11 0.09 0.07 0.08 0.08 0.09 0.16
0.07 0.05 0.06 0.10 0.15 0.17 0.18 0.16 0.18 0.20 0.20 0.20 0.16 0.13 0.15 0.14 0.22 0.30 0.27 0.28 0.22 0.14 0.09 0.06 0.03 0.03 0.04 0.05 0.05 0.05 0.03 0.02 0.01 0.01 0.03 0.07 0.08 0.08 0.09 0.11 0.11 0.08 0.08 0.09 0.10 0.10 0.13 0.15 0.14 0.12 0.13 0.15 0.17 0.19
0.12 0.16 0.13 0.12 0.08 0.08 0.13 0.16 0.17 0.17 0.16 0.15 0.12 0.12 0.12 0.16 0.26 0.25 0.24 0.18 0.14 0.09 0.06 0.07 0.10 0.07 0.04 0.02 0.02 0.02 0.01 0.02 0.03 0.03 0.02 0.05 0.11 0.10 0.06 0.07 0.07 0.07 0.07 0.06 0.05 0.09 0.14 0.17 0.15 0.17 0.22 0.22 0.18 0.16
0.07 0.07 0.05 0.03 0.05 0.09 0.13 0.09 0.10 0.09 0.04 0.04 0.04 0.07 0.09 0.20 0.31 0.22 0.15 0.12 0.11 0.11 0.11 0.09 0.09 0.05 0.05 0.04 0.03 0.05 0.08 0.05 0.07 0.09 0.09 0.09 0.10 0.09 0.07 0.07 0.07 0.07 0.08 0.07 0.06 0.04 0.06 0.06 0.07 0.15 0.10 0.08 0.10 0.12
0.01 0.02 0.02 0.02 0.07 0.11 0.07 0.05 0.06 0.07 0.06 0.04 0.04 0.04 0.14 0.18 0.20 0.14 0.11 0.14 0.07 0.06 0.05 0.03 0.02 0.03 0.03 0.04 0.05 0.06 0.09 0.08 0.08 0.08 0.09 0.09 0.08 0.07 0.07 0.06 0.05 0.06 0.06 0.06 0.06 0.07 0.07 0.07 0.10 0.11 0.07 0.06 0.08 0.08
0.02 0.03 0.01 0.03 0.09 0.07 0.08 0.12 0.09 0.10 0.08 0.05 0.09 0.07 0.11 0.10 0.09 0.11 0.11 0.09 0.05 0.06 0.05 0.07 0.07 0.08 0.09 0.09 0.09 0.09 0.09 0.08 0.06 0.07 0.08 0.08 0.08 0.08 0.06 0.05 0.05 0.06 0.06 0.06 0.06 0.08 0.09 0.08 0.08 0.08 0.09 0.07 0.07 0.06
0.02 0.02 0.02 0.02 0.05 0.07 0.06 0.06 0.04 0.04 0.05 0.07 0.10 0.11 0.12 0.09 0.09 0.14 0.12 0.08 0.10 0.10 0.07 0.08 0.09 0.11 0.11 0.07 0.06 0.07 0.05 0.06 0.06 0.07 0.07 0.08 0.06 0.05 0.04 0.04 0.05 0.05 0.05 0.06 0.07 0.09 0.07 0.07 0.07 0.07 0.06 0.06 0.05 0.05

GFSWCAN_prec_precacc_075.txt.gz
Total_Precipitation_Accumulation
1.07 0.81 0.77 0.77 0.73 0.59 0.59 0.61 0.65 0.66 0.76 0.54 0.37 0.47 0.60 0.63 0.79 1.24 1.28 0.86 1.59 1.50 0.52 0.31 0.24 0.17 0.03 0.05 0.18 0.08 0.25 0.18 0.29 0.20 0.09 0.03 0.01 0.01 0.02 0.01 0.02 0.08 0.20 0.27 0.33 0.29 0.11 0.02 0.09 0.14 0.07 0.03 0.02 0.02
1.24 0.86 0.78 0.72 0.71 0.62 0.57 0.59 0.64 0.66 0.72 0.52 0.37 0.39 0.50 0.71 0.94 1.29 1.49 0.87 1.12 1.50 0.98 0.49 0.28 0.24 0.09 0.03 0.08 0.15 0.11 0.05 0.09 0.14 0.06 0.05 0.02 0.02 0.01 0.01 0.00 0.02 0.03 0.05 0.10 0.06 0.02 0.03 0.09 0.11 0.09 0.10 0.07 0.03
1.30 0.83 0.70 0.60 0.55 0.49 0.47 0.49 0.57 0.66 0.67 0.50 0.49 0.52 0.56 0.71 0.94 1.64 1.25 0.89 2.42 2.23 1.12 0.47 0.31 0.20 0.19 0.07 0.08 0.23 0.09 0.04 0.06 0.05 0.11 0.08 0.06 0.01 0.01 0.00 0.00 0.01 0.00 0.01 0.02 0.01 0.01 0.02 0.03 0.02 0.02 0.02 0.01 0.02
1.17 0.85 0.67 0.58 0.49 0.45 0.48 0.49 0.44 0.58 0.66 0.58 0.57 0.65 0.63 0.71 1.05 1.61 1.15 1.11 2.32 1.80 1.45 0.56 0.30 0.28 0.26 0.17 0.07 0.10 0.12 0.13 0.16 0.26 0.19 0.23 0.10 0.02 0.01 0.01 0.01 0.01 0.02 0.04 0.03 0.00 0.02 0.03 0.06 0.09 0.05 0.02 0.00 0.01
1.08 0.89 0.71 0.57 0.48 0.44 0.43 0.43 0.43 0.51 0.60 0.64 0.62 0.62 0.80 0.90 1.26 1.29 1.04 1.22 1.52 1.63 1.38 0.85 0.29 0.32 0.31 0.30 0.15 0.12 0.14 0.16 0.24 0.51 0.48 0.15 0.06 0.05 0.05 0.08 0.06 0.01 0.02 0.07 0.07 0.05 0.07 0.09 0.04 0.03 0.02 0.02 0.01 0.01
1.03 0.81 0.66 0.42 0.32 0.29 0.31 0.33 0.43 0.52 0.48 0.55 0.61 0.77 0.90 1.07 1.53 1.55 2.31 1.49 1.09 1.31 1.50 1.13 0.58 0.27 0.37 0.46 0.36 0.21 0.14 0.16 0.27 0.35 0.44 0.30 0.12 0.21 0.17 0.08 0.02 0.02 0.05 0.05 0.04 0.04 0.08 0.09 0.04 0.02 0.02 0.01 0.00 0.01
0.89 0.72 0.62 0.44 0.31 0.29 0.36 0.36 0.41 0.43 0.43 0.58 0.76 0.85 1.01 1.33 1.20 1.23 1.57 0.89 0.78 1.35 1.76 1.24 1.03 0.38 0.40 0.59 0.64 0.46 0.28 0.29 0.35 0.42 0.32 0.17 0.13 0.39 0.50 0.28 0.07 0.03 0.04 0.05 0.05 0.05 0.06 0.04 0.03 0.01 0.01 0.01 0.02 0.01
0.84 0.73 0.55 0.41 0.36 0.41 0.46 0.54 0.52 0.48 0.57 0.75 0.96 1.11 1.50 1.44 1.09 1.00 0.62 0.68 0.66 1.10 1.02 1.09 1.08 0.87 0.66 0.71 0.93 0.72 0.70 0.56 0.58 0.46 0.30 0.30 0.22 0.34 0.42 0.14 0.04 0.03 0.03 0.04 0.06 0.07 0.08 0.06 0.04 0.03 0.02 0.03 0.04 0.07
0.57 0.44 0.37 0.36 0.38 0.42 0.50 0.63 0.67 0.67 0.72 0.86 1.11 1.64 2.12 1.73 1.45 0.89 0.88 0.88 0.94 1.05 0.76 0.53 0.92 1.19 1.11 0.77 0.89 1.00 0.81 0.78 0.43 0.35 0.24 0.39 0.40 0.48 0.23 0.05 0.02 0.01 0.01 0.01 0.02 0.03 0.05 0.06 0.06 0.04 0.04 0.06 0.12 0.27
0.38 0.30 0.27 0.31 0.38 0.45 0.54 0.69 0.81 0.98 1.22 1.60 1.93 2.40 2.63 1.61 1.02 1.12 1.67 1.53 1.41 0.93 0.52 0.40 0.49 1.12 1.39 1.24 0.76 1.05 1.01 0.71 0.62 0.28 0.35 0.31 0.51 0.36 0.12 0.04 0.01 0.00 0.00 0.00 0.00 0.01 0.03 0.08 0.10 0.12 0.20 0.25 0.24 0.20
0.35 0.27 0.22 0.24 0.28 0.36 0.42 0.52 0.71 1.08 1.96 2.38 2.62 2.62 1.90 1.43 1.18 1.58 1.69 1.32 1.00 0.47 0.28 0.34 0.38 0.85 0.99 1.18 0.92 0.83 1.08 0.78 0.56 0.56 0.50 0.54 0.37 0.23 0.17 0.10 0.03 0.01 0.01 0.01 0.02 0.02 0.05 0.12 0.27 0.28 0.18 0.10 0.06 0.03
0.37 0.23 0.15 0.13 0.13 0.15 0.14 0.28 0.56 1.02 1.65 2.26 2.15 1.68 1.69 1.89 1.56 1.50 1.43 0.91 0.43 0.33 0.22 0.22 0.21 0.38 0.90 1.16 1.18 1.16 1.20 0.99 0.55 0.40 0.64 0.66 0.37 0.14 0.10 0.10 0.07 0.05 0.04 0.06 0.11 0.19 0.22 0.23 0.20 0.16 0.11 0.08 0.08 0.08
0.32 0.24 0.22 0.18 0.15 0.19 0.23 0.43 0.69 0.98 1.55 1.86 1.72 1.89 1.94 2.00 1.78 1.36 0.79 0.44 0.31 0.43 0.17 0.24 0.20 0.38 0.60 1.01 1.43 1.14 1.32 1.36 0.78 0.68 0.63 0.48 0.32 0.26 0.31 0.30 0.32 0.32 0.28 0.27 0.20 0.16 0.14 0.10 0.07 0.08 0.10 0.16 0.18 0.24
0.24 0.20 0.23 0.27 0.34 0.43 0.49 0.59 0.90 1.38 1.33 1.56 1.67 1.85 1.78 1.55 1.25 0.89 0.52 0.34 0.32 0.27 0.23 0.54 0.31 0.43 0.58 0.90 1.38 1.34 1.43 1.17 1.27 0.78 0.56 0.55 0.69 0.68 0.45 0.34 0.31 0.39 0.42 0.41 0.42 0.38 0.37 0.37 0.42 0.49 0.56 0.66 0.63 0.79
0.15 0.14 0.23 0.37 0.35 0.38 0.63 0.73 0.75 0.88 1.01 1.03 1.01 1.11 1.05 1.11 0.89 0.71 0.63 0.52 0.49 0.44 0.53 0.77 0.82 0.82 0.92 1.20 1.12 0.91 0.86 0.75 0.61 0.64 0.62 0.66 0.73 0.58 0.46 0.48 0.51 0.57 0.59 0.56 0.58 0.58 0.66 0.68 0.62 0.76 0.86 0.83 0.70 0.70
0.39 0.23 0.28 0.34 0.38 0.47 0.50 0.59 0.70 0.79 0.69 0.63 0.67 0.83 0.78 0.76 0.73 0.69 0.67 0.64 0.65 0.70 0.78 0.90 0.90 0.74 0.82 0.71 0.56 0.52 0.48 0.54 0.63 0.55 0.44 0.46 0.50 0.54 0.60 0.63 0.73 0.73 0.63 0.58 0.58 0.54 0.54 0.55 0.48 0.53 0.57 0.54 0.55 0.45
0.63 0.26 0.33 0.29 0.33 0.36 0.42 0.41 0.49 0.49 0.51 0.46 0.76 0.83 0.75 0.66 0.69 0.73 0.69 0.62 0.59 0.58 0.64 0.53 0.48 0.50 0.44 0.37 0.50 0.51 0.62 0.62 0.53 0.59 0.67 0.63 0.66 0.71 0.70 0.74 0.77 0.73 0.64 0.57 0.53 0.50 0.52 0.52 0.35 0.22 0.31 0.45 0.34 0.32
0.84 0.36 0.30 0.26 0.28 0.29 0.32 0.28 0.19 0.11 0.25 0.57 0.65 0.90 0.68 0.76 0.74 0.69 0.68 0.56 0.46 0.37 0.35 0.37 0.28 0.27 0.39 0.44 0.54 0.60 0.61 0.62 0.68 0.70 0.73 0.78 0.75 0.76 0.78 0.77 0.78 0.70 0.59 0.54 0.46 0.45 0.45 0.39 0.29 0.35 0.31 0.29 0.18 0.19
0.87 0.58 0.41 0.44 0.30 0.18 0.14 0.10 0.02 0.14 0.47 0.55 0.65 0.57 0.45 0.53 0.54 0.51 0.40 0.36 0.34 0.27 0.27 0.33 0.35 0.43 0.55 0.62 0.72 0.69 0.72 0.73 0.75 0.71 0.69 0.73 0.74 0.75 0.77 0.72 0.65 0.59 0.44 0.43 0.35 0.33 0.33 0.28 0.27 0.23 0.19 0.13 0.14 0.15
0.91 0.77 0.55 0.29 0.04 0.01 0.01 0.02 0.00 0.08 0.30 0.39 0.35 0.20 0.17 0.26 0.18 0.08 0.07 0.06 0.08 0.10 0.22 0.37 0.65 0.76 0.77 0.85 0.81 0.75 0.78 0.71 0.47 0.41 0.55 0.67 0.76 0.61 0.64 0.57 0.53 0.48 0.35 0.33 0.29 0.26 0.19 0.15 0.16 0.15 0.14 0.13 0.12 0.13
0.78 0.79 0.54 0.26 0.09 0.00 0.01 0.01 0.06 0.08 0.16 0.24 0.18 0.04 0.06 0.03 0.01 0.01 0.00 0.00 0.03 0.16 0.44 0.63 0.63 0.66 0.62 0.68 0.61 0.51 0.49 0.39 0.34 0.32 0.41 0.48 0.60 0.46 0.47 0.48 0.42 0.34 0.28 0.28 0.23 0.24 0.19 0.21 0.22 0.17 0.15 0.12 0.10 0.09
0.42 0.47 0.41 0.35 0.21 0.03 0.00 0.01 0.05 0.04 0.02 0.05 0.03 0.01 0.02 0.04 0.03 0.02 0.01 0.03 0.23 0.46 0.55 0.48 0.48 0.41 0.34 0.41 0.51 0.49 0.57 0.43 0.36 0.32 0.34 0.31 0.33 0.35 0.39 0.43 0.30 0.28 0.26 0.26 0.22 0.19 0.16 0.14 0.12 0.10 0.08 0.07 0.07 0.06
0.29 0.38 0.37 0.37 0.27 0.09 0.04 0.01 0.01 0.02 0.02 0.02 0.03 0.02 0.02 0.03 0.04 0.02 0.05 0.13 0.36 0.46 0.37 0.28 0.28 0.24 0.25 0.33 0.21 0.20 0.25 0.25 0.32 0.40 0.39 0.34 0.32 0.33 0.28 0.29 0.27 0.22 0.19 0.20 0.16 0.14 0.12 0.10 0.07 0.06 0.06 0.05 0.05 0.04
0.31 0.37 0.38 0.31 0.20 0.13 0.05 0.04 0.02 0.02 0.01 0.02 0.02 0.05 0.05 0.04 0.02 0.03 0.08 0.20 0.36 0.24 0.17 0.19 0.18 0.16 0.12 0.10 0.11 0.15 0.17 0.12 0.15 0.18 0.23 0.16 0.14 0.19 0.16 0.15 0.14 0.15 0.15 0.12 0.08 0.06 0.05 0.04 0.05 0.04 0.03 0.04 0.04 0.06
0.41 0.30 0.25 0.20 0.11 0.05 0.03 0.03 0.04 0.03 0.03 0.02 0.04 0.07 0.04 0.03 0.03 0.05 0.09 0.26 0.21 0.20 0.20 0.19 0.14 0.14 0.15 0.17 0.17 0.15 0.13 0.10 0.08 0.09 0.14 0.12 0.12 0.10 0.08 0.07 0.07 0.07 0.04 0.04 0.04 0.05 0.05 0.04 0.04 0.05 0.04 0.06 0.08 0.09
0.29 0.19 0.13 0.08 0.05 0.06 0.04 0.03 0.03 0.04 0.04 0.07 0.09 0.09 0.05 0.06 0.05 0.10 0.18 0.27 0.21 0.22 0.24 0.24 0.19 0.12 0.12 0.11 0.11 0.11 0.10 0.10 0.07 0.06 0.10 0.06 0.07 0.08 0.07 0.06 0.04 0.05 0.05 0.06 0.10 0.08 0.05 0.03 0.04 0.05 0.06 0.06 0.08 0.13
0.12 0.09 0.04 0.05 0.07 0.11 0.11 0.07 0.08 0.10 0.09 0.12 0.11 0.08 0.14 0.13 0.11 0.22 0.25 0.24 0.21 0.22 0.18 0.15 0.10 0.09 0.11 0.11 0.09 0.06 0.03 0.01 0.01 0.03 0.03 0.03 0.03 0.05 0.09 0.15 0.16 0.13 0.06 0.07 0.10 0.12 0.13 0.11 0.09 0.07 0.08 0.08 0.09 0.16
0.07 0.05 0.06 0.10 0.15 0.17 0.18 0.16 0.18 0.20 0.20 0.20 0.16 0.13 0.15 0.14 0.22 0.30 0.27 0.28 0.22 0.14 0.09 0.06 0.03 0.03 0.04 0.05 0.05 0.05 0.03 0.02 0.01 0.01 0.03 0.07 0.08 0.08 0.09 0.11 0.11 0.08 0.08 0.09 0.10 0.10 0.13 0.15 0.14 0.12 0.13 0.15 0.17 0.19
0.12 0.16 0.13 0.12 0.08 0.08 0.13 0.16 0.17 0.18 0.17 0.15 0.12 0.12 0.13 0.16 0.27 0.25 0.24 0.18 0.14 0.09 0.06 0.07 0.10 0.07 0.04 0.02 0.02 0.02 0.01 0.02 0.03 0.03 0.02 0.05 0.11 0.10 0.06 0.07 0.07 0.07 0.07 0.06 0.05 0.09 0.14 0.17 0.15 0.17 0.22 0.22 0.18 0.16
0.07 0.07 0.05 0.03 0.05 0.09 0.14 0.09 0.10 0.09 0.05 0.04 0.04 0.07 0.09 0.22 0.33 0.23 0.15 0.12 0.11 0.11 0.11 0.09 0.09 0.05 0.05 0.04 0.03 0.05 0.08 0.05 0.07 0.10 0.09 0.09 0.10 0.09 0.07 0.07 0.07 0.07 0.08 0.07 0.06 0.04 0.06 0.06 0.08 0.15 0.11 0.08 0.10 0.12
0.01 0.02 0.02 0.02 0.07 0.11 0.07 0.05 0.06 0.07 0.06 0.04 0.04 0.04 0.14 0.19 0.21 0.15 0.11 0.14 0.07 0.06 0.05 0.03 0.02 0.03 0.03 0.04 0.05 0.06 0.09 0.08 0.08 0.08 0.09 0.09 0.08 0.07 0.07 0.06 0.05 0.06 0.06 0.06 0.06 0.07 0.07 0.07 0.10 0.11 0.07 0.06 0.08 0.08
0.02 0.03 0.01 0.03 0.09 0.07 0.08 0.12 0.09 0.10 0.08 0.05 0.09 0.07 0.11 0.10 0.09 0.12 0.11 0.09 0.05 0.06 0.05 0.07 0.07 0.08 0.09 0.09 0.09 0.09 0.09 0.08 0.06 0.07 0.08 0.08 0.08 0.08 0.06 0.05 0.05 0.06 0.06 0.06 0.06 0.08 0.09 0.08 0.08 0.08 0.09 0.07 0.07 0.06
0.02 0.02 0.02 0.02 0.05 0.07 0.07 0.06 0.04 0.04 0.05 0.07 0.10 0.11 0.12 0.09 0.09 0.14 0.12 0.08 0.11 0.10 0.07 0.08 0.09 0.11 0.11 0.07 0.06 0.07 0.05 0.06 0.06 0.07 0.07 0.08 0.06 0.05 0.04 0.04 0.05 0.05 0.05 0.06 0.07 0.09 0.07 0.07 0.07 0.07 0.06 0.06 0.05 0.05

GFSWCAN_prec_precacc_081.txt.gz
Total_Precipitation_Accumulation
1.09 0.84 0.80 0.80 0.74 0.61 0.62 0.64 0.68 0.70 0.81 0.61 0.45 0.55 0.75 0.85 1.00 1.49 1.42 0.92 1.66 1.62 0.55 0.32 0.28 0.22 0.07 0.14 0.33 0.16 0.41 0.33 0.46 0.32 0.15 0.08 0.04 0.02 0.02 0.04 0.04 0.09 0.22 0.30 0.36 0.32 0.12 0.02 0.11 0.16 0.09 0.03 0.02 0.02
1.30 0.91 0.80 0.73 0.73 0.66 0.60 0.62 0.66 0.68 0.74 0.56 0.42 0.46 0.58 0.88 1.17 1.61 1.81 0.96 1.20 1.59 1.05 0.52 0.29 0.25 0.13 0.08 0.19 0.26 0.14 0.08 0.10 0.19 0.11 0.10 0.05 0.03 0.01 0.02 0.02 0.07 0.04 0.09 0.11 0.07 0.02 0.05 0.11 0.12 0.09 0.10 0.07 0.03
1.36 0.85 0.72 0.61 0.57 0.51 0.49 0.50 0.58 0.67 0.69 0.54 0.55 0.58 0.63 0.82 1.13 1.96 1.60 0.97 2.58 2.48 1.22 0.52 0.34 0.20 0.20 0.09 0.13 0.31 0.12 0.08 0.11 0.09 0.19 0.14 0.09 0.01 0.02 0.01 0.01 0.01 0.01 0.04 0.08 0.03 0.02 0.03 0.04 0.02 0.02 0.02 0.01 0.02
1.19 0.86 0.68 0.59 0.50 0.47 0.49 0.50 0.46 0.59 0.68 0.61 0.66 0.75 0.72 0.81 1.23 1.96 1.42 1.17 2.45 2.01 1.57 0.60 0.31 0.34 0.29 0.20 0.10 0.12 0.16 0.18 0.24 0.33 0.26 0.30 0.13 0.03 0.02 0.01 0.01 0.01 0.02 0.04 0.04 0.01 0.02 0.03 0.06 0.09 0.05 0.02 0.00 0.01
1.08 0.89 0.72 0.58 0.48 0.44 0.43 0.44 0.44 0.52 0.61 0.70 0.74 0.76 0.94 1.05 1.56 1.73 1.23 1.28 1.56 1.70 1.49 0.88 0.31 0.32 0.34 0.35 0.20 0.16 0.21 0.26 0.37 0.65 0.56 0.21 0.12 0.10 0.08 0.11 0.06 0.02 0.03 0.08 0.10 0.06 0.07 0.10 0.04 0.03 0.02 0.02 0.01 0.01
1.03 0.82 0.67 0.43 0.32 0.31 0.32 0.34 0.44 0.53 0.51 0.64 0.76 0.97 1.11 1.41 2.01 1.99 2.84 1.87 1.19 1.42 1.60 1.21 0.60 0.27 0.37 0.47 0.39 0.24 0.23 0.34 0.46 0.52 0.54 0.36 0.17 0.29 0.24 0.12 0.04 0.03 0.05 0.05 0.04 0.04 0.08 0.09 0.04 0.02 0.02 0.01 0.00 0.01
0.89 0.72 0.62 0.44 0.32 0.31 0.37 0.37 0.42 0.44 0.46 0.74 1.01 1.11 1.28 1.69 1.42 1.37 1.74 1.11 0.88 1.43 1.84 1.30 1.06 0.39 0.41 0.62 0.68 0.52 0.45 0.51 0.51 0.57 0.40 0.24 0.20 0.46 0.57 0.33 0.09 0.03 0.04 0.05 0.05 0.05 0.06 0.04 0.03 0.01 0.01 0.01 0.02 0.01
0.84 0.73 0.56 0.42 0.37 0.45 0.48 0.56 0.53 0.50 0.71 1.06 1.32 1.32 1.77 1.75 1.37 1.11 0.64 0.68 0.68 1.19 1.07 1.12 1.12 0.92 0.69 0.75 0.98 0.79 0.91 0.76 0.79 0.63 0.39 0.35 0.31 0.44 0.50 0.16 0.04 0.03 0.03 0.04 0.06 0.08 0.08 0.06 0.04 0.03 0.02 0.03 0.04 0.07
0.57 0.44 0.37 0.38 0.41 0.44 0.52 0.67 0.77 0.95 1.10 1.26 1.45 2.03 2.57 2.06 1.70 0.97 0.91 0.91 0.99 1.11 0.80 0.54 0.95 1.26 1.15 0.82 0.93 1.07 0.96 1.05 0.63 0.47 0.33 0.49 0.51 0.58 0.30 0.06 0.02 0.01 0.01 0.01 0.02 0.03 0.05 0.06 0.06 0.04 0.04 0.06 0.12 0.28
0.39 0.31 0.28 0.33 0.42 0.54 0.72 1.00 1.22 1.38 1.57 1.89 2.19 2.66 3.01 1.79 1.07 1.20 1.79 1.65 1.51 0.96 0.53 0.41 0.52 1.14 1.43 1.31 0.83 1.21 1.18 0.89 0.77 0.42 0.44 0.46 0.62 0.40 0.13 0.04 0.02 0.01 0.00 0.01 0.01 0.01 0.03 0.08 0.11 0.14 0.22 0.28 0.30 0.26
0.38 0.29 0.24 0.27 0.32 0.45 0.60 0.74 0.91 1.19 2.03 2.47 2.75 2.84 2.17 1.53 1.22 1.61 1.76 1.36 1.03 0.49 0.28 0.36 0.40 0.88 1.04 1.25 0.98 0.98 1.24 0.92 0.68 0.68 0.64 0.65 0.42 0.25 0.17 0.11 0.04 0.01 0.01 0.01 0.02 0.03 0.06 0.13 0.29 0.30 0.21 0.15 0.12 0.11
0.41 0.24 0.17 0.17 0.18 0.20 0.20 0.31 0.59 1.04 1.69 2.27 2.23 1.84 1.79 1.95 1.60 1.52 1.47 0.96 0.48 0.38 0.25 0.26 0.27 0.47 1.00 1.25 1.27 1.29 1.36 1.09 0.63 0.48 0.73 0.69 0.40 0.15 0.10 0.10 0.07 0.05 0.05 0.06 0.11 0.19 0.23 0.24 0.22 0.18 0.14 0.13 0.15 0.15
0.35 0.25 0.23 0.20 0.17 0.21 0.24 0.44 0.71 0.98 1.55 1.86 1.72 1.90 1.95 2.00 1.78 1.36 0.81 0.46 0.34 0.46 0.20 0.31 0.29 0.53 0.73 1.08 1.47 1.18 1.37 1.42 0.80 0.70 0.66 0.50 0.34 0.27 0.31 0.30 0.33 0.32 0.29 0.27 0.20 0.17 0.15 0.12 0.09 0.10 0.13 0.19 0.22 0.29
0.27 0.21 0.23 0.27 0.34 0.44 0.49 0.59 0.90 1.38 1.33 1.56 1.67 1.85 1.78 1.56 1.26 0.90 0.53 0.35 0.33 0.29 0.26 0.58 0.32 0.49 0.60 0.91 1.41 1.35 1.43 1.17 1.28 0.80 0.58 0.57 0.71 0.69 0.46 0.35 0.32 0.40 0.43 0.42 0.44 0.41 0.40 0.40 0.46 0.53 0.60 0.71 0.67 0.84
0.16 0.14 0.24 0.37 0.35 0.38 0.63 0.73 0.75 0.88 1.01 1.03 1.01 1.11 1.06 1.13 0.91 0.73 0.64 0.54 0.51 0.46 0.55 0.78 0.83 0.83 0.92 1.20 1.12 0.92 0.86 0.75 0.62 0.65 0.64 0.67 0.75 0.59 0.48 0.50 0.53 0.59 0.61 0.59 0.61 0.62 0.71 0.74 0.67 0.82 0.93 0.91 0.76 0.76
0.39 0.23 0.28 0.34 0.38 0.47 0.50 0.59 0.70 0.79 0.69 0.63 0.68 0.84 0.79 0.78 0.75 0.71 0.69 0.67 0.67 0.72 0.79 0.90 0.90 0.74 0.82 0.71 0.56 0.52 0.49 0.55 0.65 0.57 0.46 0.47 0.52 0.57 0.63 0.66 0.77 0.77 0.67 0.62 0.63 0.59 0.60 0.61 0.55 0.61 0.65 0.62 0.63 0.52
0.63 0.26 0.33 0.29 0.33 0.36 0.42 0.41 0.49 0.49 0.51 0.46 0.76 0.84 0.76 0.68 0.71 0.75 0.70 0.64 0.60 0.59 0.64 0.53 0.48 0.51 0.44 0.37 0.51 0.52 0.65 0.65 0.56 0.62 0.69 0.66 0.69 0.75 0.74 0.77 0.81 0.78 0.69 0.63 0.59 0.57 0.59 0.60 0.43 0.29 0.37 0.54 0.42 0.40
0.84 0.36 0.30 0.26 0.28 0.29 0.32 0.28 0.19 0.11 0.26 0.57 0.66 0.92 0.69 0.77 0.75 0.70 0.68 0.56 0.46 0.37 0.35 0.38 0.28 0.28 0.41 0.46 0.58 0.64 0.66 0.67 0.72 0.74 0.76 0.80 0.77 0.78 0.80 0.80 0.82 0.74 0.64 0.60 0.51 0.51 0.51 0.47 0.35 0.42 0.37 0.36 0.23 0.22
0.87 0.58 0.41 0.44 0.30 0.18 0.14 0.10 0.02 0.14 0.47 0.56 0.66 0.58 0.45 0.54 0.54 0.51 0.40 0.36 0.34 0.27 0.27 0.34 0.36 0.44 0.57 0.64 0.74 0.71 0.73 0.74 0.76 0.73 0.70 0.75 0.76 0.77 0.79 0.75 0.68 0.62 0.48 0.48 0.40 0.38 0.38 0.34 0.32 0.27 0.22 0.14 0.14 0.15
0.91 0.77 0.55 0.29 0.04 0.01 0.01 0.02 0.00 0.08 0.31 0.39 0.35 0.20 0.17 0.27 0.18 0.08 0.07 0.06 0.08 0.10 0.22 0.38 0.66 0.78 0.79 0.87 0.82 0.76 0.78 0.72 0.47 0.42 0.56 0.68 0.77 0.63 0.66 0.59 0.55 0.51 0.38 0.36 0.32 0.29 0.22 0.17 0.17 0.15 0.14 0.13 0.12 0.13
0.78 0.79 0.54 0.26 0.09 0.00 0.01 0.01 0.06 0.08 0.16 0.24 0.18 0.04 0.06 0.03 0.01 0.01 0.00 0.00 0.03 0.17 0.45 0.66 0.65 0.69 0.64 0.70 0.62 0.52 0.50 0.40 0.35 0.32 0.41 0.49 0.61 0.47 0.48 0.50 0.44 0.36 0.30 0.31 0.25 0.25 0.19 0.21 0.22 0.17 0.16 0.12 0.11 0.10
0.42 0.47 0.41 0.35 0.21 0.03 0.00 0.01 0.05 0.04 0.02 0.05 0.03 0.01 0.02 0.04 0.03 0.02 0.01 0.03 0.24 0.48 0.56 0.49 0.49 0.42 0.34 0.41 0.52 0.50 0.58 0.43 0.36 0.32 0.34 0.31 0.34 0.36 0.39 0.44 0.31 0.29 0.26 0.27 0.22 0.19 0.16 0.14 0.12 0.10 0.09 0.08 0.08 0.07
0.29 0.38 0.37 0.37 0.27 0.09 0.05 0.02 0.01 0.02 0.02 0.02 0.03 0.02 0.02 0.03 0.04 0.02 0.05 0.14 0.38 0.48 0.38 0.29 0.29 0.25 0.26 0.34 0.22 0.21 0.26 0.25 0.33 0.40 0.39 0.34 0.32 0.33 0.28 0.29 0.27 0.22 0.19 0.20 0.16 0.14 0.12 0.10 0.07 0.06 0.06 0.05 0.05 0.04
0.31 0.37 0.38 0.31 0.20 0.14 0.05 0.04 0.02 0.02 0.01 0.02 0.02 0.05 0.05 0.04 0.02 0.03 0.08 0.20 0.37 0.25 0.18 0.19 0.18 0.16 0.12 0.10 0.11 0.15 0.17 0.12 0.15 0.18 0.23 0.16 0.14 0.19 0.16 0.15 0.14 0.15 0.15 0.12 0.08 0.06 0.05 0.04 0.05 0.04 0.03 0.04 0.04 0.06
0.41 0.30 0.25 0.20 0.11 0.05 0.03 0.03 0.04 0.03 0.03 0.02 0.04 0.07 0.04 0.03 0.03 0.05 0.09 0.27 0.21 0.21 0.21 0.19 0.14 0.14 0.15 0.17 0.17 0.15 0.13 0.10 0.08 0.09 0.14 0.12 0.12 0.10 0.08 0.07 0.07 0.07 0.04 0.04 0.04 0.05 0.05 0.04 0.04 0.05 0.04 0.06 0.08 0.09
0.29 0.19 0.13 0.08 0.05 0.06 0.04 0.03 0.03 0.04 0.04 0.07 0.09 0.09 0.05 0.06 0.05 0.11 0.18 0.27 0.22 0.22 0.25 0.24 0.19 0.12 0.12 0.11 0.11 0.11 0.10 0.10 0.07 0.06 0.10 0.06 0.07 0.08 0.07 0.06 0.04 0.05 0.05 0.06 0.10 0.09 0.05 0.03 0.04 0.05 0.06 0.06 0.08 0.13
0.12 0.09 0.04 0.05 0.07 0.11 0.11 0.07 0.08 0.10 0.09 0.13 0.11 0.08 0.14 0.13 0.11 0.22 0.25 0.24 0.21 0.23 0.18 0.15 0.10 0.09 0.11 0.11 0.09 0.06 0.03 0.01 0.01 0.03 0.03 0.03 0.03 0.05 0.09 0.15 0.16 0.13 0.06 0.07 0.10 0.12 0.13 0.11 0.09 0.07 0.08 0.08 0.09 0.16
0.07 0.05 0.06 0.10 0.15 0.17 0.18 0.16 0.18 0.20 0.21 0.20 0.16 0.13 0.15 0.14 0.23 0.31 0.28 0.29 0.23 0.14 0.09 0.06 0.03 0.03 0.04 0.05 0.05 0.05 0.03 0.02 0.01 0.01 0.03 0.07 0.08 0.08 0.09 0.11 0.11 0.08 0.08 0.09 0.10 0.10 0.13 0.15 0.14 0.12 0.13 0.16 0.18 0.19
0.12 0.16 0.13 0.12 0.08 0.08 0.13 0.16 0.17 0.18 0.17 0.15 0.12 0.12 0.13 0.17 0.29 0.27 0.25 0.18 0.14 0.09 0.06 0.07 0.10 0.07 0.04 0.02 0.02 0.02 0.01 0.02 0.03 0.03 0.02 0.05 0.12 0.10 0.07 0.08 0.08 0.07 0.08 0.07 0.05 0.10 0.14 0.17 0.15 0.17 0.23 0.23 0.19 0.16
0.07 0.07 0.05 0.03 0.05 0.10 0.15 0.10 0.11 0.10 0.05 0.04 0.04 0.07 0.10 0.24 0.37 0.25 0.16 0.12 0.11 0.11 0.11 0.09 0.09 0.05 0.05 0.04 0.03 0.05 0.08 0.05 0.07 0.10 0.09 0.09 0.10 0.09 0.08 0.08 0.07 0.08 0.08 0.07 0.06 0.05 0.06 0.07 0.08 0.15 0.11 0.08 0.11 0.13
0.01 0.02 0.02 0.02 0.08 0.12 0.09 0.06 0.07 0.07 0.06 0.04 0.04 0.04 0.16 0.21 0.23 0.16 0.12 0.15 0.07 0.06 0.05 0.03 0.02 0.03 0.03 0.04 0.05 0.06 0.09 0.08 0.08 0.08 0.09 0.09 0.08 0.08 0.07 0.06 0.06 0.07 0.06 0.06 0.06 0.07 0.07 0.07 0.10 0.11 0.07 0.06 0.08 0.08
0.02 0.03 0.01 0.03 0.10 0.08 0.09 0.13 0.09 0.11 0.09 0.05 0.09 0.07 0.11 0.10 0.10 0.12 0.11 0.09 0.05 0.06 0.05 0.07 0.07 0.08 0.09 0.09 0.09 0.09 0.09 0.08 0.06 0.07 0.08 0.08 0.08 0.08 0.06 0.05 0.05 0.06 0.06 0.06 0.06 0.08 0.09 0.08 0.09 0.08 0.09 0.07 0.07 0.06
0.02 0.02 0.02 0.02 0.05 0.07 0.07 0.06 0.04 0.04 0.05 0.07 0.11 0.12 0.12 0.09 0.09 0.15 0.13 0.09 0.12 0.11 0.08 0.08 0.09 0.11 0.11 0.07 0.06 0.07 0.05 0.06 0.06 0.07 0.07 0.08 0.06 0.05 0.04 0.04 0.05 0.05 0.05 0.06 0.07 0.09 0.07 0.07 0.07 0.07 0.06 0.06 0.05 0.05

GFSWCAN_prec_precacc_084.txt.gz
Total_Precipitation_Accumulation
1.09 0.84 0.81 0.81 0.76 0.62 0.62 0.64 0.69 0.70 0.81 0.61 0.47 0.59 0.81 0.93 1.09 1.56 1.44 0.93 1.68 1.64 0.56 0.32 0.28 0.24 0.08 0.16 0.39 0.27 0.58 0.35 0.47 0.37 0.19 0.11 0.10 0.07 0.03 0.07 0.07 0.10 0.24 0.31 0.37 0.34 0.13 0.02 0.11 0.20 0.14 0.04 0.02 0.02
1.30 0.91 0.81 0.75 0.74 0.66 0.61 0.62 0.67 0.68 0.75 0.57 0.44 0.47 0.61 0.97 1.32 1.80 1.91 0.97 1.22 1.63 1.06 0.53 0.30 0.25 0.13 0.13 0.36 0.46 0.26 0.10 0.11 0.21 0.13 0.14 0.11 0.07 0.03 0.05 0.04 0.10 0.04 0.10 0.11 0.07 0.03 0.06 0.12 0.14 0.09 0.10 0.07 0.03
1.36 0.86 0.72 0.61 0.57 0.51 0.49 0.50 0.58 0.67 0.69 0.54 0.55 0.59 0.65 0.84 1.19 2.24 1.83 0.98 2.66 2.56 1.25 0.53 0.35 0.20 0.20 0.10 0.18 0.39 0.19 0.16 0.16 0.14 0.26 0.21 0.15 0.04 0.05 0.02 0.06 0.06 0.01 0.10 0.14 0.08 0.13 0.17 0.09 0.03 0.02 0.02 0.01 0.02
1.20 0.86 0.68 0.59 0.50 0.47 0.49 0.51 0.46 0.60 0.68 0.61 0.66 0.75 0.74 0.84 1.27 2.16 1.68 1.20 2.56 2.08 1.60 0.60 0.31 0.34 0.29 0.20 0.11 0.14 0.18 0.21 0.27 0.43 0.40 0.38 0.18 0.04 0.03 0.02 0.03 0.04 0.05 0.05 0.07 0.05 0.18 0.26 0.17 0.12 0.05 0.02 0.00 0.01
1.09 0.90 0.72 0.58 0.49 0.44 0.44 0.44 0.44 0.53 0.62 0.71 0.75 0.78 0.96 1.07 1.60 2.01 1.41 1.30 1.60 1.71 1.52 0.89 0.31 0.32 0.34 0.35 0.21 0.19 0.25 0.30 0.46 0.78 0.70 0.28 0.14 0.12 0.10 0.15 0.10 0.05 0.07 0.13 0.16 0.09 0.16 0.21 0.05 0.03 0.02 0.02 0.01 0.01
1.04 0.82 0.67 0.43 0.32 0.31 0.33 0.34 0.46 0.55 0.52 0.66 0.78 0.99 1.14 1.46 2.21 2.43 3.19 2.05 1.22 1.43 1.71 1.30 0.61 0.27 0.37 0.47 0.39 0.25 0.25 0.40 0.60 0.64 0.59 0.39 0.20 0.34 0.30 0.17 0.08 0.03 0.05 0.05 0.04 0.04 0.08 0.09 0.04 0.02 0.02 0.01 0.00 0.01
0.89 0.72 0.63 0.44 0.32 0.31 0.38 0.38 0.43 0.46 0.48 0.77 1.03 1.13 1.35 1.82 1.65 1.47 1.84 1.18 0.90 1.49 1.97 1.43 1.12 0.40 0.41 0.62 0.69 0.54 0.50 0.60 0.56 0.66 0.45 0.27 0.26 0.52 0.61 0.43 0.16 0.04 0.04 0.05 0.05 0.05 0.06 0.04 0.03 0.01 0.01 0.01 0.02 0.01
0.84 0.73 0.56 0.42 0.39 0.46 0.48 0.56 0.54 0.53 0.74 1.09 1.37 1.41 1.92 1.98 1.47 1.14 0.64 0.68 0.69 1.25 1.14 1.18 1.19 0.96 0.70 0.78 1.02 0.82 0.97 0.85 0.86 0.67 0.40 0.36 0.37 0.53 0.61 0.18 0.04 0.03 0.03 0.04 0.06 0.08 0.08 0.06 0.04 0.03 0.02 0.03 0.04 0.07
0.57 0.44 0.38 0.38 0.43 0.45 0.52 0.67 0.79 0.99 1.19 1.43 1.64 2.31 2.92 2.26 1.85 1.02 0.92 0.93 1.01 1.14 0.86 0.58 0.99 1.33 1.18 0.89 0.97 1.16 0.98 1.15 0.74 0.52 0.35 0.55 0.56 0.68 0.36 0.06 0.02 0.01 0.01 0.01 0.02 0.03 0.05 0.06 0.06 0.04 0.04 0.06 0.12 0.28
0.39 0.31 0.28 0.33 0.43 0.55 0.73 1.05 1.29 1.48 1.68 1.96 2.27 2.78 3.21 1.88 1.10 1.24 1.92 1.77 1.60 1.01 0.59 0.43 0.59 1.17 1.44 1.33 0.85 1.25 1.19 0.93 0.86 0.44 0.47 0.49 0.64 0.41 0.13 0.05 0.02 0.01 0.00 0.01 0.01 0.01 0.03 0.08 0.11 0.14 0.22 0.28 0.30 0.26
0.38 0.31 0.27 0.31 0.36 0.47 0.62 0.77 0.93 1.21 2.07 2.52 2.81 2.94 2.26 1.60 1.28 1.67 1.85 1.44 1.09 0.54 0.31 0.40 0.45 0.90 1.05 1.27 1.00 1.01 1.25 0.94 0.71 0.69 0.66 0.70 0.44 0.26 0.17 0.11 0.04 0.01 0.01 0.01 0.02 0.03 0.06 0.13 0.29 0.31 0.22 0.15 0.12 0.11
0.41 0.26 0.21 0.21 0.22 0.24 0.21 0.33 0.63 1.10 1.75 2.29 2.28 1.94 1.90 2.01 1.65 1.56 1.49 0.98 0.51 0.40 0.26 0.28 0.29 0.49 1.00 1.29 1.31 1.30 1.37 1.10 0.67 0.49 0.78 0.74 0.42 0.15 0.10 0.10 0.07 0.05 0.05 0.06 0.12 0.19 0.23 0.25 0.22 0.18 0.14 0.14 0.15 0.16
0.35 0.26 0.24 0.22 0.20 0.22 0.27 0.47 0.72 0.98 1.55 1.86 1.72 1.91 1.95 2.00 1.80 1.39 0.83 0.49 0.35 0.47 0.21 0.31 0.29 0.53 0.74 1.14 1.61 1.19 1.43 1.49 0.82 0.76 0.72 0.52 0.35 0.27 0.31 0.30 0.33 0.32 0.29 0.27 0.21 0.17 0.15 0.12 0.09 0.10 0.14 0.20 0.23 0.31
0.27 0.22 0.25 0.29 0.37 0.47 0.51 0.59 0.90 1.38 1.33 1.56 1.68 1.85 1.78 1.56 1.27 0.92 0.55 0.36 0.33 0.29 0.26 0.58 0.33 0.51 0.62 0.92 1.42 1.35 1.44 1.18 1.30 0.81 0.60 0.59 0.71 0.70 0.47 0.36 0.33 0.41 0.43 0.43 0.44 0.41 0.41 0.41 0.47 0.54 0.61 0.72 0.68 0.86
0.16 0.15 0.24 0.37 0.35 0.40 0.63 0.73 0.75 0.88 1.01 1.03 1.01 1.12 1.06 1.14 0.92 0.75 0.65 0.55 0.51 0.47 0.56 0.80 0.84 0.86 0.94 1.20 1.12 0.92 0.87 0.76 0.63 0.68 0.66 0.69 0.76 0.60 0.49 0.51 0.54 0.60 0.62 0.60 0.62 0.62 0.72 0.74 0.67 0.83 0.95 0.92 0.78 0.78
0.39 0.23 0.28 0.34 0.38 0.47 0.50 0.59 0.70 0.79 0.69 0.63 0.69 0.86 0.82 0.81 0.77 0.72 0.71 0.69 0.69 0.73 0.79 0.90 0.91 0.75 0.83 0.71 0.56 0.53 0.50 0.56 0.68 0.59 0.48 0.48 0.52 0.57 0.63 0.66 0.78 0.78 0.68 0.62 0.63 0.60 0.60 0.62 0.56 0.62 0.67 0.64 0.65 0.54
0.64 0.26 0.33 0.29 0.33 0.36 0.42 0.41 0.49 0.49 0.51 0.46 0.77 0.85 0.77 0.69 0.73 0.77 0.72 0.65 0.60 0.59 0.64 0.53 0.48 0.51 0.45 0.37 0.51 0.53 0.67 0.67 0.57 0.63 0.70 0.66 0.69 0.75 0.74 0.78 0.81 0.78 0.70 0.63 0.59 0.58 0.60 0.61 0.44 0.30 0.38 0.56 0.44 0.42
0.85 0.36 0.30 0.26 0.28 0.29 0.32 0.28 0.19 0.11 0.26 0.58 0.67 0.93 0.70 0.78 0.76 0.71 0.69 0.56 0.46 0.38 0.35 0.38 0.28 0.28 0.41 0.47 0.59 0.66 0.68 0.69 0.73 0.75 0.77 0.81 0.78 0.79 0.81 0.81 0.83 0.75 0.64 0.60 0.52 0.52 0.52 0.48 0.36 0.43 0.39 0.37 0.24 0.23
0.87 0.58 0.41 0.44 0.30 0.18 0.14 0.10 0.02 0.15 0.48 0.57 0.67 0.58 0.45 0.54 0.55 0.52 0.40 0.36 0.34 0.27 0.27 0.34 0.36 0.45 0.58 0.65 0.75 0.72 0.74 0.75 0.77 0.73 0.70 0.76 0.76 0.78 0.79 0.75 0.68 0.63 0.49 0.48 0.41 0.38 0.39 0.34 0.33 0.28 0.22 0.15 0.14 0.15
0.91 0.77 0.55 0.29 0.04 0.01 0.01 0.02 0.00 0.08 0.31 0.39 0.35 0.21 0.18 0.27 0.19 0.09 0.07 0.06 0.08 0.10 0.23 0.38 0.68 0.81 0.81 0.89 0.83 0.77 0.79 0.72 0.47 0.43 0.57 0.69 0.78 0.63 0.67 0.61 0.56 0.52 0.39 0.37 0.33 0.30 0.22 0.17 0.17 0.16 0.14 0.14 0.12 0.14
0.78 0.79 0.54 0.26 0.09 0.00 0.01 0.01 0.06 0.08 0.16 0.24 0.18 0.04 0.06 0.03 0.01 0.01 0.00 0.00 0.03 0.17 0.46 0.66 0.66 0.70 0.65 0.71 0.63 0.52 0.50 0.40 0.36 0.33 0.42 0.50 0.62 0.47 0.49 0.51 0.45 0.37 0.31 0.32 0.25 0.25 0.20 0.21 0.22 0.17 0.16 0.13 0.11 0.10
0.42 0.47 0.41 0.35 0.21 0.03 0.00 0.01 0.05 0.04 0.02 0.05 0.03 0.01 0.03 0.04 0.03 0.02 0.01 0.03 0.25 0.50 0.57 0.50 0.50 0.42 0.34 0.42 0.52 0.50 0.58 0.43 0.36 0.32 0.34 0.31 0.35 0.36 0.40 0.45 0.31 0.30 0.27 0.27 0.22 0.19 0.16 0.14 0.12 0.10 0.09 0.08 0.08 0.07
0.29 0.38 0.37 0.37 0.27 0.09 0.05 0.02 0.01 0.02 0.02 0.02 0.03 0.02 0.02 0.03 0.04 0.02 0.05 0.14 0.38 0.49 0.38 0.29 0.29 0.25 0.26 0.34 0.22 0.21 0.26 0.25 0.33 0.40 0.39 0.34 0.32 0.33 0.28 0.29 0.27 0.23 0.19 0.20 0.16 0.14 0.12 0.10 0.07 0.06 0.06 0.06 0.05 0.05
0.31 0.37 0.38 0.31 0.20 0.14 0.05 0.04 0.02 0.02 0.01 0.02 0.02 0.05 0.05 0.04 0.02 0.03 0.08 0.21 0.37 0.25 0.18 0.19 0.19 0.16 0.12 0.10 0.11 0.15 0.17 0.12 0.15 0.18 0.23 0.16 0.14 0.19 0.16 0.15 0.14 0.15 0.15 0.12 0.09 0.06 0.05 0.05 0.05 0.04 0.03 0.04 0.04 0.06
0.41 0.30 0.25 0.20 0.11 0.05 0.03 0.03 0.04 0.03 0.03 0.02 0.04 0.07 0.04 0.03 0.03 0.05 0.10 0.27 0.22 0.21 0.21 0.19 0.14 0.15 0.16 0.17 0.17 0.15 0.13 0.10 0.08 0.09 0.14 0.12 0.12 0.10 0.08 0.07 0.07 0.07 0.04 0.04 0.05 0.05 0.05 0.04 0.04 0.05 0.04 0.06 0.08 0.09
0.29 0.19 0.13 0.08 0.05 0.06 0.04 0.03 0.03 0.04 0.04 0.07 0.09 0.09 0.05 0.06 0.05 0.11 0.18 0.28 0.22 0.23 0.25 0.24 0.19 0.12 0.12 0.11 0.11 0.11 0.10 0.10 0.07 0.06 0.10 0.06 0.07 0.08 0.07 0.06 0.04 0.05 0.05 0.06 0.10 0.09 0.05 0.03 0.04 0.05 0.06 0.06 0.08 0.13
0.12 0.10 0.04 0.05 0.07 0.11 0.11 0.07 0.08 0.10 0.09 0.13 0.11 0.08 0.14 0.13 0.11 0.23 0.27 0.25 0.21 0.23 0.18 0.16 0.10 0.09 0.11 0.11 0.09 0.06 0.03 0.01 0.01 0.03 0.03 0.03 0.03 0.05 0.09 0.15 0.16 0.14 0.06 0.08 0.11 0.12 0.13 0.11 0.09 0.07 0.09 0.08 0.09 0.16
0.07 0.05 0.06 0.10 0.15 0.17 0.18 0.16 0.18 0.20 0.21 0.20 0.16 0.13 0.15 0.14 0.23 0.32 0.29 0.30 0.23 0.14 0.09 0.06 0.03 0.03 0.04 0.05 0.05 0.05 0.03 0.02 0.01 0.01 0.03 0.07 0.08 0.08 0.09 0.11 0.11 0.08 0.08 0.09 0.10 0.10 0.13 0.16 0.14 0.13 0.13 0.16 0.18 0.19
0.12 0.16 0.13 0.12 0.08 0.08 0.13 0.16 0.17 0.18 0.17 0.15 0.12 0.12 0.13 0.18 0.30 0.27 0.26 0.18 0.14 0.09 0.06 0.07 0.10 0.07 0.04 0.02 0.02 0.02 0.02 0.02 0.03 0.03 0.02 0.05 0.12 0.11 0.07 0.08 0.08 0.07 0.08 0.07 0.06 0.10 0.14 0.17 0.15 0.17 0.23 0.23 0.19 0.17
0.07 0.07 0.05 0.03 0.05 0.10 0.16 0.11 0.12 0.10 0.05 0.04 0.04 0.08 0.11 0.26 0.39 0.26 0.16 0.12 0.11 0.12 0.11 0.09 0.09 0.05 0.05 0.04 0.03 0.05 0.09 0.05 0.07 0.10 0.09 0.09 0.11 0.10 0.08 0.08 0.07 0.08 0.08 0.08 0.06 0.05 0.06 0.07 0.08 0.15 0.11 0.08 0.11 0.13
0.01 0.02 0.02 0.02 0.09 0.13 0.10 0.06 0.07 0.08 0.06 0.05 0.04 0.05 0.16 0.23 0.24 0.18 0.14 0.16 0.07 0.06 0.05 0.03 0.03 0.03 0.03 0.04 0.05 0.06 0.10 0.08 0.08 0.08 0.09 0.09 0.08 0.08 0.07 0.06 0.06 0.07 0.06 0.06 0.06 0.07 0.07 0.07 0.10 0.11 0.07 0.06 0.08 0.08
0.02 0.03 0.01 0.03 0.11 0.09 0.12 0.14 0.09 0.11 0.09 0.06 0.09 0.07 0.12 0.10 0.10 0.13 0.12 0.11 0.06 0.06 0.05 0.07 0.07 0.09 0.09 0.09 0.09 0.10 0.09 0.08 0.06 0.07 0.08 0.08 0.08 0.08 0.06 0.05 0.06 0.06 0.06 0.06 0.07 0.09 0.09 0.08 0.09 0.08 0.09 0.07 0.07 0.06
0.02 0.02 0.02 0.02 0.05 0.08 0.07 0.07 0.04 0.05 0.05 0.07 0.11 0.12 0.12 0.09 0.10 0.15 0.13 0.10 0.14 0.12 0.08 0.09 0.10 0.11 0.11 0.07 0.06 0.07 0.05 0.06 0.06 0.07 0.07 0.08 0.06 0.05 0.04 0.04 0.05 0.05 0.05 0.06 0.07 0.09 0.07 0.07 0.07 0.07 0.06 0.06 0.05 0.05

GFSWCAN_prec_precacc_090.txt.gz
Total_Precipitation_Accumulation
1.10 0.85 0.81 0.81 0.77 0.63 0.64 0.66 0.70 0.72 0.83 0.63 0.50 0.62 0.85 0.99 1.14 1.66 1.50 0.93 1.70 1.66 0.56 0.32 0.28 0.24 0.10 0.20 0.45 0.33 0.69 0.50 0.62 0.40 0.21 0.12 0.11 0.11 0.07 0.14 0.15 0.16 0.27 0.33 0.38 0.38 0.14 0.02 0.12 0.23 0.18 0.04 0.02 0.02
1.31 0.92 0.81 0.75 0.75 0.67 0.62 0.63 0.67 0.70 0.78 0.62 0.48 0.51 0.65 1.04 1.45 1.97 2.04 0.98 1.23 1.64 1.06 0.53 0.30 0.25 0.14 0.16 0.43 0.54 0.38 0.39 0.27 0.34 0.17 0.17 0.17 0.14 0.09 0.11 0.20 0.26 0.06 0.10 0.12 0.09 0.10 0.16 0.18 0.19 0.11 0.10 0.08 0.03
1.37 0.86 0.73 0.63 0.59 0.53 0.50 0.52 0.59 0.68 0.71 0.57 0.59 0.64 0.71 0.89 1.31 2.58 2.09 1.00 2.81 2.67 1.27 0.53 0.35 0.20 0.20 0.10 0.20 0.48 0.36 0.31 0.39 0.36 0.34 0.28 0.21 0.09 0.10 0.11 0.24 0.41 0.21 0.14 0.20 0.18 0.18 0.37 0.27 0.06 0.05 0.06 0.03 0.03
1.21 0.88 0.70 0.62 0.53 0.50 0.53 0.54 0.48 0.61 0.69 0.63 0.68 0.78 0.78 0.92 1.34 2.35 2.10 1.37 2.71 2.17 1.62 0.60 0.31 0.34 0.29 0.20 0.11 0.16 0.22 0.26 0.36 0.59 0.49 0.44 0.23 0.09 0.08 0.11 0.22 0.17 0.34 0.27 0.29 0.32 0.33 0.53 0.54 0.32 0.11 0.03 0.02 0.02
1.10 0.91 0.74 0.60 0.51 0.46 0.44 0.44 0.45 0.53 0.62 0.71 0.77 0.81 1.00 1.13 1.71 2.19 1.64 1.40 1.67 1.76 1.55 0.90 0.31 0.32 0.34 0.35 0.21 0.19 0.26 0.31 0.48 0.80 0.75 0.34 0.19 0.19 0.16 0.30 0.30 0.09 0.29 0.58 0.78 0.51 0.49 0.54 0.22 0.15 0.11 0.04 0.01 0.01
1.04 0.83 0.67 0.44 0.33 0.31 0.33 0.35 0.47 0.56 0.53 0.67 0.79 1.03 1.19 1.52 2.38 3.01 3.86 2.43 1.29 1.54 1.80 1.33 0.63 0.28 0.37 0.47 0.39 0.25 0.28 0.44 0.61 0.66 0.64 0.46 0.30 0.69 0.55 0.31 0.20 0.05 0.09 0.17 0.34 0.44 0.32 0.25 0.10 0.03 0.02 0.01 0.00 0.01
0.90 0.73 0.64 0.45 0.32 0.32 0.39 0.40 0.46 0.49 0.53 0.82 1.08 1.19 1.43 1.91 1.79 1.66 1.99 1.27 0.94 1.70 2.21 1.48 1.15 0.44 0.42 0.63 0.69 0.55 0.53 0.64 0.58 0.69 0.47 0.28 0.31 0.64 0.80 0.60 0.32 0.17 0.14 0.18 0.14 0.11 0.07 0.04 0.04 0.01 0.01 0.01 0.02 0.01
0.85 0.74 0.57 0.43 0.40 0.47 0.49 0.57 0.56 0.58 0.82 1.15 1.43 1.49 2.02 2.05 1.58 1.32 0.70 0.68 0.75 1.60 1.28 1.21 1.29 1.17 0.76 0.80 1.04 0.85 1.01 0.90 0.92 0.72 0.42 0.37 0.42 0.58 0.72 0.22 0.05 0.10 0.10 0.09 0.09 0.09 0.09 0.06 0.04 0.03 0.02 0.03 0.04 0.07
0.59 0.45 0.38 0.39 0.44 0.46 0.53 0.69 0.83 1.06 1.33 1.60 1.84 2.62 3.33 2.57 2.16 1.25 0.99 0.95 1.05 1.25 0.89 0.59 1.04 1.55 1.31 0.95 1.00 1.20 1.00 1.23 0.81 0.55 0.35 0.60 0.64 0.83 0.45 0.08 0.02 0.01 0.01 0.01 0.02 0.03 0.05 0.06 0.06 0.04 0.04 0.06 0.13 0.29
0.40 0.32 0.30 0.34 0.44 0.57 0.75 1.06 1.32 1.56 1.91 2.26 2.63 3.18 3.67 2.13 1.22 1.45 2.20 2.01 1.74 1.04 0.62 0.46 0.62 1.47 1.73 1.48 0.89 1.32 1.29 0.95 0.91 0.46 0.51 0.56 0.69 0.47 0.14 0.05 0.02 0.01 0.00 0.01 0.01 0.01 0.03 0.09 0.12 0.15 0.22 0.28 0.31 0.27
0.43 0.35 0.29 0.34 0.39 0.52 0.67 0.82 1.00 1.31 2.20 2.70 3.04 3.14 2.52 1.79 1.41 1.81 2.01 1.49 1.12 0.55 0.32 0.43 0.49 0.98 1.35 1.42 1.06 1.03 1.29 1.00 0.73 0.71 0.75 0.83 0.47 0.30 0.18 0.11 0.04 0.01 0.01 0.01 0.02 0.03 0.06 0.14 0.30 0.32 0.22 0.16 0.13 0.11
0.51 0.31 0.26 0.28 0.29 0.33 0.33 0.46 0.76 1.25 1.87 2.33 2.39 2.27 2.24 2.17 1.72 1.62 1.53 1.01 0.52 0.42 0.26 0.30 0.36 0.56 1.09 1.37 1.40 1.36 1.39 1.12 0.72 0.58 0.89 0.80 0.47 0.16 0.10 0.10 0.07 0.05 0.05 0.06 0.12 0.19 0.23 0.25 0.23 0.18 0.15 0.15 0.16 0.17
0.44 0.31 0.29 0.28 0.28 0.31 0.34 0.57 0.78 1.00 1.56 1.87 1.73 1.98 2.01 2.05 1.88 1.44 0.85 0.53 0.38 0.48 0.21 0.31 0.35 0.57 0.74 1.17 1.70 1.22 1.45 1.51 0.85 0.85 0.77 0.56 0.37 0.27 0.31 0.30 0.33 0.32 0.29 0.27 0.21 0.17 0.15 0.12 0.10 0.11 0.14 0.21 0.24 0.32
0.31 0.25 0.28 0.32 0.40 0.49 0.53 0.60 0.90 1.38 1.33 1.57 1.68 1.85 1.79 1.56 1.28 0.94 0.57 0.37 0.34 0.30 0.26 0.59 0.33 0.51 0.62 0.96 1.52 1.36 1.45 1.21 1.41 0.84 0.61 0.62 0.73 0.70 0.47 0.36 0.33 0.41 0.43 0.43 0.44 0.41 0.41 0.41 0.47 0.54 0.62 0.73 0.68 0.87
0.19 0.17 0.27 0.41 0.37 0.40 0.63 0.73 0.75 0.88 1.01 1.03 1.01 1.12 1.07 1.16 0.96 0.78 0.66 0.55 0.52 0.47 0.57 0.81 0.84 0.86 0.94 1.20 1.12 0.92 0.87 0.77 0.64 0.70 0.69 0.71 0.76 0.60 0.49 0.51 0.54 0.60 0.62 0.60 0.62 0.62 0.72 0.75 0.68 0.84 0.96 0.93 0.78 0.79
0.40 0.24 0.30 0.37 0.38 0.47 0.50 0.59 0.70 0.79 0.69 0.63 0.70 0.89 0.86 0.83 0.81 0.75 0.74 0.71 0.72 0.76 0.79 0.91 0.91 0.77 0.84 0.72 0.56 0.53 0.51 0.57 0.70 0.60 0.49 0.48 0.52 0.57 0.64 0.67 0.78 0.78 0.68 0.63 0.64 0.60 0.60 0.62 0.57 0.62 0.68 0.64 0.66 0.55
0.66 0.27 0.33 0.29 0.33 0.36 0.42 0.41 0.49 0.49 0.51 0.46 0.78 0.87 0.79 0.70 0.75 0.80 0.74 0.68 0.62 0.60 0.64 0.54 0.48 0.51 0.45 0.37 0.51 0.53 0.68 0.68 0.58 0.64 0.71 0.67 0.70 0.76 0.74 0.78 0.82 0.78 0.70 0.64 0.60 0.58 0.60 0.61 0.44 0.30 0.39 0.57 0.44 0.42
0.86 0.36 0.30 0.26 0.28 0.29 0.32 0.28 0.19 0.11 0.27 0.60 0.69 0.95 0.70 0.79 0.78 0.73 0.69 0.56 0.46 0.38 0.35 0.38 0.28 0.28 0.42 0.47 0.60 0.68 0.71 0.71 0.75 0.76 0.78 0.82 0.79 0.80 0.81 0.82 0.83 0.75 0.65 0.61 0.53 0.53 0.54 0.49 0.37 0.43 0.39 0.38 0.25 0.24
0.87 0.58 0.41 0.44 0.30 0.18 0.14 0.10 0.02 0.15 0.49 0.58 0.69 0.60 0.46 0.55 0.55 0.52 0.40 0.36 0.34 0.27 0.27 0.34 0.36 0.45 0.59 0.66 0.75 0.72 0.75 0.75 0.77 0.74 0.71 0.76 0.76 0.78 0.80 0.75 0.69 0.64 0.50 0.50 0.42 0.40 0.41 0.37 0.35 0.30 0.25 0.16 0.15 0.16
0.91 0.77 0.55 0.29 0.04 0.01 0.01 0.02 0.00 0.08 0.31 0.40 0.36 0.22 0.18 0.27 0.19 0.09 0.07 0.06 0.08 0.10 0.23 0.39 0.71 0.84 0.83 0.91 0.83 0.77 0.79 0.72 0.47 0.43 0.58 0.70 0.78 0.64 0.70 0.63 0.57 0.52 0.39 0.37 0.34 0.32 0.24 0.18 0.18 0.16 0.15 0.15 0.13 0.14
0.78 0.79 0.54 0.26 0.09 0.00 0.01 0.01 0.06 0.08 0.16 0.24 0.18 0.04 0.07 0.03 0.01 0.01 0.00 0.00 0.03 0.17 0.47 0.68 0.69 0.73 0.66 0.71 0.63 0.53 0.52 0.42 0.38 0.34 0.42 0.51 0.63 0.48 0.49 0.51 0.46 0.41 0.33 0.34 0.26 0.26 0.20 0.21 0.22 0.17 0.16 0.13 0.11 0.10
0.42 0.47 0.41 0.35 0.21 0.03 0.00 0.01 0.05 0.04 0.02 0.05 0.04 0.02 0.03 0.04 0.03 0.02 0.01 0.03 0.26 0.52 0.58 0.51 0.50 0.42 0.34 0.42 0.52 0.50 0.58 0.43 0.36 0.32 0.34 0.32 0.36 0.36 0.40 0.45 0.31 0.30 0.27 0.28 0.22 0.19 0.16 0.14 0.12 0.11 0.09 0.08 0.08 0.07
0.29 0.38 0.37 0.37 0.27 0.09 0.06 0.02 0.01 0.02 0.02 0.02 0.03 0.02 0.02 0.03 0.04 0.02 0.05 0.14 0.41 0.51 0.39 0.29 0.29 0.25 0.26 0.34 0.22 0.21 0.26 0.25 0.33 0.40 0.39 0.34 0.32 0.33 0.28 0.29 0.27 0.23 0.19 0.20 0.16 0.14 0.12 0.10 0.07 0.06 0.06 0.06 0.05 0.05
0.31 0.37 0.38 0.31 0.20 0.14 0.05 0.04 0.02 0.02 0.01 0.02 0.02 0.05 0.05 0.04 0.02 0.03 0.08 0.22 0.38 0.26 0.18 0.19 0.19 0.16 0.12 0.10 0.11 0.15 0.17 0.12 0.15 0.18 0.23 0.16 0.14 0.19 0.16 0.15 0.14 0.15 0.15 0.12 0.09 0.06 0.05 0.05 0.05 0.04 0.03 0.04 0.05 0.07
0.41 0.30 0.25 0.20 0.11 0.05 0.03 0.03 0.04 0.03 0.03 0.02 0.04 0.07 0.04 0.03 0.03 0.05 0.10 0.28 0.22 0.21 0.21 0.19 0.14 0.15 0.16 0.17 0.17 0.15 0.13 0.10 0.08 0.09 0.14 0.12 0.12 0.10 0.08 0.07 0.07 0.07 0.04 0.05 0.05 0.05 0.05 0.04 0.04 0.05 0.04 0.06 0.08 0.09
0.29 0.19 0.13 0.08 0.05 0.06 0.04 0.03 0.03 0.04 0.04 0.07 0.09 0.09 0.05 0.06 0.05 0.11 0.18 0.28 0.23 0.23 0.25 0.25 0.20 0.12 0.12 0.11 0.11 0.11 0.10 0.10 0.07 0.06 0.10 0.06 0.07 0.08 0.07 0.06 0.05 0.06 0.05 0.06 0.10 0.09 0.05 0.03 0.04 0.05 0.06 0.06 0.08 0.13
0.12 0.10 0.04 0.05 0.07 0.11 0.11 0.07 0.08 0.10 0.09 0.13 0.11 0.08 0.14 0.13 0.12 0.25 0.29 0.25 0.21 0.23 0.18 0.16 0.10 0.09 0.11 0.11 0.09 0.06 0.03 0.01 0.01 0.03 0.03 0.03 0.03 0.05 0.09 0.15 0.16 0.14 0.06 0.08 0.11 0.13 0.14 0.11 0.09 0.07 0.09 0.08 0.09 0.16
0.07 0.05 0.06 0.10 0.15 0.17 0.18 0.16 0.18 0.20 0.21 0.20 0.16 0.13 0.15 0.14 0.25 0.36 0.32 0.31 0.23 0.14 0.09 0.06 0.03 0.03 0.04 0.05 0.05 0.05 0.03 0.02 0.01 0.01 0.03 0.07 0.08 0.08 0.09 0.11 0.11 0.08 0.08 0.09 0.10 0.10 0.13 0.16 0.14 0.13 0.13 0.16 0.18 0.19
0.12 0.16 0.13 0.12 0.08 0.08 0.13 0.17 0.18 0.18 0.17 0.15 0.12 0.12 0.14 0.21 0.34 0.31 0.27 0.18 0.14 0.09 0.06 0.07 0.10 0.07 0.04 0.02 0.02 0.02 0.02 0.02 0.03 0.03 0.02 0.06 0.13 0.11 0.07 0.08 0.08 0.07 0.08 0.07 0.06 0.10 0.14 0.17 0.15 0.17 0.23 0.23 0.19 0.17
0.07 0.07 0.05 0.03 0.05 0.10 0.17 0.12 0.13 0.10 0.05 0.04 0.04 0.09 0.13 0.33 0.46 0.27 0.16 0.12 0.12 0.12 0.11 0.09 0.09 0.05 0.05 0.04 0.03 0.05 0.09 0.05 0.07 0.10 0.10 0.10 0.11 0.10 0.08 0.08 0.08 0.08 0.08 0.08 0.07 0.05 0.06 0.07 0.08 0.16 0.12 0.09 0.11 0.13
0.01 0.02 0.02 0.02 0.09 0.15 0.12 0.08 0.08 0.08 0.07 0.05 0.04 0.05 0.18 0.27 0.29 0.23 0.17 0.17 0.08 0.06 0.06 0.04 0.03 0.03 0.03 0.04 0.05 0.06 0.10 0.08 0.08 0.08 0.09 0.09 0.08 0.08 0.07 0.06 0.06 0.07 0.06 0.06 0.06 0.07 0.07 0.07 0.10 0.11 0.07 0.07 0.08 0.08
0.02 0.03 0.01 0.03 0.12 0.10 0.15 0.15 0.10 0.12 0.10 0.06 0.10 0.07 0.12 0.10 0.11 0.15 0.15 0.12 0.07 0.07 0.06 0.07 0.07 0.09 0.09 0.09 0.09 0.10 0.09 0.08 0.06 0.07 0.08 0.09 0.08 0.08 0.06 0.05 0.06 0.06 0.06 0.06 0.07 0.09 0.09 0.08 0.09 0.08 0.09 0.07 0.07 0.06
0.02 0.02 0.02 0.02 0.06 0.08 0.08 0.08 0.05 0.06 0.06 0.08 0.13 0.15 0.14 0.09 0.11 0.16 0.14 0.12 0.17 0.12 0.09 0.10 0.10 0.11 0.11 0.07 0.06 0.07 0.05 0.06 0.06 0.07 0.07 0.08 0.06 0.05 0.04 0.04 0.05 0.05 0.05 0.06 0.07 0.09 0.07 0.07 0.07 0.07 0.06 0.06 0.05 0.05

GFSWCAN_prec_precacc_093.txt.gz
Total_Precipitation_Accumulation
1.11 0.86 0.82 0.82 0.77 0.63 0.64 0.66 0.70 0.73 0.84 0.64 0.52 0.65 0.89 1.03 1.17 1.69 1.51 0.93 1.70 1.66 0.56 0.32 0.28 0.24 0.10 0.20 0.46 0.33 0.69 0.51 0.63 0.40 0.21 0.12 0.11 0.11 0.07 0.14 0.16 0.16 0.28 0.34 0.39 0.39 0.15 0.02 0.12 0.23 0.18 0.04 0.02 0.02
1.32 0.93 0.83 0.76 0.75 0.67 0.62 0.63 0.68 0.70 0.78 0.62 0.49 0.54 0.70 1.10 1.49 2.02 2.10 0.98 1.24 1.65 1.06 0.53 0.30 0.25 0.14 0.16 0.43 0.54 0.39 0.41 0.29 0.40 0.22 0.17 0.17 0.14 0.09 0.11 0.21 0.27 0.08 0.12 0.12 0.09 0.10 0.16 0.18 0.19 0.12 0.11 0.08 0.04
1.38 0.87 0.74 0.63 0.59 0.53 0.50 0.52 0.60 0.69 0.72 0.59 0.61 0.66 0.73 0.94 1.39 2.65 2.13 1.01 2.87 2.72 1.28 0.53 0.35 0.20 0.20 0.10 0.20 0.48 0.36 0.44 0.54 0.49 0.50 0.29 0.22 0.10 0.10 0.12 0.26 0.55 0.46 0.29 0.23 0.21 0.19 0.38 0.28 0.08 0.06 0.13 0.11 0.04
1.22 0.89 0.71 0.62 0.53 0.50 0.53 0.55 0.50 0.62 0.72 0.67 0.71 0.80 0.79 0.93 1.39 2.43 2.23 1.40 2.73 2.21 1.62 0.60 0.31 0.34 0.29 0.20 0.11 0.16 0.22 0.27 0.39 0.66 0.53 0.45 0.23 0.09 0.08 0.14 0.25 0.28 0.55 0.59 0.55 0.45 0.38 0.57 0.57 0.43 0.27 0.07 0.08 0.07
1.11 0.92 0.74 0.60 0.51 0.46 0.45 0.45 0.46 0.54 0.63 0.72 0.78 0.83 1.02 1.14 1.74 2.25 1.72 1.44 1.68 1.78 1.56 0.90 0.31 0.32 0.34 0.35 0.21 0.19 0.26 0.32 0.48 0.81 0.75 0.34 0.19 0.19 0.17 0.36 0.34 0.16 0.40 0.75 1.09 0.76 0.61 0.64 0.28 0.18 0.17 0.08 0.02 0.02
1.05 0.83 0.67 0.44 0.33 0.31 0.33 0.35 0.47 0.56 0.53 0.67 0.79 1.04 1.19 1.55 2.41 3.18 4.19 2.54 1.30 1.61 1.89 1.34 0.63 0.28 0.37 0.47 0.39 0.25 0.28 0.44 0.61 0.66 0.64 0.46 0.30 0.69 0.64 0.52 0.26 0.09 0.15 0.27 0.47 0.67 0.58 0.39 0.18 0.06 0.03 0.02 0.00 0.01
0.91 0.73 0.64 0.45 0.33 0.32 0.39 0.40 0.46 0.50 0.55 0.85 1.10 1.22 1.46 1.97 1.82 1.74 2.11 1.31 0.97 1.75 2.31 1.52 1.15 0.44 0.42 0.63 0.69 0.55 0.53 0.66 0.61 0.69 0.47 0.29 0.31 0.69 0.96 0.73 0.37 0.20 0.20 0.28 0.25 0.21 0.13 0.10 0.07 0.02 0.01 0.01 0.02 0.01
0.85 0.74 0.57 0.43 0.41 0.48 0.50 0.57 0.56 0.58 0.83 1.18 1.47 1.56 2.11 2.21 1.70 1.41 0.72 0.69 0.76 1.63 1.31 1.22 1.29 1.17 0.76 0.80 1.04 0.85 1.01 0.92 0.94 0.72 0.42 0.38 0.45 0.64 0.75 0.23 0.05 0.10 0.12 0.14 0.15 0.11 0.11 0.07 0.04 0.03 0.02 0.03 0.04 0.07
0.59 0.45 0.38 0.40 0.44 0.46 0.53 0.69 0.84 1.08 1.36 1.63 1.88 2.75 3.68 2.94 2.39 1.38 1.03 0.97 1.09 1.30 0.91 0.60 1.04 1.55 1.33 0.97 1.01 1.21 1.01 1.23 0.82 0.56 0.36 0.63 0.66 0.84 0.47 0.08 0.03 0.02 0.01 0.02 0.02 0.03 0.05 0.06 0.06 0.04 0.04 0.06 0.13 0.29
0.40 0.32 0.31 0.36 0.45 0.58 0.77 1.07 1.33 1.60 1.99 2.38 2.89 3.65 4.19 2.37 1.27 1.58 2.37 2.14 1.94 1.18 0.63 0.46 0.62 1.47 1.75 1.50 0.90 1.32 1.30 0.96 0.92 0.47 0.53 0.60 0.71 0.48 0.15 0.05 0.02 0.01 0.00 0.01 0.01 0.01 0.04 0.09 0.12 0.15 0.22 0.28 0.31 0.27
0.45 0.37 0.30 0.35 0.41 0.54 0.68 0.83 1.01 1.34 2.23 2.85 3.33 3.41 2.65 1.82 1.46 1.91 2.13 1.59 1.19 0.59 0.32 0.43 0.49 0.99 1.44 1.48 1.07 1.04 1.31 1.02 0.74 0.72 0.80 0.85 0.48 0.31 0.18 0.11 0.04 0.01 0.01 0.01 0.02 0.03 0.07 0.15 0.31 0.32 0.22 0.16 0.13 0.12
0.57 0.40 0.31 0.32 0.33 0.36 0.34 0.47 0.76 1.26 1.88 2.36 2.46 2.35 2.31 2.31 1.88 1.71 1.56 1.02 0.52 0.42 0.26 0.30 0.36 0.57 1.34 1.55 1.44 1.38 1.41 1.17 0.75 0.64 0.94 0.81 0.48 0.17 0.10 0.10 0.07 0.05 0.05 0.06 0.12 0.19 0.23 0.26 0.23 0.18 0.15 0.15 0.17 0.18
0.63 0.44 0.35 0.32 0.31 0.33 0.36 0.58 0.78 1.00 1.56 1.87 1.75 2.08 2.13 2.18 1.93 1.45 0.86 0.53 0.38 0.48 0.21 0.31 0.36 0.58 0.87 1.28 1.76 1.24 1.48 1.55 0.87 0.87 0.80 0.56 0.38 0.27 0.31 0.30 0.33 0.32 0.29 0.27 0.21 0.17 0.15 0.13 0.10 0.11 0.15 0.21 0.24 0.32
0.42 0.28 0.28 0.32 0.41 0.51 0.57 0.62 0.90 1.38 1.33 1.57 1.69 1.87 1.80 1.56 1.28 0.94 0.57 0.37 0.34 0.30 0.26 0.59 0.34 0.51 0.62 0.97 1.54 1.36 1.46 1.22 1.41 0.84 0.61 0.63 0.73 0.71 0.47 0.36 0.33 0.41 0.43 0.43 0.44 0.41 0.41 0.41 0.48 0.55 0.62 0.73 0.68 0.88
0.25 0.19 0.28 0.42 0.39 0.42 0.65 0.74 0.75 0.88 1.01 1.03 1.01 1.12 1.07 1.17 0.97 0.79 0.67 0.55 0.52 0.47 0.57 0.81 0.84 0.86 0.94 1.20 1.12 0.92 0.87 0.77 0.64 0.70 0.69 0.71 0.77 0.60 0.49 0.51 0.54 0.60 0.62 0.60 0.62 0.62 0.72 0.75 0.68 0.84 0.96 0.93 0.78 0.79
0.44 0.31 0.40 0.41 0.39 0.48 0.51 0.59 0.70 0.79 0.69 0.63 0.70 0.90 0.87 0.83 0.82 0.76 0.75 0.72 0.73 0.76 0.79 0.91 0.91 0.77 0.84 0.72 0.56 0.53 0.51 0.57 0.70 0.61 0.49 0.48 0.52 0.57 0.64 0.67 0.78 0.78 0.68 0.63 0.64 0.60 0.60 0.62 0.57 0.62 0.68 0.64 0.66 0.55
0.70 0.34 0.45 0.32 0.33 0.36 0.42 0.41 0.49 0.49 0.51 0.46 0.78 0.87 0.79 0.71 0.77 0.81 0.76 0.68 0.63 0.60 0.64 0.54 0.48 0.51 0.45 0.37 0.51 0.53 0.68 0.68 0.58 0.65 0.71 0.67 0.70 0.76 0.74 0.78 0.82 0.78 0.70 0.64 0.60 0.58 0.60 0.61 0.44 0.30 0.39 0.57 0.44 0.42
0.88 0.40 0.31 0.26 0.28 0.29 0.32 0.28 0.19 0.11 0.27 0.61 0.69 0.96 0.70 0.80 0.79 0.73 0.69 0.56 0.46 0.38 0.35 0.38 0.28 0.28 0.42 0.47 0.60 0.68 0.71 0.72 0.75 0.76 0.78 0.82 0.79 0.80 0.81 0.82 0.83 0.75 0.65 0.61 0.53 0.53 0.54 0.49 0.37 0.43 0.39 0.38 0.26 0.24
0.88 0.58 0.42 0.44 0.30 0.18 0.14 0.10 0.02 0.15 0.50 0.59 0.69 0.60 0.46 0.55 0.55 0.52 0.40 0.36 0.34 0.27 0.27 0.34 0.36 0.45 0.59 0.66 0.75 0.73 0.75 0.75 0.78 0.74 0.71 0.76 0.76 0.78 0.80 0.75 0.69 0.64 0.50 0.50 0.42 0.40 0.42 0.38 0.36 0.31 0.26 0.17 0.16 0.16
0.91 0.77 0.55 0.29 0.04 0.01 0.01 0.02 0.00 0.08 0.31 0.41 0.37 0.22 0.18 0.27 0.19 0.09 0.07 0.06 0.08 0.10 0.23 0.39 0.71 0.85 0.84 0.91 0.83 0.77 0.79 0.72 0.47 0.43 0.58 0.70 0.78 0.64 0.70 0.63 0.57 0.52 0.40 0.38 0.35 0.33 0.25 0.19 0.18 0.17 0.15 0.15 0.13 0.14
0.78 0.79 0.54 0.26 0.09 0.00 0.01 0.01 0.06 0.08 0.16 0.24 0.18 0.04 0.07 0.03 0.01 0.01 0.00 0.00 0.03 0.17 0.47 0.69 0.70 0.73 0.66 0.71 0.63 0.53 0.52 0.42 0.38 0.34 0.42 0.51 0.63 0.48 0.49 0.51 0.46 0.41 0.34 0.34 0.26 0.26 0.20 0.21 0.22 0.17 0.16 0.13 0.11 0.10
0.42 0.47 0.41 0.35 0.21 0.03 0.00 0.01 0.05 0.04 0.02 0.05 0.04 0.02 0.03 0.04 0.03 0.02 0.01 0.03 0.26 0.52 0.59 0.51 0.51 0.43 0.34 0.42 0.52 0.50 0.58 0.43 0.36 0.32 0.34 0.32 0.36 0.37 0.40 0.45 0.31 0.30 0.27 0.28 0.22 0.19 0.16 0.14 0.12 0.11 0.09 0.08 0.08 0.07
0.29 0.38 0.37 0.37 0.27 0.09 0.06 0.02 0.01 0.02 0.02 0.02 0.03 0.02 0.02 0.03 0.04 0.02 0.05 0.14 0.41 0.51 0.39 0.29 0.29 0.25 0.26 0.34 0.22 0.21 0.26 0.25 0.33 0.40 0.39 0.34 0.32 0.33 0.28 0.29 0.27 0.23 0.19 0.20 0.16 0.14 0.12 0.10 0.07 0.06 0.06 0.06 0.05 0.05
0.31 0.37 0.38 0.31 0.20 0.14 0.05 0.04 0.02 0.02 0.01 0.02 0.02 0.05 0.05 0.04 0.02 0.03 0.08 0.22 0.39 0.26 0.18 0.19 0.19 0.16 0.12 0.10 0.11 0.15 0.17 0.12 0.15 0.18 0.23 0.16 0.14 0.19 0.16 0.15 0.14 0.15 0.15 0.12 0.09 0.06 0.05 0.05 0.05 0.04 0.03 0.04 0.05 0.07
0.41 0.30 0.25 0.20 0.11 0.05 0.03 0.03 0.04 0.03 0.03 0.02 0.04 0.07 0.04 0.03 0.03 0.05 0.10 0.28 0.22 0.22 0.21 0.19 0.14 0.15 0.16 0.17 0.17 0.15 0.13 0.10 0.08 0.09 0.14 0.12 0.12 0.10 0.08 0.07 0.07 0.07 0.04 0.05 0.05 0.05 0.05 0.04 0.04 0.05 0.04 0.06 0.08 0.09
0.29 0.19 0.13 0.08 0.05 0.06 0.04 0.03 0.03 0.04 0.04 0.07 0.09 0.09 0.05 0.06 0.05 0.11 0.18 0.28 0.23 0.23 0.25 0.25 0.20 0.12 0.12 0.11 0.11 0.11 0.10 0.10 0.07 0.06 0.10 0.06 0.07 0.08 0.07 0.06 0.05 0.06 0.05 0.06 0.10 0.09 0.05 0.03 0.04 0.05 0.06 0.06 0.08 0.13
0.12 0.10 0.04 0.05 0.07 0.11 0.11 0.07 0.08 0.10 0.09 0.13 0.11 0.08 0.14 0.13 0.12 0.25 0.29 0.25 0.21 0.23 0.18 0.16 0.10 0.09 0.11 0.11 0.09 0.06 0.03 0.01 0.01 0.03 0.03 0.03 0.03 0.05 0.09 0.15 0.16 0.14 0.06 0.08 0.11 0.13 0.14 0.11 0.09 0.07 0.09 0.08 0.09 0.16
0.07 0.05 0.06 0.10 0.15 0.17 0.18 0.16 0.18 0.20 0.21 0.20 0.16 0.13 0.15 0.14 0.25 0.37 0.33 0.31 0.23 0.14 0.09 0.06 0.03 0.03 0.04 0.05 0.05 0.05 0.03 0.02 0.01 0.01 0.03 0.07 0.08 0.08 0.09 0.11 0.11 0.08 0.08 0.09 0.10 0.10 0.13 0.16 0.14 0.13 0.13 0.16 0.18 0.19
0.12 0.16 0.13 0.12 0.08 0.08 0.14 0.17 0.18 0.18 0.17 0.16 0.12 0.13 0.14 0.21 0.35 0.32 0.28 0.18 0.14 0.09 0.06 0.07 0.10 0.07 0.04 0.02 0.02 0.02 0.02 0.02 0.03 0.03 0.02 0.06 0.13 0.11 0.07 0.08 0.08 0.07 0.08 0.07 0.06 0.10 0.14 0.17 0.15 0.17 0.23 0.23 0.19 0.17
0.07 0.07 0.05 0.03 0.05 0.11 0.18 0.13 0.13 0.10 0.05 0.04 0.04 0.09 0.14 0.35 0.51 0.28 0.16 0.12 0.12 0.12 0.11 0.09 0.09 0.05 0.05 0.04 0.03 0.05 0.09 0.05 0.07 0.10 0.10 0.10 0.11 0.10 0.08 0.08 0.08 0.08 0.08 0.08 0.07 0.05 0.06 0.07 0.08 0.16 0.12 0.09 0.11 0.13
0.01 0.02 0.02 0.02 0.09 0.15 0.12 0.08 0.08 0.08 0.07 0.05 0.04 0.05 0.19 0.30 0.32 0.27 0.18 0.17 0.08 0.06 0.06 0.04 0.03 0.03 0.03 0.04 0.05 0.06 0.10 0.08 0.08 0.08 0.09 0.09 0.08 0.08 0.07 0.06 0.06 0.07 0.06 0.06 0.06 0.07 0.07 0.07 0.10 0.11 0.07 0.07 0.08 0.08
0.02 0.03 0.01 0.03 0.12 0.10 0.16 0.15 0.10 0.12 0.10 0.06 0.10 0.07 0.12 0.10 0.11 0.16 0.17 0.12 0.07 0.07 0.06 0.07 0.07 0.09 0.09 0.09 0.09 0.10 0.09 0.08 0.06 0.07 0.08 0.09 0.08 0.08 0.06 0.05 0.06 0.06 0.06 0.06 0.07 0.09 0.09 0.08 0.09 0.08 0.09 0.07 0.07 0.06
0.02 0.02 0.02 0.02 0.06 0.08 0.09 0.08 0.05 0.06 0.06 0.08 0.13 0.15 0.14 0.09 0.11 0.17 0.15 0.12 0.17 0.12 0.09 0.10 0.10 0.11 0.11 0.07 0.06 0.07 0.05 0.06 0.06 0.07 0.07 0.08 0.06 0.05 0.04 0.04 0.05 0.05 0.05 0.06 0.07 0.09 0.07 0.07 0.07 0.07 0.06 0.06 0.05 0.05

GFSWCAN_prec_precacc_096.txt.gz
Total_Precipitation_Accumulation
1.12 0.87 0.83 0.83 0.78 0.65 0.65 0.66 0.71 0.73 0.84 0.64 0.52 0.66 0.91 1.07 1.22 1.72 1.53 0.93 1.71 1.66 0.56 0.32 0.28 0.24 0.10 0.20 0.46 0.33 0.69 0.51 0.63 0.40 0.21 0.12 0.11 0.11 0.07 0.14 0.16 0.16 0.28 0.34 0.39 0.39 0.15 0.02 0.12 0.23 0.18 0.04 0.02 0.02
1.33 0.94 0.84 0.78 0.77 0.68 0.62 0.63 0.68 0.70 0.78 0.63 0.50 0.55 0.72 1.14 1.54 2.06 2.13 0.98 1.24 1.66 1.06 0.53 0.30 0.25 0.14 0.16 0.43 0.54 0.39 0.42 0.32 0.44 0.26 0.19 0.17 0.14 0.09 0.11 0.21 0.27 0.08 0.13 0.13 0.09 0.10 0.16 0.18 0.19 0.12 0.11 0.08 0.05
1.39 0.88 0.75 0.65 0.60 0.54 0.51 0.52 0.60 0.70 0.73 0.60 0.62 0.67 0.75 0.97 1.45 2.74 2.16 1.02 2.94 2.78 1.29 0.53 0.35 0.20 0.20 0.10 0.20 0.48 0.36 0.44 0.56 0.53 0.58 0.40 0.22 0.10 0.10 0.13 0.28 0.55 0.46 0.37 0.40 0.32 0.21 0.39 0.28 0.08 0.06 0.15 0.15 0.09
1.23 0.90 0.72 0.63 0.54 0.51 0.54 0.55 0.50 0.63 0.73 0.68 0.74 0.82 0.80 0.95 1.42 2.56 2.34 1.41 2.75 2.24 1.63 0.60 0.31 0.34 0.29 0.20 0.11 0.16 0.22 0.27 0.42 0.67 0.53 0.47 0.23 0.09 0.09 0.15 0.27 0.28 0.57 0.71 0.79 0.62 0.47 0.62 0.63 0.47 0.31 0.11 0.11 0.15
1.12 0.93 0.75 0.61 0.52 0.47 0.45 0.45 0.46 0.55 0.65 0.74 0.80 0.86 1.03 1.16 1.77 2.30 1.83 1.46 1.68 1.79 1.56 0.90 0.31 0.32 0.34 0.35 0.21 0.19 0.26 0.32 0.49 0.82 0.75 0.34 0.19 0.20 0.17 0.37 0.35 0.17 0.43 0.80 1.21 0.93 0.77 0.75 0.40 0.28 0.24 0.20 0.10 0.04
1.05 0.84 0.68 0.45 0.34 0.31 0.33 0.35 0.47 0.57 0.54 0.68 0.81 1.05 1.21 1.56 2.45 3.24 4.53 2.70 1.32 1.63 1.94 1.35 0.63 0.28 0.37 0.47 0.39 0.25 0.28 0.44 0.61 0.67 0.64 0.46 0.30 0.70 0.66 0.54 0.31 0.16 0.19 0.31 0.55 0.85 0.80 0.60 0.33 0.15 0.08 0.04 0.01 0.01
0.91 0.74 0.64 0.46 0.33 0.33 0.39 0.40 0.46 0.51 0.56 0.85 1.12 1.24 1.48 2.01 1.86 1.78 2.19 1.35 0.99 1.78 2.40 1.56 1.15 0.44 0.42 0.63 0.69 0.55 0.53 0.66 0.61 0.69 0.47 0.29 0.31 0.73 1.01 0.77 0.43 0.27 0.25 0.31 0.34 0.37 0.23 0.15 0.11 0.03 0.01 0.01 0.02 0.01
0.86 0.74 0.58 0.44 0.41 0.48 0.50 0.58 0.57 0.59 0.84 1.19 1.48 1.56 2.13 2.29 1.82 1.44 0.72 0.69 0.82 1.71 1.38 1.24 1.29 1.17 0.76 0.80 1.04 0.85 1.01 0.92 0.95 0.73 0.43 0.39 0.46 0.68 0.79 0.27 0.06 0.11 0.13 0.15 0.17 0.13 0.12 0.08 0.04 0.03 0.02 0.03 0.04 0.07
0.59 0.45 0.39 0.40 0.45 0.47 0.54 0.71 0.86 1.09 1.36 1.65 1.91 2.84 3.91 3.35 2.77 1.45 1.04 0.99 1.14 1.40 0.94 0.60 1.04 1.55 1.33 0.97 1.01 1.22 1.01 1.24 0.82 0.57 0.36 0.64 0.67 0.85 0.47 0.08 0.03 0.02 0.02 0.02 0.02 0.03 0.05 0.06 0.06 0.04 0.04 0.06 0.13 0.29
0.41 0.33 0.31 0.37 0.47 0.62 0.81 1.11 1.36 1.62 2.01 2.44 3.10 4.09 4.77 2.66 1.36 1.65 2.59 2.34 2.10 1.29 0.65 0.46 0.62 1.47 1.75 1.50 0.90 1.33 1.30 0.96 0.95 0.48 0.55 0.62 0.72 0.49 0.15 0.05 0.02 0.01 0.00 0.01 0.01 0.02 0.04 0.09 0.12 0.15 0.22 0.29 0.31 0.27
0.45 0.37 0.31 0.37 0.46 0.59 0.74 0.86 1.03 1.38 2.34 3.15 3.64 3.65 2.86 1.89 1.54 2.12 2.35 1.72 1.26 0.67 0.34 0.43 0.49 0.99 1.44 1.48 1.07 1.04 1.31 1.02 0.75 0.74 0.84 0.86 0.49 0.32 0.19 0.11 0.04 0.01 0.01 0.01 0.02 0.03 0.07 0.15 0.31 0.32 0.22 0.16 0.13 0.12
0.58 0.42 0.34 0.36 0.38 0.43 0.42 0.48 0.79 1.29 2.00 2.56 2.61 2.57 2.47 2.38 2.09 1.88 1.66 1.05 0.52 0.42 0.26 0.30 0.37 0.57 1.34 1.62 1.45 1.39 1.44 1.26 0.78 0.69 0.96 0.82 0.49 0.17 0.10 0.10 0.07 0.05 0.05 0.06 0.12 0.19 0.23 0.26 0.23 0.18 0.15 0.15 0.17 0.18
0.72 0.51 0.40 0.39 0.37 0.40 0.38 0.59 0.81 1.00 1.61 1.89 1.78 2.16 2.21 2.32 2.04 1.48 0.88 0.54 0.38 0.48 0.21 0.32 0.36 0.58 0.92 1.46 1.84 1.25 1.48 1.60 0.90 0.90 0.81 0.57 0.39 0.28 0.31 0.30 0.33 0.32 0.29 0.27 0.21 0.17 0.15 0.13 0.10 0.11 0.15 0.21 0.24 0.32
0.60 0.37 0.36 0.38 0.43 0.54 0.59 0.67 0.92 1.39 1.34 1.59 1.72 1.91 1.84 1.59 1.28 0.94 0.57 0.37 0.34 0.30 0.26 0.59 0.34 0.52 0.72 1.09 1.59 1.37 1.46 1.23 1.42 0.85 0.62 0.64 0.73 0.71 0.47 0.36 0.33 0.41 0.43 0.43 0.44 0.41 0.41 0.41 0.48 0.55 0.62 0.73 0.68 0.88
0.35 0.29 0.36 0.45 0.41 0.45 0.67 0.79 0.76 0.88 1.01 1.03 1.01 1.12 1.07 1.17 0.97 0.80 0.67 0.55 0.53 0.47 0.57 0.81 0.84 0.86 0.94 1.21 1.12 0.92 0.87 0.77 0.64 0.70 0.69 0.71 0.77 0.60 0.49 0.51 0.54 0.60 0.62 0.60 0.62 0.62 0.72 0.75 0.68 0.84 0.96 0.93 0.78 0.79
0.50 0.39 0.46 0.44 0.41 0.49 0.52 0.60 0.70 0.79 0.69 0.63 0.70 0.90 0.88 0.84 0.84 0.77 0.75 0.72 0.73 0.77 0.79 0.91 0.91 0.77 0.84 0.72 0.56 0.53 0.51 0.57 0.70 0.61 0.50 0.48 0.53 0.57 0.64 0.67 0.78 0.78 0.68 0.63 0.64 0.60 0.60 0.62 0.57 0.63 0.68 0.65 0.67 0.55
0.73 0.41 0.51 0.37 0.36 0.36 0.42 0.41 0.49 0.49 0.51 0.47 0.79 0.88 0.80 0.71 0.78 0.83 0.77 0.70 0.64 0.60 0.64 0.54 0.48 0.51 0.45 0.37 0.51 0.53 0.68 0.68 0.58 0.65 0.71 0.67 0.70 0.76 0.74 0.78 0.82 0.78 0.70 0.64 0.60 0.58 0.60 0.61 0.44 0.30 0.39 0.57 0.44 0.42
0.92 0.43 0.33 0.27 0.28 0.29 0.32 0.28 0.19 0.11 0.27 0.61 0.69 0.97 0.71 0.81 0.80 0.74 0.70 0.56 0.46 0.38 0.35 0.38 0.28 0.28 0.42 0.47 0.60 0.68 0.71 0.72 0.75 0.76 0.78 0.82 0.79 0.80 0.81 0.82 0.83 0.75 0.65 0.61 0.53 0.53 0.54 0.49 0.37 0.43 0.39 0.38 0.26 0.24
0.93 0.60 0.42 0.44 0.31 0.18 0.14 0.10 0.02 0.15 0.50 0.59 0.70 0.61 0.46 0.55 0.55 0.52 0.40 0.36 0.34 0.27 0.27 0.34 0.36 0.45 0.59 0.66 0.75 0.73 0.75 0.75 0.78 0.74 0.71 0.76 0.76 0.78 0.80 0.75 0.69 0.64 0.50 0.50 0.42 0.40 0.42 0.38 0.36 0.31 0.26 0.17 0.16 0.16
0.95 0.80 0.56 0.30 0.05 0.01 0.01 0.02 0.00 0.08 0.31 0.41 0.37 0.22 0.19 0.27 0.19 0.09 0.07 0.06 0.08 0.10 0.23 0.39 0.71 0.85 0.84 0.91 0.83 0.77 0.79 0.72 0.47 0.43 0.58 0.70 0.78 0.64 0.70 0.63 0.57 0.52 0.40 0.38 0.35 0.33 0.25 0.19 0.19 0.17 0.16 0.16 0.14 0.15
0.80 0.80 0.54 0.26 0.09 0.00 0.01 0.01 0.06 0.08 0.16 0.24 0.18 0.04 0.07 0.03 0.01 0.01 0.00 0.00 0.03 0.17 0.47 0.69 0.70 0.74 0.66 0.71 0.63 0.53 0.52 0.42 0.38 0.34 0.42 0.51 0.63 0.48 0.49 0.52 0.47 0.41 0.34 0.34 0.26 0.27 0.21 0.22 0.22 0.17 0.16 0.13 0.11 0.10
0.42 0.47 0.41 0.35 0.21 0.03 0.00 0.01 0.05 0.04 0.02 0.05 0.04 0.02 0.03 0.04 0.03 0.02 0.01 0.03 0.26 0.53 0.59 0.51 0.51 0.43 0.34 0.42 0.52 0.50 0.58 0.43 0.36 0.32 0.34 0.32 0.36 0.37 0.40 0.45 0.32 0.30 0.28 0.28 0.22 0.19 0.16 0.14 0.12 0.11 0.09 0.08 0.08 0.07
0.29 0.38 0.37 0.37 0.27 0.09 0.06 0.03 0.01 0.02 0.02 0.03 0.03 0.02 0.02 0.03 0.04 0.02 0.05 0.15 0.42 0.52 0.39 0.29 0.29 0.25 0.26 0.34 0.22 0.21 0.26 0.25 0.33 0.40 0.39 0.34 0.32 0.33 0.28 0.29 0.27 0.23 0.19 0.20 0.16 0.14 0.12 0.10 0.07 0.06 0.06 0.06 0.05 0.05
0.31 0.37 0.38 0.31 0.20 0.14 0.05 0.04 0.02 0.02 0.01 0.02 0.02 0.05 0.05 0.04 0.02 0.03 0.09 0.22 0.39 0.27 0.18 0.19 0.19 0.16 0.12 0.10 0.11 0.15 0.17 0.12 0.15 0.18 0.23 0.16 0.14 0.19 0.16 0.15 0.14 0.15 0.15 0.12 0.09 0.06 0.05 0.05 0.05 0.04 0.03 0.04 0.05 0.07
0.41 0.30 0.25 0.20 0.11 0.05 0.03 0.03 0.04 0.03 0.03 0.02 0.04 0.07 0.04 0.03 0.03 0.05 0.10 0.28 0.23 0.22 0.21 0.19 0.14 0.15 0.16 0.17 0.17 0.15 0.13 0.10 0.08 0.09 0.14 0.12 0.12 0.10 0.08 0.07 0.07 0.07 0.04 0.05 0.05 0.05 0.05 0.04 0.04 0.05 0.04 0.06 0.08 0.10
0.29 0.19 0.13 0.08 0.05 0.06 0.04 0.03 0.03 0.04 0.04 0.07 0.09 0.09 0.05 0.06 0.05 0.11 0.18 0.28 0.23 0.23 0.26 0.25 0.20 0.12 0.12 0.11 0.11 0.11 0.10 0.10 0.07 0.06 0.10 0.06 0.07 0.08 0.07 0.06 0.05 0.06 0.05 0.06 0.10 0.09 0.05 0.03 0.04 0.05 0.06 0.06 0.08 0.13
0.12 0.10 0.04 0.05 0.07 0.11 0.11 0.07 0.08 0.10 0.09 0.13 0.11 0.08 0.14 0.13 0.12 0.25 0.30 0.25 0.21 0.23 0.18 0.16 0.10 0.09 0.11 0.11 0.09 0.06 0.03 0.01 0.01 0.03 0.03 0.03 0.03 0.05 0.09 0.15 0.16 0.14 0.06 0.08 0.11 0.13 0.14 0.11 0.09 0.07 0.09 0.08 0.09 0.16
0.07 0.05 0.06 0.10 0.15 0.17 0.18 0.16 0.18 0.21 0.21 0.20 0.16 0.13 0.15 0.14 0.26 0.38 0.34 0.32 0.23 0.14 0.09 0.06 0.03 0.03 0.04 0.05 0.05 0.05 0.03 0.02 0.01 0.01 0.03 0.07 0.08 0.08 0.09 0.11 0.11 0.08 0.08 0.09 0.10 0.10 0.13 0.16 0.14 0.13 0.13 0.16 0.18 0.19
0.12 0.16 0.13 0.12 0.08 0.08 0.14 0.17 0.18 0.19 0.18 0.16 0.12 0.13 0.15 0.22 0.36 0.33 0.29 0.19 0.14 0.09 0.06 0.07 0.10 0.07 0.04 0.02 0.02 0.02 0.02 0.02 0.03 0.03 0.02 0.06 0.13 0.11 0.07 0.08 0.08 0.07 0.08 0.07 0.06 0.10 0.14 0.17 0.15 0.17 0.23 0.23 0.19 0.17
0.07 0.07 0.05 0.03 0.05 0.11 0.18 0.13 0.13 0.10 0.05 0.04 0.04 0.10 0.14 0.36 0.53 0.30 0.17 0.12 0.12 0.12 0.11 0.09 0.09 0.05 0.05 0.04 0.03 0.05 0.09 0.05 0.07 0.10 0.10 0.10 0.11 0.10 0.08 0.08 0.08 0.08 0.08 0.08 0.07 0.05 0.07 0.07 0.08 0.16 0.12 0.09 0.11 0.14
0.01 0.02 0.02 0.02 0.10 0.16 0.13 0.08 0.08 0.08 0.07 0.05 0.04 0.05 0.19 0.31 0.34 0.30 0.19 0.17 0.08 0.06 0.06 0.04 0.03 0.03 0.03 0.04 0.05 0.06 0.10 0.08 0.08 0.08 0.09 0.09 0.08 0.08 0.07 0.06 0.06 0.07 0.06 0.06 0.06 0.07 0.07 0.07 0.10 0.11 0.07 0.07 0.08 0.08
0.02 0.03 0.01 0.03 0.12 0.11 0.16 0.15 0.10 0.12 0.10 0.06 0.10 0.07 0.12 0.10 0.11 0.16 0.18 0.13 0.07 0.07 0.06 0.07 0.07 0.09 0.09 0.09 0.09 0.10 0.09 0.08 0.06 0.07 0.08 0.09 0.08 0.08 0.06 0.05 0.06 0.06 0.06 0.06 0.07 0.09 0.09 0.08 0.09 0.08 0.09 0.07 0.07 0.06
0.02 0.02 0.02 0.02 0.06 0.08 0.09 0.08 0.05 0.06 0.06 0.08 0.13 0.15 0.14 0.09 0.11 0.17 0.15 0.13 0.17 0.12 0.09 0.10 0.10 0.11 0.11 0.07 0.06 0.07 0.05 0.06 0.06 0.07 0.07 0.08 0.06 0.05 0.04 0.04 0.05 0.05 0.05 0.06 0.07 0.09 0.07 0.07 0.07 0.07 0.06 0.06 0.05 0.05

GFSWCAN_prec_precacc_102.txt.gz
Total_Precipitation_Accumulation
1.15 0.89 0.84 0.84 0.79 0.66 0.67 0.69 0.72 0.74 0.86 0.65 0.53 0.67 0.93 1.10 1.30 1.76 1.55 0.93 1.72 1.67 0.56 0.32 0.28 0.24 0.10 0.20 0.46 0.33 0.69 0.51 0.64 0.41 0.22 0.13 0.12 0.11 0.08 0.15 0.17 0.16 0.29 0.35 0.39 0.40 0.16 0.03 0.12 0.23 0.19 0.05 0.03 0.03
1.35 0.97 0.87 0.80 0.78 0.69 0.64 0.66 0.69 0.72 0.80 0.63 0.50 0.55 0.74 1.17 1.61 2.19 2.17 0.99 1.25 1.70 1.07 0.53 0.30 0.25 0.14 0.16 0.43 0.54 0.39 0.43 0.34 0.45 0.28 0.21 0.19 0.15 0.10 0.13 0.22 0.33 0.12 0.15 0.16 0.16 0.20 0.18 0.19 0.20 0.12 0.14 0.13 0.08
1.40 0.90 0.77 0.67 0.62 0.55 0.53 0.54 0.62 0.71 0.74 0.60 0.63 0.69 0.76 0.99 1.52 2.88 2.25 1.04 2.99 2.82 1.29 0.53 0.35 0.20 0.20 0.10 0.20 0.48 0.36 0.44 0.57 0.54 0.59 0.46 0.26 0.11 0.11 0.14 0.29 0.56 0.46 0.38 0.46 0.53 0.34 0.46 0.35 0.11 0.11 0.20 0.21 0.15
1.29 0.93 0.73 0.65 0.56 0.52 0.56 0.57 0.52 0.64 0.74 0.69 0.75 0.85 0.83 0.97 1.48 2.73 2.48 1.44 2.79 2.28 1.64 0.60 0.31 0.34 0.29 0.20 0.11 0.16 0.22 0.27 0.43 0.68 0.54 0.47 0.23 0.10 0.10 0.17 0.27 0.28 0.57 0.73 0.87 0.72 0.59 0.69 0.71 0.56 0.39 0.17 0.15 0.17
1.20 0.98 0.78 0.63 0.53 0.48 0.47 0.47 0.47 0.56 0.65 0.75 0.82 0.88 1.07 1.23 1.87 2.51 1.96 1.51 1.73 1.85 1.58 0.90 0.31 0.32 0.34 0.35 0.21 0.19 0.26 0.32 0.49 0.83 0.76 0.34 0.19 0.20 0.18 0.38 0.36 0.18 0.44 0.81 1.26 1.01 0.86 0.86 0.50 0.35 0.30 0.27 0.15 0.07
1.09 0.89 0.72 0.47 0.37 0.34 0.36 0.37 0.49 0.58 0.55 0.69 0.83 1.09 1.30 1.68 2.62 3.46 4.81 2.79 1.36 1.72 1.99 1.36 0.63 0.28 0.37 0.47 0.39 0.25 0.28 0.44 0.62 0.68 0.65 0.47 0.30 0.70 0.68 0.56 0.32 0.17 0.22 0.34 0.59 0.92 0.88 0.72 0.46 0.26 0.16 0.09 0.03 0.01
0.92 0.77 0.68 0.48 0.35 0.33 0.41 0.42 0.47 0.51 0.56 0.86 1.14 1.29 1.60 2.24 2.03 1.87 2.25 1.36 1.02 1.88 2.54 1.58 1.15 0.44 0.42 0.63 0.69 0.55 0.53 0.67 0.63 0.71 0.47 0.29 0.32 0.75 1.05 0.78 0.46 0.30 0.31 0.39 0.40 0.47 0.34 0.22 0.14 0.06 0.02 0.01 0.02 0.01
0.87 0.76 0.61 0.47 0.43 0.49 0.51 0.59 0.58 0.60 0.85 1.21 1.51 1.65 2.29 2.63 2.14 1.59 0.73 0.69 0.91 1.94 1.53 1.27 1.29 1.17 0.76 0.80 1.04 0.85 1.01 0.92 0.96 0.74 0.44 0.40 0.47 0.68 0.80 0.28 0.07 0.11 0.15 0.19 0.22 0.19 0.19 0.12 0.04 0.03 0.02 0.03 0.04 0.07
0.61 0.46 0.40 0.42 0.46 0.48 0.56 0.72 0.87 1.10 1.38 1.67 2.00 3.04 4.22 3.77 3.10 1.55 1.06 1.00 1.17 1.67 1.11 0.62 1.04 1.55 1.33 0.97 1.01 1.22 1.01 1.24 0.82 0.57 0.37 0.65 0.68 0.85 0.47 0.08 0.03 0.02 0.02 0.02 0.03 0.05 0.09 0.09 0.06 0.04 0.04 0.06 0.13 0.29
0.42 0.34 0.31 0.39 0.48 0.62 0.82 1.13 1.39 1.66 2.05 2.54 3.50 4.63 5.22 2.82 1.41 1.71 2.85 2.54 2.23 1.44 0.75 0.46 0.62 1.47 1.75 1.51 0.91 1.33 1.31 0.97 0.96 0.49 0.55 0.62 0.72 0.50 0.15 0.05 0.02 0.01 0.00 0.01 0.01 0.02 0.04 0.10 0.13 0.15 0.22 0.29 0.31 0.27
0.46 0.38 0.32 0.38 0.47 0.60 0.76 0.91 1.09 1.46 2.63 3.69 4.15 3.93 2.93 1.99 1.59 2.35 2.70 1.94 1.37 0.72 0.37 0.43 0.49 0.99 1.44 1.48 1.08 1.04 1.31 1.02 0.75 0.75 0.86 0.88 0.49 0.33 0.19 0.11 0.04 0.01 0.01 0.01 0.02 0.03 0.07 0.15 0.31 0.32 0.22 0.16 0.13 0.12
0.59 0.43 0.36 0.37 0.39 0.45 0.51 0.59 0.87 1.51 2.42 2.77 2.75 2.70 2.91 2.73 2.38 2.21 1.84 1.13 0.54 0.42 0.27 0.31 0.37 0.57 1.34 1.62 1.47 1.39 1.45 1.29 0.80 0.73 1.00 0.83 0.50 0.18 0.11 0.10 0.07 0.05 0.05 0.06 0.12 0.19 0.23 0.26 0.23 0.18 0.15 0.15 0.17 0.18
0.73 0.52 0.41 0.41 0.40 0.53 0.61 0.73 0.92 1.15 1.88 2.26 2.12 2.47 2.73 2.66 2.27 1.60 0.92 0.54 0.38 0.48 0.22 0.32 0.37 0.58 0.92 1.47 1.97 1.29 1.49 1.66 1.00 0.98 0.83 0.57 0.39 0.28 0.31 0.30 0.33 0.32 0.29 0.27 0.21 0.17 0.15 0.13 0.10 0.11 0.15 0.21 0.24 0.32
0.62 0.40 0.42 0.45 0.53 0.74 0.77 0.93 1.14 1.65 1.79 2.07 2.08 2.14 2.03 1.73 1.31 0.94 0.57 0.37 0.34 0.30 0.26 0.59 0.35 0.52 0.74 1.15 1.72 1.45 1.47 1.24 1.44 0.86 0.62 0.64 0.74 0.71 0.47 0.36 0.33 0.41 0.43 0.43 0.44 0.41 0.41 0.41 0.48 0.55 0.62 0.73 0.68 0.88
0.46 0.43 0.53 0.57 0.57 0.62 0.95 1.15 1.09 1.08 1.25 1.24 1.09 1.15 1.09 1.17 0.98 0.80 0.67 0.56 0.53 0.47 0.57 0.81 0.85 0.87 0.99 1.30 1.16 0.94 0.89 0.78 0.65 0.70 0.69 0.71 0.77 0.60 0.49 0.51 0.54 0.60 0.62 0.60 0.62 0.62 0.72 0.75 0.68 0.84 0.96 0.93 0.78 0.79
0.82 0.83 0.75 0.61 0.60 0.67 0.75 0.80 0.81 0.86 0.75 0.67 0.71 0.90 0.88 0.84 0.85 0.78 0.76 0.73 0.73 0.77 0.80 0.91 0.92 0.78 0.87 0.75 0.58 0.54 0.51 0.57 0.70 0.61 0.50 0.49 0.53 0.57 0.64 0.67 0.78 0.78 0.68 0.63 0.64 0.60 0.60 0.62 0.57 0.63 0.68 0.65 0.67 0.55
1.09 0.81 0.77 0.53 0.50 0.46 0.46 0.44 0.51 0.50 0.54 0.48 0.80 0.89 0.80 0.72 0.79 0.84 0.79 0.71 0.64 0.61 0.65 0.54 0.48 0.51 0.45 0.37 0.51 0.53 0.68 0.68 0.58 0.65 0.71 0.67 0.70 0.76 0.74 0.78 0.82 0.78 0.70 0.64 0.60 0.58 0.60 0.61 0.44 0.30 0.39 0.57 0.44 0.42
1.19 0.62 0.44 0.31 0.31 0.30 0.33 0.29 0.19 0.11 0.28 0.62 0.70 0.99 0.72 0.82 0.82 0.76 0.72 0.57 0.46 0.38 0.35 0.38 0.28 0.28 0.42 0.47 0.60 0.68 0.72 0.72 0.75 0.77 0.78 0.82 0.79 0.80 0.81 0.82 0.83 0.75 0.65 0.61 0.53 0.53 0.54 0.49 0.37 0.43 0.39 0.38 0.26 0.24
1.09 0.70 0.45 0.45 0.31 0.18 0.14 0.10 0.02 0.15 0.51 0.60 0.72 0.63 0.47 0.56 0.57 0.54 0.41 0.36 0.34 0.27 0.27 0.34 0.36 0.45 0.59 0.66 0.75 0.73 0.75 0.76 0.78 0.74 0.71 0.76 0.76 0.78 0.80 0.75 0.69 0.64 0.50 0.50 0.42 0.40 0.42 0.38 0.36 0.31 0.26 0.18 0.17 0.17
1.00 0.82 0.57 0.30 0.05 0.01 0.01 0.02 0.00 0.08 0.32 0.41 0.38 0.23 0.19 0.28 0.20 0.09 0.07 0.06 0.08 0.10 0.23 0.39 0.71 0.85 0.84 0.91 0.83 0.77 0.79 0.72 0.47 0.44 0.59 0.71 0.79 0.64 0.70 0.63 0.57 0.52 0.40 0.38 0.35 0.33 0.25 0.20 0.19 0.17 0.16 0.16 0.15 0.16
0.82 0.81 0.54 0.27 0.09 0.00 0.01 0.01 0.06 0.08 0.16 0.25 0.19 0.04 0.07 0.04 0.02 0.01 0.00 0.00 0.03 0.17 0.47 0.69 0.70 0.74 0.67 0.71 0.63 0.53 0.52 0.42 0.38 0.34 0.42 0.52 0.63 0.48 0.49 0.52 0.47 0.41 0.34 0.34 0.26 0.27 0.21 0.22 0.22 0.17 0.16 0.13 0.11 0.11
0.44 0.47 0.42 0.36 0.21 0.03 0.00 0.01 0.05 0.04 0.02 0.06 0.04 0.02 0.04 0.05 0.04 0.03 0.01 0.03 0.26 0.53 0.59 0.52 0.51 0.43 0.34 0.42 0.52 0.50 0.58 0.43 0.36 0.32 0.34 0.32 0.37 0.37 0.40 0.45 0.32 0.31 0.28 0.29 0.23 0.20 0.16 0.14 0.12 0.11 0.09 0.08 0.09 0.07
0.29 0.39 0.37 0.37 0.27 0.09 0.06 0.03 0.01 0.02 0.02 0.03 0.03 0.02 0.02 0.03 0.04 0.02 0.05 0.15 0.42 0.52 0.39 0.30 0.29 0.25 0.26 0.34 0.22 0.21 0.26 0.25 0.33 0.40 0.39 0.34 0.32 0.33 0.28 0.29 0.27 0.23 0.19 0.20 0.16 0.14 0.12 0.10 0.07 0.06 0.06 0.06 0.05 0.05
0.31 0.37 0.38 0.31 0.20 0.15 0.05 0.04 0.02 0.02 0.01 0.02 0.02 0.05 0.05 0.04 0.02 0.03 0.09 0.22 0.40 0.28 0.18 0.19 0.19 0.16 0.12 0.10 0.11 0.15 0.17 0.12 0.15 0.18 0.23 0.16 0.14 0.19 0.16 0.15 0.14 0.15 0.15 0.12 0.09 0.06 0.05 0.05 0.05 0.04 0.03 0.05 0.05 0.08
0.41 0.30 0.25 0.20 0.11 0.05 0.03 0.03 0.04 0.03 0.03 0.02 0.04 0.07 0.04 0.03 0.03 0.05 0.10 0.29 0.24 0.23 0.22 0.19 0.14 0.15 0.16 0.18 0.17 0.16 0.13 0.10 0.08 0.09 0.14 0.12 0.12 0.10 0.08 0.07 0.07 0.07 0.04 0.05 0.05 0.05 0.05 0.04 0.04 0.05 0.04 0.06 0.08 0.10
0.29 0.19 0.13 0.08 0.05 0.06 0.04 0.03 0.03 0.04 0.04 0.07 0.09 0.09 0.05 0.06 0.05 0.11 0.18 0.28 0.23 0.24 0.26 0.25 0.20 0.12 0.12 0.11 0.11 0.11 0.10 0.10 0.07 0.06 0.10 0.06 0.07 0.08 0.07 0.06 0.05 0.06 0.05 0.06 0.10 0.09 0.05 0.04 0.05 0.05 0.06 0.06 0.08 0.13
0.12 0.10 0.04 0.05 0.07 0.11 0.11 0.07 0.08 0.10 0.09 0.13 0.11 0.08 0.14 0.13 0.12 0.25 0.30 0.25 0.21 0.23 0.18 0.16 0.10 0.09 0.11 0.11 0.09 0.06 0.03 0.01 0.01 0.03 0.03 0.03 0.03 0.05 0.09 0.15 0.16 0.14 0.06 0.08 0.11 0.13 0.14 0.11 0.09 0.08 0.09 0.08 0.09 0.16
0.07 0.05 0.06 0.10 0.15 0.17 0.18 0.16 0.18 0.21 0.21 0.21 0.16 0.13 0.15 0.14 0.26 0.39 0.35 0.32 0.23 0.14 0.09 0.06 0.03 0.03 0.04 0.05 0.05 0.05 0.03 0.02 0.01 0.01 0.03 0.07 0.08 0.08 0.09 0.11 0.11 0.08 0.08 0.09 0.10 0.10 0.13 0.16 0.15 0.13 0.14 0.16 0.18 0.20
0.12 0.16 0.13 0.12 0.08 0.08 0.14 0.17 0.18 0.19 0.18 0.16 0.12 0.13 0.15 0.23 0.37 0.34 0.30 0.20 0.14 0.09 0.06 0.07 0.10 0.07 0.04 0.02 0.02 0.02 0.02 0.02 0.03 0.03 0.02 0.06 0.13 0.11 0.07 0.08 0.08 0.07 0.08 0.07 0.06 0.10 0.14 0.17 0.15 0.17 0.23 0.23 0.19 0.17
0.07 0.07 0.05 0.03 0.05 0.11 0.19 0.14 0.14 0.11 0.05 0.04 0.05 0.10 0.14 0.38 0.56 0.32 0.19 0.14 0.12 0.12 0.11 0.09 0.09 0.05 0.05 0.04 0.03 0.05 0.09 0.05 0.07 0.10 0.10 0.10 0.11 0.10 0.08 0.08 0.08 0.08 0.08 0.08 0.07 0.05 0.07 0.07 0.09 0.16 0.12 0.09 0.11 0.14
0.01 0.02 0.02 0.02 0.10 0.16 0.14 0.09 0.08 0.08 0.07 0.05 0.04 0.05 0.19 0.32 0.37 0.33 0.22 0.19 0.08 0.06 0.06 0.04 0.03 0.03 0.03 0.04 0.05 0.06 0.10 0.08 0.08 0.08 0.09 0.09 0.08 0.08 0.07 0.06 0.06 0.07 0.06 0.06 0.06 0.07 0.07 0.07 0.10 0.11 0.07 0.07 0.08 0.08
0.02 0.03 0.01 0.03 0.12 0.11 0.16 0.15 0.10 0.12 0.10 0.06 0.10 0.07 0.12 0.11 0.12 0.18 0.21 0.16 0.09 0.08 0.06 0.07 0.07 0.09 0.09 0.09 0.09 0.10 0.09 0.08 0.06 0.07 0.08 0.09 0.08 0.08 0.06 0.05 0.06 0.06 0.06 0.06 0.07 0.09 0.09 0.08 0.09 0.08 0.09 0.07 0.07 0.06
0.02 0.02 0.02 0.02 0.06 0.09 0.09 0.08 0.05 0.06 0.06 0.08 0.13 0.15 0.14 0.09 0.11 0.18 0.17 0.15 0.19 0.14 0.10 0.10 0.10 0.11 0.11 0.07 0.06 0.07 0.05 0.06 0.06 0.07 0.07 0.08 0.06 0.05 0.04 0.04 0.05 0.05 0.05 0.06 0.07 0.09 0.07 0.07 0.07 0.07 0.06 0.06 0.05 0.05

GFSWCAN_prec_precacc_105.txt.gz
Total_Precipitation_Accumulation
1.18 0.93 0.86 0.85 0.80 0.66 0.67 0.69 0.74 0.75 0.86 0.65 0.53 0.67 0.93 1.10 1.31 1.78 1.56 0.93 1.72 1.68 0.56 0.32 0.28 0.24 0.10 0.21 0.46 0.33 0.69 0.51 0.64 0.41 0.23 0.13 0.13 0.12 0.10 0.17 0.18 0.17 0.31 0.36 0.40 0.41 0.18 0.03 0.12 0.24 0.20 0.06 0.04 0.04
1.36 0.98 0.88 0.80 0.78 0.70 0.64 0.66 0.71 0.73 0.80 0.64 0.50 0.55 0.74 1.17 1.62 2.22 2.19 0.99 1.26 1.71 1.07 0.53 0.30 0.25 0.14 0.16 0.43 0.54 0.39 0.44 0.35 0.47 0.28 0.22 0.21 0.16 0.11 0.18 0.22 0.35 0.14 0.16 0.16 0.18 0.22 0.19 0.20 0.21 0.13 0.15 0.14 0.09
1.43 0.91 0.78 0.68 0.63 0.56 0.53 0.54 0.62 0.72 0.75 0.61 0.63 0.69 0.76 0.99 1.53 2.90 2.28 1.05 3.00 2.83 1.30 0.53 0.35 0.20 0.20 0.10 0.20 0.48 0.37 0.46 0.58 0.55 0.60 0.46 0.29 0.12 0.13 0.17 0.30 0.56 0.46 0.39 0.48 0.54 0.35 0.46 0.35 0.12 0.11 0.21 0.22 0.15
1.32 0.95 0.75 0.65 0.56 0.53 0.56 0.57 0.53 0.65 0.75 0.70 0.75 0.85 0.83 0.98 1.48 2.76 2.49 1.45 2.82 2.31 1.65 0.61 0.31 0.34 0.29 0.20 0.11 0.16 0.22 0.28 0.44 0.68 0.55 0.48 0.25 0.10 0.10 0.19 0.28 0.29 0.57 0.73 0.89 0.74 0.60 0.70 0.72 0.57 0.40 0.18 0.15 0.17
1.22 1.01 0.80 0.65 0.54 0.49 0.47 0.47 0.48 0.57 0.66 0.75 0.82 0.88 1.08 1.23 1.88 2.56 1.99 1.52 1.74 1.88 1.61 0.91 0.31 0.32 0.34 0.35 0.21 0.19 0.26 0.32 0.49 0.83 0.78 0.38 0.21 0.21 0.20 0.40 0.36 0.18 0.44 0.81 1.28 1.02 0.88 0.87 0.50 0.36 0.30 0.27 0.15 0.07
1.11 0.91 0.74 0.49 0.39 0.34 0.36 0.38 0.50 0.60 0.56 0.69 0.83 1.09 1.30 1.70 2.66 3.52 4.90 2.81 1.38 1.77 2.05 1.39 0.66 0.28 0.37 0.47 0.39 0.25 0.28 0.44 0.62 0.70 0.67 0.49 0.30 0.71 0.69 0.59 0.32 0.17 0.22 0.34 0.59 0.92 0.88 0.73 0.47 0.26 0.17 0.09 0.03 0.01
0.93 0.77 0.71 0.50 0.36 0.35 0.42 0.43 0.48 0.53 0.57 0.86 1.14 1.29 1.61 2.31 2.16 1.94 2.30 1.37 1.03 1.90 2.58 1.59 1.17 0.45 0.42 0.63 0.69 0.55 0.54 0.67 0.66 0.73 0.49 0.31 0.33 0.75 1.06 0.79 0.46 0.30 0.31 0.39 0.40 0.47 0.36 0.23 0.15 0.07 0.02 0.01 0.02 0.01
0.87 0.76 0.62 0.50 0.45 0.50 0.52 0.59 0.59 0.61 0.85 1.21 1.51 1.65 2.31 2.72 2.34 1.68 0.76 0.70 0.91 1.95 1.54 1.28 1.30 1.17 0.76 0.80 1.04 0.85 1.01 0.93 0.97 0.76 0.45 0.41 0.48 0.68 0.80 0.28 0.07 0.11 0.15 0.19 0.22 0.19 0.20 0.14 0.05 0.03 0.02 0.03 0.04 0.07
0.61 0.47 0.41 0.45 0.50 0.49 0.57 0.72 0.87 1.10 1.38 1.67 2.00 3.07 4.32 3.90 3.29 1.61 1.08 1.01 1.17 1.71 1.14 0.62 1.05 1.57 1.33 0.98 1.02 1.22 1.02 1.25 0.84 0.58 0.37 0.67 0.69 0.86 0.47 0.08 0.03 0.02 0.02 0.02 0.03 0.05 0.09 0.09 0.07 0.04 0.04 0.06 0.13 0.29
0.42 0.35 0.32 0.41 0.51 0.64 0.83 1.14 1.39 1.67 2.06 2.55 3.55 4.75 5.32 2.85 1.47 1.75 2.99 2.61 2.27 1.48 0.76 0.47 0.63 1.48 1.76 1.51 0.93 1.34 1.32 1.00 0.98 0.49 0.56 0.63 0.73 0.50 0.15 0.05 0.02 0.01 0.00 0.01 0.01 0.02 0.04 0.10 0.13 0.15 0.22 0.29 0.31 0.27
0.46 0.39 0.33 0.40 0.50 0.61 0.77 0.91 1.09 1.47 2.65 3.74 4.24 3.98 2.96 2.06 1.64 2.40 2.77 2.01 1.40 0.73 0.37 0.43 0.49 1.00 1.44 1.49 1.09 1.06 1.33 1.04 0.76 0.77 0.87 0.89 0.50 0.33 0.19 0.11 0.04 0.01 0.01 0.01 0.02 0.03 0.07 0.15 0.31 0.32 0.22 0.16 0.13 0.12
0.59 0.44 0.36 0.38 0.42 0.47 0.51 0.60 0.89 1.54 2.47 2.82 2.78 2.76 3.12 2.88 2.42 2.25 1.88 1.16 0.55 0.42 0.27 0.31 0.37 0.57 1.35 1.65 1.51 1.41 1.46 1.30 0.81 0.75 1.02 0.83 0.51 0.18 0.11 0.10 0.07 0.05 0.05 0.06 0.12 0.19 0.23 0.26 0.23 0.18 0.15 0.15 0.17 0.18
0.73 0.53 0.42 0.42 0.42 0.54 0.61 0.74 0.94 1.16 1.94 2.32 2.26 2.59 2.99 2.75 2.30 1.62 0.94 0.55 0.38 0.48 0.22 0.33 0.38 0.59 0.93 1.48 1.98 1.30 1.50 1.67 1.02 1.01 0.86 0.57 0.39 0.28 0.31 0.30 0.33 0.32 0.29 0.27 0.21 0.17 0.15 0.13 0.10 0.11 0.15 0.21 0.24 0.32
0.63 0.41 0.43 0.47 0.56 0.75 0.77 0.94 1.15 1.69 1.91 2.17 2.24 2.23 2.10 1.79 1.31 0.95 0.57 0.37 0.34 0.30 0.26 0.59 0.35 0.53 0.74 1.15 1.72 1.49 1.50 1.25 1.46 0.87 0.62 0.64 0.74 0.71 0.47 0.36 0.33 0.41 0.43 0.43 0.44 0.41 0.41 0.41 0.48 0.55 0.62 0.73 0.68 0.88
0.47 0.44 0.54 0.59 0.59 0.63 0.96 1.18 1.15 1.22 1.39 1.40 1.28 1.20 1.09 1.18 0.98 0.80 0.67 0.56 0.53 0.47 0.57 0.82 0.85 0.87 0.99 1.30 1.16 0.95 0.90 0.79 0.65 0.70 0.69 0.72 0.77 0.60 0.49 0.51 0.54 0.60 0.62 0.60 0.62 0.62 0.72 0.75 0.68 0.84 0.96 0.93 0.78 0.79
0.83 0.85 0.76 0.62 0.61 0.69 0.81 0.95 1.09 1.08 0.87 0.76 0.79 0.91 0.89 0.85 0.85 0.78 0.77 0.74 0.74 0.77 0.80 0.92 0.93 0.78 0.87 0.75 0.59 0.54 0.52 0.59 0.71 0.61 0.50 0.49 0.53 0.57 0.64 0.67 0.78 0.78 0.68 0.63 0.64 0.60 0.60 0.62 0.57 0.63 0.68 0.65 0.67 0.55
1.11 0.83 0.77 0.54 0.54 0.55 0.61 0.64 0.71 0.68 0.66 0.54 0.82 0.89 0.81 0.72 0.79 0.84 0.79 0.71 0.65 0.62 0.66 0.54 0.49 0.51 0.46 0.37 0.51 0.54 0.68 0.68 0.58 0.65 0.71 0.67 0.70 0.76 0.74 0.78 0.82 0.78 0.70 0.64 0.60 0.58 0.60 0.61 0.44 0.30 0.39 0.57 0.44 0.42
1.22 0.63 0.46 0.37 0.41 0.46 0.52 0.41 0.27 0.18 0.32 0.63 0.71 0.99 0.72 0.83 0.82 0.77 0.72 0.57 0.47 0.38 0.35 0.38 0.28 0.28 0.42 0.47 0.60 0.68 0.72 0.73 0.75 0.77 0.78 0.82 0.79 0.80 0.81 0.82 0.83 0.75 0.65 0.61 0.53 0.53 0.54 0.49 0.37 0.44 0.39 0.38 0.26 0.25
1.17 0.72 0.47 0.48 0.34 0.23 0.23 0.16 0.03 0.16 0.52 0.60 0.72 0.63 0.47 0.57 0.58 0.54 0.41 0.36 0.34 0.27 0.27 0.34 0.36 0.45 0.59 0.66 0.75 0.73 0.76 0.76 0.79 0.75 0.72 0.76 0.76 0.78 0.80 0.75 0.69 0.64 0.50 0.50 0.42 0.40 0.42 0.38 0.36 0.32 0.27 0.18 0.17 0.17
1.09 0.84 0.61 0.35 0.09 0.03 0.04 0.04 0.00 0.08 0.32 0.42 0.38 0.24 0.20 0.29 0.20 0.10 0.08 0.06 0.08 0.10 0.23 0.39 0.71 0.85 0.84 0.91 0.83 0.77 0.79 0.72 0.47 0.44 0.59 0.71 0.79 0.64 0.70 0.63 0.57 0.52 0.40 0.38 0.35 0.34 0.26 0.20 0.19 0.18 0.16 0.17 0.16 0.16
0.87 0.84 0.56 0.29 0.10 0.00 0.02 0.02 0.06 0.08 0.16 0.25 0.19 0.05 0.08 0.04 0.03 0.03 0.01 0.00 0.04 0.18 0.47 0.69 0.70 0.74 0.67 0.71 0.63 0.53 0.52 0.42 0.38 0.34 0.42 0.52 0.63 0.48 0.49 0.52 0.47 0.42 0.34 0.34 0.27 0.27 0.21 0.22 0.23 0.17 0.16 0.13 0.12 0.11
0.44 0.47 0.42 0.36 0.21 0.03 0.00 0.01 0.05 0.04 0.03 0.06 0.04 0.02 0.05 0.07 0.05 0.04 0.01 0.04 0.27 0.53 0.59 0.52 0.51 0.43 0.34 0.42 0.52 0.50 0.58 0.43 0.36 0.32 0.34 0.32 0.37 0.37 0.40 0.46 0.32 0.31 0.29 0.29 0.23 0.20 0.17 0.14 0.12 0.11 0.09 0.09 0.09 0.08
0.29 0.39 0.37 0.37 0.27 0.09 0.06 0.03 0.01 0.02 0.03 0.03 0.03 0.02 0.03 0.03 0.05 0.02 0.06 0.15 0.42 0.52 0.39 0.30 0.29 0.25 0.26 0.34 0.22 0.21 0.26 0.25 0.33 0.40 0.39 0.34 0.32 0.33 0.28 0.29 0.27 0.23 0.19 0.20 0.16 0.14 0.12 0.10 0.07 0.06 0.06 0.06 0.06 0.05
0.31 0.37 0.38 0.31 0.20 0.15 0.05 0.04 0.02 0.02 0.01 0.02 0.02 0.05 0.05 0.04 0.02 0.03 0.09 0.22 0.40 0.28 0.18 0.19 0.19 0.16 0.12 0.10 0.11 0.15 0.17 0.12 0.15 0.18 0.23 0.16 0.14 0.19 0.16 0.15 0.14 0.15 0.15 0.12 0.09 0.06 0.05 0.05 0.05 0.05 0.04 0.05 0.05 0.08
0.41 0.30 0.25 0.20 0.11 0.05 0.03 0.03 0.04 0.03 0.03 0.02 0.04 0.07 0.04 0.03 0.03 0.05 0.10 0.29 0.24 0.23 0.22 0.19 0.14 0.15 0.16 0.18 0.17 0.16 0.13 0.10 0.08 0.09 0.14 0.12 0.12 0.10 0.08 0.07 0.07 0.07 0.04 0.05 0.05 0.06 0.05 0.05 0.05 0.05 0.05 0.06 0.09 0.10
0.29 0.19 0.13 0.08 0.05 0.06 0.04 0.03 0.03 0.04 0.04 0.07 0.09 0.09 0.05 0.06 0.05 0.11 0.18 0.29 0.24 0.24 0.26 0.25 0.20 0.12 0.12 0.11 0.11 0.11 0.10 0.10 0.07 0.06 0.10 0.06 0.07 0.08 0.07 0.06 0.05 0.06 0.05 0.06 0.10 0.10 0.05 0.04 0.05 0.05 0.07 0.06 0.08 0.13
0.12 0.10 0.04 0.05 0.07 0.11 0.11 0.07 0.08 0.10 0.09 0.13 0.11 0.08 0.14 0.13 0.12 0.25 0.30 0.26 0.22 0.23 0.18 0.16 0.10 0.09 0.11 0.11 0.09 0.06 0.03 0.01 0.01 0.03 0.03 0.03 0.03 0.05 0.09 0.15 0.16 0.14 0.06 0.08 0.11 0.13 0.14 0.11 0.09 0.08 0.09 0.09 0.10 0.16
0.07 0.05 0.06 0.10 0.15 0.17 0.18 0.16 0.18 0.21 0.21 0.21 0.16 0.13 0.15 0.14 0.26 0.39 0.36 0.33 0.25 0.15 0.09 0.06 0.03 0.03 0.04 0.05 0.05 0.05 0.03 0.02 0.01 0.01 0.03 0.07 0.08 0.08 0.09 0.11 0.11 0.08 0.08 0.09 0.10 0.10 0.13 0.16 0.15 0.13 0.14 0.16 0.19 0.20
0.12 0.16 0.13 0.12 0.08 0.08 0.14 0.17 0.18 0.19 0.19 0.16 0.12 0.13 0.15 0.23 0.37 0.35 0.31 0.22 0.15 0.09 0.06 0.07 0.10 0.07 0.04 0.02 0.02 0.02 0.02 0.02 0.03 0.03 0.02 0.06 0.13 0.11 0.07 0.08 0.08 0.07 0.08 0.07 0.06 0.10 0.14 0.17 0.15 0.17 0.23 0.23 0.20 0.18
0.07 0.07 0.05 0.03 0.05 0.11 0.19 0.14 0.15 0.12 0.05 0.04 0.05 0.10 0.15 0.38 0.57 0.33 0.20 0.16 0.15 0.13 0.12 0.09 0.09 0.05 0.05 0.04 0.03 0.05 0.09 0.05 0.07 0.10 0.10 0.10 0.11 0.10 0.08 0.08 0.08 0.08 0.08 0.08 0.07 0.05 0.07 0.07 0.09 0.16 0.12 0.09 0.11 0.14
0.01 0.02 0.02 0.02 0.10 0.17 0.15 0.09 0.09 0.08 0.07 0.05 0.04 0.05 0.20 0.33 0.38 0.34 0.23 0.21 0.10 0.07 0.06 0.04 0.03 0.03 0.03 0.04 0.05 0.06 0.10 0.08 0.08 0.08 0.09 0.09 0.08 0.08 0.07 0.06 0.06 0.07 0.06 0.06 0.06 0.07 0.07 0.07 0.10 0.11 0.07 0.07 0.08 0.08
0.02 0.03 0.01 0.03 0.13 0.12 0.16 0.16 0.10 0.13 0.11 0.06 0.11 0.08 0.13 0.11 0.13 0.19 0.22 0.18 0.11 0.09 0.06 0.07 0.07 0.09 0.09 0.09 0.09 0.10 0.09 0.08 0.06 0.07 0.08 0.09 0.08 0.08 0.06 0.05 0.06 0.06 0.06 0.06 0.07 0.09 0.09 0.08 0.09 0.08 0.09 0.07 0.07 0.06
0.02 0.02 0.02 0.02 0.06 0.09 0.09 0.08 0.05 0.06 0.07 0.09 0.14 0.15 0.14 0.10 0.12 0.19 0.18 0.16 0.21 0.16 0.11 0.10 0.10 0.11 0.11 0.07 0.06 0.07 0.05 0.06 0.06 0.07 0.07 0.08 0.06 0.05 0.04 0.04 0.05 0.05 0.05 0.06 0.07 0.09 0.07 0.07 0.07 0.07 0.06 0.06 0.05 0.05

GFSWCAN_prec_precacc_111.txt.gz
Total_Precipitation_Accumulation
1.30 0.96 0.88 0.86 0.81 0.67 0.69 0.71 0.76 0.77 0.87 0.65 0.53 0.67 0.93 1.10 1.31 1.80 1.59 0.94 1.73 1.70 0.57 0.32 0.28 0.24 0.10 0.21 0.46 0.33 0.69 0.52 0.64 0.42 0.23 0.14 0.13 0.13 0.18 0.18 0.18 0.17 0.39 0.37 0.42 0.45 0.21 0.03 0.12 0.27 0.26 0.09 0.07 0.05
1.54 1.05 0.90 0.81 0.79 0.71 0.65 0.68 0.71 0.75 0.81 0.64 0.50 0.55 0.74 1.17 1.62 2.24 2.24 1.01 1.26 1.71 1.07 0.53 0.30 0.25 0.14 0.16 0.43 0.54 0.40 0.46 0.36 0.48 0.29 0.22 0.22 0.17 0.12 0.42 0.23 0.37 0.14 0.16 0.17 0.20 0.25 0.20 0.21 0.23 0.14 0.17 0.15 0.10
1.60 1.01 0.82 0.69 0.64 0.56 0.54 0.55 0.63 0.74 0.76 0.62 0.63 0.69 0.76 0.99 1.53 2.91 2.32 1.06 3.00 2.83 1.30 0.53 0.36 0.20 0.20 0.10 0.20 0.48 0.40 0.48 0.61 0.56 0.61 0.47 0.32 0.14 0.14 0.21 0.32 0.57 0.47 0.39 0.51 0.57 0.36 0.47 0.35 0.12 0.11 0.21 0.22 0.16
1.45 1.08 0.82 0.68 0.57 0.53 0.56 0.58 0.53 0.66 0.77 0.71 0.75 0.85 0.83 0.98 1.48 2.77 2.51 1.47 2.83 2.33 1.66 0.64 0.32 0.34 0.29 0.20 0.11 0.16 0.23 0.28 0.45 0.68 0.56 0.48 0.30 0.12 0.11 0.22 0.29 0.29 0.57 0.74 0.91 0.76 0.61 0.70 0.72 0.57 0.40 0.18 0.15 0.17
1.27 1.09 0.88 0.68 0.56 0.49 0.47 0.47 0.49 0.58 0.67 0.76 0.82 0.88 1.08 1.23 1.88 2.57 2.02 1.52 1.74 1.90 1.66 0.96 0.34 0.33 0.34 0.35 0.21 0.19 0.26 0.32 0.49 0.83 0.79 0.41 0.26 0.22 0.21 0.46 0.39 0.18 0.44 0.83 1.32 1.03 0.90 0.88 0.50 0.36 0.30 0.27 0.15 0.07
1.13 0.94 0.79 0.53 0.42 0.36 0.37 0.39 0.50 0.61 0.57 0.71 0.83 1.09 1.30 1.72 2.67 3.56 4.93 2.82 1.38 1.81 2.10 1.42 0.73 0.32 0.38 0.47 0.39 0.25 0.28 0.44 0.62 0.70 0.68 0.52 0.34 0.71 0.71 0.67 0.35 0.17 0.22 0.34 0.59 0.92 0.88 0.73 0.47 0.26 0.17 0.09 0.03 0.01
0.94 0.79 0.73 0.52 0.39 0.38 0.43 0.44 0.49 0.54 0.60 0.88 1.15 1.29 1.62 2.34 2.20 1.99 2.35 1.44 1.05 1.91 2.61 1.60 1.22 0.46 0.42 0.63 0.69 0.55 0.54 0.67 0.67 0.75 0.50 0.33 0.38 0.77 1.08 0.81 0.46 0.30 0.31 0.39 0.40 0.47 0.37 0.23 0.15 0.07 0.02 0.01 0.02 0.01
0.90 0.77 0.64 0.51 0.47 0.51 0.52 0.60 0.59 0.62 0.88 1.22 1.52 1.65 2.33 2.79 2.46 1.74 0.78 0.74 0.94 1.96 1.55 1.30 1.34 1.18 0.77 0.81 1.05 0.85 1.02 0.93 0.97 0.78 0.47 0.41 0.50 0.70 0.81 0.28 0.07 0.11 0.15 0.19 0.22 0.19 0.20 0.14 0.05 0.03 0.02 0.03 0.04 0.07
0.64 0.48 0.42 0.47 0.51 0.51 0.58 0.73 0.88 1.13 1.40 1.68 2.00 3.09 4.40 4.01 3.41 1.67 1.11 1.04 1.21 1.73 1.17 0.63 1.07 1.63 1.34 0.99 1.03 1.23 1.03 1.27 0.85 0.59 0.38 0.68 0.71 0.89 0.48 0.08 0.03 0.02 0.02 0.02 0.03 0.05 0.09 0.09 0.07 0.04 0.04 0.06 0.13 0.29
0.46 0.37 0.34 0.43 0.53 0.66 0.85 1.14 1.40 1.70 2.09 2.55 3.58 4.84 5.41 2.89 1.56 1.93 3.23 2.78 2.39 1.54 0.77 0.48 0.65 1.53 1.77 1.52 0.94 1.34 1.34 1.03 1.03 0.51 0.56 0.64 0.74 0.50 0.15 0.05 0.02 0.01 0.00 0.01 0.01 0.02 0.04 0.10 0.13 0.15 0.22 0.29 0.31 0.27
0.48 0.42 0.35 0.42 0.52 0.62 0.78 0.92 1.10 1.52 2.70 3.78 4.30 4.03 3.01 2.12 1.75 2.59 2.92 2.17 1.48 0.75 0.38 0.43 0.50 1.03 1.45 1.51 1.12 1.09 1.36 1.07 0.78 0.80 0.89 0.91 0.52 0.33 0.19 0.11 0.04 0.01 0.01 0.01 0.02 0.03 0.07 0.15 0.31 0.32 0.22 0.16 0.13 0.12
0.60 0.45 0.39 0.41 0.44 0.48 0.52 0.60 0.90 1.57 2.50 2.84 2.82 2.89 3.43 3.05 2.55 2.45 2.00 1.23 0.56 0.42 0.27 0.31 0.37 0.61 1.40 1.69 1.58 1.45 1.49 1.31 0.83 0.80 1.04 0.85 0.52 0.18 0.11 0.10 0.07 0.05 0.05 0.06 0.12 0.19 0.23 0.26 0.23 0.18 0.15 0.15 0.17 0.18
0.73 0.53 0.43 0.46 0.47 0.57 0.61 0.74 0.94 1.21 1.99 2.37 2.39 2.85 3.23 2.85 2.38 1.67 0.99 0.57 0.38 0.49 0.22 0.33 0.39 0.62 0.95 1.52 2.01 1.31 1.50 1.68 1.05 1.03 0.88 0.58 0.40 0.28 0.31 0.30 0.33 0.32 0.29 0.27 0.21 0.17 0.15 0.13 0.10 0.11 0.15 0.21 0.24 0.32
0.63 0.41 0.44 0.51 0.63 0.80 0.78 0.94 1.16 1.74 1.98 2.24 2.41 2.43 2.19 1.85 1.32 0.96 0.58 0.38 0.34 0.30 0.26 0.59 0.36 0.53 0.75 1.16 1.73 1.50 1.52 1.27 1.47 0.89 0.65 0.65 0.74 0.71 0.47 0.36 0.33 0.41 0.43 0.43 0.44 0.41 0.41 0.41 0.48 0.55 0.62 0.73 0.68 0.88
0.47 0.45 0.56 0.64 0.67 0.69 0.97 1.20 1.18 1.29 1.47 1.46 1.39 1.36 1.12 1.21 0.99 0.83 0.71 0.58 0.54 0.48 0.58 0.82 0.86 0.88 0.99 1.31 1.17 0.96 0.92 0.80 0.66 0.73 0.71 0.72 0.77 0.60 0.49 0.51 0.54 0.60 0.62 0.61 0.62 0.62 0.72 0.75 0.68 0.84 0.96 0.93 0.78 0.79
0.84 0.89 0.79 0.67 0.68 0.76 0.86 1.01 1.13 1.15 0.91 0.80 0.82 0.99 0.95 0.86 0.85 0.79 0.79 0.79 0.76 0.80 0.82 0.94 0.94 0.79 0.87 0.76 0.59 0.54 0.54 0.62 0.75 0.61 0.50 0.49 0.53 0.58 0.64 0.67 0.78 0.78 0.68 0.63 0.64 0.60 0.60 0.62 0.57 0.63 0.68 0.65 0.67 0.55
1.14 0.86 0.79 0.59 0.60 0.63 0.65 0.67 0.75 0.75 0.69 0.56 0.84 0.90 0.83 0.75 0.80 0.85 0.80 0.76 0.72 0.66 0.67 0.58 0.51 0.52 0.47 0.39 0.52 0.55 0.69 0.69 0.59 0.65 0.71 0.67 0.70 0.76 0.74 0.78 0.82 0.78 0.70 0.64 0.60 0.58 0.61 0.61 0.45 0.31 0.40 0.57 0.45 0.42
1.26 0.69 0.47 0.41 0.49 0.56 0.59 0.46 0.31 0.22 0.35 0.64 0.72 1.00 0.73 0.84 0.84 0.77 0.73 0.59 0.54 0.43 0.40 0.43 0.36 0.30 0.43 0.48 0.62 0.69 0.72 0.73 0.75 0.77 0.78 0.82 0.79 0.80 0.81 0.82 0.83 0.75 0.65 0.61 0.53 0.53 0.54 0.49 0.38 0.44 0.39 0.38 0.26 0.25
1.23 0.78 0.51 0.53 0.38 0.28 0.31 0.20 0.07 0.21 0.53 0.61 0.73 0.64 0.48 0.57 0.58 0.54 0.41 0.37 0.35 0.29 0.29 0.34 0.38 0.48 0.62 0.66 0.76 0.73 0.76 0.76 0.80 0.75 0.72 0.77 0.76 0.78 0.80 0.75 0.69 0.64 0.50 0.50 0.42 0.40 0.42 0.38 0.37 0.32 0.27 0.18 0.17 0.17
1.15 0.89 0.65 0.39 0.16 0.14 0.13 0.08 0.01 0.10 0.33 0.42 0.38 0.24 0.21 0.30 0.21 0.11 0.08 0.07 0.08 0.10 0.23 0.39 0.71 0.85 0.84 0.91 0.83 0.77 0.79 0.72 0.48 0.44 0.60 0.71 0.79 0.64 0.70 0.63 0.57 0.53 0.40 0.39 0.36 0.34 0.26 0.20 0.19 0.18 0.16 0.17 0.16 0.17
1.00 0.97 0.73 0.45 0.22 0.19 0.17 0.04 0.07 0.08 0.16 0.26 0.19 0.05 0.08 0.05 0.05 0.05 0.03 0.01 0.05 0.19 0.48 0.69 0.71 0.74 0.67 0.71 0.63 0.53 0.52 0.42 0.38 0.34 0.43 0.52 0.63 0.48 0.49 0.52 0.47 0.42 0.34 0.34 0.27 0.27 0.21 0.22 0.23 0.17 0.16 0.13 0.12 0.11
0.56 0.60 0.68 0.55 0.32 0.11 0.14 0.03 0.05 0.04 0.03 0.07 0.05 0.03 0.06 0.09 0.07 0.06 0.02 0.07 0.30 0.54 0.59 0.52 0.51 0.43 0.35 0.42 0.52 0.50 0.58 0.43 0.36 0.32 0.34 0.32 0.37 0.37 0.41 0.46 0.32 0.31 0.29 0.29 0.23 0.20 0.17 0.14 0.12 0.11 0.09 0.09 0.09 0.08
0.33 0.46 0.52 0.49 0.35 0.14 0.18 0.06 0.03 0.03 0.04 0.05 0.05 0.04 0.04 0.05 0.06 0.02 0.07 0.17 0.43 0.52 0.39 0.30 0.29 0.25 0.26 0.34 0.22 0.21 0.26 0.25 0.33 0.40 0.39 0.34 0.32 0.33 0.28 0.29 0.27 0.23 0.20 0.20 0.16 0.14 0.13 0.10 0.07 0.07 0.06 0.06 0.06 0.06
0.34 0.50 0.55 0.44 0.25 0.17 0.10 0.12 0.06 0.04 0.03 0.04 0.05 0.07 0.07 0.05 0.02 0.03 0.11 0.23 0.40 0.28 0.18 0.19 0.19 0.16 0.12 0.10 0.11 0.15 0.17 0.12 0.15 0.18 0.23 0.16 0.14 0.19 0.16 0.15 0.14 0.15 0.15 0.12 0.09 0.06 0.05 0.05 0.05 0.05 0.04 0.05 0.06 0.08
0.52 0.41 0.40 0.30 0.14 0.07 0.04 0.05 0.07 0.04 0.04 0.03 0.05 0.07 0.05 0.03 0.04 0.05 0.11 0.29 0.24 0.24 0.22 0.19 0.14 0.15 0.16 0.18 0.17 0.16 0.13 0.10 0.08 0.09 0.14 0.12 0.12 0.10 0.08 0.07 0.07 0.07 0.04 0.05 0.05 0.06 0.06 0.05 0.05 0.05 0.05 0.07 0.09 0.10
0.43 0.29 0.18 0.11 0.06 0.08 0.05 0.04 0.04 0.04 0.04 0.07 0.09 0.09 0.06 0.06 0.06 0.13 0.20 0.31 0.24 0.24 0.27 0.25 0.20 0.12 0.12 0.11 0.11 0.11 0.10 0.10 0.07 0.06 0.10 0.06 0.07 0.08 0.07 0.06 0.05 0.06 0.05 0.06 0.10 0.10 0.06 0.04 0.05 0.06 0.07 0.06 0.08 0.13
0.17 0.14 0.04 0.05 0.07 0.11 0.12 0.08 0.08 0.10 0.09 0.13 0.12 0.09 0.14 0.13 0.12 0.27 0.31 0.29 0.25 0.24 0.18 0.16 0.10 0.09 0.11 0.11 0.09 0.06 0.03 0.01 0.01 0.03 0.03 0.03 0.03 0.05 0.09 0.15 0.16 0.14 0.06 0.08 0.11 0.13 0.14 0.11 0.09 0.08 0.09 0.09 0.10 0.17
0.09 0.07 0.09 0.12 0.16 0.17 0.19 0.16 0.18 0.21 0.21 0.21 0.16 0.13 0.15 0.15 0.28 0.41 0.37 0.35 0.31 0.17 0.11 0.07 0.03 0.03 0.04 0.05 0.05 0.05 0.03 0.02 0.01 0.01 0.03 0.07 0.08 0.08 0.09 0.11 0.11 0.08 0.08 0.09 0.10 0.10 0.13 0.16 0.15 0.14 0.14 0.16 0.19 0.20
0.16 0.19 0.14 0.13 0.09 0.08 0.14 0.18 0.19 0.19 0.19 0.17 0.14 0.14 0.16 0.24 0.39 0.36 0.32 0.28 0.20 0.10 0.08 0.08 0.13 0.07 0.05 0.02 0.02 0.02 0.02 0.02 0.03 0.03 0.02 0.06 0.13 0.11 0.07 0.08 0.08 0.07 0.08 0.07 0.06 0.10 0.14 0.17 0.15 0.17 0.23 0.23 0.20 0.18
0.08 0.08 0.06 0.03 0.05 0.12 0.21 0.15 0.16 0.13 0.06 0.05 0.05 0.10 0.15 0.40 0.59 0.36 0.23 0.21 0.19 0.16 0.13 0.10 0.10 0.05 0.06 0.04 0.04 0.07 0.09 0.05 0.07 0.10 0.10 0.10 0.11 0.10 0.08 0.08 0.08 0.08 0.08 0.08 0.07 0.05 0.07 0.07 0.09 0.16 0.12 0.09 0.12 0.14
0.01 0.02 0.02 0.03 0.11 0.18 0.16 0.10 0.10 0.09 0.07 0.06 0.05 0.05 0.21 0.35 0.39 0.34 0.25 0.30 0.20 0.09 0.07 0.06 0.06 0.05 0.04 0.04 0.05 0.06 0.10 0.08 0.08 0.08 0.09 0.09 0.08 0.08 0.07 0.06 0.06 0.07 0.06 0.06 0.06 0.07 0.07 0.07 0.10 0.11 0.07 0.07 0.08 0.08
0.02 0.03 0.01 0.04 0.14 0.12 0.18 0.19 0.12 0.14 0.12 0.07 0.11 0.08 0.14 0.13 0.14 0.21 0.24 0.22 0.19 0.14 0.11 0.10 0.10 0.13 0.11 0.10 0.10 0.10 0.09 0.08 0.06 0.07 0.08 0.09 0.08 0.08 0.06 0.05 0.06 0.06 0.06 0.06 0.07 0.09 0.09 0.08 0.09 0.08 0.09 0.07 0.07 0.06
0.03 0.02 0.02 0.03 0.07 0.10 0.10 0.10 0.06 0.07 0.08 0.10 0.16 0.17 0.16 0.11 0.13 0.21 0.21 0.20 0.30 0.20 0.14 0.12 0.12 0.12 0.11 0.07 0.06 0.07 0.06 0.06 0.06 0.07 0.07 0.08 0.06 0.05 0.04 0.04 0.05 0.05 0.05 0.06 0.07 0.09 0.07 0.07 0.07 0.07 0.06 0.06 0.05 0.05

GFSWCAN_prec_precacc_114.txt.gz
Total_Precipitation_Accumulation
1.32 1.01 0.93 0.89 0.83 0.68 0.69 0.72 0.77 0.78 0.87 0.65 0.53 0.67 0.93 1.10 1.31 1.80 1.59 0.94 1.73 1.70 0.57 0.32 0.28 0.24 0.10 0.21 0.46 0.33 0.69 0.52 0.64 0.42 0.23 0.14 0.13 0.13 0.19 0.19 0.19 0.18 0.39 0.37 0.42 0.45 0.21 0.03 0.13 0.29 0.29 0.12 0.08 0.06
1.56 1.06 0.93 0.84 0.82 0.72 0.65 0.68 0.72 0.75 0.82 0.64 0.50 0.55 0.74 1.17 1.62 2.24 2.24 1.01 1.26 1.71 1.07 0.53 0.30 0.25 0.14 0.16 0.43 0.54 0.40 0.46 0.36 0.48 0.29 0.22 0.22 0.17 0.12 0.43 0.23 0.37 0.14 0.16 0.18 0.21 0.27 0.21 0.23 0.26 0.14 0.17 0.15 0.10
1.65 1.03 0.83 0.71 0.66 0.58 0.54 0.55 0.63 0.74 0.77 0.62 0.63 0.69 0.76 0.99 1.53 2.91 2.33 1.06 3.00 2.83 1.30 0.53 0.36 0.20 0.20 0.10 0.20 0.48 0.40 0.48 0.61 0.56 0.61 0.47 0.32 0.15 0.15 0.21 0.32 0.57 0.47 0.40 0.52 0.60 0.37 0.47 0.36 0.13 0.11 0.21 0.22 0.16
1.53 1.14 0.84 0.70 0.59 0.54 0.57 0.58 0.53 0.67 0.77 0.71 0.76 0.85 0.83 0.98 1.48 2.77 2.51 1.47 2.83 2.33 1.66 0.64 0.32 0.34 0.29 0.20 0.11 0.16 0.23 0.28 0.45 0.68 0.56 0.49 0.30 0.12 0.12 0.23 0.29 0.29 0.57 0.74 0.92 0.77 0.61 0.71 0.72 0.57 0.40 0.18 0.15 0.17
1.35 1.21 0.94 0.71 0.58 0.50 0.48 0.48 0.49 0.58 0.68 0.77 0.83 0.88 1.08 1.23 1.88 2.57 2.02 1.52 1.74 1.90 1.67 0.96 0.34 0.33 0.34 0.35 0.21 0.19 0.26 0.32 0.49 0.83 0.79 0.41 0.26 0.22 0.21 0.47 0.39 0.18 0.44 0.83 1.32 1.04 0.90 0.89 0.50 0.36 0.30 0.27 0.15 0.07
1.19 1.08 0.89 0.56 0.43 0.37 0.37 0.39 0.50 0.61 0.58 0.72 0.84 1.09 1.30 1.72 2.67 3.56 4.93 2.82 1.38 1.81 2.10 1.42 0.73 0.33 0.38 0.47 0.39 0.25 0.28 0.44 0.62 0.70 0.68 0.52 0.34 0.71 0.71 0.67 0.35 0.17 0.22 0.34 0.60 0.92 0.88 0.73 0.47 0.26 0.17 0.09 0.03 0.01
0.99 0.90 0.84 0.56 0.40 0.39 0.43 0.44 0.49 0.55 0.60 0.89 1.15 1.29 1.62 2.34 2.20 1.99 2.36 1.47 1.05 1.91 2.61 1.60 1.22 0.46 0.42 0.63 0.69 0.55 0.54 0.67 0.67 0.75 0.50 0.33 0.38 0.77 1.08 0.81 0.46 0.30 0.31 0.39 0.40 0.47 0.37 0.23 0.15 0.07 0.02 0.01 0.02 0.01
0.92 0.84 0.72 0.54 0.48 0.53 0.53 0.60 0.60 0.62 0.88 1.23 1.53 1.65 2.33 2.80 2.46 1.75 0.81 0.76 0.94 1.96 1.56 1.30 1.34 1.18 0.77 0.81 1.05 0.85 1.02 0.93 0.97 0.78 0.47 0.41 0.50 0.70 0.81 0.28 0.07 0.11 0.15 0.19 0.22 0.19 0.20 0.14 0.05 0.03 0.02 0.03 0.04 0.07
0.66 0.51 0.45 0.47 0.52 0.52 0.58 0.73 0.88 1.13 1.42 1.69 2.01 3.10 4.40 4.01 3.41 1.67 1.12 1.07 1.22 1.74 1.17 0.63 1.07 1.63 1.34 0.99 1.03 1.23 1.03 1.27 0.85 0.59 0.38 0.68 0.71 0.89 0.48 0.08 0.03 0.02 0.02 0.02 0.03 0.05 0.09 0.09 0.07 0.04 0.04 0.06 0.13 0.29
0.48 0.38 0.34 0.43 0.53 0.66 0.85 1.14 1.40 1.71 2.11 2.56 3.58 4.84 5.41 2.89 1.57 1.96 3.25 2.79 2.40 1.57 0.78 0.48 0.65 1.53 1.77 1.52 0.94 1.34 1.34 1.03 1.03 0.51 0.56 0.64 0.74 0.51 0.16 0.05 0.02 0.01 0.00 0.01 0.01 0.02 0.04 0.10 0.13 0.15 0.22 0.29 0.31 0.27
0.52 0.43 0.36 0.42 0.52 0.63 0.78 0.92 1.11 1.54 2.72 3.78 4.30 4.03 3.01 2.14 1.81 2.64 2.94 2.19 1.50 0.76 0.38 0.43 0.50 1.03 1.45 1.51 1.12 1.09 1.36 1.07 0.78 0.80 0.89 0.91 0.52 0.33 0.19 0.11 0.04 0.01 0.01 0.01 0.02 0.03 0.07 0.15 0.31 0.32 0.22 0.16 0.13 0.12
0.64 0.48 0.40 0.42 0.45 0.48 0.52 0.60 0.91 1.57 2.50 2.84 2.82 2.95 3.50 3.09 2.58 2.51 2.03 1.25 0.56 0.42 0.27 0.31 0.37 0.61 1.40 1.70 1.58 1.45 1.49 1.31 0.83 0.80 1.04 0.85 0.52 0.18 0.11 0.10 0.07 0.05 0.05 0.06 0.12 0.19 0.23 0.26 0.23 0.18 0.15 0.15 0.17 0.18
0.76 0.56 0.46 0.47 0.47 0.58 0.61 0.74 0.94 1.23 2.00 2.37 2.44 2.91 3.27 2.86 2.40 1.69 1.02 0.58 0.38 0.49 0.22 0.33 0.39 0.62 0.95 1.52 2.02 1.31 1.50 1.68 1.05 1.03 0.88 0.58 0.40 0.28 0.31 0.30 0.33 0.32 0.29 0.27 0.21 0.17 0.15 0.13 0.10 0.11 0.15 0.21 0.24 0.32
0.64 0.43 0.46 0.53 0.64 0.80 0.78 0.95 1.18 1.76 1.98 2.24 2.43 2.45 2.21 1.86 1.33 0.96 0.58 0.38 0.35 0.30 0.26 0.59 0.36 0.53 0.75 1.16 1.73 1.50 1.52 1.27 1.47 0.89 0.65 0.65 0.74 0.71 0.47 0.36 0.33 0.41 0.43 0.43 0.44 0.41 0.41 0.41 0.48 0.55 0.62 0.73 0.68 0.88
0.47 0.46 0.58 0.67 0.69 0.70 0.98 1.21 1.18 1.29 1.47 1.47 1.41 1.38 1.12 1.21 1.00 0.84 0.71 0.58 0.54 0.48 0.58 0.82 0.86 0.88 0.99 1.31 1.17 0.96 0.92 0.80 0.66 0.73 0.71 0.72 0.77 0.60 0.49 0.51 0.54 0.60 0.62 0.61 0.62 0.62 0.72 0.75 0.68 0.84 0.96 0.93 0.78 0.79
0.84 0.90 0.80 0.69 0.72 0.79 0.88 1.02 1.13 1.17 0.91 0.80 0.83 1.02 0.97 0.86 0.85 0.79 0.80 0.82 0.78 0.80 0.82 0.94 0.94 0.79 0.87 0.76 0.59 0.55 0.54 0.62 0.75 0.61 0.50 0.49 0.53 0.58 0.64 0.67 0.78 0.78 0.68 0.63 0.64 0.60 0.60 0.62 0.57 0.63 0.68 0.65 0.67 0.55
1.15 0.86 0.80 0.62 0.64 0.66 0.66 0.67 0.76 0.76 0.69 0.56 0.85 0.94 0.87 0.75 0.80 0.85 0.80 0.80 0.79 0.68 0.67 0.58 0.51 0.52 0.47 0.39 0.52 0.55 0.69 0.69 0.59 0.65 0.71 0.67 0.70 0.76 0.74 0.78 0.82 0.78 0.70 0.64 0.60 0.58 0.61 0.61 0.45 0.31 0.40 0.57 0.45 0.42
1.26 0.69 0.49 0.47 0.53 0.57 0.59 0.46 0.32 0.23 0.35 0.64 0.72 1.00 0.74 0.84 0.84 0.77 0.73 0.62 0.57 0.44 0.41 0.44 0.36 0.30 0.43 0.48 0.62 0.69 0.72 0.73 0.76 0.77 0.78 0.82 0.79 0.80 0.81 0.82 0.83 0.75 0.65 0.61 0.53 0.53 0.54 0.49 0.38 0.44 0.39 0.38 0.26 0.25
1.24 0.79 0.56 0.59 0.39 0.28 0.31 0.20 0.08 0.23 0.53 0.61 0.73 0.64 0.48 0.57 0.58 0.54 0.41 0.37 0.39 0.31 0.30 0.34 0.38 0.48 0.62 0.66 0.76 0.73 0.76 0.76 0.80 0.76 0.72 0.77 0.76 0.78 0.80 0.75 0.69 0.64 0.50 0.50 0.42 0.40 0.42 0.38 0.37 0.32 0.27 0.18 0.17 0.17
1.18 0.90 0.65 0.39 0.17 0.15 0.15 0.08 0.01 0.11 0.33 0.42 0.38 0.24 0.21 0.30 0.21 0.11 0.08 0.07 0.08 0.11 0.25 0.39 0.71 0.85 0.84 0.91 0.83 0.77 0.79 0.72 0.48 0.44 0.61 0.72 0.79 0.64 0.70 0.63 0.57 0.53 0.40 0.39 0.36 0.34 0.26 0.20 0.19 0.18 0.16 0.17 0.16 0.17
1.05 0.99 0.75 0.46 0.23 0.20 0.18 0.04 0.07 0.08 0.16 0.26 0.19 0.05 0.08 0.05 0.05 0.05 0.03 0.01 0.06 0.21 0.49 0.69 0.71 0.74 0.67 0.71 0.63 0.53 0.52 0.42 0.38 0.34 0.43 0.53 0.64 0.48 0.49 0.52 0.47 0.42 0.34 0.34 0.27 0.27 0.21 0.22 0.23 0.17 0.16 0.13 0.12 0.11
0.59 0.66 0.76 0.56 0.36 0.14 0.16 0.04 0.06 0.04 0.03 0.07 0.05 0.03 0.06 0.10 0.08 0.06 0.02 0.07 0.31 0.54 0.59 0.52 0.51 0.43 0.35 0.42 0.52 0.50 0.58 0.43 0.36 0.32 0.34 0.32 0.37 0.37 0.41 0.46 0.32 0.31 0.29 0.29 0.23 0.20 0.17 0.14 0.12 0.11 0.09 0.09 0.09 0.08
0.33 0.47 0.53 0.49 0.36 0.15 0.19 0.08 0.04 0.03 0.04 0.06 0.06 0.04 0.04 0.06 0.06 0.02 0.07 0.17 0.44 0.52 0.39 0.30 0.29 0.25 0.26 0.34 0.22 0.21 0.26 0.25 0.33 0.40 0.39 0.34 0.32 0.33 0.28 0.29 0.27 0.23 0.20 0.20 0.16 0.14 0.13 0.10 0.07 0.07 0.06 0.06 0.06 0.06
0.35 0.52 0.56 0.44 0.26 0.18 0.11 0.14 0.07 0.05 0.05 0.05 0.06 0.07 0.07 0.05 0.02 0.04 0.11 0.23 0.40 0.28 0.18 0.19 0.19 0.16 0.12 0.10 0.11 0.15 0.17 0.12 0.15 0.18 0.23 0.16 0.14 0.19 0.16 0.15 0.14 0.15 0.15 0.12 0.09 0.06 0.05 0.05 0.05 0.05 0.04 0.05 0.06 0.08
0.53 0.43 0.41 0.31 0.16 0.08 0.05 0.06 0.09 0.05 0.04 0.04 0.07 0.08 0.05 0.03 0.04 0.06 0.11 0.30 0.24 0.24 0.22 0.19 0.14 0.15 0.16 0.18 0.17 0.16 0.13 0.10 0.08 0.09 0.14 0.12 0.12 0.10 0.08 0.07 0.07 0.07 0.04 0.05 0.05 0.06 0.06 0.05 0.05 0.05 0.05 0.07 0.09 0.10
0.47 0.31 0.20 0.13 0.07 0.08 0.05 0.04 0.04 0.04 0.04 0.08 0.10 0.10 0.06 0.07 0.06 0.13 0.21 0.32 0.25 0.24 0.27 0.25 0.20 0.12 0.12 0.11 0.11 0.11 0.10 0.10 0.07 0.06 0.10 0.06 0.07 0.08 0.07 0.06 0.05 0.06 0.05 0.06 0.10 0.10 0.06 0.04 0.05 0.06 0.07 0.06 0.08 0.13
0.25 0.18 0.06 0.06 0.08 0.13 0.12 0.08 0.08 0.10 0.09 0.13 0.12 0.09 0.15 0.14 0.13 0.28 0.32 0.30 0.27 0.25 0.18 0.16 0.10 0.09 0.11 0.11 0.09 0.06 0.03 0.01 0.01 0.03 0.03 0.03 0.03 0.05 0.09 0.15 0.16 0.14 0.06 0.08 0.11 0.13 0.14 0.11 0.09 0.08 0.09 0.09 0.10 0.17
0.12 0.10 0.11 0.17 0.20 0.19 0.20 0.17 0.18 0.21 0.21 0.21 0.16 0.14 0.16 0.15 0.29 0.42 0.37 0.37 0.35 0.18 0.12 0.07 0.03 0.03 0.04 0.05 0.05 0.05 0.03 0.02 0.01 0.01 0.03 0.07 0.08 0.08 0.09 0.11 0.11 0.08 0.08 0.09 0.10 0.10 0.13 0.16 0.15 0.14 0.14 0.16 0.19 0.20
0.19 0.23 0.19 0.19 0.15 0.13 0.17 0.19 0.19 0.19 0.19 0.17 0.15 0.14 0.16 0.24 0.40 0.37 0.33 0.31 0.22 0.10 0.08 0.10 0.15 0.07 0.05 0.02 0.02 0.02 0.02 0.02 0.03 0.03 0.02 0.06 0.13 0.11 0.07 0.08 0.08 0.07 0.08 0.07 0.06 0.10 0.14 0.17 0.15 0.17 0.23 0.23 0.20 0.18
0.15 0.14 0.11 0.07 0.08 0.14 0.22 0.16 0.16 0.13 0.06 0.05 0.05 0.10 0.15 0.40 0.61 0.37 0.25 0.22 0.20 0.17 0.14 0.11 0.12 0.06 0.07 0.05 0.05 0.07 0.10 0.05 0.07 0.10 0.10 0.10 0.11 0.10 0.08 0.08 0.08 0.08 0.08 0.08 0.07 0.05 0.07 0.07 0.09 0.16 0.12 0.09 0.12 0.14
0.04 0.06 0.04 0.05 0.13 0.19 0.16 0.10 0.10 0.09 0.08 0.06 0.05 0.05 0.21 0.35 0.41 0.35 0.26 0.31 0.21 0.09 0.08 0.08 0.08 0.06 0.05 0.05 0.06 0.06 0.11 0.09 0.08 0.08 0.09 0.09 0.08 0.08 0.07 0.06 0.06 0.07 0.06 0.06 0.06 0.07 0.07 0.07 0.10 0.11 0.07 0.07 0.08 0.08
0.02 0.04 0.02 0.04 0.14 0.12 0.18 0.19 0.12 0.14 0.12 0.07 0.11 0.08 0.15 0.13 0.14 0.21 0.26 0.24 0.21 0.15 0.12 0.10 0.10 0.14 0.11 0.10 0.10 0.10 0.09 0.08 0.06 0.07 0.08 0.09 0.08 0.08 0.06 0.05 0.06 0.06 0.06 0.06 0.07 0.09 0.09 0.08 0.09 0.08 0.09 0.07 0.07 0.06
0.03 0.02 0.02 0.03 0.07 0.10 0.10 0.10 0.06 0.08 0.09 0.10 0.16 0.18 0.17 0.11 0.13 0.22 0.22 0.23 0.31 0.20 0.14 0.13 0.13 0.14 0.12 0.07 0.06 0.07 0.06 0.06 0.06 0.07 0.07 0.08 0.06 0.05 0.04 0.04 0.05 0.05 0.05 0.06 0.07 0.09 0.07 0.07 0.07 0.07 0.06 0.06 0.05 0.05

GFSWCAN_prec_precacc_117.txt.gz
Total_Precipitation_Accumulation
1.39 1.10 1.00 0.93 0.88 0.70 0.71 0.73 0.77 0.78 0.87 0.65 0.53 0.67 0.93 1.10 1.31 1.80 1.59 0.94 1.73 1.70 0.57 0.32 0.28 0.24 0.10 0.21 0.46 0.33 0.69 0.52 0.64 0.42 0.23 0.14 0.13 0.14 0.21 0.19 0.19 0.18 0.39 0.38 0.42 0.45 0.22 0.03 0.13 0.29 0.31 0.13 0.09 0.07
1.60 1.15 1.05 0.90 0.86 0.74 0.67 0.70 0.73 0.76 0.82 0.64 0.50 0.55 0.74 1.17 1.62 2.24 2.24 1.01 1.26 1.71 1.07 0.53 0.30 0.25 0.14 0.16 0.43 0.54 0.40 0.46 0.36 0.48 0.29 0.22 0.22 0.17 0.12 0.43 0.23 0.37 0.14 0.17 0.18 0.22 0.29 0.22 0.25 0.26 0.14 0.17 0.15 0.10
1.68 1.08 0.90 0.76 0.69 0.60 0.56 0.57 0.64 0.75 0.77 0.62 0.63 0.69 0.76 0.99 1.53 2.91 2.33 1.06 3.00 2.83 1.30 0.53 0.36 0.20 0.20 0.10 0.20 0.48 0.40 0.48 0.61 0.56 0.61 0.47 0.32 0.15 0.15 0.22 0.33 0.57 0.47 0.40 0.52 0.62 0.38 0.48 0.36 0.13 0.11 0.21 0.22 0.16
1.55 1.15 0.85 0.72 0.61 0.56 0.59 0.60 0.54 0.67 0.77 0.71 0.76 0.85 0.83 0.98 1.48 2.77 2.51 1.47 2.83 2.33 1.66 0.64 0.32 0.34 0.29 0.20 0.11 0.16 0.23 0.28 0.45 0.68 0.56 0.49 0.30 0.12 0.12 0.23 0.29 0.29 0.57 0.74 0.93 0.78 0.62 0.72 0.72 0.57 0.40 0.18 0.15 0.17
1.39 1.22 0.94 0.71 0.59 0.51 0.50 0.51 0.50 0.59 0.68 0.77 0.83 0.88 1.08 1.23 1.88 2.57 2.02 1.52 1.74 1.90 1.67 0.96 0.34 0.33 0.34 0.35 0.21 0.19 0.26 0.32 0.49 0.83 0.79 0.41 0.26 0.22 0.21 0.47 0.39 0.18 0.44 0.83 1.32 1.04 0.91 0.89 0.50 0.36 0.30 0.27 0.15 0.07
1.24 1.10 0.89 0.57 0.44 0.39 0.39 0.42 0.51 0.62 0.59 0.72 0.84 1.09 1.30 1.72 2.67 3.56 4.93 2.82 1.38 1.81 2.10 1.42 0.73 0.33 0.38 0.47 0.39 0.25 0.28 0.44 0.62 0.70 0.68 0.52 0.34 0.71 0.71 0.67 0.35 0.17 0.22 0.34 0.60 0.92 0.88 0.73 0.47 0.26 0.17 0.09 0.03 0.01
1.04 0.94 0.86 0.56 0.41 0.41 0.44 0.44 0.50 0.55 0.61 0.90 1.15 1.29 1.62 2.34 2.20 1.99 2.36 1.48 1.05 1.91 2.61 1.60 1.22 0.46 0.42 0.63 0.69 0.55 0.54 0.67 0.67 0.75 0.50 0.33 0.38 0.77 1.08 0.81 0.46 0.30 0.31 0.39 0.40 0.47 0.37 0.23 0.15 0.07 0.02 0.01 0.02 0.01
0.96 0.92 0.77 0.54 0.48 0.53 0.53 0.60 0.60 0.63 0.89 1.24 1.53 1.65 2.33 2.80 2.46 1.75 0.82 0.77 0.94 1.96 1.56 1.30 1.34 1.18 0.77 0.81 1.05 0.85 1.02 0.93 0.97 0.78 0.47 0.41 0.50 0.70 0.81 0.28 0.07 0.11 0.15 0.19 0.22 0.19 0.20 0.14 0.05 0.03 0.02 0.03 0.04 0.07
0.73 0.64 0.50 0.48 0.52 0.52 0.58 0.73 0.89 1.14 1.43 1.70 2.01 3.10 4.40 4.01 3.41 1.68 1.14 1.09 1.22 1.74 1.17 0.63 1.07 1.63 1.34 0.99 1.03 1.23 1.03 1.27 0.85 0.59 0.38 0.68 0.71 0.89 0.48 0.08 0.03 0.02 0.02 0.02 0.03 0.05 0.09 0.09 0.07 0.04 0.04 0.06 0.13 0.29
0.60 0.50 0.36 0.43 0.53 0.66 0.85 1.14 1.41 1.72 2.12 2.57 3.58 4.84 5.41 2.89 1.57 1.97 3.26 2.80 2.40 1.57 0.78 0.48 0.65 1.53 1.77 1.52 0.94 1.34 1.34 1.03 1.03 0.51 0.56 0.64 0.74 0.51 0.16 0.05 0.02 0.01 0.00 0.01 0.01 0.02 0.04 0.10 0.13 0.15 0.22 0.29 0.31 0.27
0.65 0.47 0.36 0.43 0.53 0.63 0.78 0.92 1.12 1.55 2.72 3.78 4.30 4.03 3.01 2.15 1.82 2.65 2.95 2.19 1.50 0.76 0.38 0.43 0.50 1.03 1.45 1.51 1.12 1.09 1.36 1.07 0.78 0.80 0.89 0.91 0.52 0.33 0.19 0.11 0.04 0.01 0.01 0.01 0.02 0.03 0.07 0.15 0.31 0.32 0.22 0.16 0.13 0.12
0.70 0.50 0.41 0.42 0.45 0.48 0.52 0.61 0.92 1.57 2.50 2.84 2.84 2.96 3.54 3.15 2.61 2.52 2.03 1.25 0.56 0.42 0.27 0.31 0.37 0.61 1.40 1.70 1.58 1.45 1.49 1.31 0.83 0.80 1.04 0.85 0.52 0.18 0.11 0.10 0.07 0.05 0.05 0.06 0.12 0.19 0.23 0.26 0.23 0.18 0.15 0.15 0.17 0.18
0.79 0.58 0.47 0.48 0.47 0.58 0.61 0.74 0.94 1.23 2.00 2.40 2.48 2.95 3.32 2.89 2.41 1.70 1.03 0.58 0.38 0.49 0.22 0.33 0.39 0.62 0.95 1.52 2.02 1.31 1.50 1.68 1.05 1.03 0.88 0.58 0.40 0.28 0.31 0.30 0.33 0.32 0.29 0.27 0.21 0.17 0.15 0.13 0.10 0.11 0.15 0.21 0.24 0.32
0.71 0.46 0.48 0.54 0.64 0.80 0.78 0.95 1.19 1.76 1.98 2.25 2.43 2.47 2.21 1.86 1.33 0.96 0.58 0.38 0.35 0.30 0.26 0.59 0.36 0.53 0.75 1.16 1.73 1.50 1.52 1.27 1.47 0.89 0.65 0.65 0.74 0.71 0.47 0.36 0.33 0.41 0.43 0.43 0.44 0.41 0.41 0.41 0.48 0.55 0.62 0.73 0.68 0.88
0.54 0.48 0.60 0.68 0.70 0.70 0.99 1.21 1.18 1.29 1.47 1.48 1.42 1.38 1.13 1.21 1.00 0.84 0.71 0.58 0.54 0.48 0.58 0.82 0.86 0.88 0.99 1.31 1.17 0.96 0.92 0.81 0.66 0.73 0.71 0.72 0.77 0.60 0.49 0.51 0.54 0.60 0.62 0.61 0.62 0.62 0.72 0.75 0.68 0.84 0.96 0.93 0.78 0.79
0.90 0.95 0.82 0.72 0.75 0.80 0.89 1.02 1.13 1.17 0.91 0.80 0.84 1.04 0.98 0.86 0.85 0.79 0.80 0.82 0.78 0.80 0.82 0.94 0.94 0.79 0.87 0.76 0.59 0.55 0.54 0.62 0.75 0.61 0.50 0.49 0.53 0.58 0.64 0.67 0.78 0.78 0.68 0.63 0.64 0.60 0.60 0.62 0.57 0.63 0.68 0.65 0.67 0.55
1.18 0.88 0.83 0.66 0.67 0.66 0.66 0.67 0.76 0.76 0.69 0.56 0.85 0.94 0.87 0.76 0.80 0.85 0.80 0.80 0.79 0.69 0.67 0.58 0.51 0.52 0.47 0.39 0.52 0.55 0.69 0.69 0.59 0.65 0.71 0.67 0.70 0.76 0.74 0.78 0.82 0.78 0.70 0.64 0.60 0.58 0.61 0.61 0.45 0.31 0.40 0.57 0.45 0.42
1.26 0.69 0.52 0.50 0.54 0.57 0.59 0.46 0.32 0.23 0.35 0.64 0.72 1.02 0.76 0.84 0.84 0.77 0.73 0.62 0.58 0.45 0.41 0.44 0.36 0.30 0.43 0.48 0.62 0.69 0.72 0.73 0.76 0.77 0.78 0.82 0.79 0.80 0.81 0.82 0.83 0.75 0.65 0.61 0.53 0.53 0.54 0.49 0.38 0.44 0.39 0.38 0.26 0.25
1.24 0.81 0.59 0.60 0.39 0.28 0.31 0.20 0.08 0.23 0.53 0.61 0.73 0.64 0.48 0.57 0.58 0.54 0.41 0.37 0.40 0.33 0.30 0.34 0.38 0.48 0.62 0.66 0.76 0.73 0.76 0.76 0.80 0.76 0.72 0.77 0.76 0.78 0.80 0.75 0.69 0.64 0.50 0.50 0.42 0.40 0.42 0.38 0.37 0.32 0.27 0.18 0.17 0.17
1.20 0.91 0.66 0.40 0.17 0.15 0.15 0.08 0.01 0.11 0.33 0.42 0.38 0.24 0.21 0.30 0.21 0.11 0.08 0.07 0.09 0.22 0.33 0.40 0.71 0.85 0.84 0.91 0.83 0.77 0.79 0.72 0.48 0.45 0.61 0.72 0.79 0.64 0.70 0.63 0.57 0.53 0.40 0.39 0.36 0.34 0.26 0.20 0.19 0.18 0.16 0.17 0.16 0.17
1.08 1.03 0.78 0.46 0.23 0.20 0.18 0.04 0.07 0.08 0.16 0.26 0.19 0.05 0.08 0.05 0.05 0.05 0.03 0.01 0.06 0.22 0.51 0.69 0.71 0.74 0.67 0.71 0.63 0.53 0.52 0.42 0.38 0.34 0.43 0.53 0.64 0.48 0.49 0.52 0.47 0.42 0.34 0.34 0.27 0.27 0.21 0.22 0.23 0.17 0.16 0.13 0.12 0.11
0.64 0.79 0.84 0.56 0.36 0.14 0.16 0.04 0.06 0.04 0.03 0.07 0.05 0.03 0.06 0.10 0.08 0.06 0.02 0.07 0.31 0.54 0.59 0.52 0.51 0.43 0.35 0.42 0.52 0.50 0.58 0.43 0.36 0.32 0.34 0.32 0.37 0.37 0.41 0.46 0.32 0.31 0.29 0.29 0.23 0.20 0.17 0.14 0.12 0.11 0.09 0.09 0.09 0.08
0.35 0.47 0.53 0.49 0.37 0.16 0.20 0.10 0.06 0.03 0.04 0.06 0.06 0.04 0.04 0.06 0.06 0.02 0.07 0.17 0.44 0.52 0.39 0.30 0.29 0.25 0.26 0.34 0.22 0.21 0.26 0.25 0.33 0.40 0.39 0.34 0.32 0.33 0.28 0.29 0.27 0.23 0.20 0.20 0.16 0.14 0.13 0.10 0.07 0.07 0.06 0.06 0.06 0.06
0.35 0.52 0.56 0.44 0.26 0.19 0.13 0.19 0.11 0.06 0.05 0.05 0.06 0.07 0.07 0.05 0.03 0.04 0.11 0.23 0.40 0.28 0.18 0.19 0.19 0.16 0.12 0.10 0.11 0.15 0.17 0.12 0.15 0.18 0.23 0.16 0.14 0.19 0.16 0.15 0.14 0.15 0.15 0.12 0.09 0.06 0.05 0.05 0.05 0.05 0.04 0.05 0.06 0.08
0.53 0.44 0.42 0.31 0.16 0.08 0.05 0.07 0.10 0.06 0.05 0.04 0.07 0.08 0.06 0.03 0.04 0.06 0.11 0.30 0.24 0.24 0.22 0.19 0.14 0.15 0.16 0.18 0.17 0.16 0.13 0.10 0.08 0.09 0.14 0.12 0.12 0.10 0.08 0.07 0.07 0.07 0.04 0.05 0.05 0.06 0.06 0.05 0.05 0.05 0.05 0.07 0.09 0.10
0.48 0.31 0.20 0.13 0.07 0.08 0.05 0.04 0.04 0.04 0.04 0.09 0.11 0.10 0.06 0.07 0.07 0.13 0.22 0.32 0.25 0.24 0.27 0.25 0.20 0.12 0.12 0.11 0.11 0.11 0.10 0.10 0.07 0.06 0.10 0.06 0.07 0.08 0.07 0.06 0.05 0.06 0.05 0.06 0.10 0.10 0.06 0.04 0.05 0.06 0.07 0.06 0.08 0.13
0.26 0.19 0.07 0.07 0.09 0.14 0.13 0.09 0.08 0.10 0.09 0.13 0.12 0.09 0.15 0.14 0.13 0.28 0.33 0.31 0.28 0.25 0.19 0.16 0.10 0.09 0.11 0.11 0.09 0.06 0.03 0.01 0.01 0.03 0.03 0.03 0.03 0.05 0.09 0.15 0.16 0.14 0.06 0.08 0.11 0.13 0.14 0.11 0.09 0.08 0.09 0.09 0.10 0.17
0.14 0.12 0.13 0.20 0.24 0.22 0.22 0.18 0.19 0.21 0.21 0.21 0.17 0.14 0.16 0.15 0.29 0.42 0.38 0.37 0.37 0.20 0.13 0.08 0.04 0.03 0.04 0.05 0.05 0.05 0.03 0.02 0.01 0.01 0.03 0.07 0.08 0.08 0.09 0.11 0.11 0.08 0.08 0.09 0.10 0.10 0.13 0.16 0.15 0.14 0.14 0.16 0.19 0.20
0.20 0.24 0.21 0.22 0.19 0.16 0.20 0.22 0.21 0.20 0.19 0.18 0.16 0.14 0.16 0.24 0.41 0.37 0.34 0.32 0.24 0.11 0.09 0.10 0.17 0.08 0.05 0.02 0.02 0.02 0.02 0.02 0.03 0.03 0.02 0.06 0.13 0.11 0.07 0.08 0.08 0.07 0.08 0.07 0.06 0.10 0.14 0.17 0.15 0.17 0.23 0.23 0.20 0.18
0.16 0.16 0.15 0.11 0.12 0.17 0.24 0.18 0.18 0.14 0.07 0.06 0.06 0.11 0.16 0.41 0.62 0.38 0.26 0.23 0.20 0.17 0.15 0.12 0.13 0.07 0.07 0.05 0.05 0.08 0.11 0.06 0.07 0.10 0.10 0.10 0.11 0.10 0.08 0.08 0.08 0.08 0.08 0.08 0.07 0.05 0.07 0.07 0.09 0.16 0.12 0.09 0.12 0.14
0.11 0.12 0.10 0.09 0.16 0.22 0.19 0.14 0.13 0.11 0.09 0.07 0.06 0.06 0.21 0.36 0.41 0.36 0.26 0.32 0.22 0.09 0.08 0.09 0.10 0.09 0.07 0.06 0.07 0.07 0.11 0.09 0.08 0.08 0.09 0.09 0.08 0.08 0.07 0.06 0.06 0.07 0.06 0.06 0.06 0.07 0.07 0.07 0.10 0.11 0.07 0.07 0.08 0.08
0.06 0.08 0.05 0.06 0.15 0.14 0.20 0.21 0.13 0.15 0.13 0.07 0.12 0.09 0.15 0.13 0.14 0.21 0.27 0.25 0.22 0.15 0.13 0.11 0.11 0.15 0.13 0.11 0.10 0.10 0.09 0.08 0.06 0.07 0.08 0.09 0.08 0.08 0.06 0.05 0.06 0.06 0.06 0.06 0.07 0.09 0.09 0.08 0.09 0.08 0.09 0.07 0.07 0.06
0.03 0.03 0.02 0.03 0.07 0.10 0.10 0.11 0.06 0.08 0.09 0.11 0.17 0.18 0.17 0.11 0.14 0.22 0.23 0.25 0.32 0.21 0.15 0.13 0.14 0.15 0.13 0.08 0.07 0.07 0.06 0.06 0.06 0.07 0.07 0.08 0.06 0.05 0.04 0.04 0.05 0.05 0.05 0.06 0.07 0.09 0.07 0.07 0.07 0.07 0.06 0.06 0.05 0.05

GFSWCAN_prec_precacc_123.txt.gz
Total_Precipitation_Accumulation
1.48 1.14 1.03 1.01 0.99 0.78 0.75 0.78 0.80 0.78 0.87 0.65 0.53 0.67 0.93 1.10 1.31 1.80 1.59 0.94 1.73 1.70 0.57 0.32 0.28 0.24 0.10 0.21 0.46 0.33 0.69 0.52 0.64 0.42 0.23 0.14 0.13 0.14 0.21 0.20 0.19 0.18 0.39 0.41 0.48 0.46 0.22 0.05 0.15 0.30 0.32 0.14 0.09 0.07
1.68 1.20 1.07 0.95 0.97 0.81 0.72 0.77 0.78 0.76 0.82 0.64 0.50 0.55 0.74 1.17 1.62 2.24 2.24 1.01 1.26 1.71 1.07 0.53 0.30 0.25 0.14 0.16 0.43 0.54 0.40 0.46 0.36 0.48 0.29 0.22 0.22 0.17 0.12 0.43 0.23 0.37 0.14 0.17 0.21 0.23 0.30 0.24 0.26 0.27 0.14 0.18 0.16 0.10
1.76 1.15 0.96 0.82 0.79 0.67 0.62 0.66 0.70 0.76 0.77 0.62 0.63 0.69 0.76 0.99 1.53 2.91 2.33 1.06 3.00 2.83 1.30 0.53 0.36 0.20 0.20 0.10 0.20 0.48 0.40 0.48 0.61 0.56 0.61 0.47 0.32 0.15 0.15 0.22 0.33 0.58 0.47 0.40 0.53 0.63 0.39 0.48 0.36 0.13 0.11 0.21 0.22 0.16
1.64 1.24 0.95 0.79 0.69 0.61 0.66 0.69 0.59 0.68 0.77 0.72 0.77 0.86 0.83 0.98 1.48 2.77 2.51 1.47 2.83 2.33 1.66 0.64 0.32 0.34 0.29 0.20 0.11 0.16 0.23 0.28 0.45 0.68 0.56 0.49 0.30 0.12 0.12 0.23 0.29 0.29 0.57 0.74 0.94 0.80 0.63 0.72 0.72 0.57 0.40 0.18 0.15 0.17
1.48 1.29 1.05 0.78 0.64 0.54 0.57 0.60 0.54 0.61 0.69 0.78 0.84 0.89 1.08 1.23 1.88 2.57 2.02 1.52 1.74 1.90 1.67 0.96 0.34 0.33 0.34 0.35 0.21 0.19 0.26 0.32 0.49 0.83 0.79 0.41 0.26 0.22 0.21 0.47 0.39 0.18 0.44 0.83 1.32 1.04 0.91 0.90 0.50 0.36 0.30 0.27 0.15 0.07
1.32 1.15 0.98 0.62 0.49 0.42 0.46 0.51 0.55 0.64 0.60 0.73 0.86 1.11 1.30 1.72 2.67 3.56 4.93 2.82 1.38 1.81 2.10 1.42 0.73 0.33 0.38 0.47 0.39 0.25 0.28 0.44 0.62 0.70 0.68 0.52 0.34 0.71 0.71 0.67 0.35 0.17 0.22 0.34 0.60 0.92 0.88 0.73 0.47 0.26 0.17 0.09 0.03 0.01
1.09 0.97 0.93 0.62 0.46 0.45 0.52 0.52 0.53 0.58 0.62 0.91 1.16 1.30 1.62 2.34 2.20 1.99 2.36 1.48 1.05 1.91 2.61 1.60 1.22 0.46 0.42 0.63 0.69 0.55 0.54 0.67 0.67 0.75 0.50 0.33 0.38 0.77 1.08 0.81 0.46 0.30 0.31 0.39 0.40 0.47 0.37 0.23 0.15 0.07 0.02 0.01 0.02 0.01
1.01 0.94 0.81 0.60 0.53 0.58 0.61 0.64 0.63 0.66 0.92 1.25 1.53 1.65 2.33 2.80 2.46 1.75 0.82 0.77 0.94 1.96 1.56 1.30 1.34 1.18 0.77 0.81 1.05 0.85 1.02 0.93 0.97 0.78 0.47 0.41 0.50 0.70 0.81 0.28 0.07 0.11 0.15 0.19 0.22 0.19 0.20 0.14 0.05 0.03 0.02 0.03 0.04 0.07
0.76 0.65 0.52 0.51 0.56 0.59 0.63 0.75 0.92 1.17 1.44 1.70 2.01 3.10 4.40 4.01 3.41 1.68 1.15 1.09 1.22 1.74 1.17 0.63 1.07 1.63 1.34 0.99 1.03 1.23 1.03 1.27 0.85 0.59 0.38 0.68 0.71 0.89 0.48 0.08 0.03 0.02 0.02 0.02 0.03 0.05 0.09 0.09 0.07 0.04 0.04 0.06 0.13 0.29
0.63 0.52 0.37 0.45 0.56 0.73 0.89 1.17 1.44 1.74 2.13 2.57 3.58 4.84 5.41 2.89 1.57 1.97 3.26 2.80 2.40 1.57 0.78 0.48 0.65 1.53 1.77 1.52 0.94 1.34 1.34 1.03 1.03 0.51 0.56 0.64 0.74 0.51 0.16 0.05 0.02 0.01 0.00 0.01 0.01 0.02 0.04 0.10 0.13 0.15 0.22 0.29 0.31 0.27
0.71 0.50 0.37 0.43 0.55 0.66 0.80 0.95 1.15 1.57 2.72 3.78 4.30 4.04 3.02 2.16 1.82 2.65 2.95 2.19 1.51 0.76 0.38 0.43 0.50 1.03 1.45 1.51 1.12 1.09 1.36 1.07 0.78 0.80 0.89 0.91 0.52 0.33 0.19 0.11 0.04 0.01 0.01 0.01 0.02 0.03 0.07 0.15 0.31 0.32 0.22 0.16 0.13 0.12
0.82 0.51 0.41 0.42 0.46 0.49 0.55 0.65 0.93 1.57 2.50 2.84 2.84 2.98 3.57 3.16 2.61 2.52 2.04 1.25 0.56 0.42 0.27 0.31 0.37 0.61 1.40 1.70 1.58 1.45 1.49 1.31 0.83 0.80 1.04 0.85 0.52 0.18 0.11 0.10 0.07 0.05 0.05 0.06 0.12 0.19 0.23 0.26 0.23 0.18 0.15 0.15 0.17 0.18
0.90 0.59 0.47 0.48 0.47 0.58 0.64 0.76 0.94 1.23 2.00 2.42 2.48 2.97 3.33 2.90 2.42 1.70 1.04 0.58 0.38 0.49 0.22 0.33 0.39 0.62 0.95 1.52 2.02 1.31 1.50 1.68 1.05 1.03 0.88 0.58 0.40 0.28 0.31 0.30 0.33 0.32 0.29 0.27 0.21 0.17 0.15 0.13 0.10 0.11 0.15 0.21 0.24 0.32
0.78 0.46 0.48 0.54 0.64 0.82 0.81 0.97 1.20 1.76 1.99 2.25 2.44 2.48 2.21 1.86 1.33 0.96 0.58 0.38 0.35 0.30 0.26 0.59 0.36 0.53 0.75 1.16 1.73 1.50 1.52 1.27 1.47 0.89 0.65 0.65 0.74 0.71 0.47 0.36 0.33 0.41 0.43 0.43 0.44 0.41 0.41 0.41 0.48 0.55 0.62 0.73 0.68 0.88
0.58 0.49 0.61 0.69 0.72 0.73 1.02 1.23 1.18 1.29 1.47 1.48 1.43 1.38 1.13 1.21 1.00 0.84 0.71 0.58 0.54 0.48 0.58 0.82 0.86 0.88 0.99 1.31 1.17 0.96 0.92 0.81 0.66 0.73 0.71 0.72 0.77 0.60 0.49 0.51 0.54 0.60 0.62 0.61 0.62 0.62 0.72 0.75 0.68 0.84 0.96 0.93 0.78 0.79
0.96 0.98 0.83 0.75 0.78 0.83 0.89 1.02 1.13 1.17 0.91 0.80 0.84 1.05 0.99 0.88 0.86 0.79 0.80 0.82 0.78 0.80 0.82 0.94 0.94 0.79 0.87 0.76 0.59 0.55 0.54 0.62 0.75 0.61 0.50 0.49 0.53 0.58 0.64 0.67 0.78 0.78 0.68 0.63 0.64 0.60 0.60 0.62 0.57 0.63 0.68 0.65 0.67 0.55
1.21 0.90 0.89 0.70 0.69 0.68 0.67 0.67 0.76 0.76 0.69 0.56 0.85 0.95 0.88 0.78 0.82 0.86 0.80 0.80 0.79 0.69 0.67 0.58 0.51 0.52 0.47 0.39 0.52 0.55 0.69 0.69 0.59 0.65 0.71 0.67 0.70 0.76 0.74 0.78 0.82 0.78 0.70 0.64 0.60 0.58 0.61 0.61 0.45 0.31 0.40 0.57 0.45 0.42
1.26 0.71 0.55 0.51 0.54 0.57 0.59 0.46 0.32 0.23 0.35 0.64 0.72 1.02 0.77 0.86 0.85 0.78 0.76 0.62 0.58 0.45 0.41 0.44 0.36 0.30 0.43 0.48 0.62 0.69 0.72 0.73 0.76 0.77 0.78 0.82 0.79 0.80 0.81 0.82 0.83 0.75 0.65 0.61 0.53 0.53 0.54 0.49 0.38 0.44 0.39 0.38 0.26 0.25
1.24 0.82 0.60 0.60 0.39 0.28 0.31 0.20 0.08 0.23 0.53 0.61 0.73 0.64 0.49 0.57 0.58 0.54 0.42 0.38 0.41 0.34 0.31 0.34 0.38 0.48 0.62 0.66 0.76 0.73 0.76 0.76 0.80 0.76 0.72 0.77 0.76 0.78 0.80 0.75 0.69 0.64 0.50 0.50 0.42 0.40 0.42 0.38 0.37 0.32 0.27 0.18 0.17 0.17
1.21 0.92 0.66 0.40 0.17 0.15 0.15 0.08 0.01 0.11 0.33 0.42 0.38 0.24 0.21 0.30 0.21 0.11 0.08 0.09 0.14 0.28 0.41 0.42 0.71 0.85 0.84 0.91 0.83 0.77 0.79 0.72 0.48 0.45 0.61 0.72 0.79 0.64 0.70 0.63 0.57 0.53 0.40 0.39 0.36 0.34 0.26 0.20 0.19 0.18 0.16 0.17 0.16 0.17
1.16 1.08 0.81 0.47 0.23 0.20 0.18 0.04 0.07 0.08 0.16 0.26 0.19 0.05 0.08 0.05 0.05 0.05 0.03 0.01 0.07 0.24 0.56 0.72 0.71 0.74 0.67 0.71 0.63 0.53 0.52 0.42 0.38 0.34 0.43 0.53 0.64 0.48 0.49 0.52 0.47 0.42 0.34 0.34 0.27 0.27 0.21 0.22 0.23 0.17 0.16 0.13 0.12 0.11
0.77 0.86 0.87 0.56 0.36 0.14 0.16 0.04 0.06 0.04 0.03 0.07 0.06 0.03 0.06 0.10 0.08 0.06 0.02 0.07 0.31 0.54 0.59 0.52 0.51 0.43 0.35 0.42 0.52 0.50 0.58 0.43 0.36 0.32 0.34 0.32 0.37 0.37 0.41 0.46 0.32 0.31 0.29 0.29 0.23 0.20 0.17 0.14 0.12 0.11 0.09 0.09 0.09 0.08
0.39 0.49 0.53 0.49 0.37 0.16 0.21 0.11 0.06 0.03 0.04 0.06 0.07 0.04 0.05 0.06 0.06 0.02 0.07 0.17 0.44 0.52 0.39 0.30 0.29 0.25 0.26 0.34 0.22 0.21 0.26 0.25 0.33 0.40 0.39 0.34 0.32 0.33 0.28 0.29 0.27 0.23 0.20 0.20 0.16 0.14 0.13 0.10 0.07 0.07 0.06 0.06 0.06 0.06
0.35 0.52 0.56 0.44 0.26 0.19 0.14 0.23 0.14 0.07 0.05 0.06 0.06 0.07 0.07 0.05 0.04 0.04 0.12 0.23 0.40 0.28 0.18 0.19 0.19 0.16 0.12 0.10 0.11 0.15 0.17 0.12 0.15 0.18 0.23 0.16 0.14 0.19 0.16 0.15 0.14 0.15 0.15 0.12 0.09 0.06 0.05 0.05 0.05 0.05 0.04 0.05 0.06 0.08
0.53 0.44 0.42 0.31 0.16 0.08 0.06 0.12 0.17 0.07 0.06 0.04 0.08 0.08 0.06 0.04 0.05 0.06 0.11 0.30 0.25 0.24 0.22 0.19 0.14 0.15 0.16 0.18 0.17 0.16 0.13 0.10 0.08 0.09 0.14 0.12 0.12 0.10 0.08 0.07 0.07 0.07 0.04 0.05 0.05 0.06 0.06 0.05 0.05 0.05 0.05 0.07 0.09 0.10
0.48 0.31 0.20 0.14 0.07 0.08 0.05 0.04 0.05 0.04 0.05 0.09 0.12 0.12 0.07 0.07 0.07 0.13 0.22 0.33 0.25 0.25 0.27 0.26 0.21 0.13 0.12 0.11 0.11 0.11 0.10 0.10 0.07 0.06 0.10 0.06 0.07 0.08 0.07 0.06 0.05 0.06 0.05 0.06 0.10 0.10 0.06 0.04 0.05 0.06 0.07 0.06 0.08 0.13
0.26 0.21 0.08 0.07 0.10 0.15 0.14 0.09 0.09 0.10 0.10 0.13 0.13 0.11 0.16 0.15 0.13 0.28 0.33 0.31 0.29 0.27 0.21 0.18 0.12 0.10 0.11 0.11 0.09 0.07 0.04 0.02 0.01 0.03 0.03 0.03 0.03 0.05 0.09 0.15 0.16 0.14 0.06 0.08 0.11 0.13 0.14 0.11 0.09 0.08 0.10 0.09 0.11 0.17
0.14 0.12 0.14 0.23 0.28 0.25 0.27 0.22 0.21 0.22 0.22 0.22 0.18 0.16 0.17 0.15 0.30 0.44 0.39 0.38 0.38 0.22 0.16 0.10 0.05 0.03 0.04 0.05 0.07 0.07 0.05 0.03 0.01 0.01 0.03 0.07 0.09 0.09 0.09 0.11 0.11 0.08 0.08 0.09 0.10 0.10 0.13 0.16 0.15 0.14 0.14 0.17 0.19 0.20
0.20 0.25 0.24 0.26 0.26 0.23 0.26 0.27 0.25 0.23 0.21 0.23 0.19 0.17 0.18 0.25 0.42 0.38 0.34 0.32 0.25 0.13 0.10 0.11 0.18 0.09 0.06 0.04 0.05 0.06 0.04 0.04 0.04 0.04 0.03 0.07 0.14 0.13 0.07 0.08 0.08 0.07 0.08 0.07 0.06 0.10 0.14 0.17 0.15 0.17 0.23 0.23 0.20 0.18
0.16 0.17 0.18 0.14 0.16 0.19 0.25 0.19 0.19 0.15 0.09 0.10 0.09 0.13 0.17 0.42 0.63 0.40 0.27 0.24 0.21 0.18 0.15 0.12 0.15 0.09 0.10 0.08 0.08 0.11 0.14 0.08 0.09 0.11 0.11 0.11 0.12 0.11 0.08 0.08 0.08 0.08 0.08 0.08 0.07 0.05 0.07 0.07 0.09 0.16 0.12 0.09 0.12 0.14
0.18 0.20 0.18 0.15 0.21 0.24 0.22 0.17 0.16 0.13 0.12 0.10 0.09 0.09 0.24 0.39 0.45 0.39 0.30 0.34 0.23 0.10 0.08 0.10 0.12 0.12 0.11 0.10 0.10 0.09 0.13 0.10 0.08 0.08 0.09 0.09 0.09 0.08 0.07 0.06 0.06 0.07 0.06 0.06 0.06 0.07 0.07 0.07 0.10 0.11 0.07 0.07 0.08 0.08
0.17 0.18 0.14 0.13 0.22 0.20 0.26 0.26 0.17 0.18 0.16 0.11 0.16 0.13 0.20 0.18 0.19 0.26 0.31 0.29 0.24 0.16 0.14 0.13 0.13 0.18 0.15 0.13 0.11 0.11 0.10 0.08 0.06 0.07 0.08 0.09 0.08 0.08 0.06 0.05 0.06 0.06 0.06 0.06 0.07 0.09 0.09 0.08 0.09 0.08 0.09 0.07 0.07 0.06
0.09 0.08 0.08 0.08 0.12 0.15 0.15 0.16 0.10 0.11 0.11 0.13 0.19 0.21 0.20 0.13 0.16 0.24 0.26 0.28 0.35 0.23 0.16 0.15 0.15 0.16 0.15 0.08 0.07 0.07 0.06 0.06 0.06 0.07 0.07 0.08 0.06 0.05 0.04 0.04 0.05 0.05 0.05 0.06 0.07 0.09 0.07 0.07 0.07 0.07 0.06 0.06 0.05 0.05

GFSWCAN_prec_precacc_126.txt.gz
Total_Precipitation_Accumulation
1.53 1.17 1.06 1.05 1.01 0.83 0.79 0.79 0.80 0.78 0.87 0.65 0.53 0.67 0.93 1.10 1.31 1.80 1.59 0.94 1.73 1.70 0.57 0.32 0.28 0.24 0.10 0.21 0.46 0.33 0.69 0.52 0.64 0.42 0.23 0.14 0.13 0.14 0.21 0.20 0.19 0.18 0.40 0.41 0.49 0.47 0.23 0.05 0.15 0.30 0.32 0.15 0.09 0.07
1.74 1.23 1.09 1.00 1.01 0.85 0.74 0.78 0.78 0.76 0.82 0.64 0.50 0.55 0.74 1.17 1.62 2.24 2.24 1.01 1.26 1.71 1.07 0.53 0.30 0.25 0.14 0.16 0.43 0.54 0.40 0.46 0.36 0.48 0.29 0.22 0.22 0.17 0.13 0.43 0.23 0.37 0.14 0.17 0.21 0.23 0.30 0.24 0.26 0.27 0.14 0.18 0.16 0.10
1.82 1.17 0.98 0.85 0.84 0.69 0.64 0.70 0.71 0.76 0.77 0.62 0.63 0.69 0.76 0.99 1.53 2.91 2.33 1.06 3.00 2.83 1.30 0.53 0.36 0.20 0.20 0.10 0.20 0.48 0.40 0.48 0.61 0.56 0.61 0.47 0.32 0.15 0.15 0.22 0.33 0.58 0.47 0.40 0.53 0.64 0.39 0.48 0.36 0.13 0.11 0.21 0.22 0.16
1.72 1.25 0.97 0.81 0.74 0.62 0.68 0.76 0.60 0.69 0.77 0.72 0.77 0.86 0.83 0.98 1.48 2.77 2.51 1.47 2.83 2.33 1.66 0.64 0.32 0.34 0.29 0.20 0.11 0.16 0.23 0.28 0.45 0.68 0.56 0.49 0.30 0.12 0.12 0.23 0.29 0.30 0.57 0.74 0.94 0.81 0.63 0.72 0.72 0.57 0.40 0.18 0.15 0.17
1.56 1.29 1.05 0.79 0.66 0.56 0.59 0.63 0.55 0.61 0.69 0.78 0.84 0.89 1.08 1.23 1.88 2.57 2.02 1.52 1.74 1.90 1.67 0.96 0.34 0.33 0.34 0.35 0.21 0.19 0.26 0.32 0.49 0.83 0.79 0.41 0.26 0.22 0.21 0.47 0.39 0.18 0.44 0.83 1.32 1.04 0.91 0.90 0.50 0.36 0.30 0.27 0.15 0.07
1.40 1.15 0.99 0.63 0.50 0.44 0.49 0.53 0.55 0.64 0.61 0.74 0.86 1.11 1.30 1.72 2.67 3.56 4.93 2.82 1.38 1.81 2.10 1.42 0.73 0.33 0.38 0.47 0.39 0.25 0.28 0.44 0.62 0.70 0.68 0.52 0.34 0.71 0.71 0.67 0.35 0.17 0.22 0.34 0.60 0.92 0.88 0.73 0.47 0.26 0.17 0.09 0.03 0.01
1.15 0.98 0.94 0.62 0.47 0.46 0.56 0.53 0.54 0.59 0.64 0.92 1.16 1.30 1.62 2.34 2.20 1.99 2.36 1.48 1.05 1.91 2.61 1.60 1.23 0.46 0.42 0.63 0.69 0.55 0.54 0.67 0.67 0.75 0.50 0.33 0.38 0.77 1.08 0.81 0.46 0.30 0.31 0.39 0.40 0.47 0.37 0.23 0.15 0.07 0.02 0.01 0.02 0.01
1.03 0.95 0.82 0.61 0.54 0.61 0.62 0.64 0.63 0.69 0.94 1.25 1.53 1.65 2.33 2.80 2.46 1.75 0.82 0.77 0.94 1.96 1.56 1.30 1.35 1.19 0.77 0.81 1.05 0.85 1.02 0.93 0.97 0.78 0.47 0.41 0.50 0.70 0.81 0.28 0.07 0.11 0.15 0.19 0.22 0.19 0.20 0.14 0.05 0.03 0.02 0.03 0.04 0.07
0.78 0.68 0.55 0.54 0.60 0.61 0.64 0.75 0.93 1.20 1.45 1.70 2.01 3.10 4.40 4.01 3.41 1.68 1.15 1.09 1.22 1.74 1.17 0.63 1.08 1.63 1.34 0.99 1.03 1.23 1.03 1.27 0.85 0.59 0.38 0.68 0.71 0.89 0.48 0.08 0.03 0.02 0.02 0.02 0.03 0.05 0.09 0.09 0.07 0.04 0.04 0.06 0.13 0.29
0.64 0.55 0.40 0.49 0.61 0.75 0.89 1.17 1.45 1.75 2.13 2.57 3.58 4.84 5.41 2.89 1.57 1.97 3.26 2.80 2.40 1.57 0.78 0.48 0.65 1.53 1.77 1.52 0.94 1.34 1.34 1.03 1.03 0.51 0.56 0.64 0.74 0.51 0.16 0.05 0.02 0.01 0.00 0.01 0.01 0.02 0.04 0.10 0.13 0.15 0.22 0.29 0.31 0.27
0.73 0.53 0.40 0.48 0.60 0.68 0.80 0.95 1.16 1.57 2.72 3.78 4.30 4.04 3.02 2.16 1.82 2.65 2.95 2.19 1.51 0.76 0.38 0.43 0.50 1.03 1.45 1.51 1.12 1.09 1.36 1.07 0.78 0.80 0.89 0.91 0.52 0.33 0.19 0.11 0.04 0.01 0.01 0.01 0.02 0.03 0.07 0.15 0.31 0.32 0.22 0.16 0.13 0.12
0.83 0.53 0.44 0.45 0.49 0.51 0.56 0.65 0.94 1.57 2.50 2.84 2.85 2.99 3.57 3.16 2.61 2.52 2.04 1.25 0.56 0.42 0.27 0.31 0.37 0.61 1.40 1.70 1.58 1.45 1.49 1.31 0.83 0.80 1.04 0.85 0.52 0.18 0.11 0.10 0.07 0.05 0.05 0.06 0.12 0.19 0.23 0.26 0.23 0.18 0.15 0.15 0.17 0.18
0.91 0.60 0.48 0.50 0.50 0.60 0.65 0.76 0.94 1.23 2.00 2.42 2.48 2.97 3.33 2.90 2.42 1.70 1.04 0.58 0.38 0.49 0.22 0.33 0.39 0.62 0.95 1.52 2.02 1.31 1.50 1.68 1.05 1.03 0.88 0.58 0.40 0.28 0.31 0.30 0.33 0.32 0.29 0.27 0.21 0.17 0.15 0.13 0.10 0.11 0.15 0.21 0.24 0.32
0.78 0.47 0.50 0.56 0.66 0.84 0.81 0.97 1.20 1.76 1.99 2.25 2.44 2.49 2.21 1.86 1.33 0.96 0.58 0.38 0.35 0.30 0.26 0.59 0.36 0.53 0.75 1.16 1.73 1.50 1.52 1.27 1.47 0.89 0.65 0.65 0.74 0.71 0.47 0.36 0.33 0.41 0.43 0.43 0.44 0.41 0.41 0.41 0.48 0.55 0.62 0.73 0.68 0.88
0.59 0.50 0.62 0.71 0.73 0.73 1.03 1.23 1.18 1.29 1.47 1.48 1.43 1.38 1.13 1.21 1.00 0.84 0.71 0.58 0.54 0.48 0.58 0.82 0.86 0.88 0.99 1.31 1.17 0.96 0.92 0.81 0.66 0.73 0.71 0.72 0.77 0.60 0.49 0.51 0.54 0.60 0.62 0.61 0.62 0.62 0.72 0.75 0.68 0.84 0.96 0.93 0.78 0.79
0.96 0.99 0.85 0.76 0.79 0.83 0.89 1.02 1.13 1.17 0.91 0.80 0.84 1.05 0.99 0.88 0.87 0.79 0.80 0.82 0.78 0.80 0.82 0.94 0.94 0.79 0.87 0.76 0.59 0.55 0.54 0.62 0.75 0.61 0.50 0.49 0.53 0.58 0.64 0.67 0.78 0.78 0.68 0.63 0.64 0.60 0.60 0.62 0.57 0.63 0.68 0.65 0.67 0.55
1.21 0.92 0.91 0.71 0.69 0.68 0.67 0.67 0.76 0.76 0.69 0.56 0.86 0.95 0.89 0.78 0.83 0.87 0.81 0.80 0.79 0.69 0.67 0.58 0.51 0.52 0.47 0.39 0.52 0.55 0.69 0.69 0.59 0.65 0.71 0.67 0.70 0.76 0.74 0.78 0.82 0.78 0.70 0.64 0.60 0.58 0.61 0.61 0.45 0.31 0.40 0.57 0.45 0.42
1.26 0.73 0.56 0.51 0.54 0.57 0.59 0.46 0.32 0.23 0.35 0.64 0.72 1.03 0.78 0.87 0.87 0.78 0.76 0.62 0.58 0.45 0.41 0.44 0.36 0.30 0.43 0.48 0.62 0.69 0.72 0.73 0.76 0.77 0.78 0.82 0.79 0.80 0.81 0.82 0.83 0.75 0.65 0.61 0.53 0.53 0.54 0.49 0.38 0.44 0.39 0.38 0.26 0.25
1.24 0.82 0.60 0.60 0.39 0.28 0.31 0.20 0.08 0.23 0.53 0.61 0.73 0.65 0.49 0.58 0.59 0.56 0.43 0.38 0.41 0.34 0.31 0.34 0.38 0.48 0.62 0.66 0.76 0.73 0.76 0.76 0.80 0.76 0.72 0.77 0.76 0.78 0.80 0.75 0.69 0.64 0.50 0.50 0.42 0.40 0.42 0.38 0.37 0.32 0.27 0.18 0.17 0.17
1.21 0.92 0.66 0.40 0.17 0.15 0.15 0.08 0.01 0.11 0.33 0.42 0.38 0.24 0.21 0.30 0.21 0.12 0.09 0.09 0.14 0.28 0.41 0.42 0.71 0.85 0.84 0.91 0.83 0.77 0.79 0.72 0.48 0.45 0.61 0.72 0.79 0.64 0.70 0.63 0.57 0.53 0.40 0.39 0.36 0.34 0.26 0.20 0.19 0.18 0.16 0.17 0.16 0.17
1.16 1.08 0.81 0.47 0.23 0.20 0.18 0.04 0.07 0.08 0.16 0.26 0.19 0.05 0.08 0.05 0.05 0.05 0.03 0.01 0.10 0.24 0.57 0.72 0.71 0.74 0.67 0.71 0.63 0.53 0.52 0.42 0.38 0.34 0.43 0.53 0.64 0.48 0.49 0.52 0.47 0.42 0.34 0.34 0.27 0.27 0.21 0.22 0.23 0.17 0.16 0.13 0.12 0.11
0.77 0.86 0.87 0.56 0.36 0.14 0.16 0.04 0.06 0.04 0.03 0.07 0.06 0.03 0.06 0.10 0.08 0.06 0.02 0.07 0.31 0.54 0.59 0.52 0.51 0.43 0.35 0.42 0.52 0.50 0.58 0.43 0.36 0.32 0.34 0.32 0.37 0.37 0.41 0.46 0.32 0.31 0.29 0.29 0.23 0.20 0.17 0.14 0.12 0.11 0.09 0.09 0.09 0.08
0.39 0.49 0.53 0.49 0.37 0.16 0.21 0.11 0.06 0.03 0.04 0.06 0.07 0.04 0.05 0.06 0.06 0.02 0.07 0.17 0.44 0.52 0.39 0.30 0.29 0.25 0.26 0.34 0.22 0.21 0.26 0.25 0.33 0.40 0.39 0.34 0.32 0.33 0.28 0.29 0.27 0.23 0.20 0.20 0.16 0.14 0.13 0.10 0.07 0.07 0.06 0.06 0.06 0.06
0.35 0.52 0.56 0.44 0.26 0.19 0.14 0.23 0.14 0.07 0.05 0.06 0.06 0.08 0.07 0.06 0.04 0.04 0.12 0.23 0.40 0.28 0.18 0.19 0.19 0.16 0.12 0.10 0.11 0.15 0.17 0.12 0.15 0.18 0.23 0.16 0.14 0.19 0.16 0.15 0.14 0.15 0.15 0.12 0.09 0.06 0.05 0.05 0.05 0.05 0.04 0.05 0.06 0.09
0.53 0.44 0.42 0.31 0.16 0.08 0.06 0.12 0.18 0.08 0.06 0.05 0.08 0.08 0.06 0.04 0.05 0.07 0.12 0.30 0.25 0.24 0.22 0.19 0.14 0.15 0.16 0.18 0.17 0.16 0.13 0.10 0.08 0.09 0.14 0.12 0.12 0.10 0.08 0.07 0.07 0.07 0.04 0.05 0.05 0.06 0.06 0.05 0.05 0.05 0.05 0.07 0.09 0.10
0.48 0.31 0.20 0.14 0.07 0.08 0.05 0.04 0.05 0.05 0.05 0.09 0.12 0.12 0.07 0.08 0.07 0.13 0.22 0.33 0.26 0.26 0.28 0.26 0.22 0.13 0.13 0.12 0.11 0.12 0.10 0.10 0.07 0.06 0.10 0.06 0.07 0.08 0.07 0.06 0.05 0.06 0.05 0.06 0.10 0.10 0.06 0.04 0.06 0.06 0.08 0.07 0.08 0.13
0.26 0.21 0.09 0.07 0.10 0.15 0.14 0.09 0.09 0.10 0.10 0.13 0.13 0.11 0.17 0.15 0.13 0.29 0.33 0.32 0.29 0.27 0.21 0.19 0.13 0.10 0.12 0.12 0.10 0.08 0.05 0.02 0.02 0.03 0.03 0.03 0.03 0.05 0.09 0.15 0.16 0.14 0.06 0.08 0.11 0.13 0.14 0.12 0.10 0.08 0.10 0.10 0.11 0.17
0.14 0.12 0.14 0.23 0.28 0.26 0.27 0.23 0.21 0.23 0.22 0.22 0.18 0.16 0.17 0.15 0.30 0.45 0.40 0.39 0.39 0.23 0.16 0.11 0.05 0.04 0.04 0.06 0.07 0.08 0.06 0.04 0.02 0.02 0.03 0.08 0.09 0.09 0.09 0.11 0.11 0.08 0.08 0.09 0.10 0.10 0.13 0.16 0.15 0.14 0.15 0.17 0.19 0.20
0.20 0.25 0.24 0.26 0.26 0.24 0.27 0.27 0.25 0.23 0.21 0.23 0.20 0.17 0.18 0.25 0.43 0.40 0.35 0.33 0.25 0.13 0.10 0.11 0.18 0.10 0.07 0.04 0.06 0.07 0.06 0.05 0.05 0.05 0.05 0.08 0.16 0.15 0.09 0.08 0.08 0.07 0.08 0.07 0.06 0.10 0.14 0.17 0.15 0.17 0.23 0.23 0.20 0.18
0.16 0.17 0.18 0.14 0.17 0.19 0.25 0.19 0.19 0.16 0.10 0.11 0.10 0.13 0.17 0.42 0.63 0.40 0.27 0.24 0.22 0.18 0.15 0.13 0.15 0.10 0.11 0.09 0.09 0.12 0.15 0.09 0.10 0.12 0.12 0.12 0.13 0.12 0.09 0.08 0.08 0.08 0.08 0.08 0.07 0.06 0.07 0.07 0.09 0.16 0.12 0.09 0.12 0.14
0.19 0.22 0.19 0.16 0.22 0.24 0.23 0.18 0.16 0.14 0.13 0.11 0.10 0.11 0.25 0.40 0.46 0.40 0.31 0.35 0.24 0.11 0.09 0.11 0.13 0.14 0.12 0.12 0.11 0.10 0.14 0.11 0.09 0.09 0.09 0.10 0.09 0.08 0.07 0.06 0.06 0.07 0.06 0.06 0.06 0.07 0.07 0.07 0.10 0.11 0.07 0.07 0.08 0.08
0.21 0.22 0.16 0.15 0.23 0.21 0.28 0.27 0.18 0.18 0.16 0.11 0.16 0.14 0.20 0.19 0.20 0.27 0.32 0.31 0.26 0.18 0.16 0.16 0.15 0.20 0.18 0.15 0.13 0.11 0.10 0.09 0.07 0.07 0.08 0.09 0.08 0.08 0.06 0.05 0.06 0.06 0.06 0.06 0.07 0.09 0.09 0.08 0.09 0.08 0.09 0.07 0.07 0.06
0.12 0.10 0.10 0.10 0.13 0.16 0.17 0.18 0.12 0.13 0.13 0.14 0.21 0.23 0.21 0.15 0.17 0.27 0.29 0.32 0.39 0.27 0.20 0.18 0.18 0.19 0.17 0.09 0.07 0.07 0.06 0.07 0.06 0.07 0.07 0.08 0.06 0.05 0.04 0.04 0.05 0.05 0.05 0.06 0.07 0.09 0.07 0.07 0.07 0.07 0.06 0.06 0.05 0.05

GFSWCAN_prec_precacc_132.txt.gz
Total_Precipitation_Accumulation
1.57 1.31 1.24 1.24 1.05 0.87 0.82 0.82 0.81 0.78 0.88 0.71 0.60 0.73 0.95 1.12 1.31 1.80 1.60 0.96 1.76 1.72 0.58 0.32 0.28 0.24 0.10 0.21 0.46 0.33 0.69 0.52 0.64 0.42 0.23 0.14 0.14 0.14 0.21 0.20 0.19 0.18 0.41 0.43 0.50 0.51 0.29 0.05 0.16 0.32 0.33 0.15 0.09 0.07
1.82 1.37 1.25 1.22 1.06 0.91 0.78 0.80 0.78 0.76 0.82 0.66 0.53 0.57 0.75 1.17 1.62 2.24 2.26 1.04 1.27 1.72 1.08 0.53 0.30 0.25 0.14 0.16 0.43 0.54 0.40 0.46 0.36 0.48 0.29 0.23 0.22 0.18 0.13 0.44 0.23 0.37 0.15 0.19 0.22 0.26 0.31 0.24 0.27 0.27 0.14 0.18 0.16 0.10
1.97 1.35 1.11 1.07 0.89 0.74 0.69 0.71 0.71 0.76 0.78 0.64 0.64 0.70 0.76 0.99 1.53 2.91 2.33 1.06 3.00 2.83 1.30 0.53 0.36 0.20 0.20 0.10 0.20 0.48 0.40 0.48 0.61 0.56 0.61 0.48 0.32 0.15 0.15 0.23 0.33 0.58 0.47 0.40 0.53 0.64 0.39 0.48 0.36 0.13 0.11 0.21 0.22 0.16
1.91 1.49 1.09 0.94 0.79 0.66 0.74 0.77 0.60 0.69 0.78 0.72 0.77 0.86 0.83 0.98 1.49 2.79 2.51 1.47 2.83 2.33 1.66 0.65 0.32 0.34 0.29 0.20 0.11 0.16 0.23 0.28 0.45 0.68 0.56 0.49 0.30 0.12 0.12 0.23 0.30 0.30 0.57 0.74 0.94 0.81 0.63 0.72 0.73 0.57 0.40 0.18 0.15 0.17
1.82 1.53 1.13 0.84 0.74 0.60 0.66 0.65 0.55 0.61 0.70 0.78 0.84 0.89 1.08 1.23 1.88 2.57 2.02 1.52 1.74 1.90 1.67 0.97 0.34 0.33 0.34 0.35 0.21 0.19 0.26 0.32 0.49 0.83 0.79 0.41 0.26 0.22 0.21 0.47 0.40 0.18 0.44 0.83 1.32 1.04 0.91 0.90 0.50 0.36 0.31 0.27 0.15 0.07
1.72 1.36 1.03 0.67 0.57 0.48 0.53 0.54 0.55 0.64 0.61 0.74 0.86 1.11 1.30 1.72 2.67 3.57 4.94 2.82 1.38 1.81 2.11 1.43 0.74 0.33 0.38 0.47 0.39 0.25 0.28 0.44 0.62 0.70 0.68 0.52 0.34 0.71 0.72 0.68 0.36 0.17 0.22 0.34 0.60 0.92 0.88 0.73 0.47 0.26 0.17 0.09 0.03 0.01
1.53 1.13 0.95 0.68 0.54 0.48 0.58 0.53 0.54 0.60 0.65 0.92 1.16 1.30 1.62 2.34 2.20 1.99 2.37 1.48 1.05 1.91 2.61 1.61 1.24 0.47 0.42 0.63 0.69 0.55 0.54 0.67 0.67 0.75 0.50 0.33 0.38 0.77 1.08 0.82 0.46 0.30 0.31 0.39 0.40 0.47 0.37 0.23 0.15 0.07 0.02 0.01 0.02 0.01
1.37 1.00 0.84 0.65 0.59 0.62 0.63 0.64 0.64 0.71 0.94 1.25 1.53 1.65 2.33 2.80 2.46 1.75 0.82 0.77 0.94 1.96 1.56 1.30 1.37 1.20 0.77 0.81 1.05 0.85 1.02 0.93 0.97 0.78 0.47 0.41 0.50 0.70 0.81 0.28 0.07 0.11 0.15 0.19 0.22 0.19 0.20 0.14 0.05 0.03 0.02 0.03 0.04 0.07
0.95 0.68 0.56 0.56 0.62 0.62 0.64 0.76 0.96 1.22 1.45 1.70 2.01 3.10 4.40 4.01 3.41 1.68 1.15 1.09 1.22 1.75 1.17 0.64 1.08 1.64 1.34 1.00 1.03 1.23 1.03 1.27 0.85 0.59 0.38 0.68 0.72 0.89 0.48 0.08 0.03 0.02 0.02 0.02 0.03 0.05 0.09 0.09 0.07 0.04 0.04 0.06 0.13 0.29
0.68 0.55 0.41 0.50 0.61 0.75 0.89 1.21 1.51 1.76 2.13 2.57 3.58 4.84 5.42 2.89 1.57 1.97 3.26 2.80 2.40 1.57 0.78 0.49 0.65 1.54 1.77 1.52 0.94 1.34 1.34 1.03 1.03 0.51 0.56 0.64 0.74 0.51 0.16 0.05 0.02 0.01 0.00 0.01 0.01 0.02 0.04 0.10 0.13 0.15 0.22 0.29 0.31 0.27
0.74 0.54 0.41 0.48 0.60 0.68 0.82 1.04 1.18 1.57 2.73 3.78 4.30 4.04 3.02 2.16 1.82 2.65 2.95 2.19 1.51 0.76 0.38 0.43 0.51 1.04 1.46 1.51 1.12 1.09 1.36 1.07 0.78 0.80 0.90 0.91 0.53 0.33 0.19 0.11 0.04 0.01 0.01 0.01 0.02 0.03 0.07 0.15 0.31 0.32 0.22 0.16 0.13 0.12
0.86 0.56 0.46 0.47 0.49 0.52 0.58 0.66 0.94 1.57 2.51 2.84 2.85 3.00 3.57 3.16 2.61 2.52 2.04 1.25 0.56 0.42 0.27 0.31 0.37 0.62 1.40 1.70 1.58 1.45 1.49 1.31 0.83 0.80 1.04 0.85 0.53 0.18 0.11 0.10 0.07 0.05 0.05 0.06 0.12 0.19 0.23 0.26 0.23 0.18 0.15 0.15 0.17 0.18
0.94 0.63 0.51 0.51 0.50 0.61 0.65 0.77 0.94 1.23 2.00 2.42 2.48 2.97 3.33 2.90 2.42 1.70 1.04 0.58 0.38 0.49 0.22 0.33 0.39 0.62 0.95 1.52 2.02 1.31 1.51 1.69 1.05 1.04 0.88 0.59 0.40 0.28 0.31 0.30 0.33 0.32 0.29 0.27 0.21 0.17 0.15 0.13 0.10 0.11 0.15 0.21 0.24 0.32
0.82 0.50 0.51 0.57 0.67 0.84 0.82 0.98 1.21 1.76 1.99 2.26 2.45 2.49 2.22 1.86 1.33 0.96 0.59 0.38 0.35 0.30 0.27 0.60 0.36 0.54 0.76 1.16 1.73 1.50 1.52 1.27 1.48 0.89 0.65 0.65 0.74 0.71 0.47 0.36 0.33 0.41 0.43 0.43 0.44 0.41 0.41 0.41 0.48 0.55 0.62 0.73 0.68 0.88
0.63 0.52 0.64 0.72 0.73 0.73 1.03 1.23 1.18 1.29 1.48 1.48 1.44 1.39 1.13 1.22 1.00 0.84 0.72 0.59 0.54 0.48 0.59 0.82 0.86 0.88 0.99 1.31 1.17 0.96 0.92 0.81 0.66 0.73 0.72 0.72 0.77 0.60 0.49 0.51 0.54 0.60 0.62 0.61 0.62 0.62 0.72 0.75 0.68 0.84 0.96 0.93 0.78 0.79
1.00 1.02 0.87 0.76 0.79 0.83 0.89 1.02 1.14 1.17 0.91 0.80 0.85 1.06 1.01 0.90 0.88 0.81 0.82 0.83 0.79 0.82 0.84 0.94 0.94 0.79 0.87 0.76 0.59 0.55 0.54 0.62 0.75 0.62 0.50 0.49 0.53 0.58 0.64 0.67 0.78 0.78 0.68 0.63 0.64 0.60 0.60 0.62 0.57 0.63 0.68 0.65 0.67 0.55
1.23 0.98 0.92 0.71 0.69 0.68 0.67 0.67 0.76 0.76 0.69 0.56 0.87 0.96 0.92 0.81 0.85 0.88 0.82 0.80 0.80 0.70 0.68 0.58 0.51 0.52 0.47 0.39 0.52 0.55 0.70 0.70 0.59 0.65 0.71 0.67 0.70 0.76 0.74 0.78 0.82 0.78 0.70 0.64 0.60 0.58 0.61 0.61 0.45 0.31 0.40 0.57 0.45 0.42
1.27 0.74 0.56 0.51 0.54 0.57 0.59 0.46 0.32 0.23 0.36 0.66 0.75 1.05 0.79 0.88 0.88 0.79 0.76 0.62 0.61 0.48 0.42 0.44 0.36 0.30 0.43 0.48 0.62 0.69 0.72 0.73 0.76 0.77 0.78 0.82 0.79 0.80 0.81 0.82 0.83 0.75 0.65 0.61 0.53 0.53 0.54 0.49 0.38 0.44 0.39 0.38 0.26 0.25
1.25 0.82 0.60 0.60 0.39 0.29 0.31 0.20 0.08 0.23 0.54 0.62 0.75 0.67 0.51 0.59 0.60 0.57 0.43 0.39 0.46 0.35 0.31 0.34 0.39 0.48 0.62 0.68 0.78 0.74 0.76 0.77 0.80 0.76 0.72 0.77 0.76 0.78 0.80 0.75 0.69 0.64 0.50 0.50 0.42 0.40 0.42 0.38 0.37 0.32 0.27 0.18 0.17 0.17
1.21 0.92 0.66 0.40 0.17 0.15 0.15 0.08 0.01 0.12 0.35 0.43 0.39 0.25 0.21 0.31 0.23 0.13 0.10 0.09 0.15 0.31 0.43 0.44 0.74 0.87 0.85 0.92 0.84 0.78 0.79 0.72 0.48 0.45 0.61 0.72 0.79 0.64 0.70 0.63 0.57 0.53 0.40 0.39 0.36 0.34 0.26 0.20 0.19 0.18 0.16 0.17 0.16 0.17
1.16 1.08 0.81 0.47 0.23 0.20 0.18 0.04 0.07 0.08 0.16 0.26 0.20 0.05 0.09 0.06 0.07 0.07 0.04 0.02 0.13 0.29 0.62 0.73 0.71 0.74 0.67 0.71 0.63 0.53 0.52 0.42 0.38 0.34 0.43 0.53 0.64 0.48 0.49 0.52 0.47 0.42 0.34 0.34 0.27 0.27 0.21 0.22 0.23 0.17 0.16 0.13 0.12 0.12
0.77 0.86 0.87 0.56 0.36 0.14 0.16 0.04 0.06 0.04 0.03 0.07 0.06 0.03 0.07 0.10 0.08 0.06 0.02 0.08 0.35 0.55 0.60 0.52 0.51 0.43 0.35 0.42 0.52 0.50 0.58 0.43 0.36 0.32 0.34 0.32 0.37 0.37 0.41 0.46 0.32 0.31 0.29 0.29 0.23 0.20 0.17 0.14 0.12 0.11 0.09 0.09 0.09 0.09
0.39 0.49 0.53 0.49 0.37 0.16 0.21 0.11 0.06 0.03 0.04 0.06 0.07 0.04 0.05 0.06 0.06 0.02 0.08 0.17 0.44 0.52 0.39 0.30 0.29 0.25 0.26 0.34 0.22 0.21 0.26 0.25 0.33 0.40 0.39 0.34 0.32 0.33 0.28 0.29 0.27 0.23 0.20 0.20 0.17 0.15 0.13 0.10 0.07 0.07 0.07 0.07 0.07 0.08
0.35 0.52 0.56 0.44 0.26 0.19 0.14 0.23 0.14 0.07 0.05 0.06 0.06 0.08 0.07 0.06 0.04 0.04 0.12 0.24 0.41 0.28 0.18 0.19 0.19 0.16 0.12 0.10 0.11 0.15 0.17 0.12 0.15 0.18 0.23 0.16 0.14 0.19 0.16 0.15 0.14 0.15 0.15 0.12 0.09 0.08 0.06 0.06 0.05 0.06 0.05 0.06 0.08 0.11
0.53 0.44 0.42 0.31 0.16 0.09 0.07 0.13 0.19 0.08 0.06 0.05 0.08 0.09 0.07 0.04 0.06 0.07 0.12 0.30 0.25 0.24 0.22 0.20 0.14 0.15 0.16 0.18 0.18 0.16 0.13 0.10 0.08 0.09 0.14 0.12 0.12 0.10 0.08 0.07 0.07 0.07 0.04 0.06 0.07 0.08 0.07 0.06 0.06 0.07 0.06 0.09 0.11 0.14
0.48 0.31 0.20 0.14 0.07 0.08 0.05 0.06 0.07 0.05 0.05 0.10 0.12 0.12 0.08 0.08 0.07 0.14 0.23 0.34 0.27 0.27 0.28 0.27 0.22 0.14 0.14 0.12 0.12 0.12 0.10 0.10 0.07 0.06 0.10 0.06 0.07 0.09 0.08 0.07 0.06 0.07 0.06 0.08 0.11 0.11 0.07 0.05 0.07 0.08 0.10 0.09 0.10 0.14
0.26 0.21 0.09 0.07 0.10 0.15 0.14 0.10 0.10 0.11 0.11 0.15 0.14 0.12 0.18 0.16 0.14 0.29 0.34 0.32 0.29 0.27 0.21 0.19 0.13 0.11 0.13 0.12 0.10 0.08 0.05 0.02 0.03 0.04 0.03 0.03 0.03 0.05 0.11 0.18 0.19 0.15 0.07 0.09 0.12 0.14 0.15 0.13 0.12 0.11 0.12 0.12 0.13 0.19
0.14 0.12 0.14 0.23 0.29 0.26 0.28 0.23 0.22 0.24 0.25 0.25 0.21 0.17 0.19 0.17 0.32 0.46 0.42 0.39 0.39 0.23 0.16 0.11 0.06 0.04 0.05 0.06 0.07 0.08 0.06 0.05 0.03 0.02 0.03 0.08 0.10 0.10 0.10 0.12 0.12 0.09 0.09 0.11 0.13 0.14 0.16 0.18 0.16 0.15 0.15 0.17 0.20 0.21
0.20 0.25 0.24 0.27 0.27 0.24 0.27 0.29 0.29 0.24 0.22 0.24 0.23 0.23 0.19 0.25 0.44 0.41 0.35 0.33 0.26 0.14 0.12 0.13 0.19 0.11 0.07 0.05 0.06 0.08 0.07 0.07 0.08 0.08 0.07 0.10 0.18 0.18 0.12 0.11 0.10 0.09 0.10 0.08 0.07 0.11 0.15 0.18 0.16 0.18 0.23 0.23 0.20 0.18
0.17 0.18 0.18 0.14 0.17 0.20 0.27 0.20 0.20 0.16 0.10 0.11 0.10 0.14 0.17 0.43 0.64 0.41 0.28 0.25 0.23 0.20 0.16 0.14 0.16 0.12 0.14 0.11 0.11 0.14 0.16 0.10 0.11 0.16 0.16 0.14 0.15 0.15 0.12 0.11 0.09 0.08 0.09 0.08 0.08 0.06 0.07 0.07 0.09 0.16 0.12 0.09 0.12 0.14
0.20 0.22 0.20 0.16 0.23 0.25 0.23 0.18 0.17 0.14 0.13 0.11 0.10 0.13 0.28 0.41 0.47 0.41 0.31 0.36 0.25 0.12 0.11 0.13 0.14 0.16 0.16 0.16 0.16 0.13 0.16 0.13 0.11 0.10 0.10 0.11 0.12 0.11 0.09 0.06 0.06 0.07 0.06 0.06 0.06 0.07 0.07 0.07 0.10 0.11 0.07 0.07 0.08 0.08
0.24 0.26 0.19 0.17 0.25 0.22 0.28 0.28 0.19 0.20 0.18 0.13 0.18 0.15 0.22 0.21 0.24 0.28 0.33 0.32 0.29 0.19 0.18 0.18 0.17 0.24 0.22 0.19 0.16 0.14 0.12 0.12 0.09 0.09 0.10 0.10 0.09 0.09 0.06 0.05 0.06 0.06 0.06 0.06 0.07 0.09 0.09 0.08 0.09 0.08 0.09 0.07 0.07 0.06
0.15 0.13 0.13 0.12 0.15 0.19 0.19 0.20 0.14 0.15 0.14 0.16 0.23 0.24 0.24 0.18 0.20 0.28 0.30 0.34 0.42 0.30 0.23 0.22 0.22 0.24 0.21 0.14 0.11 0.11 0.09 0.09 0.09 0.09 0.08 0.08 0.06 0.05 0.04 0.04 0.05 0.05 0.05 0.06 0.07 0.09 0.07 0.07 0.07 0.07 0.06 0.06 0.05 0.05

GFSWCAN_prec_precacc_138.txt.gz
Total_Precipitation_Accumulation
1.58 1.32 1.25 1.27 1.18 1.00 0.89 0.88 0.84 0.79 0.91 0.75 0.67 0.80 1.00 1.22 1.43 1.84 1.64 1.00 1.86 1.79 0.61 0.35 0.30 0.26 0.13 0.23 0.47 0.35 0.72 0.55 0.64 0.42 0.24 0.14 0.14 0.14 0.22 0.20 0.19 0.19 0.41 0.43 0.51 0.52 0.31 0.05 0.16 0.32 0.33 0.15 0.09 0.07
1.83 1.39 1.26 1.26 1.20 1.07 0.89 0.86 0.80 0.76 0.84 0.69 0.58 0.62 0.82 1.26 1.69 2.30 2.39 1.17 1.41 1.77 1.14 0.55 0.31 0.26 0.14 0.17 0.44 0.55 0.41 0.46 0.36 0.48 0.29 0.23 0.23 0.18 0.14 0.44 0.24 0.37 0.15 0.20 0.22 0.26 0.31 0.24 0.27 0.27 0.14 0.18 0.16 0.10
1.98 1.37 1.15 1.16 1.05 0.86 0.80 0.77 0.72 0.76 0.78 0.65 0.68 0.73 0.83 1.06 1.58 3.07 2.62 1.31 3.11 2.85 1.39 0.61 0.40 0.21 0.20 0.11 0.21 0.50 0.41 0.48 0.61 0.56 0.62 0.48 0.33 0.15 0.16 0.23 0.33 0.58 0.47 0.40 0.53 0.64 0.39 0.48 0.36 0.13 0.11 0.21 0.22 0.16
1.93 1.52 1.15 1.13 0.97 0.74 0.79 0.79 0.61 0.69 0.79 0.74 0.83 0.91 0.87 1.04 1.58 2.95 2.73 1.57 2.84 2.33 1.76 0.76 0.32 0.34 0.29 0.20 0.11 0.16 0.23 0.28 0.45 0.69 0.57 0.49 0.30 0.12 0.12 0.24 0.30 0.30 0.57 0.74 0.94 0.81 0.63 0.72 0.73 0.57 0.40 0.18 0.15 0.17
1.84 1.58 1.28 1.06 0.94 0.69 0.69 0.66 0.55 0.62 0.71 0.80 0.92 0.90 1.13 1.31 2.01 2.73 2.10 1.53 1.74 1.90 1.70 0.99 0.34 0.33 0.34 0.35 0.21 0.19 0.26 0.32 0.49 0.83 0.79 0.41 0.26 0.22 0.21 0.47 0.40 0.18 0.44 0.83 1.32 1.04 0.91 0.90 0.50 0.36 0.31 0.27 0.15 0.07
1.74 1.44 1.22 0.89 0.79 0.56 0.56 0.54 0.55 0.65 0.62 0.78 0.87 1.15 1.39 1.83 2.81 3.67 4.96 2.82 1.38 1.81 2.11 1.43 0.74 0.33 0.38 0.47 0.39 0.25 0.28 0.44 0.62 0.70 0.68 0.52 0.34 0.72 0.72 0.68 0.36 0.17 0.22 0.34 0.60 0.92 0.88 0.73 0.47 0.26 0.17 0.09 0.03 0.01
1.56 1.27 1.16 0.89 0.73 0.53 0.59 0.53 0.54 0.60 0.68 0.94 1.17 1.33 1.66 2.37 2.21 1.99 2.37 1.48 1.05 1.91 2.61 1.61 1.24 0.47 0.42 0.63 0.69 0.55 0.54 0.67 0.67 0.75 0.50 0.33 0.38 0.77 1.08 0.82 0.46 0.30 0.31 0.39 0.40 0.47 0.37 0.23 0.15 0.07 0.02 0.01 0.02 0.01
1.47 1.25 1.04 0.85 0.69 0.63 0.63 0.64 0.64 0.72 1.00 1.26 1.53 1.66 2.34 2.80 2.46 1.75 0.82 0.77 0.94 1.97 1.56 1.31 1.38 1.20 0.77 0.81 1.05 0.85 1.02 0.93 0.97 0.78 0.47 0.41 0.50 0.70 0.81 0.28 0.07 0.11 0.15 0.19 0.22 0.19 0.20 0.14 0.05 0.03 0.02 0.03 0.04 0.07
1.18 0.95 0.76 0.68 0.66 0.62 0.64 0.76 0.97 1.28 1.48 1.70 2.01 3.10 4.40 4.01 3.41 1.68 1.15 1.09 1.22 1.75 1.18 0.64 1.09 1.65 1.34 1.00 1.03 1.23 1.03 1.27 0.85 0.59 0.38 0.68 0.72 0.89 0.48 0.08 0.03 0.02 0.02 0.02 0.03 0.05 0.09 0.09 0.07 0.04 0.04 0.06 0.13 0.29
0.96 0.73 0.53 0.57 0.63 0.76 0.89 1.21 1.53 1.81 2.13 2.57 3.58 4.84 5.42 2.89 1.57 1.97 3.26 2.80 2.40 1.57 0.78 0.49 0.65 1.54 1.77 1.52 0.94 1.34 1.34 1.03 1.03 0.51 0.56 0.64 0.74 0.51 0.16 0.05 0.02 0.01 0.00 0.01 0.01 0.02 0.04 0.10 0.13 0.15 0.22 0.29 0.31 0.27
0.90 0.61 0.47 0.52 0.61 0.68 0.83 1.04 1.19 1.58 2.73 3.78 4.30 4.04 3.02 2.16 1.82 2.65 2.95 2.19 1.51 0.76 0.38 0.44 0.51 1.04 1.46 1.51 1.12 1.09 1.36 1.07 0.78 0.80 0.90 0.91 0.53 0.33 0.19 0.11 0.04 0.01 0.01 0.01 0.02 0.03 0.07 0.15 0.31 0.32 0.22 0.16 0.13 0.12
0.92 0.61 0.49 0.48 0.50 0.53 0.60 0.67 0.94 1.58 2.51 2.84 2.85 3.00 3.57 3.16 2.61 2.52 2.04 1.25 0.56 0.42 0.27 0.31 0.37 0.62 1.40 1.70 1.58 1.45 1.49 1.31 0.84 0.80 1.04 0.85 0.53 0.18 0.11 0.10 0.07 0.05 0.05 0.06 0.12 0.19 0.23 0.26 0.23 0.18 0.15 0.15 0.17 0.18
0.97 0.65 0.53 0.52 0.52 0.63 0.67 0.77 0.94 1.23 2.00 2.42 2.49 2.97 3.33 2.90 2.42 1.70 1.04 0.58 0.38 0.49 0.22 0.33 0.39 0.62 0.95 1.52 2.02 1.31 1.51 1.69 1.05 1.04 0.88 0.59 0.40 0.28 0.31 0.30 0.33 0.32 0.29 0.27 0.21 0.17 0.15 0.13 0.10 0.11 0.15 0.21 0.24 0.32
0.83 0.51 0.53 0.58 0.68 0.85 0.82 0.98 1.21 1.76 1.99 2.26 2.45 2.49 2.22 1.86 1.33 0.96 0.59 0.38 0.35 0.30 0.27 0.60 0.36 0.54 0.76 1.16 1.73 1.50 1.52 1.27 1.48 0.89 0.65 0.65 0.74 0.71 0.47 0.36 0.33 0.41 0.43 0.43 0.44 0.41 0.41 0.41 0.48 0.55 0.62 0.73 0.68 0.88
0.63 0.53 0.65 0.73 0.74 0.74 1.03 1.23 1.18 1.29 1.48 1.48 1.44 1.39 1.13 1.22 1.00 0.84 0.72 0.59 0.54 0.49 0.59 0.83 0.86 0.88 0.99 1.31 1.17 0.96 0.92 0.81 0.66 0.74 0.72 0.72 0.77 0.60 0.49 0.51 0.54 0.60 0.62 0.61 0.62 0.62 0.72 0.75 0.68 0.84 0.96 0.93 0.78 0.79
1.01 1.04 0.88 0.76 0.79 0.83 0.89 1.02 1.14 1.17 0.91 0.80 0.85 1.07 1.01 0.90 0.88 0.81 0.82 0.83 0.79 0.83 0.84 0.94 0.94 0.79 0.87 0.76 0.59 0.55 0.54 0.62 0.75 0.62 0.50 0.49 0.53 0.58 0.64 0.67 0.78 0.78 0.68 0.63 0.64 0.60 0.60 0.62 0.57 0.63 0.68 0.65 0.67 0.55
1.24 0.99 0.93 0.71 0.69 0.68 0.67 0.67 0.76 0.76 0.69 0.57 0.87 0.97 0.93 0.82 0.85 0.88 0.82 0.80 0.80 0.71 0.69 0.58 0.51 0.52 0.47 0.39 0.52 0.55 0.70 0.70 0.59 0.65 0.71 0.67 0.70 0.76 0.74 0.78 0.82 0.78 0.70 0.64 0.60 0.58 0.61 0.61 0.45 0.31 0.40 0.57 0.45 0.42
1.27 0.74 0.56 0.51 0.54 0.57 0.59 0.46 0.32 0.23 0.37 0.68 0.77 1.07 0.79 0.89 0.88 0.79 0.76 0.62 0.61 0.49 0.42 0.44 0.36 0.30 0.43 0.48 0.62 0.69 0.72 0.73 0.76 0.77 0.78 0.82 0.79 0.80 0.81 0.82 0.84 0.75 0.65 0.61 0.53 0.53 0.54 0.49 0.38 0.44 0.39 0.38 0.26 0.25
1.25 0.82 0.60 0.60 0.40 0.29 0.31 0.20 0.08 0.24 0.57 0.64 0.77 0.67 0.51 0.60 0.60 0.57 0.43 0.39 0.47 0.36 0.32 0.35 0.39 0.49 0.63 0.69 0.78 0.74 0.76 0.77 0.80 0.76 0.72 0.77 0.77 0.78 0.80 0.76 0.69 0.64 0.50 0.50 0.42 0.40 0.42 0.38 0.37 0.32 0.27 0.18 0.17 0.17
1.21 0.92 0.66 0.40 0.17 0.15 0.15 0.08 0.01 0.12 0.38 0.46 0.41 0.26 0.22 0.31 0.23 0.13 0.10 0.09 0.16 0.35 0.47 0.45 0.76 0.90 0.87 0.92 0.84 0.78 0.79 0.72 0.48 0.45 0.61 0.72 0.79 0.64 0.70 0.63 0.57 0.53 0.40 0.39 0.36 0.34 0.26 0.20 0.19 0.18 0.16 0.17 0.16 0.17
1.16 1.08 0.81 0.47 0.23 0.20 0.18 0.04 0.07 0.08 0.17 0.27 0.20 0.05 0.10 0.08 0.11 0.11 0.05 0.02 0.14 0.35 0.66 0.77 0.75 0.79 0.68 0.71 0.63 0.53 0.52 0.42 0.38 0.34 0.43 0.53 0.64 0.48 0.49 0.52 0.47 0.42 0.34 0.35 0.27 0.27 0.21 0.22 0.23 0.17 0.16 0.13 0.12 0.12
0.77 0.86 0.87 0.56 0.36 0.14 0.16 0.04 0.06 0.04 0.03 0.07 0.06 0.03 0.08 0.13 0.11 0.10 0.03 0.09 0.39 0.62 0.62 0.53 0.53 0.44 0.35 0.42 0.52 0.50 0.58 0.43 0.36 0.32 0.34 0.32 0.37 0.37 0.41 0.46 0.32 0.31 0.29 0.29 0.23 0.20 0.17 0.14 0.12 0.11 0.09 0.09 0.10 0.09
0.39 0.49 0.53 0.49 0.37 0.16 0.21 0.11 0.06 0.03 0.04 0.06 0.07 0.05 0.05 0.06 0.06 0.03 0.10 0.20 0.48 0.57 0.40 0.30 0.29 0.25 0.26 0.34 0.22 0.21 0.26 0.25 0.33 0.40 0.39 0.34 0.32 0.33 0.28 0.29 0.27 0.23 0.20 0.21 0.17 0.16 0.14 0.10 0.07 0.07 0.07 0.08 0.09 0.10
0.35 0.52 0.56 0.44 0.26 0.19 0.14 0.23 0.14 0.07 0.05 0.06 0.06 0.08 0.07 0.06 0.04 0.05 0.14 0.25 0.43 0.29 0.19 0.19 0.19 0.16 0.12 0.10 0.11 0.15 0.17 0.12 0.15 0.18 0.23 0.16 0.14 0.19 0.16 0.15 0.14 0.15 0.17 0.15 0.11 0.10 0.07 0.07 0.07 0.08 0.08 0.09 0.12 0.14
0.53 0.44 0.42 0.31 0.16 0.09 0.07 0.13 0.19 0.08 0.06 0.05 0.08 0.09 0.07 0.04 0.06 0.07 0.13 0.33 0.26 0.25 0.22 0.20 0.14 0.15 0.16 0.19 0.18 0.16 0.13 0.10 0.09 0.09 0.14 0.12 0.12 0.11 0.08 0.07 0.07 0.07 0.06 0.09 0.10 0.10 0.10 0.09 0.10 0.11 0.09 0.12 0.15 0.17
0.48 0.31 0.20 0.14 0.07 0.08 0.06 0.07 0.07 0.06 0.05 0.10 0.12 0.12 0.08 0.08 0.07 0.14 0.24 0.36 0.28 0.27 0.29 0.27 0.22 0.15 0.14 0.12 0.13 0.12 0.11 0.11 0.08 0.06 0.10 0.06 0.07 0.11 0.09 0.07 0.06 0.07 0.08 0.10 0.13 0.12 0.08 0.08 0.12 0.11 0.16 0.15 0.13 0.16
0.26 0.21 0.09 0.07 0.10 0.15 0.14 0.10 0.10 0.12 0.11 0.16 0.15 0.12 0.18 0.16 0.15 0.31 0.35 0.33 0.30 0.28 0.21 0.19 0.14 0.12 0.14 0.13 0.10 0.09 0.06 0.03 0.03 0.04 0.04 0.03 0.04 0.06 0.13 0.20 0.21 0.17 0.07 0.09 0.13 0.14 0.16 0.16 0.15 0.12 0.15 0.17 0.18 0.22
0.14 0.12 0.14 0.23 0.29 0.26 0.28 0.23 0.22 0.25 0.30 0.33 0.22 0.18 0.20 0.18 0.35 0.47 0.43 0.40 0.39 0.23 0.16 0.11 0.06 0.05 0.05 0.06 0.08 0.09 0.07 0.05 0.03 0.02 0.03 0.08 0.11 0.11 0.12 0.14 0.13 0.09 0.10 0.13 0.15 0.15 0.17 0.19 0.17 0.16 0.16 0.19 0.23 0.23
0.20 0.25 0.24 0.27 0.27 0.24 0.28 0.30 0.30 0.25 0.22 0.24 0.25 0.26 0.20 0.26 0.46 0.43 0.36 0.33 0.26 0.15 0.14 0.14 0.20 0.11 0.08 0.06 0.08 0.10 0.10 0.09 0.10 0.09 0.08 0.11 0.19 0.20 0.13 0.12 0.11 0.09 0.10 0.10 0.10 0.13 0.16 0.19 0.16 0.18 0.24 0.24 0.21 0.18
0.17 0.18 0.18 0.14 0.17 0.21 0.28 0.20 0.20 0.16 0.10 0.11 0.10 0.14 0.18 0.44 0.66 0.42 0.29 0.26 0.25 0.23 0.19 0.16 0.17 0.15 0.16 0.12 0.12 0.14 0.16 0.11 0.12 0.18 0.17 0.14 0.16 0.16 0.13 0.11 0.10 0.09 0.09 0.08 0.08 0.07 0.07 0.07 0.09 0.16 0.12 0.09 0.12 0.14
0.20 0.22 0.20 0.16 0.24 0.26 0.23 0.18 0.17 0.14 0.13 0.12 0.10 0.14 0.30 0.42 0.48 0.42 0.31 0.37 0.27 0.14 0.14 0.15 0.15 0.17 0.19 0.19 0.17 0.14 0.17 0.15 0.13 0.12 0.11 0.12 0.12 0.11 0.09 0.07 0.06 0.07 0.06 0.06 0.06 0.07 0.07 0.07 0.10 0.11 0.07 0.07 0.08 0.08
0.25 0.28 0.22 0.22 0.29 0.22 0.28 0.29 0.20 0.20 0.19 0.13 0.19 0.16 0.23 0.23 0.26 0.29 0.34 0.33 0.32 0.21 0.20 0.19 0.18 0.26 0.25 0.22 0.18 0.16 0.14 0.14 0.12 0.12 0.12 0.11 0.10 0.09 0.06 0.05 0.06 0.06 0.06 0.06 0.07 0.09 0.09 0.08 0.09 0.08 0.09 0.07 0.07 0.06
0.16 0.15 0.15 0.15 0.18 0.21 0.20 0.21 0.15 0.16 0.15 0.17 0.26 0.26 0.25 0.19 0.22 0.29 0.31 0.35 0.43 0.31 0.24 0.23 0.24 0.26 0.24 0.16 0.14 0.14 0.12 0.13 0.12 0.11 0.10 0.09 0.07 0.05 0.04 0.04 0.05 0.05 0.05 0.06 0.07 0.09 0.07 0.07 0.07 0.07 0.06 0.06 0.05 0.05

GFSWCAN_prec_precacc_144.txt.gz
Total_Precipitation_Accumulation
1.64 1.41 1.29 1.30 1.20 1.00 0.89 0.89 0.93 0.87 0.96 0.81 0.72 0.82 1.03 1.25 1.48 1.92 1.66 1.02 2.00 1.95 0.63 0.35 0.30 0.28 0.15 0.24 0.52 0.37 0.76 0.59 0.69 0.49 0.27 0.15 0.14 0.15 0.23 0.21 0.20 0.21 0.47 0.52 0.62 0.61 0.32 0.05 0.16 0.32 0.33 0.15 0.09 0.07
1.87 1.41 1.28 1.27 1.21 1.07 0.89 0.86 0.83 0.82 0.90 0.75 0.63 0.67 0.86 1.30 1.75 2.39 2.43 1.18 1.44 1.98 1.22 0.57 0.32 0.28 0.15 0.18 0.45 0.55 0.42 0.47 0.37 0.50 0.30 0.23 0.23 0.18 0.14 0.46 0.24 0.38 0.15 0.20 0.23 0.27 0.31 0.24 0.27 0.27 0.14 0.18 0.16 0.10
2.00 1.37 1.15 1.16 1.06 0.87 0.80 0.78 0.74 0.78 0.80 0.68 0.71 0.76 0.88 1.12 1.65 3.16 2.65 1.37 3.30 3.08 1.46 0.62 0.41 0.21 0.22 0.14 0.22 0.53 0.42 0.48 0.61 0.56 0.62 0.48 0.33 0.15 0.16 0.23 0.34 0.58 0.47 0.40 0.53 0.64 0.39 0.48 0.36 0.13 0.11 0.21 0.22 0.16
1.93 1.52 1.16 1.14 0.98 0.75 0.80 0.81 0.62 0.70 0.80 0.76 0.86 0.94 0.91 1.11 1.67 3.03 2.79 1.65 3.18 2.56 1.85 0.82 0.33 0.34 0.29 0.21 0.13 0.19 0.27 0.31 0.45 0.69 0.57 0.49 0.31 0.13 0.13 0.24 0.31 0.31 0.58 0.74 0.94 0.81 0.63 0.72 0.73 0.57 0.40 0.18 0.15 0.17
1.84 1.58 1.29 1.07 0.94 0.69 0.70 0.67 0.56 0.62 0.72 0.81 0.94 0.94 1.19 1.45 2.20 2.89 2.27 1.65 1.93 2.13 1.83 1.04 0.35 0.33 0.34 0.36 0.23 0.21 0.28 0.33 0.50 0.87 0.83 0.42 0.27 0.22 0.22 0.47 0.40 0.18 0.44 0.83 1.32 1.04 0.91 0.90 0.50 0.36 0.31 0.27 0.15 0.07
1.75 1.44 1.23 0.91 0.79 0.57 0.56 0.55 0.56 0.66 0.62 0.79 0.89 1.22 1.59 2.15 3.19 4.12 5.45 3.01 1.48 1.99 2.24 1.54 0.81 0.33 0.38 0.47 0.39 0.26 0.28 0.46 0.64 0.75 0.71 0.52 0.34 0.72 0.72 0.68 0.36 0.17 0.22 0.34 0.60 0.92 0.88 0.73 0.47 0.26 0.17 0.09 0.03 0.01
1.57 1.28 1.17 0.89 0.75 0.56 0.60 0.53 0.55 0.61 0.70 0.97 1.22 1.47 1.99 2.78 2.60 2.30 2.52 1.54 1.07 2.04 2.72 1.68 1.27 0.47 0.42 0.63 0.69 0.56 0.54 0.68 0.67 0.75 0.50 0.33 0.38 0.77 1.08 0.82 0.46 0.30 0.31 0.39 0.40 0.47 0.37 0.23 0.15 0.07 0.02 0.01 0.02 0.01
1.48 1.26 1.05 0.87 0.75 0.67 0.64 0.65 0.65 0.75 1.04 1.31 1.69 2.07 2.81 3.18 2.82 1.92 0.86 0.79 0.96 2.04 1.58 1.33 1.39 1.20 0.77 0.81 1.05 0.85 1.02 0.93 0.97 0.78 0.47 0.41 0.50 0.70 0.81 0.28 0.07 0.11 0.15 0.19 0.22 0.19 0.20 0.14 0.05 0.03 0.02 0.03 0.04 0.07
1.20 0.96 0.78 0.76 0.73 0.66 0.65 0.76 0.98 1.35 1.54 1.88 2.37 3.59 4.79 4.29 3.62 1.78 1.19 1.11 1.24 1.79 1.23 0.64 1.09 1.65 1.34 1.00 1.03 1.23 1.03 1.27 0.85 0.59 0.38 0.68 0.72 0.89 0.48 0.08 0.03 0.02 0.02 0.02 0.03 0.05 0.09 0.09 0.07 0.04 0.04 0.06 0.13 0.29
0.99 0.78 0.62 0.66 0.69 0.82 0.93 1.23 1.57 1.92 2.32 2.88 3.88 5.07 5.68 2.98 1.62 2.02 3.31 2.86 2.45 1.57 0.78 0.49 0.65 1.54 1.77 1.52 0.94 1.34 1.34 1.03 1.03 0.51 0.56 0.64 0.74 0.51 0.16 0.05 0.02 0.01 0.00 0.01 0.01 0.02 0.04 0.10 0.13 0.15 0.22 0.29 0.31 0.27
0.99 0.72 0.58 0.62 0.71 0.78 0.85 1.06 1.33 1.84 2.94 3.95 4.42 4.15 3.08 2.17 1.86 2.66 2.96 2.19 1.51 0.76 0.38 0.44 0.51 1.04 1.46 1.51 1.12 1.09 1.36 1.07 0.78 0.80 0.90 0.91 0.53 0.33 0.19 0.11 0.04 0.01 0.01 0.01 0.02 0.03 0.07 0.15 0.31 0.32 0.22 0.16 0.13 0.12
1.08 0.70 0.59 0.60 0.58 0.56 0.61 0.76 1.14 1.69 2.57 2.88 2.93 3.02 3.57 3.16 2.61 2.52 2.04 1.25 0.56 0.42 0.27 0.31 0.37 0.62 1.40 1.70 1.58 1.45 1.49 1.31 0.84 0.80 1.04 0.85 0.53 0.18 0.11 0.10 0.07 0.05 0.05 0.06 0.12 0.19 0.23 0.26 0.23 0.18 0.15 0.15 0.17 0.18
1.09 0.75 0.64 0.57 0.53 0.65 0.71 0.89 0.99 1.25 2.02 2.44 2.52 2.97 3.33 2.90 2.42 1.70 1.04 0.58 0.38 0.49 0.22 0.33 0.39 0.62 0.95 1.52 2.02 1.31 1.51 1.69 1.05 1.04 0.88 0.59 0.40 0.28 0.31 0.30 0.33 0.32 0.29 0.27 0.21 0.17 0.15 0.13 0.10 0.11 0.15 0.21 0.24 0.32
0.93 0.58 0.54 0.58 0.68 0.88 0.88 1.05 1.24 1.77 1.99 2.26 2.45 2.49 2.22 1.86 1.33 0.96 0.59 0.38 0.35 0.30 0.27 0.60 0.36 0.54 0.76 1.16 1.73 1.50 1.52 1.27 1.48 0.89 0.65 0.65 0.74 0.71 0.47 0.36 0.33 0.41 0.43 0.43 0.44 0.41 0.41 0.41 0.48 0.55 0.62 0.73 0.68 0.88
0.65 0.54 0.65 0.73 0.74 0.77 1.06 1.25 1.18 1.29 1.48 1.48 1.44 1.39 1.13 1.23 1.01 0.84 0.72 0.59 0.54 0.49 0.59 0.83 0.86 0.88 0.99 1.31 1.17 0.96 0.92 0.81 0.66 0.74 0.72 0.72 0.77 0.60 0.49 0.51 0.54 0.60 0.62 0.61 0.62 0.62 0.72 0.75 0.68 0.84 0.96 0.93 0.78 0.79
1.03 1.06 0.90 0.78 0.79 0.84 0.90 1.02 1.14 1.17 0.91 0.80 0.85 1.07 1.01 0.90 0.89 0.81 0.82 0.83 0.79 0.83 0.84 0.94 0.94 0.79 0.87 0.76 0.59 0.55 0.54 0.62 0.75 0.62 0.50 0.49 0.53 0.58 0.64 0.67 0.78 0.78 0.68 0.63 0.64 0.60 0.60 0.62 0.57 0.63 0.68 0.65 0.67 0.55
1.24 1.03 0.95 0.71 0.69 0.68 0.67 0.67 0.76 0.76 0.69 0.57 0.89 0.98 0.93 0.82 0.86 0.88 0.82 0.80 0.80 0.71 0.69 0.58 0.51 0.52 0.47 0.39 0.52 0.55 0.70 0.70 0.59 0.65 0.71 0.67 0.70 0.76 0.74 0.78 0.82 0.78 0.70 0.64 0.60 0.58 0.61 0.61 0.45 0.31 0.40 0.57 0.45 0.42
1.27 0.74 0.56 0.51 0.54 0.57 0.59 0.46 0.32 0.23 0.37 0.70 0.79 1.08 0.79 0.89 0.88 0.80 0.77 0.62 0.61 0.49 0.42 0.44 0.36 0.30 0.43 0.48 0.62 0.70 0.73 0.74 0.76 0.77 0.78 0.82 0.79 0.80 0.81 0.82 0.84 0.75 0.65 0.61 0.53 0.53 0.54 0.49 0.38 0.44 0.39 0.38 0.26 0.25
1.25 0.82 0.60 0.60 0.40 0.29 0.31 0.20 0.08 0.24 0.58 0.65 0.78 0.68 0.51 0.60 0.61 0.59 0.44 0.39 0.47 0.36 0.32 0.35 0.39 0.49 0.64 0.70 0.78 0.74 0.76 0.77 0.80 0.76 0.72 0.77 0.77 0.78 0.80 0.76 0.69 0.64 0.50 0.50 0.42 0.40 0.42 0.38 0.37 0.32 0.27 0.18 0.17 0.17
1.21 0.92 0.66 0.40 0.17 0.15 0.15 0.08 0.01 0.12 0.39 0.47 0.41 0.26 0.22 0.31 0.24 0.15 0.14 0.09 0.16 0.35 0.47 0.45 0.77 0.91 0.89 0.93 0.85 0.78 0.79 0.72 0.48 0.45 0.61 0.72 0.79 0.64 0.70 0.63 0.57 0.53 0.40 0.39 0.36 0.34 0.26 0.20 0.19 0.18 0.16 0.17 0.16 0.17
1.16 1.08 0.81 0.47 0.23 0.20 0.18 0.04 0.07 0.08 0.17 0.28 0.22 0.06 0.12 0.10 0.14 0.12 0.11 0.04 0.14 0.36 0.67 0.79 0.78 0.84 0.71 0.72 0.63 0.53 0.52 0.42 0.38 0.34 0.43 0.53 0.64 0.48 0.49 0.52 0.47 0.42 0.35 0.35 0.27 0.28 0.21 0.22 0.23 0.17 0.16 0.13 0.12 0.12
0.77 0.86 0.87 0.56 0.36 0.14 0.16 0.04 0.06 0.04 0.03 0.08 0.06 0.04 0.10 0.16 0.16 0.13 0.07 0.09 0.40 0.63 0.65 0.57 0.58 0.47 0.36 0.42 0.52 0.50 0.58 0.43 0.36 0.32 0.34 0.32 0.37 0.37 0.41 0.46 0.32 0.31 0.29 0.29 0.23 0.20 0.17 0.14 0.12 0.11 0.10 0.09 0.10 0.09
0.39 0.49 0.53 0.49 0.37 0.16 0.21 0.11 0.06 0.03 0.04 0.06 0.07 0.05 0.05 0.07 0.11 0.05 0.11 0.21 0.49 0.61 0.43 0.32 0.32 0.26 0.26 0.34 0.22 0.21 0.26 0.25 0.33 0.40 0.39 0.34 0.32 0.33 0.28 0.29 0.27 0.23 0.20 0.21 0.17 0.16 0.14 0.11 0.07 0.07 0.08 0.08 0.10 0.11
0.35 0.52 0.56 0.44 0.26 0.19 0.14 0.23 0.14 0.07 0.05 0.06 0.06 0.08 0.07 0.06 0.07 0.06 0.14 0.27 0.45 0.32 0.21 0.21 0.19 0.17 0.13 0.10 0.12 0.15 0.17 0.12 0.15 0.18 0.23 0.16 0.14 0.19 0.16 0.15 0.14 0.15 0.17 0.16 0.13 0.12 0.10 0.08 0.07 0.10 0.11 0.11 0.14 0.16
0.53 0.44 0.42 0.31 0.16 0.09 0.07 0.13 0.19 0.08 0.06 0.05 0.08 0.09 0.07 0.04 0.06 0.08 0.13 0.35 0.28 0.28 0.25 0.22 0.15 0.15 0.16 0.19 0.18 0.16 0.13 0.10 0.09 0.09 0.15 0.13 0.12 0.11 0.08 0.07 0.07 0.08 0.06 0.10 0.11 0.11 0.12 0.10 0.12 0.14 0.12 0.14 0.17 0.20
0.48 0.31 0.20 0.14 0.07 0.08 0.06 0.07 0.07 0.06 0.05 0.10 0.12 0.12 0.08 0.08 0.07 0.15 0.25 0.38 0.29 0.28 0.30 0.28 0.24 0.16 0.16 0.13 0.13 0.13 0.11 0.11 0.08 0.07 0.11 0.07 0.08 0.11 0.10 0.07 0.06 0.07 0.08 0.11 0.13 0.12 0.09 0.10 0.15 0.14 0.19 0.18 0.15 0.18
0.26 0.21 0.09 0.07 0.10 0.15 0.14 0.10 0.10 0.12 0.11 0.16 0.15 0.12 0.18 0.16 0.15 0.31 0.36 0.34 0.31 0.28 0.22 0.19 0.14 0.12 0.14 0.13 0.10 0.09 0.06 0.04 0.03 0.05 0.04 0.03 0.04 0.07 0.14 0.21 0.21 0.17 0.08 0.10 0.13 0.14 0.16 0.17 0.16 0.14 0.17 0.20 0.22 0.25
0.14 0.12 0.14 0.23 0.29 0.26 0.28 0.23 0.22 0.25 0.32 0.35 0.23 0.18 0.20 0.18 0.35 0.48 0.44 0.42 0.40 0.23 0.16 0.12 0.06 0.05 0.05 0.06 0.08 0.09 0.08 0.06 0.03 0.02 0.03 0.09 0.11 0.12 0.13 0.15 0.14 0.10 0.11 0.13 0.15 0.15 0.17 0.19 0.18 0.17 0.17 0.21 0.26 0.27
0.20 0.25 0.24 0.27 0.27 0.24 0.28 0.30 0.31 0.25 0.23 0.25 0.25 0.27 0.20 0.27 0.47 0.44 0.37 0.34 0.27 0.16 0.15 0.15 0.21 0.12 0.09 0.07 0.08 0.10 0.10 0.09 0.10 0.09 0.08 0.11 0.19 0.20 0.14 0.12 0.11 0.10 0.11 0.11 0.12 0.15 0.18 0.20 0.17 0.19 0.25 0.25 0.22 0.19
0.17 0.18 0.18 0.14 0.17 0.21 0.28 0.21 0.21 0.16 0.10 0.11 0.10 0.14 0.18 0.45 0.67 0.43 0.30 0.27 0.26 0.24 0.20 0.17 0.18 0.15 0.16 0.12 0.12 0.15 0.17 0.11 0.12 0.18 0.17 0.14 0.16 0.17 0.13 0.12 0.10 0.09 0.10 0.09 0.09 0.09 0.09 0.08 0.09 0.16 0.12 0.09 0.12 0.14
0.20 0.22 0.20 0.16 0.24 0.26 0.24 0.18 0.17 0.14 0.13 0.12 0.11 0.14 0.31 0.42 0.49 0.42 0.32 0.37 0.28 0.15 0.16 0.16 0.16 0.18 0.20 0.20 0.17 0.14 0.17 0.15 0.13 0.13 0.12 0.12 0.12 0.11 0.10 0.07 0.07 0.07 0.06 0.06 0.06 0.07 0.07 0.07 0.10 0.11 0.07 0.07 0.08 0.08
0.26 0.29 0.22 0.22 0.30 0.23 0.29 0.29 0.20 0.21 0.20 0.14 0.20 0.16 0.24 0.23 0.26 0.29 0.34 0.34 0.33 0.22 0.22 0.21 0.20 0.27 0.26 0.24 0.20 0.17 0.15 0.15 0.13 0.14 0.13 0.12 0.11 0.10 0.07 0.05 0.06 0.06 0.06 0.06 0.07 0.09 0.09 0.08 0.09 0.08 0.09 0.07 0.07 0.06
0.17 0.16 0.16 0.16 0.19 0.21 0.21 0.21 0.16 0.17 0.16 0.19 0.28 0.27 0.26 0.20 0.23 0.29 0.31 0.36 0.44 0.31 0.25 0.24 0.25 0.27 0.25 0.18 0.16 0.16 0.14 0.15 0.14 0.13 0.11 0.09 0.07 0.05 0.04 0.04 0.05 0.05 0.05 0.06 0.07 0.09 0.07 0.07 0.07 0.07 0.06 0.06 0.05 0.05

GFSWCAN_prec_precacc_147.txt.gz
Total_Precipitation_Accumulation
1.78 1.56 1.33 1.33 1.22 1.01 0.90 0.90 0.93 0.87 0.97 0.81 0.75 0.85 1.03 1.27 1.51 1.95 1.69 1.04 2.03 2.02 0.64 0.36 0.31 0.30 0.17 0.29 0.60 0.40 0.82 0.64 0.78 0.60 0.32 0.17 0.14 0.15 0.23 0.21 0.20 0.21 0.50 0.56 0.64 0.65 0.33 0.05 0.16 0.32 0.33 0.15 0.09 0.07
2.00 1.58 1.33 1.29 1.22 1.07 0.89 0.86 0.83 0.82 0.90 0.76 0.66 0.77 0.91 1.32 1.78 2.43 2.46 1.20 1.48 2.02 1.23 0.57 0.33 0.28 0.16 0.20 0.53 0.64 0.47 0.47 0.38 0.51 0.30 0.23 0.23 0.18 0.14 0.46 0.24 0.38 0.15 0.20 0.23 0.27 0.31 0.24 0.27 0.27 0.14 0.18 0.16 0.10
2.16 1.51 1.19 1.17 1.06 0.87 0.80 0.78 0.74 0.78 0.82 0.71 0.78 0.86 1.00 1.16 1.70 3.19 2.68 1.40 3.37 3.17 1.49 0.62 0.41 0.21 0.23 0.19 0.32 0.65 0.44 0.51 0.62 0.56 0.62 0.48 0.33 0.15 0.16 0.23 0.34 0.58 0.47 0.40 0.53 0.64 0.39 0.48 0.36 0.13 0.11 0.21 0.22 0.16
2.03 1.59 1.18 1.15 0.99 0.75 0.80 0.81 0.62 0.70 0.80 0.77 0.91 1.04 0.97 1.14 1.70 3.08 2.83 1.67 3.22 2.66 1.92 0.82 0.33 0.34 0.29 0.23 0.19 0.24 0.29 0.31 0.47 0.71 0.59 0.50 0.31 0.13 0.13 0.24 0.31 0.31 0.58 0.74 0.94 0.81 0.63 0.72 0.73 0.57 0.40 0.18 0.15 0.17
1.87 1.59 1.29 1.08 0.94 0.69 0.70 0.67 0.56 0.62 0.72 0.82 0.95 0.99 1.22 1.47 2.23 2.93 2.29 1.66 1.96 2.17 1.90 1.06 0.35 0.33 0.34 0.36 0.24 0.27 0.32 0.38 0.57 0.92 0.88 0.42 0.27 0.22 0.22 0.47 0.40 0.18 0.44 0.83 1.32 1.04 0.91 0.90 0.50 0.36 0.31 0.27 0.15 0.07
1.75 1.44 1.23 0.91 0.79 0.57 0.56 0.55 0.56 0.66 0.64 0.81 0.91 1.24 1.61 2.19 3.26 4.21 5.58 3.03 1.48 2.00 2.34 1.58 0.83 0.33 0.38 0.47 0.41 0.30 0.35 0.54 0.74 0.83 0.75 0.52 0.34 0.72 0.72 0.68 0.36 0.17 0.22 0.34 0.60 0.92 0.88 0.73 0.47 0.26 0.17 0.09 0.03 0.01
1.57 1.28 1.17 0.89 0.75 0.56 0.60 0.53 0.55 0.63 0.73 0.98 1.23 1.48 2.02 2.87 2.69 2.35 2.56 1.54 1.09 2.08 2.89 1.74 1.30 0.48 0.43 0.69 0.78 0.64 0.62 0.78 0.76 0.80 0.53 0.33 0.38 0.77 1.08 0.82 0.46 0.30 0.31 0.39 0.40 0.47 0.37 0.23 0.15 0.07 0.02 0.01 0.02 0.01
1.48 1.26 1.05 0.87 0.76 0.67 0.64 0.65 0.66 0.78 1.07 1.32 1.70 2.07 2.83 3.24 2.90 1.96 0.86 0.82 1.06 2.17 1.67 1.38 1.42 1.23 0.81 0.87 1.09 0.89 1.08 1.01 1.00 0.78 0.47 0.41 0.50 0.70 0.81 0.28 0.07 0.11 0.15 0.19 0.22 0.19 0.20 0.14 0.05 0.03 0.02 0.03 0.04 0.07
1.20 0.96 0.78 0.76 0.73 0.66 0.65 0.76 0.99 1.41 1.56 1.88 2.38 3.63 4.89 4.41 3.70 1.80 1.25 1.26 1.42 1.95 1.32 0.68 1.10 1.66 1.35 1.01 1.03 1.23 1.04 1.27 0.85 0.59 0.38 0.68 0.72 0.89 0.48 0.08 0.03 0.02 0.02 0.02 0.03 0.05 0.09 0.09 0.07 0.04 0.04 0.06 0.13 0.29
0.99 0.78 0.62 0.66 0.69 0.82 0.93 1.24 1.61 1.97 2.33 2.90 3.97 5.22 5.80 3.03 1.70 2.18 3.59 3.25 2.82 1.72 0.79 0.50 0.65 1.54 1.77 1.52 0.94 1.34 1.34 1.03 1.03 0.51 0.56 0.64 0.74 0.51 0.16 0.05 0.02 0.01 0.00 0.01 0.01 0.02 0.04 0.10 0.13 0.15 0.22 0.29 0.31 0.27
0.99 0.72 0.58 0.62 0.71 0.79 0.87 1.09 1.36 1.87 3.00 4.07 4.58 4.33 3.24 2.34 2.05 2.79 3.08 2.33 1.63 0.78 0.38 0.44 0.51 1.04 1.46 1.51 1.12 1.09 1.36 1.07 0.78 0.80 0.90 0.91 0.53 0.33 0.19 0.11 0.04 0.01 0.01 0.01 0.02 0.03 0.07 0.15 0.31 0.32 0.22 0.16 0.13 0.12
1.08 0.71 0.60 0.60 0.61 0.66 0.65 0.78 1.15 1.74 2.68 3.05 3.17 3.21 3.75 3.28 2.64 2.53 2.04 1.25 0.56 0.42 0.27 0.31 0.37 0.62 1.40 1.70 1.58 1.45 1.49 1.31 0.84 0.80 1.04 0.85 0.53 0.18 0.11 0.10 0.07 0.05 0.05 0.06 0.12 0.19 0.23 0.26 0.23 0.18 0.15 0.15 0.17 0.18
1.09 0.76 0.69 0.64 0.65 0.75 0.73 0.89 1.00 1.38 2.22 2.69 2.63 3.00 3.35 2.91 2.42 1.70 1.04 0.58 0.38 0.49 0.22 0.33 0.39 0.62 0.95 1.52 2.02 1.31 1.51 1.69 1.05 1.04 0.88 0.59 0.40 0.28 0.31 0.30 0.33 0.32 0.29 0.27 0.21 0.17 0.15 0.13 0.10 0.11 0.15 0.21 0.24 0.32
0.98 0.68 0.68 0.65 0.71 0.89 0.89 1.08 1.34 1.91 2.07 2.33 2.46 2.49 2.22 1.86 1.33 0.96 0.59 0.38 0.35 0.30 0.27 0.60 0.36 0.54 0.76 1.16 1.73 1.50 1.52 1.27 1.48 0.89 0.65 0.65 0.74 0.71 0.47 0.36 0.33 0.41 0.43 0.43 0.44 0.41 0.41 0.41 0.48 0.55 0.62 0.73 0.68 0.88
0.76 0.62 0.68 0.74 0.77 0.82 1.09 1.27 1.23 1.31 1.48 1.49 1.44 1.39 1.13 1.23 1.01 0.84 0.72 0.59 0.54 0.49 0.59 0.83 0.86 0.88 0.99 1.31 1.17 0.96 0.92 0.81 0.66 0.74 0.72 0.72 0.77 0.60 0.49 0.51 0.54 0.60 0.62 0.61 0.62 0.62 0.72 0.75 0.68 0.84 0.96 0.93 0.78 0.79
1.04 1.07 0.92 0.81 0.83 0.85 0.90 1.02 1.14 1.17 0.91 0.80 0.85 1.07 1.01 0.90 0.89 0.81 0.82 0.83 0.79 0.83 0.84 0.94 0.94 0.79 0.87 0.76 0.59 0.55 0.54 0.62 0.75 0.62 0.50 0.49 0.53 0.58 0.64 0.67 0.78 0.78 0.68 0.63 0.64 0.60 0.60 0.62 0.57 0.63 0.68 0.65 0.67 0.55
1.24 1.03 0.96 0.72 0.70 0.68 0.67 0.67 0.76 0.76 0.69 0.57 0.89 0.98 0.93 0.83 0.86 0.90 0.83 0.81 0.80 0.71 0.69 0.58 0.51 0.52 0.47 0.39 0.52 0.55 0.70 0.70 0.60 0.66 0.71 0.67 0.70 0.76 0.74 0.78 0.82 0.78 0.70 0.64 0.60 0.58 0.61 0.61 0.45 0.31 0.40 0.57 0.45 0.42
1.27 0.74 0.56 0.51 0.54 0.57 0.59 0.46 0.32 0.23 0.37 0.71 0.79 1.08 0.79 0.89 0.89 0.80 0.77 0.62 0.61 0.49 0.42 0.44 0.36 0.30 0.43 0.48 0.62 0.70 0.73 0.74 0.77 0.78 0.78 0.82 0.79 0.80 0.81 0.82 0.84 0.75 0.65 0.61 0.53 0.53 0.54 0.49 0.38 0.44 0.39 0.38 0.26 0.25
1.25 0.82 0.60 0.60 0.40 0.29 0.31 0.20 0.08 0.24 0.59 0.65 0.78 0.68 0.52 0.62 0.62 0.59 0.44 0.39 0.47 0.36 0.32 0.35 0.39 0.49 0.64 0.70 0.78 0.74 0.77 0.77 0.81 0.76 0.73 0.77 0.77 0.78 0.80 0.76 0.69 0.64 0.50 0.50 0.42 0.40 0.42 0.38 0.37 0.32 0.27 0.18 0.17 0.17
1.21 0.92 0.66 0.40 0.17 0.15 0.15 0.08 0.01 0.12 0.39 0.47 0.41 0.26 0.22 0.33 0.27 0.16 0.15 0.09 0.16 0.35 0.47 0.45 0.77 0.92 0.90 0.94 0.86 0.78 0.80 0.73 0.48 0.45 0.62 0.72 0.79 0.64 0.70 0.63 0.57 0.53 0.40 0.39 0.36 0.34 0.26 0.20 0.19 0.18 0.16 0.17 0.16 0.17
1.16 1.08 0.81 0.47 0.23 0.20 0.18 0.04 0.07 0.08 0.17 0.28 0.23 0.07 0.12 0.10 0.15 0.13 0.16 0.04 0.14 0.36 0.67 0.79 0.79 0.86 0.72 0.72 0.63 0.53 0.52 0.42 0.38 0.34 0.43 0.53 0.64 0.48 0.49 0.52 0.47 0.42 0.35 0.35 0.27 0.28 0.21 0.22 0.23 0.17 0.16 0.13 0.12 0.12
0.77 0.86 0.87 0.56 0.36 0.14 0.16 0.04 0.06 0.04 0.03 0.08 0.06 0.04 0.10 0.17 0.17 0.13 0.07 0.10 0.41 0.64 0.65 0.57 0.59 0.49 0.36 0.42 0.52 0.50 0.58 0.43 0.36 0.32 0.34 0.32 0.37 0.37 0.41 0.46 0.32 0.31 0.29 0.29 0.23 0.20 0.17 0.14 0.12 0.11 0.10 0.09 0.10 0.09
0.39 0.49 0.53 0.49 0.37 0.16 0.21 0.11 0.06 0.03 0.04 0.06 0.07 0.05 0.06 0.08 0.12 0.06 0.12 0.21 0.50 0.62 0.44 0.33 0.33 0.27 0.27 0.34 0.22 0.21 0.26 0.25 0.33 0.40 0.39 0.34 0.32 0.33 0.28 0.29 0.27 0.23 0.20 0.21 0.17 0.17 0.15 0.11 0.07 0.07 0.08 0.08 0.10 0.11
0.35 0.52 0.56 0.44 0.26 0.19 0.14 0.23 0.14 0.07 0.05 0.06 0.06 0.08 0.07 0.07 0.08 0.06 0.14 0.27 0.46 0.33 0.22 0.23 0.21 0.19 0.14 0.10 0.12 0.15 0.18 0.12 0.15 0.18 0.23 0.16 0.14 0.19 0.16 0.15 0.14 0.15 0.17 0.16 0.13 0.13 0.11 0.10 0.08 0.11 0.11 0.11 0.15 0.16
0.53 0.44 0.42 0.31 0.16 0.09 0.07 0.13 0.19 0.08 0.06 0.05 0.08 0.09 0.07 0.04 0.06 0.08 0.13 0.35 0.29 0.29 0.26 0.23 0.16 0.15 0.16 0.20 0.18 0.16 0.13 0.10 0.09 0.09 0.15 0.13 0.12 0.11 0.08 0.07 0.07 0.08 0.07 0.10 0.12 0.11 0.12 0.11 0.13 0.15 0.14 0.15 0.18 0.21
0.48 0.31 0.20 0.14 0.07 0.08 0.06 0.07 0.07 0.06 0.05 0.10 0.12 0.12 0.08 0.08 0.07 0.15 0.25 0.38 0.30 0.29 0.31 0.29 0.25 0.18 0.17 0.14 0.14 0.13 0.11 0.11 0.08 0.07 0.11 0.07 0.08 0.11 0.10 0.07 0.06 0.07 0.08 0.11 0.13 0.13 0.09 0.10 0.15 0.15 0.20 0.19 0.16 0.18
0.26 0.21 0.09 0.07 0.10 0.15 0.14 0.10 0.10 0.12 0.11 0.16 0.15 0.12 0.18 0.16 0.15 0.31 0.36 0.34 0.31 0.29 0.22 0.20 0.15 0.13 0.15 0.13 0.11 0.09 0.07 0.04 0.03 0.05 0.04 0.03 0.05 0.08 0.14 0.21 0.21 0.17 0.08 0.10 0.13 0.14 0.16 0.17 0.16 0.14 0.17 0.21 0.23 0.26
0.14 0.12 0.14 0.23 0.29 0.26 0.28 0.23 0.23 0.25 0.32 0.35 0.23 0.18 0.20 0.18 0.35 0.48 0.45 0.43 0.41 0.24 0.17 0.12 0.06 0.05 0.05 0.06 0.08 0.09 0.08 0.06 0.03 0.02 0.03 0.09 0.12 0.12 0.14 0.15 0.14 0.11 0.11 0.13 0.15 0.15 0.17 0.19 0.18 0.17 0.18 0.22 0.27 0.29
0.20 0.25 0.24 0.27 0.27 0.24 0.28 0.30 0.31 0.25 0.23 0.25 0.25 0.27 0.20 0.27 0.47 0.45 0.38 0.34 0.27 0.16 0.15 0.15 0.21 0.12 0.09 0.07 0.09 0.10 0.10 0.09 0.10 0.09 0.08 0.11 0.19 0.20 0.15 0.13 0.12 0.10 0.12 0.11 0.12 0.15 0.18 0.20 0.17 0.19 0.25 0.25 0.23 0.20
0.17 0.18 0.18 0.14 0.17 0.21 0.28 0.21 0.21 0.17 0.11 0.12 0.10 0.15 0.19 0.45 0.67 0.43 0.30 0.27 0.26 0.24 0.20 0.17 0.18 0.15 0.16 0.12 0.13 0.15 0.17 0.11 0.12 0.18 0.17 0.14 0.16 0.17 0.14 0.12 0.10 0.10 0.10 0.09 0.09 0.10 0.09 0.08 0.09 0.16 0.12 0.09 0.12 0.14
0.20 0.22 0.20 0.16 0.24 0.26 0.24 0.19 0.17 0.14 0.14 0.13 0.11 0.14 0.31 0.42 0.49 0.42 0.32 0.38 0.28 0.16 0.16 0.17 0.16 0.18 0.20 0.21 0.18 0.14 0.17 0.15 0.13 0.13 0.12 0.12 0.12 0.12 0.10 0.08 0.07 0.07 0.06 0.06 0.06 0.07 0.07 0.07 0.10 0.11 0.07 0.07 0.08 0.08
0.27 0.29 0.23 0.23 0.30 0.24 0.30 0.30 0.21 0.21 0.20 0.14 0.21 0.17 0.24 0.23 0.26 0.29 0.34 0.34 0.33 0.23 0.23 0.22 0.20 0.27 0.26 0.24 0.21 0.17 0.15 0.15 0.14 0.14 0.13 0.12 0.11 0.10 0.07 0.06 0.06 0.06 0.06 0.06 0.07 0.09 0.09 0.08 0.09 0.08 0.09 0.07 0.07 0.06
0.17 0.16 0.17 0.17 0.19 0.22 0.21 0.22 0.16 0.17 0.17 0.19 0.28 0.28 0.27 0.20 0.23 0.29 0.31 0.37 0.44 0.31 0.25 0.25 0.26 0.28 0.26 0.19 0.17 0.17 0.15 0.16 0.15 0.14 0.12 0.10 0.07 0.05 0.04 0.04 0.05 0.05 0.05 0.06 0.07 0.09 0.07 0.07 0.07 0.07 0.06 0.06 0.05 0.05

GFSWCAN_prec_precacc_153.txt.gz
Total_Precipitation_Accumulation
1.82 1.64 1.50 1.51 1.35 1.20 1.03 1.09 1.22 1.16 1.09 0.82 0.76 0.86 1.05 1.30 1.57 2.02 1.75 1.11 2.13 2.09 0.66 0.37 0.31 0.31 0.19 0.33 0.63 0.44 0.90 0.71 0.91 0.76 0.43 0.25 0.17 0.18 0.25 0.23 0.24 0.23 0.55 0.61 0.69 0.73 0.37 0.05 0.16 0.32 0.34 0.15 0.09 0.07
2.09 1.71 1.48 1.48 1.37 1.27 1.00 1.00 1.01 1.05 1.01 0.78 0.67 0.77 0.92 1.35 1.84 2.50 2.51 1.26 1.62 2.18 1.27 0.58 0.33 0.28 0.16 0.20 0.58 0.74 0.55 0.55 0.49 0.63 0.39 0.31 0.29 0.23 0.16 0.48 0.26 0.42 0.17 0.26 0.28 0.32 0.34 0.24 0.27 0.27 0.14 0.18 0.16 0.10
2.33 1.69 1.33 1.33 1.25 1.05 0.90 0.89 0.87 0.91 0.91 0.73 0.79 0.87 1.04 1.22 1.76 3.26 2.74 1.44 3.45 3.34 1.55 0.63 0.41 0.21 0.23 0.19 0.37 0.82 0.51 0.57 0.73 0.63 0.73 0.61 0.42 0.20 0.22 0.26 0.37 0.60 0.47 0.43 0.56 0.65 0.39 0.48 0.36 0.13 0.11 0.21 0.22 0.16
2.33 1.80 1.31 1.34 1.21 0.91 0.90 0.90 0.73 0.77 0.83 0.78 0.93 1.07 1.07 1.25 1.82 3.18 2.90 1.71 3.25 2.72 1.97 0.82 0.33 0.34 0.29 0.23 0.20 0.27 0.34 0.38 0.53 0.86 0.79 0.61 0.40 0.17 0.17 0.28 0.35 0.35 0.61 0.78 0.96 0.82 0.64 0.73 0.73 0.57 0.40 0.18 0.15 0.17
2.27 1.79 1.45 1.31 1.12 0.81 0.77 0.72 0.59 0.63 0.73 0.84 0.98 1.02 1.33 1.57 2.39 3.09 2.38 1.71 1.98 2.21 1.97 1.06 0.35 0.33 0.34 0.37 0.25 0.30 0.42 0.50 0.70 1.05 1.06 0.51 0.31 0.25 0.25 0.49 0.40 0.18 0.45 0.87 1.38 1.07 0.93 0.92 0.50 0.36 0.31 0.27 0.15 0.07
2.11 1.64 1.46 1.10 0.89 0.63 0.58 0.55 0.56 0.66 0.65 0.84 0.93 1.26 1.67 2.29 3.47 4.55 5.96 3.22 1.54 2.06 2.41 1.60 0.83 0.33 0.38 0.47 0.43 0.35 0.45 0.78 0.99 0.99 0.84 0.58 0.37 0.77 0.78 0.71 0.36 0.17 0.22 0.35 0.61 0.92 0.88 0.73 0.47 0.26 0.17 0.09 0.03 0.01
1.84 1.49 1.34 0.95 0.76 0.57 0.60 0.53 0.55 0.63 0.73 1.01 1.26 1.51 2.05 3.00 2.88 2.63 2.69 1.58 1.10 2.10 2.98 1.77 1.30 0.48 0.43 0.71 0.83 0.77 0.82 1.02 0.98 0.99 0.64 0.38 0.41 0.82 1.15 0.84 0.47 0.30 0.31 0.39 0.40 0.47 0.37 0.23 0.15 0.07 0.02 0.01 0.02 0.01
1.59 1.30 1.06 0.87 0.76 0.67 0.64 0.65 0.66 0.79 1.09 1.35 1.74 2.12 2.89 3.46 3.12 2.04 0.88 0.83 1.15 2.29 1.75 1.43 1.44 1.26 0.84 0.98 1.22 1.05 1.29 1.25 1.26 0.97 0.54 0.45 0.54 0.76 0.86 0.28 0.07 0.11 0.15 0.19 0.22 0.19 0.20 0.14 0.05 0.03 0.02 0.03 0.04 0.07
1.20 0.96 0.78 0.76 0.73 0.66 0.65 0.76 1.00 1.46 1.61 1.94 2.44 3.72 5.02 4.58 3.82 1.83 1.25 1.28 1.53 2.15 1.52 0.73 1.11 1.71 1.40 1.13 1.19 1.36 1.18 1.42 0.94 0.64 0.40 0.71 0.81 0.94 0.49 0.08 0.03 0.02 0.02 0.02 0.03 0.05 0.09 0.09 0.07 0.04 0.04 0.06 0.13 0.29
0.99 0.78 0.62 0.66 0.69 0.82 0.93 1.24 1.66 2.15 2.40 2.93 3.99 5.24 5.84 3.04 1.71 2.21 3.67 3.44 3.11 2.00 0.92 0.54 0.67 1.58 1.83 1.64 1.06 1.39 1.35 1.05 1.05 0.53 0.57 0.66 0.75 0.51 0.16 0.05 0.02 0.01 0.00 0.01 0.01 0.02 0.04 0.10 0.13 0.15 0.22 0.29 0.31 0.27
0.99 0.72 0.58 0.62 0.71 0.79 0.87 1.13 1.54 2.09 3.02 4.08 4.60 4.35 3.30 2.44 2.19 2.97 3.33 2.50 1.78 0.95 0.42 0.44 0.51 1.06 1.49 1.58 1.18 1.11 1.37 1.07 0.79 0.81 0.90 0.92 0.53 0.33 0.19 0.11 0.04 0.01 0.01 0.01 0.02 0.03 0.07 0.15 0.31 0.32 0.22 0.16 0.13 0.12
1.08 0.71 0.60 0.60 0.61 0.66 0.67 0.85 1.29 1.82 2.70 3.07 3.25 3.36 4.06 3.59 2.85 2.68 2.20 1.33 0.62 0.47 0.28 0.32 0.38 0.64 1.47 1.72 1.62 1.46 1.50 1.31 0.84 0.81 1.05 0.85 0.53 0.18 0.11 0.10 0.07 0.05 0.05 0.06 0.12 0.19 0.23 0.26 0.23 0.18 0.15 0.15 0.17 0.18
1.09 0.76 0.69 0.64 0.65 0.76 0.77 0.96 1.06 1.43 2.30 2.83 2.83 3.20 3.55 3.03 2.51 1.75 1.08 0.61 0.42 0.50 0.23 0.34 0.42 0.68 1.02 1.57 2.04 1.31 1.51 1.69 1.05 1.04 0.88 0.59 0.40 0.28 0.31 0.30 0.33 0.32 0.29 0.27 0.21 0.17 0.15 0.13 0.10 0.11 0.15 0.21 0.24 0.32
0.98 0.69 0.69 0.66 0.75 0.95 0.97 1.18 1.40 2.04 2.24 2.46 2.52 2.58 2.30 1.89 1.34 0.97 0.60 0.39 0.35 0.31 0.27 0.61 0.42 0.59 0.78 1.18 1.74 1.50 1.52 1.27 1.48 0.89 0.65 0.65 0.74 0.71 0.47 0.36 0.33 0.41 0.43 0.43 0.44 0.41 0.41 0.41 0.48 0.55 0.62 0.73 0.68 0.88
0.80 0.69 0.71 0.77 0.84 0.89 1.20 1.37 1.36 1.45 1.58 1.56 1.47 1.43 1.14 1.24 1.01 0.84 0.72 0.59 0.54 0.49 0.59 0.85 0.89 0.89 1.00 1.31 1.17 0.96 0.93 0.81 0.66 0.74 0.72 0.72 0.77 0.60 0.49 0.51 0.54 0.60 0.62 0.61 0.62 0.62 0.72 0.75 0.68 0.84 0.96 0.93 0.78 0.79
1.13 1.11 0.94 0.87 0.91 0.94 1.01 1.11 1.18 1.22 0.94 0.83 0.87 1.09 1.03 0.92 0.90 0.82 0.83 0.84 0.79 0.83 0.85 0.95 0.94 0.80 0.87 0.76 0.59 0.55 0.54 0.62 0.75 0.62 0.51 0.49 0.53 0.58 0.64 0.67 0.78 0.78 0.68 0.63 0.64 0.60 0.60 0.62 0.57 0.63 0.68 0.65 0.67 0.55
1.25 1.06 1.03 0.80 0.79 0.79 0.74 0.68 0.80 0.84 0.74 0.60 0.91 1.00 0.94 0.85 0.89 0.91 0.84 0.81 0.80 0.72 0.70 0.58 0.51 0.52 0.47 0.39 0.52 0.55 0.70 0.70 0.60 0.66 0.72 0.67 0.70 0.76 0.74 0.78 0.82 0.78 0.70 0.64 0.60 0.58 0.61 0.61 0.45 0.31 0.40 0.57 0.45 0.42
1.28 0.74 0.57 0.55 0.57 0.59 0.60 0.47 0.33 0.24 0.39 0.72 0.80 1.09 0.81 0.91 0.92 0.84 0.78 0.62 0.62 0.50 0.42 0.44 0.36 0.30 0.43 0.48 0.63 0.70 0.73 0.75 0.78 0.80 0.81 0.83 0.79 0.80 0.81 0.82 0.84 0.75 0.65 0.61 0.53 0.53 0.54 0.49 0.38 0.44 0.39 0.38 0.26 0.25
1.25 0.83 0.60 0.60 0.40 0.29 0.31 0.20 0.08 0.24 0.59 0.65 0.78 0.68 0.54 0.64 0.64 0.61 0.44 0.39 0.47 0.36 0.32 0.35 0.39 0.49 0.64 0.70 0.78 0.75 0.77 0.78 0.82 0.78 0.75 0.78 0.77 0.78 0.80 0.76 0.69 0.64 0.50 0.50 0.42 0.40 0.42 0.38 0.37 0.32 0.27 0.18 0.17 0.17
1.21 0.92 0.66 0.40 0.17 0.15 0.15 0.08 0.01 0.12 0.39 0.47 0.42 0.27 0.25 0.37 0.28 0.17 0.15 0.09 0.16 0.35 0.47 0.45 0.77 0.92 0.90 0.95 0.87 0.79 0.81 0.73 0.49 0.46 0.63 0.73 0.80 0.64 0.70 0.63 0.57 0.53 0.40 0.39 0.36 0.34 0.26 0.20 0.19 0.18 0.16 0.17 0.16 0.18
1.16 1.08 0.81 0.47 0.23 0.20 0.18 0.04 0.07 0.09 0.17 0.28 0.23 0.07 0.14 0.11 0.15 0.14 0.16 0.04 0.14 0.36 0.67 0.79 0.79 0.86 0.73 0.73 0.63 0.53 0.52 0.43 0.38 0.34 0.43 0.54 0.65 0.48 0.50 0.52 0.47 0.42 0.35 0.35 0.27 0.28 0.21 0.22 0.23 0.17 0.17 0.14 0.13 0.13
0.77 0.86 0.87 0.56 0.36 0.14 0.16 0.04 0.06 0.04 0.04 0.08 0.07 0.05 0.11 0.17 0.17 0.13 0.08 0.10 0.41 0.64 0.66 0.57 0.59 0.49 0.37 0.43 0.52 0.50 0.58 0.43 0.36 0.32 0.34 0.32 0.38 0.37 0.41 0.46 0.32 0.31 0.29 0.30 0.23 0.20 0.17 0.14 0.12 0.11 0.10 0.10 0.10 0.09
0.39 0.49 0.53 0.49 0.37 0.16 0.21 0.11 0.06 0.03 0.04 0.06 0.07 0.05 0.06 0.08 0.12 0.06 0.12 0.22 0.50 0.63 0.44 0.33 0.34 0.27 0.27 0.34 0.22 0.21 0.26 0.25 0.33 0.40 0.40 0.34 0.33 0.34 0.29 0.30 0.27 0.24 0.21 0.21 0.17 0.17 0.15 0.11 0.08 0.08 0.08 0.08 0.10 0.12
0.35 0.52 0.56 0.44 0.26 0.19 0.14 0.23 0.14 0.07 0.05 0.06 0.07 0.08 0.08 0.07 0.08 0.06 0.14 0.27 0.46 0.34 0.23 0.24 0.22 0.20 0.15 0.10 0.12 0.15 0.18 0.12 0.15 0.19 0.23 0.16 0.14 0.19 0.16 0.15 0.14 0.16 0.17 0.16 0.14 0.14 0.13 0.11 0.09 0.11 0.11 0.12 0.15 0.17
0.53 0.44 0.42 0.31 0.16 0.09 0.07 0.13 0.19 0.08 0.06 0.05 0.08 0.09 0.07 0.04 0.07 0.08 0.13 0.35 0.29 0.30 0.28 0.25 0.18 0.16 0.18 0.21 0.19 0.17 0.13 0.10 0.09 0.09 0.15 0.13 0.12 0.11 0.08 0.07 0.07 0.08 0.07 0.11 0.13 0.13 0.14 0.13 0.15 0.17 0.15 0.16 0.19 0.22
0.48 0.31 0.20 0.14 0.07 0.08 0.06 0.07 0.07 0.06 0.05 0.10 0.12 0.12 0.08 0.08 0.08 0.15 0.25 0.39 0.31 0.30 0.32 0.31 0.27 0.19 0.18 0.15 0.16 0.15 0.12 0.11 0.08 0.07 0.11 0.07 0.08 0.12 0.10 0.07 0.06 0.08 0.09 0.11 0.14 0.14 0.10 0.12 0.17 0.16 0.22 0.21 0.17 0.20
0.26 0.21 0.09 0.07 0.10 0.15 0.14 0.10 0.10 0.12 0.11 0.16 0.15 0.12 0.18 0.16 0.15 0.31 0.36 0.35 0.32 0.30 0.23 0.21 0.15 0.13 0.15 0.14 0.12 0.10 0.07 0.04 0.04 0.05 0.04 0.03 0.05 0.08 0.15 0.21 0.21 0.17 0.09 0.11 0.14 0.15 0.17 0.18 0.16 0.15 0.18 0.23 0.26 0.29
0.14 0.12 0.14 0.23 0.29 0.26 0.28 0.23 0.23 0.26 0.33 0.36 0.23 0.18 0.20 0.18 0.35 0.49 0.45 0.43 0.42 0.24 0.17 0.12 0.07 0.06 0.06 0.07 0.08 0.09 0.08 0.06 0.03 0.02 0.03 0.09 0.12 0.13 0.14 0.16 0.15 0.11 0.12 0.14 0.15 0.16 0.18 0.20 0.18 0.18 0.19 0.23 0.30 0.31
0.20 0.25 0.24 0.27 0.27 0.25 0.28 0.30 0.31 0.26 0.23 0.26 0.26 0.27 0.20 0.27 0.47 0.45 0.38 0.35 0.28 0.16 0.16 0.15 0.22 0.12 0.09 0.07 0.09 0.11 0.10 0.10 0.10 0.09 0.08 0.11 0.19 0.21 0.15 0.13 0.12 0.11 0.12 0.11 0.12 0.16 0.18 0.20 0.17 0.19 0.25 0.26 0.24 0.22
0.17 0.18 0.18 0.15 0.17 0.21 0.29 0.21 0.22 0.17 0.11 0.12 0.11 0.15 0.19 0.45 0.67 0.43 0.30 0.28 0.27 0.25 0.21 0.18 0.19 0.15 0.17 0.12 0.13 0.16 0.18 0.12 0.12 0.19 0.17 0.14 0.16 0.17 0.14 0.13 0.11 0.11 0.11 0.10 0.10 0.10 0.10 0.08 0.09 0.16 0.12 0.10 0.13 0.15
0.20 0.23 0.20 0.17 0.24 0.27 0.24 0.19 0.18 0.15 0.14 0.14 0.12 0.15 0.31 0.43 0.49 0.42 0.32 0.38 0.29 0.16 0.17 0.18 0.17 0.19 0.21 0.21 0.18 0.15 0.18 0.16 0.14 0.13 0.12 0.13 0.13 0.12 0.11 0.08 0.08 0.08 0.07 0.07 0.07 0.08 0.08 0.08 0.10 0.11 0.08 0.07 0.08 0.08
0.28 0.30 0.23 0.23 0.31 0.24 0.30 0.31 0.22 0.23 0.22 0.16 0.22 0.18 0.25 0.24 0.26 0.30 0.35 0.34 0.34 0.24 0.24 0.24 0.23 0.29 0.27 0.26 0.22 0.19 0.16 0.16 0.14 0.15 0.14 0.14 0.13 0.11 0.08 0.06 0.06 0.07 0.07 0.07 0.07 0.09 0.09 0.09 0.09 0.08 0.09 0.07 0.07 0.06
0.18 0.17 0.18 0.18 0.20 0.22 0.22 0.22 0.17 0.18 0.18 0.20 0.29 0.29 0.28 0.21 0.23 0.30 0.32 0.37 0.45 0.33 0.27 0.27 0.29 0.30 0.28 0.21 0.19 0.20 0.17 0.18 0.17 0.16 0.14 0.12 0.09 0.07 0.06 0.05 0.05 0.05 0.05 0.06 0.07 0.09 0.07 0.07 0.07 0.07 0.06 0.06 0.05 0.05

GFSWCAN_prec_precacc_156.txt.gz
Total_Precipitation_Accumulation
1.87 1.69 1.54 1.54 1.37 1.22 1.04 1.09 1.24 1.24 1.24 1.03 0.98 1.14 1.24 1.38 1.58 2.03 1.80 1.16 2.18 2.12 0.67 0.37 0.32 0.31 0.20 0.36 0.67 0.48 0.93 0.74 0.97 0.82 0.47 0.27 0.19 0.19 0.27 0.24 0.29 0.28 0.57 0.62 0.71 0.76 0.38 0.05 0.17 0.35 0.36 0.15 0.09 0.07
2.11 1.73 1.51 1.50 1.39 1.29 1.03 1.02 1.03 1.15 1.16 0.97 0.83 0.92 1.04 1.39 1.85 2.52 2.56 1.31 1.69 2.24 1.29 0.59 0.33 0.28 0.16 0.21 0.60 0.77 0.58 0.59 0.54 0.67 0.44 0.38 0.37 0.29 0.21 0.53 0.28 0.46 0.17 0.26 0.30 0.35 0.38 0.26 0.28 0.27 0.14 0.18 0.16 0.10
2.34 1.71 1.34 1.34 1.25 1.07 0.98 0.93 0.89 1.05 1.05 0.89 0.89 0.97 1.13 1.25 1.77 3.29 2.78 1.50 3.50 3.35 1.55 0.63 0.41 0.21 0.23 0.19 0.37 0.83 0.51 0.58 0.76 0.66 0.76 0.64 0.46 0.25 0.27 0.31 0.41 0.62 0.48 0.47 0.61 0.67 0.46 0.53 0.36 0.13 0.11 0.21 0.22 0.16
2.34 1.81 1.31 1.34 1.22 0.96 1.00 0.96 0.77 0.94 1.04 0.94 0.99 1.11 1.10 1.26 1.83 3.21 2.97 1.78 3.29 2.73 1.99 0.82 0.33 0.34 0.29 0.23 0.20 0.27 0.34 0.38 0.54 0.90 0.86 0.65 0.42 0.23 0.25 0.36 0.41 0.40 0.67 0.86 1.01 0.84 0.65 0.74 0.73 0.57 0.40 0.18 0.15 0.17
2.28 1.80 1.45 1.36 1.19 0.91 0.88 0.82 0.72 0.85 0.96 0.99 1.04 1.05 1.35 1.59 2.41 3.12 2.45 1.79 2.03 2.24 2.01 1.07 0.35 0.33 0.34 0.37 0.25 0.30 0.42 0.51 0.72 1.10 1.13 0.54 0.32 0.29 0.28 0.52 0.42 0.18 0.48 0.92 1.43 1.10 0.94 0.93 0.51 0.36 0.31 0.27 0.15 0.07
2.12 1.65 1.50 1.26 1.06 0.77 0.69 0.71 0.73 0.81 0.81 0.93 0.97 1.27 1.67 2.29 3.49 4.61 6.05 3.26 1.58 2.11 2.45 1.60 0.83 0.33 0.38 0.48 0.44 0.36 0.47 0.78 1.02 1.02 0.87 0.60 0.38 0.83 0.83 0.73 0.36 0.17 0.22 0.36 0.63 0.92 0.88 0.73 0.47 0.26 0.17 0.09 0.03 0.01
1.86 1.56 1.54 1.23 0.97 0.68 0.71 0.67 0.65 0.70 0.78 1.03 1.27 1.51 2.06 3.01 2.92 2.67 2.75 1.60 1.11 2.16 3.04 1.78 1.31 0.50 0.43 0.71 0.84 0.80 0.87 1.09 1.04 1.05 0.69 0.39 0.43 0.86 1.19 0.84 0.47 0.30 0.31 0.40 0.41 0.47 0.37 0.23 0.15 0.07 0.02 0.01 0.02 0.01
1.77 1.56 1.29 1.03 0.86 0.72 0.69 0.67 0.66 0.79 1.09 1.35 1.74 2.13 2.90 3.48 3.20 2.17 0.96 0.83 1.17 2.32 1.78 1.44 1.45 1.31 0.86 0.98 1.23 1.06 1.31 1.27 1.30 1.08 0.61 0.46 0.56 0.80 0.89 0.28 0.07 0.11 0.15 0.19 0.22 0.19 0.20 0.14 0.05 0.03 0.02 0.03 0.04 0.07
1.35 1.04 0.81 0.78 0.74 0.66 0.65 0.76 1.00 1.46 1.61 1.94 2.47 3.82 5.15 4.68 3.92 1.93 1.31 1.29 1.54 2.15 1.54 0.74 1.12 1.76 1.40 1.14 1.21 1.42 1.23 1.47 1.00 0.70 0.42 0.73 0.84 0.96 0.49 0.08 0.03 0.02 0.02 0.02 0.03 0.05 0.09 0.09 0.07 0.04 0.04 0.06 0.13 0.29
0.99 0.78 0.62 0.66 0.69 0.82 0.93 1.24 1.66 2.15 2.40 2.96 4.09 5.40 5.95 3.13 1.77 2.28 3.75 3.53 3.18 2.06 0.95 0.56 0.68 1.62 1.85 1.66 1.16 1.51 1.45 1.12 1.09 0.55 0.59 0.67 0.76 0.51 0.16 0.05 0.02 0.01 0.01 0.01 0.01 0.02 0.04 0.10 0.13 0.15 0.22 0.29 0.31 0.27
0.99 0.72 0.58 0.62 0.71 0.79 0.87 1.13 1.54 2.12 3.09 4.12 4.64 4.39 3.34 2.49 2.25 3.03 3.36 2.53 1.83 0.97 0.42 0.45 0.51 1.08 1.52 1.61 1.23 1.18 1.47 1.14 0.83 0.85 0.93 0.93 0.54 0.33 0.19 0.11 0.04 0.02 0.01 0.01 0.02 0.03 0.07 0.15 0.31 0.32 0.22 0.16 0.13 0.12
1.08 0.71 0.60 0.60 0.61 0.66 0.67 0.86 1.31 1.85 2.73 3.07 3.25 3.37 4.09 3.61 2.87 2.70 2.23 1.36 0.63 0.47 0.28 0.32 0.38 0.64 1.48 1.73 1.65 1.48 1.53 1.33 0.85 0.82 1.05 0.85 0.53 0.18 0.11 0.11 0.08 0.05 0.05 0.06 0.12 0.19 0.23 0.26 0.23 0.18 0.15 0.15 0.17 0.18
1.09 0.76 0.69 0.64 0.66 0.76 0.78 0.98 1.11 1.44 2.30 2.83 2.84 3.21 3.59 3.08 2.60 1.78 1.11 0.62 0.44 0.53 0.25 0.35 0.43 0.68 1.02 1.58 2.10 1.34 1.53 1.70 1.06 1.04 0.88 0.59 0.40 0.28 0.31 0.30 0.33 0.32 0.29 0.27 0.21 0.17 0.15 0.13 0.10 0.11 0.15 0.21 0.24 0.32
0.98 0.69 0.69 0.66 0.75 0.96 0.98 1.21 1.41 2.05 2.24 2.47 2.55 2.61 2.34 1.93 1.35 0.98 0.63 0.43 0.39 0.33 0.29 0.63 0.42 0.60 0.80 1.20 1.76 1.52 1.53 1.28 1.48 0.89 0.65 0.65 0.74 0.71 0.47 0.36 0.33 0.41 0.43 0.43 0.44 0.41 0.41 0.41 0.48 0.55 0.62 0.73 0.68 0.88
0.80 0.69 0.71 0.77 0.84 0.90 1.23 1.44 1.37 1.46 1.59 1.58 1.49 1.48 1.15 1.25 1.02 0.85 0.72 0.60 0.55 0.50 0.61 0.87 0.95 0.94 1.06 1.32 1.17 0.97 0.93 0.81 0.66 0.74 0.73 0.72 0.77 0.60 0.49 0.51 0.54 0.60 0.62 0.61 0.62 0.62 0.72 0.75 0.68 0.84 0.96 0.93 0.78 0.79
1.13 1.11 0.95 0.88 0.92 0.96 1.06 1.14 1.19 1.22 0.95 0.84 0.87 1.10 1.04 0.93 0.91 0.83 0.84 0.84 0.79 0.84 0.89 0.98 0.97 0.82 0.87 0.76 0.59 0.55 0.54 0.62 0.75 0.62 0.51 0.49 0.53 0.58 0.64 0.67 0.78 0.78 0.68 0.63 0.64 0.60 0.60 0.62 0.57 0.63 0.68 0.65 0.67 0.55
1.25 1.08 1.09 0.86 0.83 0.82 0.77 0.70 0.81 0.85 0.75 0.61 0.93 1.00 0.95 0.86 0.90 0.92 0.84 0.81 0.80 0.75 0.76 0.60 0.52 0.53 0.47 0.39 0.52 0.55 0.71 0.71 0.60 0.66 0.72 0.67 0.70 0.76 0.74 0.78 0.82 0.78 0.70 0.64 0.60 0.58 0.61 0.61 0.45 0.31 0.40 0.57 0.45 0.42
1.30 0.76 0.62 0.59 0.59 0.59 0.60 0.48 0.35 0.26 0.42 0.75 0.82 1.11 0.82 0.92 0.92 0.84 0.78 0.63 0.64 0.55 0.46 0.45 0.37 0.30 0.43 0.49 0.64 0.70 0.73 0.75 0.78 0.80 0.81 0.83 0.79 0.80 0.81 0.82 0.84 0.75 0.65 0.61 0.53 0.53 0.54 0.49 0.38 0.44 0.39 0.38 0.26 0.25
1.27 0.84 0.60 0.60 0.40 0.30 0.32 0.21 0.10 0.25 0.60 0.67 0.79 0.69 0.54 0.65 0.65 0.63 0.45 0.40 0.51 0.41 0.36 0.36 0.39 0.49 0.64 0.70 0.79 0.75 0.77 0.78 0.82 0.79 0.75 0.78 0.77 0.78 0.80 0.76 0.69 0.64 0.50 0.50 0.42 0.40 0.42 0.38 0.37 0.32 0.27 0.18 0.17 0.17
1.21 0.92 0.66 0.40 0.17 0.15 0.15 0.08 0.01 0.13 0.39 0.47 0.42 0.28 0.26 0.38 0.29 0.19 0.16 0.10 0.16 0.35 0.48 0.45 0.77 0.92 0.91 0.95 0.87 0.79 0.81 0.73 0.49 0.46 0.63 0.74 0.80 0.64 0.70 0.63 0.57 0.53 0.40 0.39 0.36 0.34 0.26 0.20 0.19 0.18 0.16 0.17 0.16 0.18
1.16 1.08 0.81 0.47 0.23 0.20 0.19 0.04 0.07 0.09 0.17 0.28 0.23 0.08 0.15 0.11 0.16 0.15 0.17 0.04 0.15 0.36 0.67 0.79 0.79 0.86 0.73 0.73 0.63 0.53 0.52 0.43 0.38 0.34 0.43 0.55 0.65 0.48 0.50 0.53 0.47 0.42 0.35 0.35 0.27 0.28 0.21 0.22 0.23 0.18 0.17 0.15 0.14 0.14
0.77 0.86 0.87 0.56 0.36 0.14 0.16 0.04 0.06 0.05 0.04 0.09 0.08 0.06 0.13 0.19 0.17 0.13 0.08 0.11 0.42 0.64 0.66 0.57 0.59 0.49 0.37 0.43 0.52 0.50 0.58 0.43 0.36 0.32 0.34 0.32 0.38 0.37 0.41 0.46 0.33 0.31 0.29 0.30 0.23 0.21 0.17 0.14 0.12 0.11 0.11 0.10 0.10 0.10
0.39 0.49 0.53 0.49 0.37 0.16 0.21 0.11 0.07 0.03 0.05 0.07 0.08 0.06 0.07 0.09 0.12 0.06 0.12 0.22 0.51 0.63 0.44 0.33 0.34 0.27 0.27 0.34 0.22 0.21 0.26 0.25 0.33 0.40 0.40 0.34 0.33 0.34 0.29 0.30 0.27 0.24 0.21 0.21 0.17 0.17 0.15 0.11 0.08 0.08 0.09 0.08 0.10 0.12
0.35 0.52 0.56 0.44 0.26 0.19 0.14 0.23 0.14 0.07 0.05 0.06 0.07 0.09 0.08 0.08 0.08 0.06 0.15 0.27 0.46 0.34 0.23 0.24 0.22 0.20 0.15 0.10 0.12 0.15 0.18 0.12 0.15 0.19 0.23 0.16 0.14 0.20 0.16 0.15 0.14 0.16 0.17 0.16 0.14 0.15 0.13 0.12 0.09 0.12 0.12 0.12 0.15 0.17
0.53 0.44 0.42 0.31 0.16 0.09 0.07 0.13 0.19 0.08 0.06 0.05 0.08 0.10 0.07 0.05 0.08 0.09 0.13 0.35 0.29 0.30 0.28 0.25 0.18 0.17 0.18 0.21 0.19 0.17 0.13 0.10 0.09 0.09 0.15 0.13 0.12 0.11 0.08 0.07 0.07 0.08 0.07 0.11 0.13 0.14 0.16 0.14 0.16 0.18 0.16 0.17 0.20 0.23
0.48 0.31 0.20 0.14 0.07 0.08 0.06 0.07 0.07 0.06 0.05 0.10 0.13 0.13 0.08 0.09 0.08 0.16 0.26 0.39 0.31 0.31 0.33 0.33 0.28 0.19 0.18 0.16 0.16 0.15 0.12 0.11 0.08 0.07 0.11 0.07 0.08 0.12 0.10 0.07 0.06 0.08 0.09 0.12 0.15 0.15 0.11 0.13 0.18 0.17 0.24 0.23 0.19 0.21
0.26 0.21 0.09 0.07 0.10 0.15 0.14 0.11 0.10 0.12 0.11 0.16 0.15 0.12 0.18 0.16 0.16 0.32 0.37 0.35 0.32 0.31 0.24 0.22 0.16 0.15 0.16 0.15 0.12 0.10 0.07 0.04 0.04 0.05 0.04 0.03 0.05 0.08 0.15 0.21 0.22 0.18 0.09 0.11 0.14 0.16 0.18 0.18 0.17 0.16 0.20 0.24 0.27 0.30
0.14 0.12 0.14 0.23 0.29 0.26 0.28 0.23 0.23 0.26 0.33 0.36 0.23 0.18 0.21 0.19 0.36 0.49 0.45 0.43 0.42 0.24 0.17 0.13 0.07 0.06 0.06 0.07 0.08 0.09 0.09 0.07 0.04 0.02 0.04 0.09 0.12 0.13 0.14 0.16 0.15 0.11 0.12 0.14 0.16 0.16 0.18 0.21 0.19 0.19 0.19 0.24 0.31 0.32
0.20 0.25 0.24 0.27 0.27 0.25 0.28 0.30 0.31 0.26 0.23 0.26 0.26 0.28 0.21 0.27 0.47 0.45 0.38 0.35 0.28 0.17 0.16 0.16 0.22 0.13 0.10 0.08 0.10 0.11 0.11 0.10 0.11 0.10 0.08 0.12 0.20 0.21 0.15 0.13 0.13 0.11 0.12 0.12 0.12 0.16 0.18 0.20 0.18 0.20 0.26 0.27 0.25 0.23
0.17 0.18 0.19 0.15 0.17 0.21 0.29 0.21 0.22 0.18 0.11 0.12 0.11 0.15 0.19 0.46 0.67 0.43 0.30 0.28 0.27 0.26 0.22 0.18 0.19 0.16 0.17 0.13 0.14 0.17 0.18 0.12 0.13 0.19 0.18 0.15 0.17 0.18 0.14 0.13 0.12 0.11 0.11 0.10 0.10 0.11 0.10 0.08 0.10 0.17 0.13 0.10 0.13 0.16
0.20 0.23 0.21 0.17 0.25 0.27 0.24 0.19 0.18 0.15 0.15 0.14 0.13 0.16 0.32 0.44 0.50 0.42 0.32 0.38 0.30 0.17 0.17 0.18 0.18 0.19 0.21 0.21 0.19 0.15 0.19 0.16 0.14 0.13 0.12 0.13 0.13 0.12 0.11 0.09 0.08 0.08 0.08 0.07 0.07 0.08 0.08 0.08 0.11 0.12 0.08 0.07 0.09 0.08
0.28 0.30 0.24 0.24 0.32 0.25 0.31 0.31 0.23 0.24 0.23 0.17 0.23 0.20 0.26 0.24 0.27 0.31 0.35 0.35 0.34 0.24 0.25 0.25 0.24 0.30 0.29 0.27 0.23 0.20 0.16 0.16 0.14 0.15 0.15 0.14 0.13 0.12 0.08 0.07 0.07 0.08 0.07 0.07 0.07 0.09 0.09 0.09 0.09 0.09 0.09 0.07 0.07 0.07
0.18 0.18 0.18 0.19 0.21 0.24 0.23 0.23 0.17 0.19 0.19 0.21 0.30 0.30 0.30 0.22 0.25 0.32 0.32 0.38 0.46 0.35 0.30 0.30 0.32 0.32 0.29 0.22 0.20 0.20 0.17 0.18 0.17 0.17 0.15 0.12 0.10 0.08 0.07 0.06 0.06 0.06 0.06 0.06 0.08 0.09 0.07 0.07 0.07 0.08 0.06 0.06 0.05 0.05

GFSWCAN_prec_precacc_159.txt.gz
Total_Precipitation_Accumulation
1.90 1.72 1.56 1.56 1.39 1.23 1.05 1.10 1.24 1.25 1.25 1.04 1.00 1.20 1.41 1.64 1.84 2.23 1.89 1.23 2.23 2.13 0.67 0.37 0.32 0.31 0.20 0.37 0.68 0.50 0.96 0.77 0.99 0.85 0.49 0.27 0.20 0.20 0.28 0.25 0.31 0.36 0.70 0.69 0.72 0.79 0.39 0.05 0.19 0.38 0.38 0.15 0.09 0.07
2.13 1.75 1.53 1.53 1.42 1.32 1.05 1.03 1.04 1.15 1.17 0.98 0.87 1.04 1.24 1.60 2.07 2.66 2.69 1.39 1.73 2.27 1.30 0.59 0.33 0.28 0.16 0.21 0.61 0.77 0.60 0.61 0.56 0.68 0.49 0.42 0.39 0.32 0.24 0.57 0.31 0.51 0.25 0.31 0.31 0.35 0.39 0.27 0.32 0.32 0.16 0.18 0.16 0.10
2.35 1.72 1.36 1.36 1.27 1.10 1.01 0.95 0.91 1.06 1.06 0.91 0.98 1.09 1.35 1.46 1.88 3.38 2.86 1.56 3.56 3.39 1.55 0.63 0.41 0.21 0.23 0.19 0.37 0.83 0.51 0.59 0.77 0.68 0.79 0.66 0.47 0.25 0.28 0.31 0.44 0.66 0.54 0.51 0.63 0.68 0.50 0.58 0.37 0.13 0.11 0.21 0.22 0.16
2.35 1.81 1.33 1.36 1.24 0.98 1.03 0.98 0.78 0.95 1.06 0.99 1.11 1.29 1.32 1.52 1.99 3.27 3.01 1.80 3.33 2.76 1.99 0.82 0.33 0.34 0.29 0.23 0.20 0.27 0.34 0.38 0.54 0.91 0.88 0.67 0.43 0.23 0.26 0.42 0.53 0.49 0.74 0.98 1.21 0.93 0.69 0.81 0.75 0.58 0.40 0.18 0.15 0.17
2.29 1.81 1.46 1.37 1.22 0.95 0.94 0.85 0.73 0.87 1.00 1.08 1.16 1.25 1.57 1.78 2.56 3.21 2.49 1.84 2.05 2.28 2.04 1.07 0.35 0.33 0.34 0.37 0.25 0.30 0.42 0.51 0.73 1.11 1.15 0.56 0.32 0.30 0.28 0.53 0.42 0.19 0.52 1.01 1.55 1.14 0.95 0.95 0.51 0.36 0.31 0.27 0.15 0.07
2.13 1.65 1.50 1.27 1.08 0.83 0.79 0.75 0.77 0.94 0.92 1.09 1.13 1.48 1.88 2.48 3.66 4.70 6.19 3.38 1.67 2.15 2.46 1.60 0.83 0.33 0.38 0.48 0.44 0.36 0.47 0.80 1.04 1.04 0.88 0.61 0.38 0.85 0.85 0.73 0.36 0.18 0.25 0.41 0.69 0.96 0.89 0.73 0.47 0.26 0.17 0.09 0.03 0.01
1.86 1.57 1.55 1.26 1.03 0.83 0.77 0.76 0.83 0.93 0.98 1.25 1.47 1.70 2.23 3.16 2.99 2.70 2.78 1.62 1.14 2.18 3.04 1.78 1.31 0.50 0.43 0.71 0.85 0.80 0.89 1.13 1.07 1.07 0.70 0.40 0.43 0.91 1.24 0.85 0.47 0.30 0.31 0.40 0.41 0.47 0.37 0.23 0.15 0.07 0.02 0.01 0.02 0.01
1.79 1.64 1.40 1.17 1.00 0.83 0.81 0.90 0.97 1.03 1.32 1.55 1.90 2.23 2.99 3.53 3.21 2.17 0.96 0.84 1.17 2.33 1.79 1.46 1.45 1.33 0.88 1.00 1.25 1.08 1.34 1.30 1.35 1.11 0.67 0.47 0.57 0.84 0.93 0.28 0.07 0.11 0.15 0.19 0.22 0.19 0.20 0.14 0.05 0.03 0.02 0.03 0.04 0.07
1.57 1.25 1.00 0.94 0.86 0.80 0.82 0.94 1.16 1.60 1.73 2.02 2.51 3.83 5.15 4.68 3.92 1.94 1.32 1.31 1.55 2.16 1.55 0.75 1.12 1.78 1.44 1.16 1.21 1.42 1.24 1.49 1.03 0.72 0.43 0.74 0.86 0.99 0.49 0.08 0.03 0.02 0.02 0.02 0.03 0.05 0.09 0.09 0.07 0.04 0.04 0.06 0.13 0.29
1.10 0.87 0.69 0.72 0.75 0.86 0.96 1.26 1.68 2.16 2.40 2.96 4.10 5.42 5.97 3.14 1.79 2.31 3.85 3.62 3.25 2.10 0.96 0.56 0.68 1.63 1.89 1.69 1.18 1.55 1.51 1.18 1.13 0.56 0.60 0.70 0.76 0.51 0.16 0.05 0.02 0.01 0.01 0.01 0.01 0.02 0.04 0.10 0.13 0.15 0.22 0.29 0.31 0.27
0.99 0.72 0.58 0.62 0.71 0.79 0.87 1.13 1.54 2.12 3.09 4.13 4.69 4.45 3.37 2.56 2.36 3.13 3.46 2.60 1.88 1.00 0.43 0.45 0.51 1.09 1.57 1.64 1.26 1.23 1.56 1.23 0.90 0.88 0.95 0.95 0.54 0.33 0.19 0.11 0.04 0.03 0.03 0.01 0.02 0.03 0.07 0.15 0.31 0.32 0.22 0.16 0.13 0.12
1.08 0.71 0.60 0.60 0.61 0.66 0.67 0.86 1.31 1.85 2.74 3.08 3.26 3.40 4.20 3.69 2.92 2.73 2.24 1.36 0.64 0.47 0.28 0.32 0.38 0.64 1.49 1.76 1.67 1.53 1.60 1.50 0.94 0.85 1.08 0.85 0.53 0.18 0.11 0.11 0.09 0.07 0.06 0.06 0.12 0.19 0.23 0.26 0.23 0.18 0.15 0.15 0.17 0.18
1.09 0.76 0.69 0.65 0.66 0.76 0.78 0.98 1.12 1.45 2.30 2.83 2.84 3.23 3.59 3.08 2.61 1.78 1.12 0.62 0.44 0.54 0.26 0.38 0.44 0.68 1.02 1.58 2.11 1.39 1.58 1.71 1.07 1.05 0.88 0.59 0.40 0.28 0.31 0.30 0.33 0.32 0.29 0.27 0.21 0.17 0.15 0.13 0.10 0.11 0.15 0.21 0.24 0.32
0.98 0.69 0.69 0.66 0.75 0.96 0.99 1.21 1.41 2.05 2.24 2.47 2.55 2.61 2.35 1.96 1.36 0.99 0.64 0.44 0.41 0.36 0.34 0.67 0.43 0.60 0.80 1.20 1.77 1.56 1.55 1.28 1.48 0.89 0.65 0.65 0.74 0.71 0.47 0.36 0.33 0.41 0.43 0.43 0.44 0.41 0.41 0.41 0.48 0.55 0.62 0.73 0.68 0.88
0.80 0.69 0.71 0.78 0.85 0.91 1.23 1.44 1.37 1.46 1.59 1.58 1.50 1.50 1.15 1.25 1.02 0.85 0.72 0.60 0.55 0.53 0.67 0.93 0.99 0.95 1.15 1.36 1.18 0.98 0.93 0.81 0.66 0.74 0.73 0.72 0.77 0.60 0.49 0.51 0.54 0.60 0.62 0.61 0.62 0.62 0.72 0.75 0.68 0.84 0.96 0.93 0.78 0.79
1.13 1.11 0.95 0.88 0.92 0.96 1.07 1.14 1.19 1.23 0.95 0.84 0.88 1.11 1.04 0.93 0.91 0.83 0.84 0.84 0.80 0.89 0.93 1.07 1.07 0.89 0.95 0.77 0.60 0.55 0.54 0.62 0.75 0.62 0.51 0.49 0.53 0.58 0.64 0.67 0.78 0.78 0.68 0.63 0.64 0.60 0.60 0.62 0.57 0.63 0.68 0.65 0.67 0.55
1.25 1.09 1.11 0.87 0.83 0.83 0.78 0.70 0.81 0.85 0.75 0.61 0.93 1.01 0.95 0.87 0.92 0.93 0.85 0.81 0.80 0.79 0.88 0.79 0.54 0.53 0.47 0.39 0.52 0.55 0.71 0.71 0.60 0.66 0.72 0.67 0.70 0.76 0.74 0.78 0.82 0.78 0.70 0.64 0.60 0.58 0.61 0.61 0.45 0.31 0.40 0.57 0.45 0.42
1.30 0.78 0.64 0.60 0.59 0.60 0.60 0.48 0.36 0.28 0.43 0.76 0.84 1.13 0.83 0.94 0.93 0.85 0.79 0.63 0.65 0.58 0.49 0.51 0.37 0.30 0.43 0.49 0.64 0.70 0.73 0.75 0.78 0.80 0.81 0.83 0.79 0.80 0.81 0.82 0.84 0.75 0.65 0.61 0.53 0.53 0.54 0.49 0.38 0.44 0.39 0.38 0.26 0.25
1.29 0.85 0.61 0.60 0.40 0.31 0.32 0.21 0.10 0.28 0.60 0.68 0.80 0.69 0.55 0.67 0.65 0.63 0.45 0.40 0.52 0.46 0.51 0.38 0.40 0.50 0.65 0.70 0.79 0.75 0.77 0.78 0.82 0.79 0.75 0.78 0.77 0.78 0.81 0.76 0.69 0.64 0.50 0.50 0.42 0.40 0.42 0.38 0.37 0.32 0.27 0.18 0.17 0.17
1.21 0.92 0.66 0.40 0.18 0.18 0.16 0.09 0.02 0.14 0.39 0.47 0.42 0.28 0.26 0.38 0.29 0.20 0.17 0.10 0.16 0.38 0.50 0.46 0.77 0.92 0.91 0.95 0.87 0.79 0.81 0.73 0.49 0.46 0.64 0.75 0.81 0.65 0.70 0.63 0.57 0.53 0.40 0.39 0.36 0.34 0.26 0.20 0.19 0.18 0.16 0.17 0.16 0.18
1.16 1.08 0.81 0.47 0.23 0.21 0.19 0.05 0.08 0.09 0.17 0.29 0.23 0.09 0.15 0.11 0.16 0.15 0.18 0.04 0.15 0.37 0.67 0.79 0.79 0.86 0.73 0.73 0.63 0.53 0.52 0.43 0.38 0.34 0.43 0.56 0.66 0.49 0.50 0.53 0.47 0.42 0.35 0.35 0.27 0.28 0.21 0.22 0.23 0.18 0.17 0.15 0.15 0.15
0.77 0.86 0.87 0.56 0.36 0.14 0.16 0.04 0.06 0.05 0.04 0.09 0.08 0.06 0.14 0.20 0.18 0.13 0.08 0.12 0.43 0.64 0.66 0.57 0.59 0.49 0.37 0.43 0.52 0.50 0.58 0.43 0.36 0.32 0.34 0.32 0.39 0.39 0.42 0.47 0.33 0.31 0.29 0.30 0.23 0.21 0.17 0.14 0.12 0.11 0.11 0.10 0.11 0.10
0.39 0.49 0.53 0.49 0.37 0.16 0.21 0.11 0.07 0.03 0.06 0.08 0.08 0.06 0.07 0.09 0.12 0.06 0.12 0.22 0.51 0.63 0.44 0.33 0.34 0.27 0.27 0.34 0.22 0.21 0.26 0.25 0.33 0.40 0.40 0.34 0.33 0.34 0.29 0.30 0.27 0.24 0.21 0.21 0.17 0.17 0.15 0.11 0.08 0.08 0.09 0.08 0.10 0.13
0.35 0.52 0.56 0.44 0.26 0.19 0.14 0.23 0.14 0.07 0.05 0.06 0.08 0.09 0.09 0.08 0.08 0.07 0.15 0.27 0.46 0.34 0.23 0.24 0.22 0.20 0.15 0.10 0.12 0.15 0.18 0.12 0.15 0.19 0.23 0.16 0.14 0.20 0.16 0.15 0.14 0.16 0.17 0.16 0.14 0.15 0.13 0.12 0.10 0.12 0.12 0.12 0.15 0.18
0.53 0.44 0.42 0.31 0.16 0.09 0.07 0.13 0.19 0.08 0.06 0.05 0.09 0.10 0.08 0.05 0.08 0.09 0.14 0.35 0.29 0.30 0.28 0.25 0.19 0.17 0.18 0.21 0.19 0.17 0.13 0.10 0.09 0.09 0.15 0.13 0.12 0.11 0.08 0.07 0.07 0.08 0.07 0.11 0.13 0.15 0.16 0.14 0.17 0.18 0.16 0.18 0.20 0.23
0.48 0.31 0.20 0.14 0.07 0.08 0.06 0.07 0.07 0.06 0.06 0.10 0.13 0.13 0.08 0.09 0.09 0.16 0.27 0.40 0.31 0.31 0.33 0.33 0.29 0.21 0.20 0.16 0.16 0.15 0.12 0.11 0.08 0.07 0.11 0.07 0.08 0.12 0.10 0.07 0.06 0.08 0.09 0.12 0.15 0.15 0.12 0.14 0.19 0.18 0.25 0.24 0.20 0.21
0.26 0.21 0.09 0.07 0.10 0.15 0.14 0.11 0.10 0.12 0.11 0.16 0.16 0.13 0.19 0.17 0.17 0.33 0.37 0.35 0.33 0.31 0.25 0.24 0.19 0.17 0.17 0.15 0.12 0.11 0.08 0.04 0.04 0.05 0.04 0.03 0.05 0.08 0.15 0.22 0.22 0.18 0.09 0.11 0.14 0.16 0.18 0.19 0.18 0.17 0.22 0.26 0.29 0.30
0.14 0.12 0.14 0.23 0.29 0.26 0.28 0.23 0.23 0.26 0.33 0.36 0.23 0.18 0.21 0.20 0.37 0.49 0.45 0.43 0.42 0.24 0.17 0.13 0.09 0.09 0.07 0.07 0.11 0.12 0.11 0.09 0.05 0.03 0.04 0.10 0.13 0.13 0.14 0.16 0.15 0.11 0.12 0.14 0.16 0.16 0.18 0.21 0.20 0.19 0.20 0.25 0.33 0.33
0.20 0.25 0.24 0.27 0.27 0.25 0.28 0.30 0.31 0.26 0.23 0.26 0.26 0.28 0.21 0.27 0.47 0.45 0.38 0.35 0.28 0.17 0.16 0.16 0.23 0.15 0.12 0.10 0.12 0.14 0.14 0.13 0.13 0.12 0.09 0.12 0.20 0.22 0.16 0.14 0.13 0.12 0.13 0.12 0.13 0.16 0.19 0.21 0.18 0.20 0.26 0.27 0.26 0.24
0.18 0.18 0.19 0.15 0.17 0.21 0.29 0.21 0.22 0.18 0.11 0.12 0.11 0.15 0.19 0.46 0.67 0.43 0.30 0.28 0.27 0.26 0.23 0.19 0.19 0.16 0.18 0.14 0.16 0.19 0.22 0.16 0.16 0.21 0.19 0.16 0.17 0.18 0.15 0.13 0.12 0.11 0.11 0.10 0.11 0.11 0.10 0.09 0.10 0.17 0.13 0.11 0.14 0.16
0.20 0.23 0.21 0.18 0.25 0.27 0.25 0.19 0.18 0.15 0.15 0.14 0.13 0.16 0.33 0.45 0.50 0.43 0.32 0.38 0.30 0.18 0.18 0.20 0.18 0.20 0.22 0.22 0.19 0.16 0.20 0.17 0.14 0.14 0.12 0.13 0.13 0.12 0.11 0.09 0.08 0.09 0.08 0.07 0.08 0.08 0.08 0.08 0.11 0.12 0.08 0.08 0.09 0.08
0.28 0.31 0.25 0.25 0.33 0.27 0.31 0.31 0.23 0.24 0.23 0.17 0.24 0.21 0.28 0.26 0.28 0.32 0.36 0.35 0.35 0.25 0.25 0.26 0.25 0.30 0.30 0.29 0.24 0.20 0.17 0.16 0.14 0.15 0.15 0.14 0.13 0.12 0.08 0.07 0.07 0.08 0.08 0.08 0.08 0.10 0.10 0.09 0.10 0.09 0.09 0.08 0.08 0.07
0.19 0.18 0.19 0.19 0.21 0.25 0.24 0.23 0.17 0.19 0.19 0.21 0.31 0.31 0.32 0.25 0.27 0.33 0.32 0.38 0.47 0.36 0.32 0.33 0.35 0.35 0.30 0.23 0.21 0.21 0.18 0.19 0.18 0.17 0.15 0.13 0.10 0.08 0.07 0.07 0.07 0.06 0.06 0.07 0.08 0.10 0.08 0.07 0.07 0.08 0.06 0.06 0.05 0.05

GFSWCAN_prec_precacc_162.txt.gz
Total_Precipitation_Accumulation
1.92 1.74 1.59 1.59 1.41 1.25 1.06 1.11 1.25 1.26 1.25 1.04 1.00 1.20 1.41 1.64 1.88 2.44 2.14 1.41 2.42 2.18 0.67 0.37 0.32 0.31 0.21 0.37 0.68 0.51 0.96 0.78 0.99 0.85 0.50 0.27 0.20 0.20 0.28 0.25 0.32 0.37 0.73 0.74 0.80 0.89 0.41 0.05 0.19 0.39 0.39 0.16 0.09 0.07
2.14 1.77 1.55 1.55 1.44 1.35 1.08 1.05 1.06 1.16 1.18 0.98 0.87 1.04 1.24 1.61 2.13 2.82 2.97 1.61 1.95 2.33 1.30 0.59 0.33 0.28 0.16 0.21 0.61 0.78 0.62 0.63 0.58 0.69 0.50 0.45 0.42 0.33 0.26 0.57 0.33 0.54 0.32 0.43 0.35 0.36 0.39 0.27 0.32 0.34 0.17 0.18 0.16 0.10
2.35 1.73 1.38 1.38 1.29 1.12 1.04 0.97 0.93 1.08 1.07 0.92 0.98 1.09 1.35 1.47 2.03 3.57 3.09 1.80 3.84 3.46 1.55 0.63 0.41 0.21 0.23 0.19 0.37 0.83 0.52 0.60 0.78 0.70 0.79 0.67 0.48 0.26 0.28 0.31 0.45 0.67 0.57 0.65 0.76 0.73 0.52 0.59 0.38 0.13 0.12 0.21 0.22 0.16
2.35 1.81 1.33 1.37 1.26 1.00 1.06 1.01 0.82 0.98 1.08 0.99 1.11 1.29 1.32 1.54 2.05 3.50 3.19 2.00 3.47 2.80 2.00 0.82 0.33 0.34 0.29 0.23 0.20 0.27 0.34 0.38 0.54 0.92 0.90 0.70 0.44 0.23 0.26 0.42 0.53 0.49 0.75 1.02 1.26 1.03 0.77 0.87 0.79 0.60 0.40 0.18 0.15 0.17
2.29 1.81 1.47 1.40 1.26 0.98 0.96 0.88 0.76 0.89 1.01 1.08 1.17 1.26 1.59 1.86 2.69 3.47 2.67 1.93 2.08 2.30 2.05 1.07 0.35 0.33 0.34 0.37 0.25 0.30 0.42 0.51 0.73 1.11 1.15 0.56 0.32 0.30 0.28 0.53 0.42 0.19 0.52 1.02 1.58 1.22 0.98 0.96 0.52 0.36 0.31 0.27 0.15 0.07
2.13 1.66 1.51 1.27 1.10 0.86 0.82 0.77 0.77 0.95 0.93 1.10 1.14 1.52 1.97 2.64 3.98 5.07 6.50 3.50 1.69 2.15 2.47 1.60 0.83 0.33 0.38 0.48 0.44 0.36 0.47 0.80 1.04 1.04 0.88 0.61 0.38 0.85 0.85 0.73 0.36 0.19 0.27 0.44 0.74 1.03 0.95 0.75 0.48 0.28 0.18 0.09 0.03 0.01
1.87 1.58 1.56 1.28 1.06 0.86 0.78 0.78 0.84 0.93 1.02 1.30 1.53 1.85 2.46 3.51 3.28 2.85 2.88 1.67 1.15 2.20 3.05 1.78 1.31 0.50 0.43 0.71 0.85 0.80 0.90 1.13 1.09 1.09 0.70 0.40 0.44 0.93 1.26 0.85 0.47 0.30 0.32 0.40 0.41 0.48 0.37 0.23 0.16 0.07 0.02 0.01 0.02 0.01
1.80 1.65 1.46 1.30 1.09 0.87 0.88 1.00 1.03 1.09 1.45 1.72 2.16 2.61 3.42 3.81 3.38 2.21 0.96 0.84 1.17 2.33 1.79 1.46 1.45 1.33 0.88 1.00 1.26 1.09 1.36 1.34 1.38 1.13 0.68 0.48 0.58 0.84 0.94 0.28 0.07 0.11 0.15 0.19 0.22 0.19 0.20 0.14 0.05 0.03 0.02 0.03 0.04 0.07
1.59 1.33 1.17 1.06 0.97 1.02 1.10 1.15 1.31 1.89 2.11 2.48 2.97 4.19 5.34 4.77 3.97 1.95 1.33 1.31 1.55 2.16 1.55 0.75 1.12 1.78 1.44 1.17 1.21 1.43 1.26 1.53 1.07 0.78 0.44 0.76 0.88 1.00 0.50 0.08 0.03 0.02 0.02 0.02 0.03 0.06 0.09 0.10 0.07 0.04 0.04 0.06 0.13 0.29
1.23 0.98 0.79 0.84 0.94 1.10 1.14 1.39 1.84 2.41 2.62 3.10 4.16 5.47 6.08 3.19 1.80 2.32 3.86 3.65 3.26 2.11 0.96 0.57 0.68 1.63 1.89 1.77 1.25 1.56 1.52 1.19 1.14 0.56 0.61 0.71 0.77 0.51 0.16 0.05 0.02 0.01 0.01 0.01 0.02 0.02 0.04 0.10 0.13 0.15 0.22 0.29 0.31 0.27
1.03 0.77 0.63 0.68 0.78 0.86 0.93 1.18 1.58 2.15 3.11 4.14 4.69 4.46 3.39 2.58 2.36 3.14 3.47 2.63 1.90 1.00 0.43 0.45 0.51 1.09 1.57 1.64 1.31 1.33 1.62 1.28 0.94 0.89 0.96 0.98 0.54 0.33 0.19 0.11 0.04 0.03 0.03 0.02 0.03 0.04 0.07 0.15 0.31 0.32 0.22 0.16 0.13 0.12
1.08 0.71 0.60 0.61 0.62 0.67 0.68 0.86 1.31 1.86 2.74 3.08 3.27 3.44 4.22 3.71 2.94 2.73 2.25 1.36 0.64 0.47 0.28 0.32 0.38 0.64 1.50 1.78 1.72 1.59 1.69 1.62 1.13 0.95 1.13 0.88 0.53 0.18 0.11 0.11 0.09 0.07 0.07 0.08 0.12 0.19 0.23 0.26 0.23 0.18 0.15 0.15 0.17 0.18
1.10 0.77 0.69 0.65 0.66 0.76 0.78 0.98 1.12 1.45 2.30 2.83 2.84 3.24 3.60 3.09 2.61 1.78 1.12 0.62 0.44 0.54 0.26 0.39 0.44 0.68 1.03 1.59 2.11 1.39 1.63 1.74 1.13 1.15 0.90 0.59 0.40 0.28 0.31 0.30 0.33 0.32 0.30 0.29 0.21 0.17 0.15 0.13 0.10 0.11 0.15 0.21 0.24 0.32
0.98 0.70 0.70 0.67 0.75 0.96 0.99 1.21 1.41 2.05 2.24 2.47 2.55 2.62 2.36 1.96 1.36 0.99 0.64 0.44 0.41 0.38 0.35 0.71 0.47 0.61 0.80 1.21 1.77 1.57 1.59 1.30 1.48 0.89 0.65 0.65 0.74 0.71 0.47 0.36 0.33 0.41 0.43 0.43 0.44 0.41 0.41 0.41 0.48 0.55 0.62 0.73 0.68 0.88
0.81 0.70 0.72 0.78 0.85 0.91 1.23 1.44 1.37 1.46 1.59 1.58 1.50 1.50 1.16 1.25 1.02 0.85 0.72 0.60 0.56 0.54 0.69 1.04 1.14 1.01 1.18 1.36 1.19 0.98 0.93 0.81 0.66 0.74 0.73 0.72 0.77 0.60 0.49 0.51 0.54 0.60 0.62 0.61 0.62 0.62 0.72 0.75 0.68 0.84 0.96 0.93 0.78 0.79
1.14 1.12 0.96 0.89 0.93 0.96 1.07 1.14 1.19 1.23 0.95 0.84 0.88 1.11 1.04 0.93 0.91 0.83 0.84 0.84 0.80 0.93 1.13 1.28 1.28 0.97 1.04 0.79 0.62 0.56 0.54 0.62 0.75 0.62 0.51 0.49 0.53 0.58 0.64 0.67 0.78 0.78 0.68 0.63 0.64 0.60 0.60 0.62 0.57 0.63 0.68 0.65 0.67 0.55
1.26 1.09 1.13 0.88 0.83 0.83 0.78 0.70 0.81 0.85 0.75 0.61 0.94 1.01 0.95 0.87 0.92 0.93 0.85 0.81 0.81 0.84 1.09 0.94 0.64 0.57 0.49 0.41 0.52 0.55 0.71 0.71 0.60 0.66 0.72 0.67 0.70 0.76 0.74 0.78 0.82 0.78 0.70 0.64 0.60 0.58 0.61 0.61 0.45 0.31 0.40 0.57 0.45 0.42
1.31 0.79 0.65 0.60 0.59 0.60 0.60 0.48 0.36 0.28 0.43 0.76 0.84 1.14 0.83 0.94 0.93 0.85 0.79 0.63 0.67 0.66 0.56 0.58 0.41 0.31 0.43 0.49 0.64 0.70 0.73 0.75 0.78 0.80 0.81 0.83 0.79 0.80 0.81 0.82 0.84 0.75 0.65 0.61 0.53 0.53 0.54 0.49 0.38 0.44 0.39 0.38 0.26 0.25
1.29 0.85 0.62 0.60 0.41 0.31 0.32 0.21 0.10 0.29 0.60 0.68 0.80 0.69 0.55 0.67 0.66 0.63 0.45 0.40 0.52 0.50 0.62 0.41 0.40 0.50 0.65 0.70 0.79 0.75 0.77 0.78 0.82 0.79 0.76 0.78 0.77 0.78 0.81 0.78 0.70 0.64 0.50 0.50 0.42 0.40 0.42 0.38 0.37 0.32 0.27 0.18 0.17 0.17
1.21 0.92 0.66 0.40 0.18 0.19 0.17 0.09 0.02 0.14 0.39 0.47 0.42 0.28 0.26 0.38 0.29 0.20 0.17 0.10 0.17 0.40 0.66 0.51 0.78 0.92 0.91 0.95 0.87 0.79 0.81 0.73 0.49 0.46 0.64 0.75 0.81 0.65 0.72 0.65 0.59 0.53 0.40 0.39 0.36 0.34 0.26 0.20 0.19 0.18 0.16 0.17 0.16 0.18
1.16 1.08 0.81 0.47 0.23 0.21 0.19 0.05 0.08 0.09 0.17 0.29 0.23 0.09 0.15 0.11 0.16 0.15 0.18 0.04 0.15 0.37 0.69 0.79 0.79 0.86 0.73 0.73 0.63 0.53 0.52 0.43 0.38 0.34 0.43 0.56 0.67 0.51 0.52 0.53 0.47 0.42 0.35 0.35 0.27 0.28 0.21 0.22 0.23 0.18 0.17 0.15 0.15 0.15
0.77 0.86 0.87 0.56 0.36 0.14 0.16 0.04 0.06 0.05 0.04 0.10 0.08 0.06 0.14 0.20 0.18 0.13 0.08 0.12 0.44 0.64 0.66 0.57 0.59 0.49 0.37 0.43 0.52 0.50 0.58 0.43 0.36 0.32 0.34 0.33 0.39 0.40 0.45 0.51 0.38 0.35 0.30 0.30 0.23 0.21 0.17 0.15 0.12 0.12 0.11 0.11 0.12 0.11
0.39 0.49 0.53 0.49 0.37 0.16 0.21 0.11 0.07 0.03 0.06 0.08 0.08 0.06 0.07 0.09 0.12 0.06 0.12 0.22 0.51 0.63 0.44 0.33 0.34 0.27 0.27 0.34 0.22 0.21 0.26 0.25 0.33 0.41 0.40 0.35 0.33 0.35 0.31 0.33 0.31 0.27 0.22 0.22 0.18 0.17 0.15 0.11 0.08 0.08 0.09 0.08 0.11 0.14
0.35 0.52 0.56 0.44 0.26 0.19 0.14 0.23 0.14 0.07 0.05 0.06 0.08 0.09 0.09 0.08 0.08 0.07 0.15 0.27 0.46 0.34 0.23 0.24 0.22 0.20 0.15 0.10 0.12 0.15 0.18 0.12 0.15 0.19 0.23 0.16 0.15 0.20 0.16 0.15 0.14 0.16 0.17 0.16 0.14 0.15 0.13 0.12 0.10 0.12 0.12 0.12 0.15 0.18
0.53 0.44 0.42 0.31 0.16 0.09 0.07 0.13 0.19 0.08 0.06 0.05 0.09 0.10 0.08 0.05 0.08 0.09 0.14 0.35 0.29 0.30 0.28 0.26 0.19 0.17 0.18 0.21 0.19 0.17 0.13 0.10 0.09 0.09 0.15 0.13 0.12 0.11 0.09 0.07 0.07 0.08 0.07 0.11 0.13 0.15 0.17 0.15 0.17 0.19 0.17 0.18 0.21 0.24
0.48 0.31 0.20 0.14 0.07 0.08 0.06 0.07 0.07 0.06 0.06 0.10 0.13 0.13 0.08 0.10 0.09 0.16 0.27 0.40 0.31 0.31 0.33 0.34 0.30 0.23 0.22 0.16 0.16 0.15 0.12 0.11 0.08 0.07 0.11 0.07 0.08 0.12 0.10 0.07 0.06 0.08 0.09 0.12 0.15 0.16 0.12 0.14 0.19 0.18 0.25 0.25 0.21 0.21
0.26 0.21 0.09 0.07 0.10 0.15 0.14 0.11 0.10 0.12 0.11 0.16 0.16 0.13 0.19 0.17 0.17 0.33 0.37 0.36 0.33 0.32 0.26 0.24 0.20 0.19 0.19 0.16 0.13 0.13 0.09 0.05 0.04 0.06 0.04 0.03 0.05 0.08 0.15 0.22 0.22 0.18 0.09 0.11 0.14 0.16 0.18 0.19 0.19 0.18 0.22 0.28 0.30 0.30
0.14 0.12 0.14 0.23 0.29 0.26 0.28 0.23 0.23 0.26 0.33 0.36 0.23 0.19 0.21 0.20 0.37 0.49 0.45 0.43 0.42 0.24 0.18 0.14 0.10 0.10 0.08 0.10 0.15 0.18 0.17 0.12 0.08 0.06 0.07 0.12 0.14 0.15 0.16 0.16 0.15 0.11 0.12 0.14 0.16 0.16 0.18 0.21 0.20 0.20 0.20 0.26 0.34 0.34
0.20 0.25 0.24 0.27 0.27 0.25 0.28 0.30 0.31 0.26 0.23 0.26 0.26 0.28 0.21 0.27 0.47 0.45 0.38 0.35 0.28 0.17 0.16 0.16 0.24 0.16 0.14 0.14 0.16 0.18 0.17 0.16 0.16 0.14 0.11 0.14 0.22 0.24 0.17 0.14 0.13 0.12 0.13 0.12 0.13 0.17 0.19 0.21 0.18 0.20 0.26 0.28 0.27 0.25
0.18 0.18 0.19 0.15 0.17 0.21 0.29 0.21 0.22 0.18 0.11 0.12 0.11 0.15 0.19 0.46 0.67 0.43 0.30 0.28 0.27 0.26 0.23 0.19 0.20 0.17 0.19 0.15 0.17 0.21 0.24 0.18 0.17 0.22 0.21 0.18 0.19 0.19 0.15 0.13 0.12 0.12 0.12 0.10 0.11 0.12 0.11 0.09 0.10 0.17 0.13 0.11 0.14 0.17
0.20 0.23 0.21 0.18 0.25 0.27 0.25 0.19 0.18 0.15 0.15 0.14 0.13 0.16 0.33 0.45 0.51 0.43 0.32 0.38 0.30 0.18 0.19 0.21 0.19 0.21 0.23 0.23 0.20 0.16 0.21 0.18 0.16 0.15 0.14 0.14 0.15 0.13 0.11 0.09 0.08 0.09 0.08 0.07 0.08 0.08 0.09 0.09 0.11 0.12 0.09 0.08 0.10 0.09
0.28 0.31 0.25 0.25 0.33 0.27 0.31 0.31 0.23 0.24 0.23 0.17 0.24 0.21 0.29 0.27 0.29 0.33 0.37 0.36 0.35 0.26 0.27 0.28 0.26 0.31 0.31 0.29 0.24 0.20 0.17 0.16 0.15 0.16 0.15 0.15 0.14 0.12 0.08 0.07 0.07 0.08 0.08 0.08 0.08 0.10 0.10 0.09 0.10 0.09 0.10 0.08 0.08 0.07
0.19 0.18 0.19 0.20 0.21 0.25 0.27 0.24 0.18 0.19 0.19 0.21 0.31 0.31 0.33 0.28 0.29 0.34 0.32 0.38 0.48 0.37 0.33 0.33 0.36 0.37 0.31 0.23 0.22 0.22 0.20 0.21 0.19 0.18 0.16 0.13 0.10 0.08 0.07 0.07 0.07 0.07 0.07 0.07 0.09 0.10 0.08 0.07 0.07 0.08 0.07 0.06 0.05 0.05

GFSWCAN_prec_precacc_165.txt.gz
Total_Precipitation_Accumulation
1.92 1.75 1.61 1.61 1.42 1.26 1.07 1.12 1.26 1.27 1.26 1.05 1.01 1.21 1.41 1.64 1.88 2.47 2.19 1.56 2.71 2.40 0.71 0.37 0.32 0.31 0.21 0.37 0.68 0.51 0.97 0.78 0.99 0.85 0.50 0.27 0.20 0.20 0.28 0.25 0.32 0.37 0.74 0.75 0.81 0.92 0.42 0.05 0.19 0.39 0.39 0.16 0.10 0.08
2.14 1.77 1.56 1.56 1.45 1.36 1.10 1.08 1.08 1.19 1.20 0.99 0.87 1.05 1.24 1.61 2.14 2.85 3.00 1.69 2.18 2.64 1.41 0.59 0.33 0.28 0.16 0.21 0.61 0.78 0.63 0.64 0.59 0.70 0.50 0.45 0.43 0.34 0.26 0.58 0.35 0.55 0.36 0.59 0.53 0.45 0.41 0.27 0.32 0.35 0.18 0.18 0.16 0.11
2.36 1.73 1.38 1.39 1.31 1.14 1.07 1.00 0.94 1.09 1.08 0.93 0.99 1.09 1.35 1.47 2.03 3.59 3.12 1.86 4.13 3.77 1.66 0.63 0.41 0.21 0.23 0.19 0.37 0.84 0.53 0.62 0.81 0.72 0.82 0.69 0.49 0.27 0.30 0.32 0.46 0.70 0.60 0.66 0.76 0.75 0.55 0.60 0.38 0.13 0.12 0.21 0.22 0.16
2.36 1.82 1.34 1.38 1.27 1.01 1.08 1.05 0.85 1.00 1.10 1.01 1.12 1.30 1.32 1.54 2.06 3.53 3.23 2.08 3.70 2.96 2.09 0.83 0.33 0.34 0.29 0.23 0.20 0.27 0.34 0.39 0.55 0.93 0.94 0.78 0.47 0.23 0.26 0.42 0.53 0.49 0.75 1.02 1.26 1.04 0.78 0.88 0.81 0.62 0.41 0.18 0.15 0.17
2.31 1.83 1.48 1.41 1.27 1.00 0.97 0.89 0.79 0.92 1.04 1.10 1.17 1.26 1.60 1.87 2.72 3.55 2.76 1.97 2.18 2.44 2.11 1.07 0.35 0.33 0.34 0.37 0.25 0.30 0.42 0.51 0.73 1.11 1.15 0.57 0.32 0.30 0.28 0.53 0.42 0.19 0.52 1.02 1.59 1.23 0.98 0.97 0.52 0.37 0.32 0.27 0.15 0.07
2.17 1.67 1.52 1.29 1.11 0.89 0.86 0.80 0.79 0.97 0.95 1.13 1.16 1.53 1.97 2.66 4.05 5.32 6.92 3.80 1.81 2.29 2.50 1.61 0.83 0.33 0.38 0.48 0.44 0.36 0.47 0.80 1.04 1.04 0.88 0.61 0.38 0.85 0.85 0.73 0.36 0.19 0.27 0.45 0.74 1.03 0.96 0.75 0.48 0.28 0.20 0.10 0.03 0.01
1.88 1.60 1.58 1.29 1.07 0.87 0.82 0.80 0.86 0.94 1.03 1.33 1.55 1.86 2.47 3.53 3.41 3.07 3.02 1.77 1.24 2.26 3.08 1.78 1.31 0.50 0.43 0.71 0.85 0.80 0.90 1.13 1.09 1.09 0.70 0.40 0.44 0.93 1.27 0.85 0.47 0.30 0.32 0.40 0.41 0.48 0.37 0.23 0.16 0.07 0.03 0.02 0.02 0.01
1.81 1.67 1.48 1.32 1.11 0.88 0.90 1.01 1.04 1.10 1.45 1.73 2.18 2.70 3.55 3.93 3.62 2.38 1.00 0.86 1.23 2.36 1.80 1.46 1.45 1.33 0.88 1.00 1.26 1.09 1.36 1.35 1.40 1.14 0.68 0.48 0.60 0.85 0.94 0.28 0.07 0.11 0.15 0.19 0.22 0.19 0.20 0.14 0.05 0.03 0.02 0.03 0.04 0.07
1.64 1.45 1.25 1.10 0.99 1.04 1.11 1.16 1.32 1.90 2.13 2.55 3.21 4.63 5.62 4.95 4.20 2.09 1.44 1.36 1.58 2.17 1.55 0.75 1.12 1.78 1.44 1.17 1.21 1.43 1.27 1.54 1.08 0.79 0.44 0.78 0.90 1.01 0.50 0.08 0.03 0.02 0.02 0.02 0.03 0.06 0.09 0.10 0.07 0.04 0.04 0.06 0.13 0.29
1.32 1.11 0.93 0.99 1.04 1.12 1.15 1.42 2.02 2.57 2.82 3.44 4.54 5.83 6.41 3.39 1.88 2.37 3.89 3.65 3.26 2.11 0.96 0.57 0.68 1.63 1.89 1.77 1.25 1.58 1.55 1.21 1.16 0.57 0.61 0.73 0.77 0.51 0.16 0.05 0.02 0.01 0.01 0.01 0.02 0.03 0.05 0.10 0.13 0.16 0.23 0.29 0.31 0.27
1.15 0.91 0.77 0.79 0.85 0.91 0.99 1.34 1.80 2.34 3.36 4.34 4.83 4.62 3.59 2.66 2.37 3.14 3.48 2.63 1.90 1.00 0.43 0.45 0.51 1.09 1.57 1.64 1.31 1.37 1.67 1.30 0.96 0.89 0.96 0.98 0.54 0.33 0.19 0.11 0.04 0.03 0.03 0.02 0.03 0.04 0.08 0.16 0.34 0.38 0.26 0.16 0.13 0.12
1.10 0.75 0.66 0.69 0.74 0.84 0.87 1.05 1.44 1.95 2.81 3.10 3.30 3.49 4.24 3.71 2.94 2.73 2.25 1.37 0.64 0.47 0.28 0.32 0.38 0.64 1.50 1.78 1.72 1.61 1.78 1.77 1.20 1.05 1.18 0.89 0.53 0.18 0.11 0.11 0.09 0.07 0.07 0.08 0.12 0.19 0.23 0.26 0.23 0.18 0.15 0.15 0.17 0.18
1.11 0.77 0.70 0.67 0.70 0.81 0.83 1.03 1.15 1.45 2.30 2.83 2.84 3.24 3.60 3.09 2.61 1.78 1.12 0.62 0.44 0.54 0.26 0.39 0.44 0.68 1.03 1.60 2.11 1.40 1.65 1.79 1.22 1.38 1.04 0.60 0.40 0.28 0.31 0.30 0.33 0.32 0.30 0.29 0.21 0.17 0.15 0.13 0.10 0.11 0.15 0.21 0.24 0.32
0.99 0.70 0.70 0.67 0.75 0.96 0.99 1.21 1.42 2.05 2.25 2.47 2.55 2.62 2.36 1.96 1.36 0.99 0.64 0.44 0.41 0.38 0.35 0.71 0.47 0.61 0.80 1.21 1.77 1.57 1.59 1.33 1.51 0.90 0.65 0.65 0.74 0.71 0.47 0.36 0.33 0.41 0.43 0.43 0.44 0.41 0.41 0.41 0.48 0.55 0.62 0.73 0.68 0.88
0.81 0.70 0.72 0.78 0.85 0.91 1.23 1.44 1.37 1.46 1.59 1.58 1.50 1.50 1.16 1.25 1.02 0.85 0.72 0.60 0.56 0.54 0.71 1.07 1.19 1.16 1.26 1.37 1.19 0.98 0.94 0.81 0.66 0.74 0.73 0.72 0.77 0.60 0.49 0.51 0.54 0.60 0.62 0.61 0.62 0.62 0.72 0.75 0.68 0.84 0.96 0.93 0.78 0.79
1.14 1.12 0.97 0.89 0.93 0.96 1.07 1.14 1.19 1.23 0.95 0.84 0.88 1.11 1.04 0.93 0.91 0.83 0.84 0.84 0.80 0.93 1.16 1.44 1.45 1.13 1.19 0.80 0.62 0.56 0.54 0.62 0.75 0.62 0.51 0.49 0.53 0.58 0.64 0.67 0.78 0.78 0.68 0.63 0.64 0.60 0.60 0.62 0.57 0.63 0.68 0.65 0.67 0.55
1.26 1.09 1.13 0.88 0.83 0.83 0.78 0.70 0.81 0.85 0.75 0.61 0.94 1.01 0.95 0.87 0.92 0.93 0.85 0.81 0.81 0.84 1.13 1.13 0.81 0.68 0.52 0.42 0.52 0.55 0.71 0.71 0.60 0.66 0.72 0.67 0.70 0.76 0.74 0.78 0.82 0.78 0.70 0.64 0.60 0.58 0.61 0.61 0.45 0.31 0.40 0.57 0.45 0.42
1.31 0.79 0.65 0.60 0.59 0.60 0.60 0.48 0.36 0.28 0.43 0.76 0.84 1.14 0.83 0.94 0.93 0.85 0.79 0.63 0.68 0.68 0.64 0.76 0.48 0.34 0.43 0.49 0.64 0.70 0.73 0.75 0.78 0.80 0.81 0.83 0.79 0.80 0.81 0.82 0.84 0.75 0.65 0.61 0.53 0.53 0.54 0.49 0.38 0.44 0.39 0.38 0.26 0.25
1.29 0.85 0.62 0.60 0.41 0.31 0.32 0.21 0.10 0.29 0.60 0.68 0.80 0.69 0.55 0.67 0.66 0.63 0.45 0.40 0.52 0.54 0.73 0.44 0.40 0.50 0.65 0.70 0.79 0.75 0.77 0.78 0.82 0.79 0.76 0.78 0.77 0.78 0.81 0.78 0.71 0.64 0.50 0.50 0.42 0.40 0.42 0.38 0.37 0.32 0.27 0.18 0.17 0.17
1.21 0.92 0.66 0.40 0.18 0.19 0.17 0.09 0.02 0.14 0.39 0.47 0.42 0.28 0.26 0.38 0.29 0.20 0.17 0.11 0.18 0.42 0.69 0.54 0.78 0.92 0.91 0.95 0.87 0.79 0.81 0.73 0.49 0.46 0.64 0.75 0.82 0.65 0.72 0.67 0.61 0.54 0.41 0.39 0.36 0.34 0.26 0.20 0.19 0.18 0.16 0.17 0.16 0.18
1.16 1.08 0.81 0.47 0.23 0.21 0.19 0.05 0.08 0.09 0.17 0.29 0.23 0.09 0.15 0.11 0.16 0.15 0.18 0.04 0.16 0.38 0.70 0.79 0.79 0.86 0.73 0.73 0.63 0.53 0.52 0.43 0.38 0.34 0.43 0.56 0.67 0.51 0.54 0.56 0.51 0.47 0.37 0.35 0.27 0.28 0.21 0.22 0.23 0.18 0.17 0.15 0.15 0.15
0.77 0.86 0.87 0.56 0.36 0.14 0.16 0.04 0.06 0.05 0.04 0.10 0.08 0.06 0.14 0.20 0.18 0.13 0.08 0.12 0.44 0.64 0.66 0.57 0.59 0.49 0.37 0.43 0.52 0.50 0.58 0.43 0.36 0.32 0.34 0.33 0.40 0.41 0.46 0.53 0.40 0.39 0.34 0.31 0.23 0.21 0.17 0.15 0.12 0.12 0.11 0.12 0.12 0.12
0.39 0.49 0.53 0.49 0.37 0.16 0.21 0.11 0.07 0.03 0.06 0.08 0.08 0.06 0.07 0.09 0.12 0.06 0.12 0.22 0.51 0.63 0.44 0.33 0.34 0.27 0.27 0.34 0.22 0.21 0.26 0.25 0.33 0.41 0.40 0.35 0.34 0.36 0.32 0.37 0.37 0.36 0.33 0.30 0.19 0.18 0.15 0.12 0.08 0.08 0.09 0.09 0.11 0.15
0.35 0.52 0.56 0.44 0.26 0.19 0.14 0.23 0.14 0.07 0.05 0.06 0.08 0.09 0.09 0.08 0.08 0.07 0.15 0.27 0.46 0.34 0.23 0.24 0.22 0.20 0.15 0.11 0.12 0.15 0.18 0.12 0.15 0.19 0.23 0.17 0.16 0.22 0.18 0.18 0.17 0.18 0.19 0.17 0.15 0.16 0.13 0.12 0.10 0.12 0.12 0.12 0.16 0.18
0.53 0.44 0.42 0.31 0.16 0.09 0.07 0.13 0.19 0.08 0.06 0.05 0.09 0.10 0.08 0.05 0.08 0.09 0.14 0.35 0.29 0.30 0.28 0.26 0.19 0.17 0.18 0.22 0.19 0.17 0.13 0.10 0.09 0.09 0.16 0.13 0.12 0.11 0.10 0.08 0.08 0.08 0.07 0.11 0.14 0.15 0.17 0.15 0.17 0.19 0.17 0.18 0.21 0.24
0.48 0.31 0.20 0.14 0.07 0.08 0.06 0.07 0.07 0.06 0.06 0.10 0.13 0.13 0.08 0.10 0.09 0.16 0.27 0.40 0.32 0.31 0.34 0.34 0.30 0.24 0.23 0.16 0.16 0.16 0.13 0.11 0.08 0.07 0.11 0.07 0.08 0.12 0.10 0.07 0.06 0.08 0.09 0.12 0.15 0.16 0.13 0.15 0.20 0.18 0.25 0.25 0.21 0.21
0.26 0.21 0.09 0.07 0.10 0.15 0.14 0.11 0.10 0.12 0.11 0.16 0.16 0.13 0.19 0.17 0.17 0.33 0.37 0.36 0.33 0.32 0.26 0.25 0.21 0.20 0.20 0.17 0.15 0.16 0.13 0.07 0.05 0.06 0.05 0.04 0.05 0.08 0.15 0.22 0.22 0.18 0.09 0.11 0.14 0.17 0.19 0.20 0.19 0.18 0.22 0.28 0.30 0.30
0.14 0.12 0.14 0.23 0.29 0.26 0.28 0.23 0.23 0.26 0.33 0.36 0.23 0.19 0.21 0.20 0.37 0.49 0.45 0.43 0.42 0.24 0.18 0.14 0.10 0.10 0.09 0.11 0.17 0.24 0.23 0.17 0.12 0.11 0.12 0.16 0.17 0.17 0.17 0.18 0.18 0.14 0.14 0.15 0.16 0.17 0.19 0.21 0.20 0.20 0.21 0.26 0.34 0.35
0.20 0.25 0.24 0.27 0.27 0.25 0.28 0.30 0.31 0.26 0.23 0.26 0.26 0.28 0.21 0.27 0.47 0.45 0.38 0.35 0.28 0.17 0.16 0.16 0.24 0.16 0.15 0.16 0.20 0.24 0.24 0.21 0.20 0.18 0.15 0.17 0.27 0.28 0.21 0.16 0.15 0.14 0.14 0.13 0.14 0.17 0.19 0.21 0.18 0.20 0.27 0.28 0.28 0.27
0.18 0.18 0.19 0.15 0.17 0.21 0.29 0.21 0.22 0.18 0.11 0.12 0.11 0.16 0.19 0.46 0.67 0.43 0.30 0.28 0.27 0.26 0.23 0.19 0.20 0.17 0.19 0.16 0.18 0.23 0.26 0.21 0.21 0.26 0.25 0.22 0.24 0.22 0.16 0.15 0.14 0.13 0.13 0.10 0.11 0.13 0.12 0.09 0.10 0.17 0.14 0.12 0.16 0.19
0.20 0.23 0.21 0.18 0.25 0.27 0.25 0.19 0.18 0.15 0.15 0.14 0.13 0.16 0.33 0.45 0.51 0.43 0.32 0.38 0.30 0.18 0.19 0.21 0.20 0.21 0.24 0.23 0.20 0.16 0.21 0.19 0.16 0.16 0.16 0.17 0.18 0.15 0.13 0.10 0.09 0.09 0.08 0.07 0.08 0.08 0.09 0.09 0.11 0.12 0.09 0.09 0.11 0.10
0.28 0.31 0.25 0.25 0.33 0.27 0.31 0.31 0.24 0.24 0.23 0.17 0.24 0.21 0.29 0.27 0.30 0.35 0.38 0.36 0.36 0.26 0.27 0.29 0.28 0.32 0.31 0.30 0.25 0.21 0.17 0.17 0.15 0.16 0.16 0.16 0.16 0.16 0.11 0.08 0.07 0.08 0.08 0.08 0.08 0.11 0.10 0.10 0.11 0.10 0.10 0.09 0.09 0.08
0.19 0.18 0.19 0.20 0.21 0.26 0.28 0.25 0.18 0.19 0.19 0.21 0.31 0.31 0.34 0.29 0.31 0.35 0.33 0.39 0.49 0.38 0.33 0.34 0.37 0.39 0.33 0.24 0.22 0.24 0.22 0.21 0.20 0.20 0.17 0.14 0.12 0.10 0.09 0.08 0.07 0.07 0.07 0.08 0.10 0.11 0.09 0.08 0.08 0.09 0.07 0.07 0.06 0.06

GFSWCAN_prec_precacc_171.txt.gz
Total_Precipitation_Accumulation
1.94 1.77 1.62 1.62 1.44 1.28 1.09 1.14 1.27 1.29 1.29 1.07 1.03 1.22 1.41 1.65 1.88 2.50 2.20 1.60 2.79 2.47 0.74 0.40 0.36 0.38 0.31 0.46 0.75 0.55 1.01 0.79 1.00 0.88 0.54 0.31 0.24 0.23 0.29 0.25 0.32 0.37 0.74 0.75 0.82 0.95 0.43 0.05 0.19 0.39 0.39 0.16 0.10 0.10
2.15 1.78 1.57 1.57 1.46 1.36 1.11 1.10 1.11 1.21 1.23 1.02 0.90 1.07 1.25 1.62 2.14 2.91 3.02 1.70 2.26 2.75 1.47 0.61 0.33 0.29 0.21 0.29 0.79 0.94 0.67 0.65 0.60 0.70 0.50 0.45 0.43 0.34 0.26 0.58 0.35 0.56 0.37 0.61 0.58 0.47 0.41 0.27 0.32 0.35 0.18 0.19 0.17 0.11
2.38 1.75 1.40 1.41 1.32 1.15 1.08 1.01 0.96 1.10 1.11 0.99 1.05 1.14 1.36 1.47 2.03 3.66 3.14 1.88 4.21 3.91 1.74 0.68 0.43 0.21 0.24 0.21 0.45 0.98 0.54 0.63 0.83 0.73 0.83 0.70 0.50 0.27 0.31 0.33 0.47 0.73 0.68 0.70 0.80 0.76 0.55 0.60 0.38 0.13 0.13 0.24 0.23 0.16
2.38 1.85 1.37 1.41 1.30 1.03 1.09 1.06 0.87 1.03 1.13 1.05 1.19 1.41 1.39 1.56 2.07 3.60 3.26 2.10 3.77 3.08 2.21 0.86 0.33 0.36 0.31 0.24 0.24 0.32 0.36 0.40 0.57 0.94 0.96 0.80 0.51 0.26 0.27 0.42 0.53 0.50 0.78 1.05 1.31 1.05 0.79 0.88 0.81 0.62 0.41 0.18 0.15 0.17
2.35 1.87 1.52 1.45 1.32 1.05 1.01 0.92 0.80 0.94 1.08 1.16 1.23 1.31 1.64 1.93 2.76 3.63 2.80 1.98 2.21 2.59 2.37 1.20 0.37 0.34 0.38 0.41 0.30 0.36 0.44 0.52 0.73 1.11 1.15 0.57 0.33 0.31 0.29 0.53 0.42 0.19 0.52 1.02 1.59 1.23 0.98 0.97 0.52 0.37 0.33 0.29 0.16 0.08
2.27 1.84 1.71 1.48 1.26 0.99 0.92 0.83 0.81 0.97 0.97 1.18 1.22 1.58 2.03 2.71 4.16 5.49 6.99 3.81 1.83 2.38 2.69 1.75 0.93 0.38 0.46 0.59 0.51 0.41 0.49 0.80 1.04 1.04 0.88 0.61 0.38 0.85 0.85 0.73 0.36 0.19 0.27 0.45 0.74 1.03 0.96 0.75 0.48 0.28 0.20 0.10 0.04 0.06
2.17 1.94 1.98 1.67 1.35 1.06 0.94 0.86 0.88 0.95 1.05 1.38 1.64 1.94 2.54 3.59 3.55 3.14 3.14 1.85 1.27 2.34 3.32 1.91 1.34 0.50 0.46 0.85 0.89 0.81 0.90 1.13 1.09 1.09 0.70 0.40 0.44 0.93 1.27 0.85 0.47 0.30 0.32 0.40 0.41 0.48 0.37 0.23 0.16 0.07 0.03 0.02 0.02 0.02
1.93 1.74 1.52 1.37 1.18 0.97 0.99 1.05 1.06 1.14 1.50 1.80 2.35 2.79 3.62 4.03 3.75 2.47 1.09 1.00 1.43 2.52 1.92 1.55 1.45 1.33 0.88 1.01 1.26 1.09 1.36 1.35 1.40 1.14 0.69 0.48 0.61 0.87 0.95 0.28 0.07 0.11 0.15 0.19 0.22 0.19 0.20 0.14 0.05 0.03 0.02 0.03 0.04 0.07
1.69 1.47 1.27 1.13 1.01 1.06 1.12 1.16 1.33 1.93 2.17 2.67 3.35 4.79 5.80 5.12 4.34 2.19 1.67 1.70 1.92 2.42 1.68 0.79 1.12 1.78 1.44 1.17 1.21 1.43 1.27 1.55 1.09 0.79 0.45 0.80 0.92 1.02 0.50 0.08 0.03 0.02 0.02 0.02 0.03 0.06 0.09 0.10 0.07 0.04 0.04 0.06 0.13 0.30
1.35 1.12 0.95 1.00 1.05 1.13 1.15 1.42 2.03 2.60 2.90 3.58 4.64 6.08 6.49 3.43 2.02 2.54 4.38 4.30 3.86 2.40 1.01 0.59 0.68 1.63 1.89 1.77 1.25 1.58 1.56 1.23 1.18 0.57 0.62 0.77 0.78 0.51 0.16 0.05 0.02 0.01 0.01 0.01 0.02 0.03 0.05 0.10 0.13 0.16 0.23 0.29 0.31 0.27
1.18 0.92 0.78 0.80 0.86 0.92 1.00 1.35 1.81 2.40 3.48 4.43 5.03 5.00 3.75 2.84 2.72 3.53 3.84 2.94 2.15 1.12 0.45 0.45 0.51 1.09 1.57 1.64 1.32 1.37 1.68 1.34 0.99 0.89 0.97 0.99 0.54 0.33 0.19 0.11 0.04 0.03 0.03 0.02 0.03 0.04 0.08 0.16 0.34 0.40 0.33 0.24 0.18 0.14
1.15 0.78 0.68 0.72 0.78 0.89 0.94 1.07 1.48 2.03 2.89 3.20 3.59 3.90 4.38 3.93 3.24 2.91 2.29 1.39 0.64 0.48 0.28 0.32 0.38 0.64 1.50 1.78 1.72 1.61 1.78 1.82 1.26 1.18 1.32 0.91 0.53 0.18 0.11 0.11 0.09 0.07 0.07 0.08 0.12 0.19 0.23 0.26 0.24 0.19 0.16 0.18 0.21 0.25
1.20 0.91 0.86 0.80 0.82 0.92 0.91 1.08 1.20 1.54 2.43 3.07 3.21 3.40 3.63 3.15 2.66 1.79 1.12 0.62 0.44 0.54 0.26 0.39 0.44 0.68 1.03 1.60 2.11 1.40 1.66 1.81 1.30 1.53 1.10 0.61 0.40 0.29 0.34 0.31 0.33 0.32 0.30 0.29 0.21 0.17 0.15 0.13 0.10 0.11 0.15 0.21 0.24 0.32
1.00 0.72 0.75 0.75 0.85 1.08 1.11 1.31 1.52 2.28 2.44 2.64 2.66 2.64 2.38 1.97 1.36 0.99 0.64 0.44 0.41 0.38 0.35 0.71 0.47 0.61 0.80 1.22 1.78 1.57 1.60 1.35 1.55 0.91 0.65 0.65 0.74 0.71 0.47 0.36 0.33 0.41 0.43 0.43 0.44 0.41 0.41 0.41 0.48 0.55 0.62 0.73 0.68 0.88
0.81 0.70 0.73 0.80 0.89 0.95 1.27 1.47 1.44 1.58 1.65 1.60 1.50 1.50 1.16 1.25 1.02 0.85 0.72 0.60 0.56 0.54 0.71 1.07 1.20 1.18 1.30 1.38 1.19 0.98 0.96 0.83 0.67 0.74 0.73 0.72 0.77 0.60 0.49 0.51 0.54 0.60 0.62 0.61 0.62 0.62 0.72 0.75 0.68 0.84 0.96 0.93 0.78 0.79
1.14 1.12 0.97 0.89 0.93 0.96 1.07 1.15 1.20 1.23 0.95 0.84 0.88 1.11 1.04 0.93 0.91 0.83 0.84 0.85 0.80 0.93 1.16 1.49 1.60 1.30 1.32 0.83 0.64 0.56 0.54 0.62 0.75 0.62 0.51 0.49 0.53 0.58 0.64 0.67 0.78 0.78 0.68 0.63 0.64 0.60 0.60 0.62 0.57 0.63 0.68 0.65 0.67 0.55
1.26 1.09 1.14 0.88 0.83 0.83 0.78 0.70 0.81 0.85 0.75 0.61 0.94 1.01 0.95 0.87 0.92 0.93 0.85 0.81 0.81 0.85 1.14 1.15 0.88 0.76 0.66 0.51 0.53 0.55 0.71 0.71 0.60 0.66 0.72 0.67 0.70 0.76 0.74 0.78 0.82 0.78 0.70 0.64 0.60 0.58 0.61 0.61 0.45 0.31 0.40 0.57 0.45 0.42
1.31 0.79 0.65 0.60 0.59 0.60 0.60 0.48 0.36 0.28 0.43 0.76 0.84 1.14 0.83 0.94 0.93 0.85 0.79 0.63 0.68 0.69 0.66 0.81 0.63 0.51 0.56 0.58 0.66 0.70 0.73 0.75 0.78 0.80 0.81 0.83 0.79 0.80 0.81 0.82 0.84 0.75 0.65 0.61 0.53 0.53 0.54 0.49 0.38 0.44 0.39 0.38 0.26 0.25
1.30 0.85 0.62 0.60 0.41 0.31 0.32 0.21 0.10 0.29 0.60 0.68 0.80 0.69 0.55 0.67 0.66 0.63 0.45 0.40 0.52 0.55 0.81 0.57 0.51 0.58 0.70 0.75 0.80 0.75 0.77 0.78 0.82 0.79 0.76 0.78 0.77 0.78 0.81 0.78 0.71 0.65 0.50 0.50 0.42 0.40 0.42 0.38 0.37 0.32 0.27 0.18 0.17 0.17
1.21 0.92 0.66 0.40 0.18 0.19 0.17 0.09 0.02 0.14 0.39 0.47 0.42 0.28 0.26 0.38 0.30 0.21 0.18 0.16 0.23 0.50 0.77 0.57 0.79 0.92 0.91 0.95 0.87 0.79 0.81 0.73 0.49 0.46 0.64 0.75 0.82 0.66 0.72 0.67 0.62 0.56 0.43 0.39 0.36 0.34 0.26 0.20 0.19 0.18 0.16 0.17 0.16 0.18
1.16 1.08 0.81 0.47 0.23 0.21 0.19 0.05 0.08 0.09 0.17 0.29 0.23 0.09 0.15 0.11 0.16 0.16 0.19 0.08 0.26 0.48 0.74 0.80 0.80 0.89 0.74 0.74 0.63 0.53 0.52 0.43 0.38 0.34 0.43 0.56 0.68 0.52 0.54 0.57 0.53 0.49 0.41 0.39 0.28 0.28 0.21 0.22 0.23 0.18 0.17 0.15 0.15 0.15
0.77 0.86 0.87 0.56 0.36 0.14 0.16 0.04 0.06 0.05 0.04 0.10 0.08 0.06 0.14 0.20 0.18 0.13 0.08 0.12 0.44 0.65 0.68 0.61 0.64 0.55 0.41 0.46 0.54 0.51 0.58 0.43 0.36 0.33 0.35 0.33 0.40 0.41 0.47 0.54 0.42 0.44 0.41 0.40 0.31 0.25 0.19 0.16 0.12 0.12 0.11 0.12 0.12 0.12
0.39 0.49 0.53 0.49 0.37 0.16 0.21 0.11 0.07 0.03 0.06 0.08 0.08 0.06 0.07 0.09 0.12 0.06 0.12 0.22 0.51 0.63 0.45 0.33 0.34 0.27 0.27 0.35 0.22 0.21 0.26 0.25 0.33 0.41 0.41 0.35 0.34 0.36 0.33 0.38 0.40 0.42 0.42 0.43 0.35 0.31 0.25 0.19 0.14 0.11 0.10 0.09 0.12 0.16
0.35 0.52 0.56 0.44 0.26 0.19 0.14 0.23 0.14 0.07 0.05 0.06 0.08 0.09 0.09 0.08 0.08 0.07 0.15 0.27 0.46 0.34 0.23 0.24 0.23 0.20 0.15 0.11 0.12 0.15 0.18 0.12 0.15 0.19 0.24 0.17 0.17 0.24 0.19 0.20 0.22 0.25 0.27 0.27 0.28 0.30 0.27 0.22 0.16 0.16 0.15 0.14 0.17 0.20
0.53 0.44 0.42 0.31 0.16 0.09 0.07 0.13 0.19 0.08 0.06 0.05 0.09 0.10 0.08 0.05 0.08 0.09 0.14 0.36 0.29 0.30 0.28 0.26 0.19 0.17 0.19 0.22 0.19 0.17 0.14 0.11 0.09 0.09 0.16 0.14 0.13 0.13 0.11 0.10 0.10 0.12 0.12 0.15 0.18 0.20 0.23 0.21 0.22 0.21 0.18 0.18 0.21 0.25
0.48 0.31 0.20 0.14 0.07 0.08 0.06 0.07 0.07 0.06 0.06 0.10 0.13 0.13 0.08 0.10 0.10 0.16 0.27 0.41 0.32 0.31 0.34 0.34 0.30 0.24 0.23 0.17 0.17 0.16 0.14 0.13 0.11 0.08 0.12 0.08 0.09 0.13 0.11 0.08 0.06 0.09 0.11 0.13 0.16 0.18 0.15 0.17 0.21 0.19 0.26 0.25 0.21 0.22
0.26 0.21 0.09 0.07 0.10 0.15 0.14 0.11 0.10 0.12 0.11 0.16 0.16 0.13 0.19 0.17 0.17 0.33 0.38 0.36 0.33 0.32 0.26 0.25 0.21 0.20 0.20 0.17 0.16 0.17 0.15 0.11 0.10 0.09 0.06 0.05 0.06 0.09 0.15 0.22 0.22 0.18 0.09 0.11 0.15 0.18 0.21 0.22 0.22 0.21 0.24 0.29 0.30 0.30
0.14 0.12 0.14 0.23 0.29 0.26 0.28 0.23 0.23 0.26 0.33 0.36 0.24 0.19 0.21 0.20 0.38 0.52 0.46 0.43 0.42 0.24 0.18 0.14 0.10 0.10 0.09 0.11 0.18 0.24 0.26 0.23 0.19 0.19 0.18 0.20 0.23 0.24 0.25 0.24 0.21 0.17 0.16 0.17 0.19 0.20 0.24 0.26 0.25 0.23 0.23 0.27 0.35 0.35
0.20 0.25 0.24 0.27 0.27 0.25 0.28 0.30 0.31 0.26 0.24 0.27 0.30 0.30 0.22 0.28 0.48 0.45 0.38 0.35 0.28 0.17 0.17 0.16 0.24 0.16 0.15 0.16 0.21 0.25 0.27 0.28 0.29 0.27 0.22 0.25 0.36 0.37 0.31 0.25 0.22 0.20 0.20 0.19 0.19 0.22 0.23 0.25 0.22 0.24 0.30 0.31 0.30 0.30
0.18 0.18 0.19 0.15 0.17 0.21 0.29 0.21 0.22 0.18 0.11 0.13 0.14 0.17 0.19 0.46 0.68 0.44 0.31 0.28 0.28 0.27 0.25 0.21 0.21 0.18 0.20 0.17 0.19 0.24 0.28 0.24 0.26 0.33 0.32 0.28 0.31 0.29 0.22 0.20 0.20 0.21 0.21 0.18 0.18 0.18 0.16 0.13 0.14 0.21 0.16 0.15 0.19 0.22
0.20 0.23 0.22 0.18 0.25 0.27 0.25 0.19 0.18 0.15 0.15 0.14 0.13 0.16 0.33 0.46 0.52 0.44 0.34 0.41 0.34 0.22 0.22 0.22 0.20 0.22 0.26 0.26 0.22 0.18 0.22 0.19 0.17 0.18 0.18 0.19 0.22 0.19 0.18 0.16 0.14 0.16 0.15 0.14 0.13 0.12 0.12 0.11 0.13 0.14 0.10 0.10 0.13 0.12
0.29 0.31 0.26 0.26 0.33 0.27 0.31 0.31 0.24 0.24 0.23 0.18 0.25 0.22 0.30 0.30 0.33 0.39 0.42 0.39 0.38 0.28 0.30 0.31 0.29 0.33 0.33 0.32 0.29 0.25 0.20 0.18 0.16 0.17 0.17 0.17 0.18 0.19 0.14 0.11 0.11 0.12 0.12 0.11 0.12 0.13 0.12 0.11 0.12 0.11 0.11 0.10 0.10 0.10
0.19 0.18 0.19 0.21 0.22 0.26 0.28 0.25 0.18 0.19 0.19 0.22 0.32 0.33 0.35 0.31 0.34 0.39 0.34 0.41 0.50 0.40 0.35 0.35 0.38 0.40 0.35 0.30 0.29 0.30 0.28 0.27 0.23 0.22 0.19 0.17 0.16 0.14 0.13 0.12 0.10 0.10 0.09 0.10 0.12 0.13 0.10 0.09 0.09 0.09 0.08 0.07 0.07 0.07

GFSWCAN_prec_precacc_174.txt.gz
Total_Precipitation_Accumulation
1.94 1.77 1.62 1.63 1.45 1.28 1.09 1.14 1.28 1.29 1.29 1.08 1.04 1.23 1.42 1.65 1.88 2.52 2.21 1.63 2.84 2.51 0.74 0.40 0.36 0.39 0.33 0.52 0.86 0.63 1.11 0.88 1.08 0.96 0.58 0.32 0.25 0.24 0.31 0.26 0.32 0.39 0.76 0.77 0.83 0.96 0.43 0.05 0.19 0.39 0.41 0.16 0.10 0.10
2.16 1.78 1.57 1.57 1.47 1.37 1.11 1.10 1.11 1.21 1.23 1.02 0.91 1.07 1.26 1.62 2.15 2.94 3.05 1.71 2.30 2.81 1.49 0.61 0.33 0.29 0.21 0.30 0.81 1.08 0.88 0.84 0.73 0.75 0.53 0.48 0.45 0.36 0.28 0.59 0.36 0.56 0.37 0.61 0.58 0.47 0.41 0.28 0.32 0.35 0.18 0.19 0.17 0.11
2.38 1.75 1.41 1.41 1.32 1.15 1.08 1.01 0.96 1.11 1.11 0.99 1.05 1.14 1.37 1.48 2.04 3.69 3.17 1.89 4.24 3.95 1.76 0.68 0.43 0.21 0.24 0.21 0.46 1.09 0.71 0.85 1.01 0.77 0.87 0.74 0.52 0.29 0.32 0.33 0.47 0.73 0.69 0.71 0.81 0.76 0.57 0.61 0.38 0.13 0.13 0.25 0.25 0.17
2.39 1.85 1.38 1.42 1.30 1.04 1.10 1.07 0.87 1.03 1.13 1.05 1.19 1.41 1.42 1.61 2.10 3.66 3.31 2.12 3.82 3.12 2.24 0.86 0.33 0.36 0.31 0.24 0.24 0.33 0.40 0.49 0.69 1.00 1.01 0.84 0.54 0.27 0.28 0.43 0.54 0.51 0.80 1.07 1.32 1.06 0.82 0.88 0.81 0.62 0.41 0.19 0.16 0.19
2.37 1.89 1.54 1.46 1.33 1.06 1.02 0.93 0.81 0.95 1.08 1.16 1.23 1.31 1.71 2.00 2.82 3.72 2.87 2.02 2.26 2.63 2.39 1.21 0.37 0.34 0.38 0.41 0.30 0.38 0.49 0.57 0.79 1.18 1.19 0.59 0.35 0.32 0.29 0.54 0.42 0.19 0.52 1.02 1.59 1.23 0.99 0.97 0.52 0.37 0.33 0.29 0.16 0.09
2.32 1.95 1.88 1.65 1.37 1.03 0.94 0.85 0.83 0.98 0.98 1.19 1.22 1.60 2.08 2.76 4.22 5.60 7.05 3.83 1.86 2.43 2.74 1.76 0.93 0.39 0.48 0.60 0.57 0.55 0.62 0.94 1.15 1.12 0.92 0.62 0.39 0.86 0.86 0.74 0.36 0.19 0.27 0.45 0.74 1.03 0.96 0.75 0.48 0.28 0.20 0.10 0.04 0.07
2.22 2.03 2.10 1.93 1.79 1.40 1.08 0.90 0.89 0.96 1.05 1.38 1.64 1.95 2.56 3.65 3.61 3.18 3.16 1.87 1.27 2.37 3.38 1.93 1.35 0.51 0.47 0.89 1.11 1.04 1.09 1.23 1.12 1.11 0.71 0.40 0.44 0.93 1.27 0.85 0.47 0.30 0.32 0.40 0.41 0.48 0.37 0.23 0.16 0.07 0.03 0.02 0.02 0.02
1.93 1.74 1.52 1.39 1.41 1.41 1.20 1.19 1.08 1.14 1.50 1.80 2.36 2.81 3.67 4.10 3.83 2.51 1.15 1.12 1.50 2.55 1.94 1.56 1.47 1.33 0.89 1.04 1.42 1.24 1.42 1.36 1.41 1.15 0.69 0.48 0.61 0.87 0.95 0.28 0.07 0.11 0.15 0.19 0.22 0.19 0.20 0.14 0.05 0.03 0.02 0.03 0.04 0.07
1.70 1.47 1.27 1.14 1.08 1.17 1.20 1.23 1.34 1.94 2.17 2.68 3.40 4.85 5.87 5.21 4.39 2.19 1.68 1.78 2.07 2.58 1.74 0.80 1.14 1.80 1.44 1.20 1.23 1.45 1.27 1.55 1.09 0.79 0.45 0.80 0.92 1.03 0.50 0.08 0.03 0.02 0.02 0.02 0.03 0.06 0.09 0.10 0.07 0.04 0.04 0.06 0.13 0.30
1.35 1.13 0.95 1.01 1.06 1.14 1.16 1.43 2.03 2.61 2.92 3.60 4.68 6.13 6.51 3.44 2.04 2.56 4.41 4.33 3.91 2.46 1.09 0.65 0.70 1.65 1.90 1.78 1.26 1.58 1.56 1.23 1.18 0.57 0.62 0.78 0.78 0.51 0.16 0.05 0.02 0.01 0.01 0.01 0.02 0.03 0.05 0.10 0.13 0.16 0.23 0.29 0.31 0.27
1.18 0.92 0.78 0.80 0.86 0.92 1.00 1.35 1.82 2.43 3.53 4.46 5.04 5.01 3.78 2.87 2.78 3.62 3.99 3.03 2.21 1.22 0.47 0.45 0.52 1.12 1.57 1.65 1.32 1.37 1.68 1.35 1.00 0.90 0.98 1.00 0.55 0.33 0.19 0.11 0.04 0.03 0.03 0.02 0.03 0.04 0.08 0.16 0.34 0.40 0.33 0.24 0.18 0.14
1.16 0.78 0.68 0.72 0.78 0.89 0.94 1.07 1.49 2.05 2.91 3.20 3.59 3.95 4.46 3.97 3.30 3.10 2.47 1.51 0.70 0.50 0.29 0.32 0.38 0.64 1.50 1.78 1.72 1.61 1.78 1.82 1.27 1.20 1.34 0.91 0.53 0.18 0.13 0.14 0.12 0.09 0.08 0.08 0.12 0.19 0.23 0.26 0.24 0.19 0.16 0.18 0.22 0.26
1.21 0.92 0.86 0.80 0.82 0.92 0.91 1.08 1.21 1.54 2.43 3.07 3.23 3.58 3.70 3.22 2.78 1.88 1.14 0.63 0.45 0.54 0.26 0.39 0.44 0.69 1.04 1.60 2.12 1.40 1.66 1.81 1.30 1.55 1.11 0.61 0.40 0.29 0.44 0.56 0.36 0.33 0.30 0.29 0.21 0.17 0.15 0.13 0.10 0.11 0.15 0.21 0.24 0.33
1.00 0.72 0.75 0.75 0.85 1.08 1.11 1.31 1.53 2.28 2.45 2.67 2.73 2.68 2.42 2.01 1.38 0.99 0.64 0.44 0.41 0.38 0.35 0.71 0.47 0.61 0.80 1.22 1.78 1.57 1.60 1.35 1.56 0.92 0.65 0.65 0.74 0.71 0.47 0.39 0.33 0.41 0.43 0.43 0.44 0.41 0.41 0.41 0.48 0.55 0.62 0.73 0.68 0.88
0.82 0.70 0.73 0.81 0.90 0.96 1.27 1.47 1.46 1.65 1.82 1.72 1.53 1.50 1.18 1.26 1.02 0.85 0.72 0.60 0.56 0.55 0.71 1.07 1.20 1.18 1.30 1.38 1.19 0.99 0.96 0.84 0.67 0.74 0.75 0.72 0.77 0.60 0.49 0.51 0.54 0.60 0.62 0.61 0.62 0.62 0.72 0.75 0.68 0.85 0.98 0.93 0.78 0.79
1.14 1.12 0.97 0.90 0.93 0.96 1.08 1.17 1.25 1.31 1.01 0.86 0.88 1.11 1.04 0.93 0.92 0.83 0.84 0.85 0.80 0.94 1.17 1.49 1.60 1.31 1.33 0.83 0.64 0.56 0.54 0.63 0.76 0.63 0.51 0.49 0.53 0.58 0.64 0.67 0.78 0.78 0.68 0.63 0.64 0.60 0.60 0.62 0.57 0.63 0.68 0.65 0.67 0.55
1.26 1.09 1.14 0.88 0.83 0.83 0.79 0.71 0.82 0.86 0.75 0.61 0.94 1.01 0.95 0.87 0.92 0.93 0.85 0.81 0.81 0.85 1.15 1.16 0.89 0.77 0.69 0.55 0.54 0.55 0.71 0.71 0.60 0.66 0.72 0.67 0.70 0.76 0.74 0.78 0.82 0.78 0.70 0.64 0.60 0.58 0.61 0.61 0.45 0.31 0.40 0.57 0.45 0.42
1.31 0.79 0.65 0.60 0.59 0.60 0.60 0.48 0.36 0.28 0.43 0.76 0.84 1.14 0.83 0.94 0.93 0.85 0.79 0.63 0.68 0.70 0.67 0.83 0.63 0.52 0.57 0.60 0.70 0.73 0.75 0.75 0.78 0.80 0.81 0.83 0.79 0.80 0.81 0.82 0.84 0.75 0.65 0.61 0.53 0.53 0.54 0.49 0.38 0.44 0.39 0.38 0.26 0.25
1.30 0.85 0.62 0.60 0.41 0.31 0.32 0.21 0.10 0.29 0.60 0.68 0.80 0.69 0.55 0.67 0.66 0.63 0.45 0.40 0.53 0.56 0.83 0.58 0.51 0.58 0.70 0.77 0.89 0.86 0.82 0.78 0.82 0.79 0.76 0.78 0.77 0.78 0.81 0.78 0.71 0.65 0.50 0.50 0.42 0.40 0.42 0.38 0.37 0.32 0.27 0.18 0.17 0.17
1.21 0.92 0.66 0.40 0.18 0.19 0.17 0.09 0.02 0.14 0.39 0.47 0.42 0.28 0.26 0.38 0.31 0.23 0.20 0.17 0.25 0.55 0.80 0.59 0.79 0.93 0.91 0.96 0.87 0.80 0.82 0.75 0.49 0.46 0.64 0.75 0.82 0.66 0.72 0.67 0.62 0.56 0.43 0.39 0.36 0.34 0.26 0.20 0.19 0.18 0.16 0.17 0.16 0.18
1.16 1.08 0.81 0.47 0.23 0.21 0.19 0.05 0.08 0.09 0.17 0.29 0.23 0.09 0.15 0.11 0.16 0.16 0.20 0.13 0.36 0.56 0.78 0.83 0.84 0.94 0.81 0.78 0.65 0.53 0.53 0.43 0.39 0.35 0.43 0.56 0.68 0.52 0.54 0.57 0.53 0.49 0.42 0.39 0.28 0.28 0.21 0.22 0.23 0.18 0.17 0.15 0.15 0.15
0.77 0.86 0.87 0.56 0.36 0.14 0.16 0.04 0.06 0.05 0.04 0.10 0.08 0.06 0.14 0.20 0.18 0.14 0.08 0.13 0.45 0.66 0.71 0.67 0.70 0.59 0.45 0.48 0.56 0.54 0.61 0.46 0.38 0.34 0.35 0.33 0.40 0.41 0.47 0.54 0.43 0.44 0.42 0.41 0.32 0.26 0.20 0.16 0.12 0.12 0.11 0.12 0.12 0.12
0.39 0.49 0.53 0.49 0.37 0.16 0.21 0.11 0.07 0.03 0.06 0.08 0.08 0.06 0.07 0.09 0.12 0.06 0.12 0.23 0.52 0.64 0.45 0.34 0.34 0.28 0.27 0.35 0.22 0.22 0.27 0.26 0.34 0.41 0.41 0.35 0.34 0.36 0.33 0.38 0.40 0.42 0.42 0.44 0.36 0.33 0.28 0.21 0.15 0.11 0.10 0.10 0.12 0.16
0.35 0.52 0.56 0.44 0.26 0.19 0.14 0.23 0.14 0.07 0.05 0.06 0.08 0.09 0.09 0.08 0.08 0.07 0.15 0.28 0.47 0.34 0.23 0.24 0.23 0.20 0.15 0.11 0.12 0.16 0.18 0.13 0.15 0.19 0.24 0.17 0.17 0.24 0.20 0.20 0.22 0.26 0.27 0.28 0.28 0.31 0.30 0.27 0.21 0.21 0.18 0.16 0.19 0.21
0.53 0.44 0.42 0.31 0.16 0.09 0.07 0.13 0.19 0.08 0.06 0.05 0.09 0.10 0.08 0.05 0.08 0.09 0.14 0.37 0.30 0.30 0.28 0.26 0.19 0.17 0.19 0.22 0.20 0.17 0.14 0.12 0.10 0.09 0.16 0.14 0.14 0.13 0.12 0.10 0.11 0.13 0.13 0.16 0.19 0.21 0.25 0.24 0.27 0.28 0.24 0.23 0.25 0.27
0.48 0.31 0.20 0.14 0.07 0.08 0.06 0.07 0.07 0.06 0.06 0.10 0.13 0.13 0.09 0.10 0.10 0.16 0.28 0.43 0.33 0.32 0.34 0.34 0.30 0.24 0.23 0.17 0.17 0.16 0.14 0.13 0.12 0.09 0.12 0.08 0.09 0.13 0.12 0.09 0.07 0.09 0.11 0.15 0.19 0.20 0.18 0.20 0.24 0.22 0.29 0.28 0.24 0.25
0.26 0.21 0.09 0.07 0.10 0.15 0.14 0.11 0.10 0.12 0.11 0.16 0.16 0.13 0.20 0.18 0.17 0.34 0.45 0.40 0.35 0.32 0.26 0.25 0.21 0.21 0.20 0.17 0.16 0.17 0.15 0.11 0.10 0.10 0.07 0.06 0.07 0.10 0.16 0.23 0.23 0.19 0.09 0.11 0.16 0.20 0.24 0.25 0.25 0.23 0.26 0.31 0.32 0.32
0.14 0.12 0.14 0.23 0.29 0.26 0.28 0.23 0.23 0.26 0.33 0.37 0.25 0.20 0.22 0.20 0.40 0.57 0.49 0.44 0.43 0.24 0.18 0.14 0.11 0.11 0.09 0.11 0.18 0.24 0.26 0.23 0.19 0.19 0.19 0.21 0.25 0.27 0.27 0.26 0.23 0.17 0.16 0.18 0.20 0.22 0.27 0.29 0.28 0.26 0.26 0.29 0.37 0.37
0.20 0.25 0.24 0.27 0.27 0.25 0.28 0.30 0.31 0.26 0.25 0.27 0.30 0.31 0.23 0.28 0.50 0.46 0.39 0.35 0.28 0.17 0.17 0.17 0.24 0.16 0.15 0.16 0.21 0.25 0.27 0.28 0.30 0.28 0.23 0.26 0.38 0.39 0.33 0.27 0.25 0.22 0.23 0.22 0.24 0.27 0.29 0.31 0.28 0.28 0.34 0.34 0.32 0.31
0.18 0.18 0.19 0.15 0.17 0.21 0.29 0.21 0.22 0.18 0.11 0.13 0.14 0.17 0.20 0.47 0.69 0.45 0.31 0.28 0.28 0.28 0.26 0.22 0.22 0.18 0.21 0.17 0.19 0.24 0.28 0.24 0.27 0.35 0.33 0.30 0.33 0.31 0.24 0.23 0.24 0.25 0.25 0.22 0.23 0.23 0.22 0.20 0.21 0.28 0.22 0.19 0.22 0.25
0.20 0.23 0.22 0.18 0.25 0.27 0.25 0.19 0.18 0.16 0.16 0.15 0.14 0.17 0.34 0.48 0.54 0.46 0.36 0.42 0.34 0.22 0.22 0.22 0.21 0.22 0.26 0.26 0.23 0.19 0.22 0.20 0.18 0.19 0.19 0.21 0.23 0.21 0.20 0.18 0.17 0.20 0.20 0.19 0.18 0.17 0.17 0.17 0.19 0.19 0.16 0.14 0.16 0.15
0.29 0.31 0.28 0.28 0.33 0.27 0.31 0.31 0.24 0.25 0.24 0.18 0.26 0.23 0.32 0.32 0.37 0.42 0.43 0.39 0.38 0.28 0.30 0.31 0.29 0.33 0.33 0.33 0.30 0.28 0.23 0.21 0.19 0.20 0.19 0.19 0.19 0.20 0.16 0.13 0.13 0.15 0.15 0.15 0.16 0.18 0.17 0.16 0.16 0.15 0.15 0.13 0.13 0.12
0.19 0.18 0.20 0.21 0.22 0.26 0.28 0.25 0.19 0.19 0.20 0.22 0.34 0.34 0.37 0.33 0.36 0.40 0.35 0.41 0.51 0.40 0.35 0.35 0.38 0.40 0.36 0.30 0.30 0.32 0.31 0.31 0.27 0.24 0.21 0.19 0.18 0.17 0.16 0.14 0.12 0.11 0.11 0.12 0.15 0.16 0.13 0.12 0.11 0.11 0.09 0.09 0.08 0.08

GFSWCAN_prec_precacc_180.txt.gz
Total_Precipitation_Accumulation
1.94 1.77 1.62 1.63 1.45 1.28 1.09 1.14 1.28 1.29 1.29 1.08 1.04 1.23 1.42 1.65 1.88 2.54 2.22 1.67 2.99 2.66 0.77 0.43 0.40 0.44 0.38 0.60 0.95 0.77 1.20 1.00 1.31 1.23 0.79 0.45 0.33 0.30 0.34 0.28 0.33 0.43 0.87 0.91 0.97 1.13 0.54 0.10 0.21 0.43 0.42 0.16 0.10 0.11
2.16 1.78 1.57 1.57 1.47 1.37 1.11 1.11 1.11 1.22 1.23 1.03 0.91 1.07 1.26 1.63 2.15 2.99 3.10 1.72 2.39 2.99 1.53 0.63 0.35 0.31 0.23 0.32 0.87 1.16 0.97 0.95 1.05 1.14 0.90 0.76 0.65 0.51 0.40 0.69 0.40 0.58 0.39 0.64 0.63 0.54 0.47 0.31 0.33 0.35 0.18 0.19 0.17 0.11
2.40 1.77 1.41 1.41 1.33 1.16 1.08 1.02 0.97 1.11 1.12 1.00 1.06 1.14 1.38 1.48 2.04 3.76 3.28 1.98 4.40 4.09 1.81 0.69 0.43 0.21 0.24 0.21 0.47 1.13 0.72 0.87 1.11 1.09 1.22 1.03 0.74 0.42 0.47 0.40 0.53 0.79 0.73 0.74 0.82 0.76 0.57 0.62 0.38 0.14 0.13 0.25 0.25 0.17
2.42 1.89 1.42 1.47 1.35 1.08 1.14 1.09 0.88 1.04 1.14 1.06 1.21 1.42 1.43 1.62 2.12 3.75 3.46 2.24 3.98 3.29 2.36 0.87 0.33 0.36 0.31 0.25 0.24 0.33 0.40 0.50 0.73 1.12 1.24 1.03 0.67 0.38 0.47 0.55 0.67 0.67 0.86 1.09 1.35 1.06 0.83 0.88 0.81 0.62 0.41 0.19 0.17 0.20
2.40 1.92 1.59 1.54 1.43 1.17 1.13 1.03 0.88 0.97 1.09 1.17 1.24 1.32 1.71 2.02 2.87 3.81 2.99 2.13 2.38 2.83 2.55 1.24 0.38 0.34 0.38 0.42 0.31 0.40 0.51 0.60 0.84 1.25 1.30 0.67 0.40 0.40 0.33 0.57 0.44 0.19 0.53 1.04 1.61 1.23 1.01 0.97 0.52 0.37 0.33 0.29 0.16 0.09
2.33 1.96 1.90 1.72 1.53 1.26 1.16 1.04 0.98 1.06 1.00 1.20 1.23 1.60 2.08 2.79 4.27 5.71 7.17 3.88 1.93 2.56 2.95 1.80 0.93 0.39 0.48 0.62 0.60 0.58 0.67 1.04 1.27 1.22 1.00 0.70 0.44 1.02 1.02 0.78 0.37 0.19 0.27 0.45 0.74 1.03 0.96 0.75 0.48 0.28 0.20 0.10 0.04 0.07
2.23 2.04 2.11 1.95 1.85 1.63 1.48 1.23 1.14 1.09 1.08 1.40 1.67 1.97 2.58 3.71 3.67 3.24 3.26 2.00 1.38 2.50 3.54 1.99 1.36 0.56 0.49 0.90 1.13 1.10 1.21 1.41 1.26 1.25 0.81 0.46 0.50 1.10 1.40 0.87 0.47 0.30 0.32 0.40 0.41 0.48 0.37 0.23 0.16 0.07 0.03 0.02 0.02 0.02
1.94 1.75 1.53 1.40 1.42 1.54 1.59 1.53 1.30 1.21 1.52 1.83 2.39 2.84 3.71 4.18 3.93 2.57 1.20 1.17 1.61 2.70 2.04 1.64 1.48 1.35 0.96 1.11 1.49 1.42 1.72 1.61 1.65 1.34 0.79 0.52 0.65 0.94 1.02 0.28 0.07 0.11 0.15 0.19 0.22 0.19 0.20 0.14 0.05 0.03 0.02 0.03 0.04 0.07
1.70 1.48 1.30 1.17 1.16 1.32 1.34 1.30 1.37 1.95 2.19 2.71 3.43 4.90 5.94 5.30 4.51 2.26 1.71 1.88 2.19 2.75 1.92 0.84 1.15 1.85 1.53 1.33 1.42 1.69 1.65 1.82 1.30 0.89 0.53 0.91 1.00 1.04 0.50 0.08 0.03 0.02 0.02 0.02 0.03 0.06 0.09 0.10 0.07 0.04 0.04 0.06 0.13 0.30
1.35 1.13 0.96 1.02 1.07 1.15 1.18 1.44 2.03 2.62 2.93 3.63 4.72 6.22 6.58 3.53 2.08 2.62 4.46 4.42 4.01 2.51 1.14 0.67 0.71 1.68 1.99 1.99 1.60 1.84 1.67 1.37 1.23 0.60 0.64 0.80 0.78 0.51 0.16 0.05 0.03 0.03 0.04 0.05 0.06 0.04 0.05 0.10 0.13 0.16 0.23 0.29 0.31 0.27
1.18 0.92 0.78 0.81 0.87 0.92 1.00 1.35 1.82 2.44 3.55 4.51 5.11 5.13 3.94 2.91 2.83 3.71 4.06 3.09 2.24 1.25 0.48 0.45 0.53 1.18 1.67 1.84 1.56 1.44 1.69 1.36 1.01 0.92 1.00 1.01 0.55 0.34 0.20 0.12 0.06 0.05 0.07 0.08 0.09 0.11 0.11 0.17 0.35 0.41 0.33 0.24 0.18 0.14
1.16 0.78 0.68 0.72 0.78 0.89 0.94 1.08 1.49 2.07 2.95 3.26 3.66 4.03 4.55 4.02 3.35 3.18 2.55 1.57 0.75 0.54 0.32 0.33 0.40 0.66 1.57 1.86 1.86 1.65 1.79 1.83 1.28 1.25 1.39 0.92 0.57 0.23 0.14 0.15 0.21 0.18 0.12 0.11 0.16 0.28 0.32 0.33 0.29 0.22 0.17 0.18 0.22 0.26
1.21 0.92 0.86 0.80 0.82 0.92 0.91 1.09 1.22 1.59 2.47 3.11 3.28 3.64 3.82 3.33 2.88 1.97 1.30 0.82 0.60 0.63 0.32 0.42 0.48 0.74 1.10 1.66 2.19 1.41 1.66 1.82 1.33 1.57 1.12 0.65 0.50 0.32 0.44 0.78 0.74 0.48 0.31 0.29 0.21 0.17 0.16 0.14 0.11 0.11 0.15 0.21 0.24 0.33
1.00 0.72 0.75 0.75 0.85 1.08 1.11 1.31 1.53 2.29 2.50 2.74 2.79 2.79 2.60 2.29 1.57 1.17 0.78 0.69 0.54 0.41 0.36 0.73 0.53 0.66 0.83 1.25 1.80 1.58 1.61 1.37 1.58 0.94 0.72 0.77 0.77 0.71 0.47 0.41 0.35 0.42 0.43 0.43 0.44 0.41 0.41 0.42 0.49 0.55 0.62 0.73 0.68 0.88
0.82 0.71 0.73 0.82 0.90 0.96 1.28 1.48 1.46 1.69 1.87 1.78 1.66 1.68 1.35 1.35 1.06 0.86 0.73 0.63 0.57 0.55 0.71 1.09 1.22 1.20 1.30 1.39 1.19 1.00 0.99 0.86 0.68 0.78 0.87 0.75 0.77 0.60 0.49 0.51 0.54 0.60 0.62 0.61 0.62 0.62 0.72 0.75 0.69 0.88 1.05 0.94 0.78 0.79
1.14 1.12 0.97 0.90 0.93 0.97 1.08 1.20 1.30 1.39 1.05 0.91 0.92 1.12 1.05 0.94 0.93 0.84 0.86 0.88 0.83 0.96 1.20 1.55 1.67 1.33 1.35 0.84 0.65 0.57 0.55 0.64 0.84 0.74 0.54 0.49 0.53 0.58 0.64 0.67 0.78 0.78 0.68 0.63 0.64 0.60 0.60 0.62 0.57 0.64 0.78 0.74 0.67 0.55
1.26 1.12 1.14 0.88 0.83 0.83 0.79 0.74 0.91 0.94 0.77 0.62 0.94 1.01 0.96 0.88 0.93 0.95 0.86 0.83 0.83 0.90 1.20 1.25 0.96 0.82 0.77 0.64 0.60 0.62 0.79 0.79 0.63 0.68 0.73 0.68 0.71 0.77 0.75 0.78 0.82 0.78 0.70 0.64 0.60 0.58 0.61 0.61 0.45 0.31 0.40 0.57 0.45 0.42
1.33 0.81 0.65 0.60 0.59 0.61 0.62 0.49 0.39 0.30 0.44 0.76 0.84 1.14 0.84 0.94 0.94 0.85 0.80 0.64 0.70 0.74 0.72 0.91 0.69 0.56 0.61 0.64 0.80 0.88 0.82 0.77 0.79 0.81 0.82 0.84 0.80 0.81 0.81 0.82 0.84 0.75 0.65 0.61 0.53 0.53 0.54 0.49 0.38 0.44 0.39 0.38 0.26 0.25
1.30 0.85 0.62 0.60 0.41 0.33 0.35 0.23 0.12 0.31 0.61 0.69 0.80 0.70 0.55 0.68 0.66 0.63 0.46 0.41 0.54 0.59 0.86 0.62 0.55 0.60 0.73 0.88 0.97 0.91 0.91 0.87 0.88 0.82 0.77 0.78 0.78 0.78 0.81 0.78 0.71 0.65 0.50 0.50 0.42 0.40 0.42 0.38 0.37 0.32 0.27 0.18 0.17 0.17
1.21 0.92 0.66 0.40 0.18 0.21 0.21 0.13 0.04 0.17 0.41 0.50 0.42 0.29 0.26 0.39 0.31 0.23 0.20 0.19 0.30 0.63 0.86 0.62 0.82 0.99 1.01 1.03 0.89 0.81 0.84 0.76 0.51 0.48 0.66 0.78 0.83 0.66 0.72 0.67 0.62 0.56 0.43 0.39 0.36 0.34 0.26 0.20 0.19 0.18 0.16 0.17 0.16 0.18
1.16 1.08 0.81 0.47 0.23 0.21 0.20 0.06 0.10 0.11 0.18 0.29 0.24 0.09 0.16 0.13 0.17 0.17 0.21 0.14 0.45 0.65 0.82 0.91 0.92 1.00 0.85 0.82 0.67 0.55 0.54 0.44 0.40 0.37 0.45 0.57 0.68 0.52 0.54 0.57 0.53 0.50 0.42 0.40 0.29 0.28 0.22 0.23 0.23 0.18 0.17 0.16 0.15 0.15
0.77 0.86 0.87 0.56 0.36 0.14 0.17 0.05 0.06 0.05 0.04 0.10 0.08 0.07 0.15 0.22 0.20 0.15 0.10 0.15 0.48 0.71 0.77 0.73 0.76 0.62 0.47 0.50 0.57 0.55 0.62 0.47 0.38 0.35 0.37 0.35 0.41 0.42 0.48 0.55 0.43 0.45 0.43 0.42 0.32 0.27 0.21 0.16 0.13 0.12 0.11 0.12 0.12 0.12
0.39 0.49 0.53 0.49 0.37 0.16 0.21 0.11 0.07 0.03 0.06 0.08 0.08 0.06 0.07 0.10 0.15 0.08 0.13 0.25 0.55 0.65 0.46 0.35 0.35 0.28 0.28 0.36 0.23 0.23 0.28 0.27 0.35 0.43 0.43 0.37 0.36 0.37 0.34 0.40 0.42 0.44 0.43 0.44 0.37 0.34 0.29 0.23 0.16 0.12 0.11 0.10 0.13 0.16
0.35 0.52 0.56 0.44 0.26 0.19 0.14 0.23 0.14 0.07 0.05 0.06 0.08 0.09 0.09 0.08 0.09 0.08 0.16 0.33 0.52 0.36 0.25 0.25 0.23 0.20 0.16 0.12 0.13 0.16 0.19 0.13 0.16 0.20 0.25 0.19 0.19 0.25 0.21 0.22 0.23 0.27 0.28 0.28 0.29 0.32 0.31 0.30 0.27 0.27 0.23 0.21 0.24 0.25
0.53 0.44 0.42 0.31 0.16 0.09 0.07 0.13 0.19 0.08 0.06 0.05 0.09 0.10 0.09 0.06 0.10 0.11 0.15 0.44 0.44 0.44 0.33 0.27 0.20 0.18 0.19 0.23 0.20 0.17 0.14 0.12 0.10 0.10 0.16 0.15 0.16 0.15 0.13 0.11 0.12 0.13 0.13 0.16 0.20 0.23 0.27 0.28 0.33 0.35 0.33 0.34 0.35 0.38
0.48 0.31 0.20 0.14 0.07 0.08 0.06 0.07 0.08 0.07 0.06 0.11 0.14 0.14 0.10 0.13 0.12 0.18 0.35 0.55 0.45 0.38 0.36 0.35 0.31 0.25 0.24 0.17 0.17 0.17 0.14 0.14 0.12 0.09 0.12 0.09 0.11 0.16 0.15 0.11 0.09 0.11 0.13 0.17 0.20 0.22 0.21 0.24 0.30 0.29 0.36 0.36 0.33 0.35
0.26 0.21 0.09 0.07 0.10 0.15 0.15 0.11 0.11 0.13 0.14 0.19 0.19 0.16 0.23 0.21 0.22 0.47 0.57 0.44 0.36 0.34 0.27 0.26 0.23 0.22 0.22 0.17 0.16 0.18 0.16 0.12 0.12 0.12 0.08 0.06 0.08 0.11 0.19 0.29 0.28 0.23 0.12 0.14 0.18 0.23 0.29 0.32 0.33 0.32 0.36 0.41 0.42 0.42
0.14 0.12 0.14 0.23 0.29 0.26 0.29 0.24 0.25 0.28 0.38 0.42 0.27 0.25 0.28 0.28 0.52 0.68 0.54 0.46 0.44 0.25 0.18 0.15 0.12 0.12 0.10 0.12 0.19 0.25 0.28 0.24 0.20 0.20 0.20 0.22 0.26 0.30 0.33 0.32 0.27 0.20 0.18 0.21 0.24 0.28 0.34 0.39 0.39 0.38 0.37 0.41 0.49 0.49
0.20 0.25 0.24 0.27 0.27 0.25 0.30 0.32 0.34 0.32 0.34 0.33 0.37 0.37 0.31 0.36 0.55 0.49 0.41 0.36 0.29 0.18 0.17 0.17 0.25 0.17 0.16 0.16 0.21 0.26 0.29 0.30 0.34 0.31 0.25 0.28 0.40 0.48 0.36 0.30 0.27 0.25 0.26 0.26 0.28 0.31 0.36 0.40 0.39 0.40 0.47 0.44 0.41 0.40
0.18 0.18 0.20 0.17 0.19 0.23 0.34 0.27 0.26 0.20 0.12 0.14 0.17 0.19 0.25 0.62 0.77 0.48 0.33 0.29 0.29 0.29 0.26 0.23 0.23 0.19 0.22 0.18 0.20 0.24 0.28 0.25 0.34 0.45 0.41 0.33 0.36 0.33 0.27 0.27 0.28 0.29 0.29 0.28 0.29 0.29 0.29 0.29 0.32 0.41 0.33 0.29 0.31 0.34
0.21 0.25 0.24 0.20 0.28 0.30 0.29 0.20 0.19 0.16 0.18 0.17 0.15 0.19 0.43 0.57 0.61 0.48 0.37 0.43 0.35 0.23 0.22 0.23 0.21 0.23 0.27 0.28 0.26 0.22 0.24 0.21 0.20 0.21 0.26 0.27 0.28 0.26 0.25 0.21 0.21 0.24 0.25 0.24 0.23 0.23 0.24 0.26 0.30 0.30 0.25 0.24 0.25 0.24
0.30 0.33 0.30 0.30 0.34 0.28 0.32 0.33 0.25 0.26 0.26 0.21 0.32 0.30 0.39 0.43 0.45 0.44 0.44 0.40 0.38 0.29 0.30 0.32 0.30 0.34 0.34 0.35 0.32 0.32 0.29 0.24 0.22 0.25 0.24 0.23 0.23 0.24 0.19 0.16 0.17 0.20 0.21 0.20 0.21 0.23 0.23 0.23 0.26 0.25 0.25 0.22 0.23 0.21
0.20 0.19 0.22 0.23 0.24 0.27 0.30 0.27 0.20 0.21 0.22 0.28 0.44 0.39 0.46 0.45 0.40 0.44 0.37 0.42 0.52 0.42 0.37 0.37 0.39 0.41 0.37 0.32 0.33 0.35 0.34 0.34 0.31 0.29 0.25 0.22 0.21 0.20 0.20 0.20 0.18 0.18 0.17 0.18 0.20 0.20 0.18 0.17 0.18 0.19 0.17 0.16 0.15 0.15